<?xml version="1.0" encoding="UTF-8" standalone="no" ?>
<gpx xmlns="http://www.topografix.com/GPX/1/1" xmlns:xsi="http://www.w3.org/2001/XMLSchema-instance" xsi:schemaLocation="http://www.topografix.com/GPX/1/1 http://www.topografix.com/GPX/1/1/gpx.xsd" version="1.1" creator="VisuGPX - https://www.visugpx.com">
  <metadata>
    <name>2015-05-06 De la Bauche à la Plagne par la Cochette</name>
    <desc><![CDATA[Le sentier de Côte Barrier à la Cochette est très exposé]]></desc>
  </metadata>
  <trk>
    <name><![CDATA[ghjkkhf]]></name>
    <trkseg>
      <trkpt lat="45.47671" lon="5.76486">
        <ele>571</ele>
        <time>2015-05-06T09:08:30Z</time>
      </trkpt>
      <trkpt lat="45.47668" lon="5.76487">
        <ele>571</ele>
        <time>2015-05-06T09:08:36Z</time>
      </trkpt>
      <trkpt lat="45.47674" lon="5.76493">
        <ele>571</ele>
        <time>2015-05-06T09:08:40Z</time>
      </trkpt>
      <trkpt lat="45.47676" lon="5.76496">
        <ele>570.14826655</ele>
        <time>2015-05-06T09:08:45Z</time>
      </trkpt>
      <trkpt lat="45.47682" lon="5.76502">
        <ele>570.14826655</ele>
        <time>2015-05-06T09:08:51Z</time>
      </trkpt>
      <trkpt lat="45.47689" lon="5.76508">
        <ele>572.997650714</ele>
        <time>2015-05-06T09:08:57Z</time>
      </trkpt>
      <trkpt lat="45.4769" lon="5.76501">
        <ele>572.997650714</ele>
        <time>2015-05-06T09:09:01Z</time>
      </trkpt>
      <trkpt lat="45.47694" lon="5.76502">
        <ele>576.878736616</ele>
        <time>2015-05-06T09:09:06Z</time>
      </trkpt>
      <trkpt lat="45.477" lon="5.76514">
        <ele>579.968969939</ele>
        <time>2015-05-06T09:09:12Z</time>
      </trkpt>
      <trkpt lat="45.47703" lon="5.76525">
        <ele>579.968969939</ele>
        <time>2015-05-06T09:09:16Z</time>
      </trkpt>
      <trkpt lat="45.47704" lon="5.76535">
        <ele>583.266033618</ele>
        <time>2015-05-06T09:09:22Z</time>
      </trkpt>
      <trkpt lat="45.47702" lon="5.76541">
        <ele>583.266033618</ele>
        <time>2015-05-06T09:09:26Z</time>
      </trkpt>
      <trkpt lat="45.47704" lon="5.76548">
        <ele>585.988006835</ele>
        <time>2015-05-06T09:09:32Z</time>
      </trkpt>
      <trkpt lat="45.47703" lon="5.76557">
        <ele>585.988006835</ele>
        <time>2015-05-06T09:09:36Z</time>
      </trkpt>
      <trkpt lat="45.47703" lon="5.76569">
        <ele>587.81963397</ele>
        <time>2015-05-06T09:09:42Z</time>
      </trkpt>
      <trkpt lat="45.47699" lon="5.76579">
        <ele>587.81963397</ele>
        <time>2015-05-06T09:09:46Z</time>
      </trkpt>
      <trkpt lat="45.47701" lon="5.7659">
        <ele>589.67053195</ele>
        <time>2015-05-06T09:09:52Z</time>
      </trkpt>
      <trkpt lat="45.47701" lon="5.76595">
        <ele>589.67053195</ele>
        <time>2015-05-06T09:09:56Z</time>
      </trkpt>
      <trkpt lat="45.47701" lon="5.76604">
        <ele>592.101117728</ele>
        <time>2015-05-06T09:10:02Z</time>
      </trkpt>
      <trkpt lat="45.47701" lon="5.7661">
        <ele>592.101117728</ele>
        <time>2015-05-06T09:10:06Z</time>
      </trkpt>
      <trkpt lat="45.477" lon="5.76617">
        <ele>594.491611448</ele>
        <time>2015-05-06T09:10:12Z</time>
      </trkpt>
      <trkpt lat="45.47702" lon="5.76623">
        <ele>594.491611448</ele>
        <time>2015-05-06T09:10:16Z</time>
      </trkpt>
      <trkpt lat="45.47699" lon="5.76628">
        <ele>596.995995865</ele>
        <time>2015-05-06T09:10:22Z</time>
      </trkpt>
      <trkpt lat="45.477" lon="5.76635">
        <ele>596.995995865</ele>
        <time>2015-05-06T09:10:26Z</time>
      </trkpt>
      <trkpt lat="45.477" lon="5.76644">
        <ele>599.941661543</ele>
        <time>2015-05-06T09:10:32Z</time>
      </trkpt>
      <trkpt lat="45.47701" lon="5.76657">
        <ele>601.967841766</ele>
        <time>2015-05-06T09:10:36Z</time>
      </trkpt>
      <trkpt lat="45.47701" lon="5.76665">
        <ele>601.967841766</ele>
        <time>2015-05-06T09:10:42Z</time>
      </trkpt>
      <trkpt lat="45.477" lon="5.76671">
        <ele>604.339820114</ele>
        <time>2015-05-06T09:10:46Z</time>
      </trkpt>
      <trkpt lat="45.47701" lon="5.76677">
        <ele>604.339820114</ele>
        <time>2015-05-06T09:10:52Z</time>
      </trkpt>
      <trkpt lat="45.47703" lon="5.76678">
        <ele>604.339820114</ele>
        <time>2015-05-06T09:10:56Z</time>
      </trkpt>
      <trkpt lat="45.47701" lon="5.76678">
        <ele>604.339820114</ele>
        <time>2015-05-06T09:11:02Z</time>
      </trkpt>
      <trkpt lat="45.47702" lon="5.76678">
        <ele>604.339820114</ele>
        <time>2015-05-06T09:11:06Z</time>
      </trkpt>
      <trkpt lat="45.47702" lon="5.76679">
        <ele>604.339820114</ele>
        <time>2015-05-06T09:11:12Z</time>
      </trkpt>
      <trkpt lat="45.47702" lon="5.76679">
        <ele>607.211638363</ele>
        <time>2015-05-06T09:11:16Z</time>
      </trkpt>
      <trkpt lat="45.47702" lon="5.76679">
        <ele>607.211638363</ele>
        <time>2015-05-06T09:11:22Z</time>
      </trkpt>
      <trkpt lat="45.47702" lon="5.76679">
        <ele>607.211638363</ele>
        <time>2015-05-06T09:11:26Z</time>
      </trkpt>
      <trkpt lat="45.47703" lon="5.76698">
        <ele>608.733706039</ele>
        <time>2015-05-06T09:11:32Z</time>
      </trkpt>
      <trkpt lat="45.47705" lon="5.7671">
        <ele>608.733706039</ele>
        <time>2015-05-06T09:11:36Z</time>
      </trkpt>
      <trkpt lat="45.47707" lon="5.76724">
        <ele>610.535052538</ele>
        <time>2015-05-06T09:11:42Z</time>
      </trkpt>
      <trkpt lat="45.47703" lon="5.76734">
        <ele>610.535052538</ele>
        <time>2015-05-06T09:11:46Z</time>
      </trkpt>
      <trkpt lat="45.47701" lon="5.76745">
        <ele>611.633833728</ele>
        <time>2015-05-06T09:11:52Z</time>
      </trkpt>
      <trkpt lat="45.47702" lon="5.76758">
        <ele>612.443883747</ele>
        <time>2015-05-06T09:11:56Z</time>
      </trkpt>
      <trkpt lat="45.47701" lon="5.76761">
        <ele>612.443883747</ele>
        <time>2015-05-06T09:12:00Z</time>
      </trkpt>
      <trkpt lat="45.477" lon="5.76777">
        <ele>613.013218573</ele>
        <time>2015-05-06T09:12:06Z</time>
      </trkpt>
      <trkpt lat="45.477" lon="5.76785">
        <ele>613.013218573</ele>
        <time>2015-05-06T09:12:12Z</time>
      </trkpt>
      <trkpt lat="45.47704" lon="5.76795">
        <ele>613.691002114</ele>
        <time>2015-05-06T09:12:16Z</time>
      </trkpt>
      <trkpt lat="45.47709" lon="5.76806">
        <ele>613.691002114</ele>
        <time>2015-05-06T09:12:22Z</time>
      </trkpt>
      <trkpt lat="45.47701" lon="5.76812">
        <ele>614.62562568</ele>
        <time>2015-05-06T09:12:26Z</time>
      </trkpt>
      <trkpt lat="45.47703" lon="5.7682">
        <ele>614.62562568</ele>
        <time>2015-05-06T09:12:32Z</time>
      </trkpt>
      <trkpt lat="45.47702" lon="5.76828">
        <ele>615.493440989</ele>
        <time>2015-05-06T09:12:36Z</time>
      </trkpt>
      <trkpt lat="45.47702" lon="5.76834">
        <ele>615.493440989</ele>
        <time>2015-05-06T09:12:42Z</time>
      </trkpt>
      <trkpt lat="45.47703" lon="5.76834">
        <ele>615.493440989</ele>
        <time>2015-05-06T09:12:46Z</time>
      </trkpt>
      <trkpt lat="45.47703" lon="5.76843">
        <ele>617.043752411</ele>
        <time>2015-05-06T09:12:52Z</time>
      </trkpt>
      <trkpt lat="45.47708" lon="5.76851">
        <ele>617.043752411</ele>
        <time>2015-05-06T09:12:56Z</time>
      </trkpt>
      <trkpt lat="45.47711" lon="5.76856">
        <ele>618.328836195</ele>
        <time>2015-05-06T09:13:02Z</time>
      </trkpt>
      <trkpt lat="45.47709" lon="5.76855">
        <ele>618.328836195</ele>
        <time>2015-05-06T09:13:06Z</time>
      </trkpt>
      <trkpt lat="45.47708" lon="5.76853">
        <ele>618.328836195</ele>
        <time>2015-05-06T09:13:12Z</time>
      </trkpt>
      <trkpt lat="45.47708" lon="5.76853">
        <ele>618.328836195</ele>
        <time>2015-05-06T09:13:16Z</time>
      </trkpt>
      <trkpt lat="45.47708" lon="5.76853">
        <ele>618.328836195</ele>
        <time>2015-05-06T09:13:22Z</time>
      </trkpt>
      <trkpt lat="45.47708" lon="5.76853">
        <ele>618.328836195</ele>
        <time>2015-05-06T09:13:26Z</time>
      </trkpt>
      <trkpt lat="45.47708" lon="5.76853">
        <ele>618.328836195</ele>
        <time>2015-05-06T09:13:32Z</time>
      </trkpt>
      <trkpt lat="45.47708" lon="5.76853">
        <ele>618.328836195</ele>
        <time>2015-05-06T09:13:36Z</time>
      </trkpt>
      <trkpt lat="45.47708" lon="5.76853">
        <ele>618.328836195</ele>
        <time>2015-05-06T09:13:42Z</time>
      </trkpt>
      <trkpt lat="45.47708" lon="5.76853">
        <ele>618.328836195</ele>
        <time>2015-05-06T09:13:46Z</time>
      </trkpt>
      <trkpt lat="45.47708" lon="5.76853">
        <ele>618.328836195</ele>
        <time>2015-05-06T09:13:52Z</time>
      </trkpt>
      <trkpt lat="45.47708" lon="5.76853">
        <ele>618.328836195</ele>
        <time>2015-05-06T09:13:56Z</time>
      </trkpt>
      <trkpt lat="45.47717" lon="5.76867">
        <ele>620.09656572</ele>
        <time>2015-05-06T09:14:02Z</time>
      </trkpt>
      <trkpt lat="45.47717" lon="5.7688">
        <ele>620.09656572</ele>
        <time>2015-05-06T09:14:06Z</time>
      </trkpt>
      <trkpt lat="45.4772" lon="5.76888">
        <ele>622.297337741</ele>
        <time>2015-05-06T09:14:12Z</time>
      </trkpt>
      <trkpt lat="45.47724" lon="5.76895">
        <ele>622.297337741</ele>
        <time>2015-05-06T09:14:16Z</time>
      </trkpt>
      <trkpt lat="45.47724" lon="5.769">
        <ele>624.888077443</ele>
        <time>2015-05-06T09:14:22Z</time>
      </trkpt>
      <trkpt lat="45.47729" lon="5.76914">
        <ele>626.570118132</ele>
        <time>2015-05-06T09:14:26Z</time>
      </trkpt>
      <trkpt lat="45.47737" lon="5.76929">
        <ele>628.118152163</ele>
        <time>2015-05-06T09:14:32Z</time>
      </trkpt>
      <trkpt lat="45.47745" lon="5.7694">
        <ele>629.541566904</ele>
        <time>2015-05-06T09:14:36Z</time>
      </trkpt>
      <trkpt lat="45.47748" lon="5.7695">
        <ele>629.541566904</ele>
        <time>2015-05-06T09:14:42Z</time>
      </trkpt>
      <trkpt lat="45.47753" lon="5.76964">
        <ele>631.403633077</ele>
        <time>2015-05-06T09:14:46Z</time>
      </trkpt>
      <trkpt lat="45.47753" lon="5.76972">
        <ele>631.403633077</ele>
        <time>2015-05-06T09:14:52Z</time>
      </trkpt>
      <trkpt lat="45.47752" lon="5.76979">
        <ele>633.254797171</ele>
        <time>2015-05-06T09:14:56Z</time>
      </trkpt>
      <trkpt lat="45.47748" lon="5.76986">
        <ele>633.254797171</ele>
        <time>2015-05-06T09:15:01Z</time>
      </trkpt>
      <trkpt lat="45.4775" lon="5.76991">
        <ele>635.234005992</ele>
        <time>2015-05-06T09:15:06Z</time>
      </trkpt>
      <trkpt lat="45.47751" lon="5.77">
        <ele>635.234005992</ele>
        <time>2015-05-06T09:15:12Z</time>
      </trkpt>
      <trkpt lat="45.47751" lon="5.77006">
        <ele>638.029858033</ele>
        <time>2015-05-06T09:15:16Z</time>
      </trkpt>
      <trkpt lat="45.47752" lon="5.77004">
        <ele>638.029858033</ele>
        <time>2015-05-06T09:15:22Z</time>
      </trkpt>
      <trkpt lat="45.47752" lon="5.77004">
        <ele>638.029858033</ele>
        <time>2015-05-06T09:15:26Z</time>
      </trkpt>
      <trkpt lat="45.47753" lon="5.77005">
        <ele>638.029858033</ele>
        <time>2015-05-06T09:15:32Z</time>
      </trkpt>
      <trkpt lat="45.47753" lon="5.77005">
        <ele>638.029858033</ele>
        <time>2015-05-06T09:15:36Z</time>
      </trkpt>
      <trkpt lat="45.47754" lon="5.77005">
        <ele>638.029858033</ele>
        <time>2015-05-06T09:15:42Z</time>
      </trkpt>
      <trkpt lat="45.47755" lon="5.77007">
        <ele>638.029858033</ele>
        <time>2015-05-06T09:15:46Z</time>
      </trkpt>
      <trkpt lat="45.47764" lon="5.77017">
        <ele>642.290875715</ele>
        <time>2015-05-06T09:15:52Z</time>
      </trkpt>
      <trkpt lat="45.47775" lon="5.77037">
        <ele>645.952305698</ele>
        <time>2015-05-06T09:15:56Z</time>
      </trkpt>
      <trkpt lat="45.47778" lon="5.77049">
        <ele>645.952305698</ele>
        <time>2015-05-06T09:16:01Z</time>
      </trkpt>
      <trkpt lat="45.47782" lon="5.77054">
        <ele>650.179147282</ele>
        <time>2015-05-06T09:16:06Z</time>
      </trkpt>
      <trkpt lat="45.47786" lon="5.77065">
        <ele>650.179147282</ele>
        <time>2015-05-06T09:16:12Z</time>
      </trkpt>
      <trkpt lat="45.47785" lon="5.77064">
        <ele>654.076737645</ele>
        <time>2015-05-06T09:16:16Z</time>
      </trkpt>
      <trkpt lat="45.47787" lon="5.77072">
        <ele>654.076737645</ele>
        <time>2015-05-06T09:16:22Z</time>
      </trkpt>
      <trkpt lat="45.47789" lon="5.77072">
        <ele>654.076737645</ele>
        <time>2015-05-06T09:16:26Z</time>
      </trkpt>
      <trkpt lat="45.47789" lon="5.77071">
        <ele>654.076737645</ele>
        <time>2015-05-06T09:16:32Z</time>
      </trkpt>
      <trkpt lat="45.47789" lon="5.77071">
        <ele>654.076737645</ele>
        <time>2015-05-06T09:16:36Z</time>
      </trkpt>
      <trkpt lat="45.47789" lon="5.7707">
        <ele>654.076737645</ele>
        <time>2015-05-06T09:16:42Z</time>
      </trkpt>
      <trkpt lat="45.47789" lon="5.7707">
        <ele>654.076737645</ele>
        <time>2015-05-06T09:16:46Z</time>
      </trkpt>
      <trkpt lat="45.47789" lon="5.7707">
        <ele>654.076737645</ele>
        <time>2015-05-06T09:16:52Z</time>
      </trkpt>
      <trkpt lat="45.47794" lon="5.77085">
        <ele>658.663987898</ele>
        <time>2015-05-06T09:16:56Z</time>
      </trkpt>
      <trkpt lat="45.47798" lon="5.77093">
        <ele>658.663987898</ele>
        <time>2015-05-06T09:17:02Z</time>
      </trkpt>
      <trkpt lat="45.47796" lon="5.77102">
        <ele>662.44630371</ele>
        <time>2015-05-06T09:17:06Z</time>
      </trkpt>
      <trkpt lat="45.478" lon="5.77109">
        <ele>662.44630371</ele>
        <time>2015-05-06T09:17:12Z</time>
      </trkpt>
      <trkpt lat="45.47797" lon="5.77108">
        <ele>662.44630371</ele>
        <time>2015-05-06T09:17:16Z</time>
      </trkpt>
      <trkpt lat="45.47801" lon="5.77117">
        <ele>667.066546495</ele>
        <time>2015-05-06T09:17:22Z</time>
      </trkpt>
      <trkpt lat="45.47802" lon="5.77117">
        <ele>667.066546495</ele>
        <time>2015-05-06T09:17:26Z</time>
      </trkpt>
      <trkpt lat="45.47805" lon="5.77118">
        <ele>667.066546495</ele>
        <time>2015-05-06T09:17:32Z</time>
      </trkpt>
      <trkpt lat="45.47805" lon="5.77118">
        <ele>667.066546495</ele>
        <time>2015-05-06T09:17:36Z</time>
      </trkpt>
      <trkpt lat="45.47805" lon="5.77118">
        <ele>667.066546495</ele>
        <time>2015-05-06T09:17:42Z</time>
      </trkpt>
      <trkpt lat="45.47805" lon="5.77118">
        <ele>667.066546495</ele>
        <time>2015-05-06T09:17:46Z</time>
      </trkpt>
      <trkpt lat="45.47806" lon="5.77118">
        <ele>667.066546495</ele>
        <time>2015-05-06T09:17:52Z</time>
      </trkpt>
      <trkpt lat="45.47805" lon="5.77118">
        <ele>667.066546495</ele>
        <time>2015-05-06T09:17:56Z</time>
      </trkpt>
      <trkpt lat="45.47806" lon="5.77118">
        <ele>667.066546495</ele>
        <time>2015-05-06T09:18:01Z</time>
      </trkpt>
      <trkpt lat="45.47799" lon="5.77132">
        <ele>672.90689602</ele>
        <time>2015-05-06T09:18:06Z</time>
      </trkpt>
      <trkpt lat="45.47792" lon="5.77135">
        <ele>672.90689602</ele>
        <time>2015-05-06T09:18:12Z</time>
      </trkpt>
      <trkpt lat="45.47782" lon="5.77138">
        <ele>679.437779398</ele>
        <time>2015-05-06T09:18:16Z</time>
      </trkpt>
      <trkpt lat="45.47775" lon="5.77146">
        <ele>685.857886127</ele>
        <time>2015-05-06T09:18:22Z</time>
      </trkpt>
      <trkpt lat="45.47768" lon="5.77149">
        <ele>685.857886127</ele>
        <time>2015-05-06T09:18:26Z</time>
      </trkpt>
      <trkpt lat="45.47758" lon="5.77151">
        <ele>691.561485201</ele>
        <time>2015-05-06T09:18:32Z</time>
      </trkpt>
      <trkpt lat="45.4775" lon="5.77156">
        <ele>691.561485201</ele>
        <time>2015-05-06T09:18:36Z</time>
      </trkpt>
      <trkpt lat="45.4774" lon="5.77152">
        <ele>696.731919569</ele>
        <time>2015-05-06T09:18:41Z</time>
      </trkpt>
      <trkpt lat="45.47731" lon="5.77149">
        <ele>702.295656414</ele>
        <time>2015-05-06T09:18:46Z</time>
      </trkpt>
      <trkpt lat="45.4772" lon="5.77154">
        <ele>707.161653801</ele>
        <time>2015-05-06T09:18:52Z</time>
      </trkpt>
      <trkpt lat="45.47714" lon="5.77151">
        <ele>707.161653801</ele>
        <time>2015-05-06T09:18:56Z</time>
      </trkpt>
      <trkpt lat="45.47708" lon="5.77145">
        <ele>712.126010601</ele>
        <time>2015-05-06T09:19:02Z</time>
      </trkpt>
      <trkpt lat="45.47704" lon="5.77149">
        <ele>712.126010601</ele>
        <time>2015-05-06T09:19:06Z</time>
      </trkpt>
      <trkpt lat="45.47698" lon="5.77148">
        <ele>716.269332972</ele>
        <time>2015-05-06T09:19:12Z</time>
      </trkpt>
      <trkpt lat="45.47691" lon="5.77145">
        <ele>716.269332972</ele>
        <time>2015-05-06T09:19:16Z</time>
      </trkpt>
      <trkpt lat="45.47684" lon="5.77143">
        <ele>719.045989231</ele>
        <time>2015-05-06T09:19:22Z</time>
      </trkpt>
      <trkpt lat="45.47674" lon="5.77141">
        <ele>721.619559145</ele>
        <time>2015-05-06T09:19:26Z</time>
      </trkpt>
      <trkpt lat="45.47674" lon="5.77139">
        <ele>721.619559145</ele>
        <time>2015-05-06T09:19:32Z</time>
      </trkpt>
      <trkpt lat="45.47666" lon="5.77135">
        <ele>724.311139432</ele>
        <time>2015-05-06T09:19:36Z</time>
      </trkpt>
      <trkpt lat="45.47658" lon="5.7713">
        <ele>724.311139432</ele>
        <time>2015-05-06T09:19:42Z</time>
      </trkpt>
      <trkpt lat="45.47651" lon="5.77125">
        <ele>726.662258207</ele>
        <time>2015-05-06T09:19:46Z</time>
      </trkpt>
      <trkpt lat="45.47646" lon="5.77122">
        <ele>726.662258207</ele>
        <time>2015-05-06T09:19:52Z</time>
      </trkpt>
      <trkpt lat="45.47643" lon="5.7712">
        <ele>726.662258207</ele>
        <time>2015-05-06T09:19:56Z</time>
      </trkpt>
      <trkpt lat="45.47635" lon="5.77119">
        <ele>728.854589618</ele>
        <time>2015-05-06T09:20:02Z</time>
      </trkpt>
      <trkpt lat="45.47631" lon="5.77116">
        <ele>728.854589618</ele>
        <time>2015-05-06T09:20:06Z</time>
      </trkpt>
      <trkpt lat="45.47632" lon="5.77118">
        <ele>728.854589618</ele>
        <time>2015-05-06T09:20:12Z</time>
      </trkpt>
      <trkpt lat="45.47631" lon="5.77118">
        <ele>728.854589618</ele>
        <time>2015-05-06T09:20:16Z</time>
      </trkpt>
      <trkpt lat="45.4763" lon="5.77117">
        <ele>728.854589618</ele>
        <time>2015-05-06T09:20:22Z</time>
      </trkpt>
      <trkpt lat="45.47627" lon="5.77116">
        <ele>730.30421402</ele>
        <time>2015-05-06T09:20:26Z</time>
      </trkpt>
      <trkpt lat="45.47609" lon="5.77106">
        <ele>732.277684782</ele>
        <time>2015-05-06T09:20:32Z</time>
      </trkpt>
      <trkpt lat="45.47601" lon="5.77106">
        <ele>732.277684782</ele>
        <time>2015-05-06T09:20:36Z</time>
      </trkpt>
      <trkpt lat="45.47589" lon="5.771">
        <ele>734.138395485</ele>
        <time>2015-05-06T09:20:41Z</time>
      </trkpt>
      <trkpt lat="45.47583" lon="5.77094">
        <ele>734.138395485</ele>
        <time>2015-05-06T09:20:47Z</time>
      </trkpt>
      <trkpt lat="45.47577" lon="5.77086">
        <ele>736.796107654</ele>
        <time>2015-05-06T09:20:51Z</time>
      </trkpt>
      <trkpt lat="45.47567" lon="5.77083">
        <ele>739.14517822</ele>
        <time>2015-05-06T09:20:57Z</time>
      </trkpt>
      <trkpt lat="45.47561" lon="5.7708">
        <ele>739.14517822</ele>
        <time>2015-05-06T09:21:00Z</time>
      </trkpt>
      <trkpt lat="45.47553" lon="5.77077">
        <ele>741.362414444</ele>
        <time>2015-05-06T09:21:07Z</time>
      </trkpt>
      <trkpt lat="45.47548" lon="5.77077">
        <ele>741.362414444</ele>
        <time>2015-05-06T09:21:11Z</time>
      </trkpt>
      <trkpt lat="45.47542" lon="5.77077">
        <ele>743.610027097</ele>
        <time>2015-05-06T09:21:17Z</time>
      </trkpt>
      <trkpt lat="45.47532" lon="5.77074">
        <ele>745.149451245</ele>
        <time>2015-05-06T09:21:21Z</time>
      </trkpt>
      <trkpt lat="45.47529" lon="5.77071">
        <ele>745.149451245</ele>
        <time>2015-05-06T09:21:27Z</time>
      </trkpt>
      <trkpt lat="45.47524" lon="5.77069">
        <ele>747.517837046</ele>
        <time>2015-05-06T09:21:31Z</time>
      </trkpt>
      <trkpt lat="45.47517" lon="5.77067">
        <ele>747.517837046</ele>
        <time>2015-05-06T09:21:37Z</time>
      </trkpt>
      <trkpt lat="45.47511" lon="5.77063">
        <ele>750.356327442</ele>
        <time>2015-05-06T09:21:41Z</time>
      </trkpt>
      <trkpt lat="45.47501" lon="5.7706">
        <ele>752.894394506</ele>
        <time>2015-05-06T09:21:47Z</time>
      </trkpt>
      <trkpt lat="45.47495" lon="5.77058">
        <ele>752.894394506</ele>
        <time>2015-05-06T09:21:51Z</time>
      </trkpt>
      <trkpt lat="45.47489" lon="5.77057">
        <ele>755.744100601</ele>
        <time>2015-05-06T09:21:57Z</time>
      </trkpt>
      <trkpt lat="45.47483" lon="5.77056">
        <ele>755.744100601</ele>
        <time>2015-05-06T09:22:01Z</time>
      </trkpt>
      <trkpt lat="45.47476" lon="5.77059">
        <ele>758.589478401</ele>
        <time>2015-05-06T09:22:07Z</time>
      </trkpt>
      <trkpt lat="45.4747" lon="5.7706">
        <ele>758.589478401</ele>
        <time>2015-05-06T09:22:11Z</time>
      </trkpt>
      <trkpt lat="45.47467" lon="5.7706">
        <ele>761.43211779</ele>
        <time>2015-05-06T09:22:17Z</time>
      </trkpt>
      <trkpt lat="45.47462" lon="5.7706">
        <ele>761.43211779</ele>
        <time>2015-05-06T09:22:21Z</time>
      </trkpt>
      <trkpt lat="45.47451" lon="5.77058">
        <ele>764.419119981</ele>
        <time>2015-05-06T09:22:27Z</time>
      </trkpt>
      <trkpt lat="45.47438" lon="5.77053">
        <ele>767.394607315</ele>
        <time>2015-05-06T09:22:31Z</time>
      </trkpt>
      <trkpt lat="45.47439" lon="5.77062">
        <ele>767.394607315</ele>
        <time>2015-05-06T09:22:37Z</time>
      </trkpt>
      <trkpt lat="45.47432" lon="5.7706">
        <ele>769.343805501</ele>
        <time>2015-05-06T09:22:41Z</time>
      </trkpt>
      <trkpt lat="45.47427" lon="5.77059">
        <ele>769.343805501</ele>
        <time>2015-05-06T09:22:47Z</time>
      </trkpt>
      <trkpt lat="45.47423" lon="5.77056">
        <ele>770.494542719</ele>
        <time>2015-05-06T09:22:51Z</time>
      </trkpt>
      <trkpt lat="45.47417" lon="5.77054">
        <ele>770.494542719</ele>
        <time>2015-05-06T09:22:57Z</time>
      </trkpt>
      <trkpt lat="45.47415" lon="5.77052">
        <ele>770.494542719</ele>
        <time>2015-05-06T09:23:01Z</time>
      </trkpt>
      <trkpt lat="45.47407" lon="5.77052">
        <ele>772.652099339</ele>
        <time>2015-05-06T09:23:07Z</time>
      </trkpt>
      <trkpt lat="45.474" lon="5.77053">
        <ele>772.652099339</ele>
        <time>2015-05-06T09:23:11Z</time>
      </trkpt>
      <trkpt lat="45.47396" lon="5.77056">
        <ele>774.439722491</ele>
        <time>2015-05-06T09:23:17Z</time>
      </trkpt>
      <trkpt lat="45.47388" lon="5.77057">
        <ele>774.439722491</ele>
        <time>2015-05-06T09:23:21Z</time>
      </trkpt>
      <trkpt lat="45.47381" lon="5.77061">
        <ele>776.03392425</ele>
        <time>2015-05-06T09:23:27Z</time>
      </trkpt>
      <trkpt lat="45.47375" lon="5.77068">
        <ele>776.03392425</ele>
        <time>2015-05-06T09:23:31Z</time>
      </trkpt>
      <trkpt lat="45.47364" lon="5.77066">
        <ele>778.031620144</ele>
        <time>2015-05-06T09:23:37Z</time>
      </trkpt>
      <trkpt lat="45.4736" lon="5.77065">
        <ele>778.031620144</ele>
        <time>2015-05-06T09:23:41Z</time>
      </trkpt>
      <trkpt lat="45.47356" lon="5.77071">
        <ele>779.683454234</ele>
        <time>2015-05-06T09:23:47Z</time>
      </trkpt>
      <trkpt lat="45.4735" lon="5.77074">
        <ele>779.683454234</ele>
        <time>2015-05-06T09:23:51Z</time>
      </trkpt>
      <trkpt lat="45.47347" lon="5.77077">
        <ele>781.88552298</ele>
        <time>2015-05-06T09:23:57Z</time>
      </trkpt>
      <trkpt lat="45.4734" lon="5.77085">
        <ele>784.166348636</ele>
        <time>2015-05-06T09:24:01Z</time>
      </trkpt>
      <trkpt lat="45.47331" lon="5.77089">
        <ele>785.945287675</ele>
        <time>2015-05-06T09:24:05Z</time>
      </trkpt>
      <trkpt lat="45.47324" lon="5.77095">
        <ele>785.945287675</ele>
        <time>2015-05-06T09:24:12Z</time>
      </trkpt>
      <trkpt lat="45.4732" lon="5.77094">
        <ele>787.840005103</ele>
        <time>2015-05-06T09:24:15Z</time>
      </trkpt>
      <trkpt lat="45.47313" lon="5.77088">
        <ele>787.840005103</ele>
        <time>2015-05-06T09:24:20Z</time>
      </trkpt>
      <trkpt lat="45.47308" lon="5.7708">
        <ele>789.556657543</ele>
        <time>2015-05-06T09:24:25Z</time>
      </trkpt>
      <trkpt lat="45.47301" lon="5.77072">
        <ele>789.556657543</ele>
        <time>2015-05-06T09:24:31Z</time>
      </trkpt>
      <trkpt lat="45.47298" lon="5.77063">
        <ele>791.256121311</ele>
        <time>2015-05-06T09:24:36Z</time>
      </trkpt>
      <trkpt lat="45.47295" lon="5.77055">
        <ele>791.256121311</ele>
        <time>2015-05-06T09:24:41Z</time>
      </trkpt>
      <trkpt lat="45.47292" lon="5.77045">
        <ele>793.231524488</ele>
        <time>2015-05-06T09:24:46Z</time>
      </trkpt>
      <trkpt lat="45.47284" lon="5.77046">
        <ele>793.231524488</ele>
        <time>2015-05-06T09:24:51Z</time>
      </trkpt>
      <trkpt lat="45.47277" lon="5.77038">
        <ele>795.321037475</ele>
        <time>2015-05-06T09:24:56Z</time>
      </trkpt>
      <trkpt lat="45.47273" lon="5.77039">
        <ele>795.321037475</ele>
        <time>2015-05-06T09:25:01Z</time>
      </trkpt>
      <trkpt lat="45.47276" lon="5.77047">
        <ele>797.374342508</ele>
        <time>2015-05-06T09:25:06Z</time>
      </trkpt>
      <trkpt lat="45.47278" lon="5.77056">
        <ele>797.374342508</ele>
        <time>2015-05-06T09:25:11Z</time>
      </trkpt>
      <trkpt lat="45.47278" lon="5.77069">
        <ele>798.675447063</ele>
        <time>2015-05-06T09:25:16Z</time>
      </trkpt>
      <trkpt lat="45.47275" lon="5.77079">
        <ele>798.675447063</ele>
        <time>2015-05-06T09:25:21Z</time>
      </trkpt>
      <trkpt lat="45.47269" lon="5.77093">
        <ele>800.004754467</ele>
        <time>2015-05-06T09:25:26Z</time>
      </trkpt>
      <trkpt lat="45.47269" lon="5.77105">
        <ele>800.004754467</ele>
        <time>2015-05-06T09:25:31Z</time>
      </trkpt>
      <trkpt lat="45.47266" lon="5.77113">
        <ele>800.787487089</ele>
        <time>2015-05-06T09:25:36Z</time>
      </trkpt>
      <trkpt lat="45.47263" lon="5.7712">
        <ele>800.787487089</ele>
        <time>2015-05-06T09:25:41Z</time>
      </trkpt>
      <trkpt lat="45.47264" lon="5.77127">
        <ele>802.078662905</ele>
        <time>2015-05-06T09:25:46Z</time>
      </trkpt>
      <trkpt lat="45.47271" lon="5.77136">
        <ele>803.412305643</ele>
        <time>2015-05-06T09:25:51Z</time>
      </trkpt>
      <trkpt lat="45.47273" lon="5.77142">
        <ele>803.412305643</ele>
        <time>2015-05-06T09:25:56Z</time>
      </trkpt>
      <trkpt lat="45.47272" lon="5.77143">
        <ele>803.412305643</ele>
        <time>2015-05-06T09:26:01Z</time>
      </trkpt>
      <trkpt lat="45.47271" lon="5.77143">
        <ele>803.412305643</ele>
        <time>2015-05-06T09:26:06Z</time>
      </trkpt>
      <trkpt lat="45.47263" lon="5.77146">
        <ele>804.21214401</ele>
        <time>2015-05-06T09:26:11Z</time>
      </trkpt>
      <trkpt lat="45.47257" lon="5.77154">
        <ele>804.21214401</ele>
        <time>2015-05-06T09:26:16Z</time>
      </trkpt>
      <trkpt lat="45.47251" lon="5.77159">
        <ele>805.243582691</ele>
        <time>2015-05-06T09:26:21Z</time>
      </trkpt>
      <trkpt lat="45.47247" lon="5.77161">
        <ele>805.243582691</ele>
        <time>2015-05-06T09:26:26Z</time>
      </trkpt>
      <trkpt lat="45.47244" lon="5.77162">
        <ele>805.243582691</ele>
        <time>2015-05-06T09:26:31Z</time>
      </trkpt>
      <trkpt lat="45.4724" lon="5.77164">
        <ele>807.359337119</ele>
        <time>2015-05-06T09:26:36Z</time>
      </trkpt>
      <trkpt lat="45.47237" lon="5.77166">
        <ele>807.359337119</ele>
        <time>2015-05-06T09:26:41Z</time>
      </trkpt>
      <trkpt lat="45.47232" lon="5.77169">
        <ele>807.359337119</ele>
        <time>2015-05-06T09:26:46Z</time>
      </trkpt>
      <trkpt lat="45.47225" lon="5.77169">
        <ele>809.903972727</ele>
        <time>2015-05-06T09:26:51Z</time>
      </trkpt>
      <trkpt lat="45.47217" lon="5.77167">
        <ele>809.903972727</ele>
        <time>2015-05-06T09:26:56Z</time>
      </trkpt>
      <trkpt lat="45.47219" lon="5.77169">
        <ele>812.268815343</ele>
        <time>2015-05-06T09:27:00Z</time>
      </trkpt>
      <trkpt lat="45.47225" lon="5.77181">
        <ele>814.611498998</ele>
        <time>2015-05-06T09:27:05Z</time>
      </trkpt>
      <trkpt lat="45.47223" lon="5.77191">
        <ele>814.611498998</ele>
        <time>2015-05-06T09:27:11Z</time>
      </trkpt>
      <trkpt lat="45.47221" lon="5.772">
        <ele>816.933789305</ele>
        <time>2015-05-06T09:27:16Z</time>
      </trkpt>
      <trkpt lat="45.4722" lon="5.77207">
        <ele>816.933789305</ele>
        <time>2015-05-06T09:27:21Z</time>
      </trkpt>
      <trkpt lat="45.47221" lon="5.77213">
        <ele>818.948794333</ele>
        <time>2015-05-06T09:27:26Z</time>
      </trkpt>
      <trkpt lat="45.47224" lon="5.77221">
        <ele>818.948794333</ele>
        <time>2015-05-06T09:27:31Z</time>
      </trkpt>
      <trkpt lat="45.47224" lon="5.77232">
        <ele>821.401192268</ele>
        <time>2015-05-06T09:27:36Z</time>
      </trkpt>
      <trkpt lat="45.47221" lon="5.77238">
        <ele>821.401192268</ele>
        <time>2015-05-06T09:27:41Z</time>
      </trkpt>
      <trkpt lat="45.47223" lon="5.77246">
        <ele>823.82564345</ele>
        <time>2015-05-06T09:27:46Z</time>
      </trkpt>
      <trkpt lat="45.47226" lon="5.77252">
        <ele>823.82564345</ele>
        <time>2015-05-06T09:27:51Z</time>
      </trkpt>
      <trkpt lat="45.47229" lon="5.77256">
        <ele>826.223757409</ele>
        <time>2015-05-06T09:27:56Z</time>
      </trkpt>
      <trkpt lat="45.47232" lon="5.77264">
        <ele>826.223757409</ele>
        <time>2015-05-06T09:28:01Z</time>
      </trkpt>
      <trkpt lat="45.47231" lon="5.77272">
        <ele>828.452799902</ele>
        <time>2015-05-06T09:28:06Z</time>
      </trkpt>
      <trkpt lat="45.47232" lon="5.77279">
        <ele>828.452799902</ele>
        <time>2015-05-06T09:28:11Z</time>
      </trkpt>
      <trkpt lat="45.47233" lon="5.77285">
        <ele>830.5251843</ele>
        <time>2015-05-06T09:28:16Z</time>
      </trkpt>
      <trkpt lat="45.47237" lon="5.77291">
        <ele>830.5251843</ele>
        <time>2015-05-06T09:28:21Z</time>
      </trkpt>
      <trkpt lat="45.4724" lon="5.77293">
        <ele>832.308574975</ele>
        <time>2015-05-06T09:28:26Z</time>
      </trkpt>
      <trkpt lat="45.47247" lon="5.77302">
        <ele>834.40219354</ele>
        <time>2015-05-06T09:28:31Z</time>
      </trkpt>
      <trkpt lat="45.4725" lon="5.77308">
        <ele>834.40219354</ele>
        <time>2015-05-06T09:28:36Z</time>
      </trkpt>
      <trkpt lat="45.47258" lon="5.77307">
        <ele>837.360189621</ele>
        <time>2015-05-06T09:28:41Z</time>
      </trkpt>
      <trkpt lat="45.47264" lon="5.77308">
        <ele>837.360189621</ele>
        <time>2015-05-06T09:28:46Z</time>
      </trkpt>
      <trkpt lat="45.4727" lon="5.77309">
        <ele>840.539844464</ele>
        <time>2015-05-06T09:28:51Z</time>
      </trkpt>
      <trkpt lat="45.47277" lon="5.77316">
        <ele>840.539844464</ele>
        <time>2015-05-06T09:28:56Z</time>
      </trkpt>
      <trkpt lat="45.47274" lon="5.77319">
        <ele>843.345133297</ele>
        <time>2015-05-06T09:29:01Z</time>
      </trkpt>
      <trkpt lat="45.47266" lon="5.77324">
        <ele>843.345133297</ele>
        <time>2015-05-06T09:29:06Z</time>
      </trkpt>
      <trkpt lat="45.4726" lon="5.77329">
        <ele>845.513324974</ele>
        <time>2015-05-06T09:29:11Z</time>
      </trkpt>
      <trkpt lat="45.47252" lon="5.77336">
        <ele>847.812019004</ele>
        <time>2015-05-06T09:29:16Z</time>
      </trkpt>
      <trkpt lat="45.47244" lon="5.77338">
        <ele>847.812019004</ele>
        <time>2015-05-06T09:29:21Z</time>
      </trkpt>
      <trkpt lat="45.47239" lon="5.77337">
        <ele>850.663554401</ele>
        <time>2015-05-06T09:29:26Z</time>
      </trkpt>
      <trkpt lat="45.47232" lon="5.77339">
        <ele>850.663554401</ele>
        <time>2015-05-06T09:29:31Z</time>
      </trkpt>
      <trkpt lat="45.47223" lon="5.77333">
        <ele>853.73680593</ele>
        <time>2015-05-06T09:29:36Z</time>
      </trkpt>
      <trkpt lat="45.47213" lon="5.77325">
        <ele>856.868562129</ele>
        <time>2015-05-06T09:29:41Z</time>
      </trkpt>
      <trkpt lat="45.47202" lon="5.77321">
        <ele>859.042578441</ele>
        <time>2015-05-06T09:29:46Z</time>
      </trkpt>
      <trkpt lat="45.47197" lon="5.77319">
        <ele>859.042578441</ele>
        <time>2015-05-06T09:29:51Z</time>
      </trkpt>
      <trkpt lat="45.47191" lon="5.77321">
        <ele>861.33809753</ele>
        <time>2015-05-06T09:29:56Z</time>
      </trkpt>
      <trkpt lat="45.47195" lon="5.7733">
        <ele>861.33809753</ele>
        <time>2015-05-06T09:30:01Z</time>
      </trkpt>
      <trkpt lat="45.47193" lon="5.77343">
        <ele>863.601492268</ele>
        <time>2015-05-06T09:30:06Z</time>
      </trkpt>
      <trkpt lat="45.47188" lon="5.77351">
        <ele>863.601492268</ele>
        <time>2015-05-06T09:30:11Z</time>
      </trkpt>
      <trkpt lat="45.47184" lon="5.77362">
        <ele>865.834674377</ele>
        <time>2015-05-06T09:30:16Z</time>
      </trkpt>
      <trkpt lat="45.47182" lon="5.77373">
        <ele>865.834674377</ele>
        <time>2015-05-06T09:30:21Z</time>
      </trkpt>
      <trkpt lat="45.47178" lon="5.77384">
        <ele>867.462991388</ele>
        <time>2015-05-06T09:30:26Z</time>
      </trkpt>
      <trkpt lat="45.47177" lon="5.77396">
        <ele>867.462991388</ele>
        <time>2015-05-06T09:30:31Z</time>
      </trkpt>
      <trkpt lat="45.47175" lon="5.77407">
        <ele>869.108768359</ele>
        <time>2015-05-06T09:30:36Z</time>
      </trkpt>
      <trkpt lat="45.47174" lon="5.77419">
        <ele>869.108768359</ele>
        <time>2015-05-06T09:30:41Z</time>
      </trkpt>
      <trkpt lat="45.47171" lon="5.7743">
        <ele>871.348516115</ele>
        <time>2015-05-06T09:30:46Z</time>
      </trkpt>
      <trkpt lat="45.4717" lon="5.77442">
        <ele>871.348516115</ele>
        <time>2015-05-06T09:30:51Z</time>
      </trkpt>
      <trkpt lat="45.47176" lon="5.77454">
        <ele>873.1293704</ele>
        <time>2015-05-06T09:30:56Z</time>
      </trkpt>
      <trkpt lat="45.47175" lon="5.77466">
        <ele>873.1293704</ele>
        <time>2015-05-06T09:31:01Z</time>
      </trkpt>
      <trkpt lat="45.47173" lon="5.77479">
        <ele>874.91834784</ele>
        <time>2015-05-06T09:31:06Z</time>
      </trkpt>
      <trkpt lat="45.47169" lon="5.77491">
        <ele>876.71575872</ele>
        <time>2015-05-06T09:31:11Z</time>
      </trkpt>
      <trkpt lat="45.47171" lon="5.77502">
        <ele>876.71575872</ele>
        <time>2015-05-06T09:31:16Z</time>
      </trkpt>
      <trkpt lat="45.47168" lon="5.77515">
        <ele>878.665980164</ele>
        <time>2015-05-06T09:31:21Z</time>
      </trkpt>
      <trkpt lat="45.47163" lon="5.77527">
        <ele>880.758232546</ele>
        <time>2015-05-06T09:31:26Z</time>
      </trkpt>
      <trkpt lat="45.4716" lon="5.77541">
        <ele>882.693898475</ele>
        <time>2015-05-06T09:31:31Z</time>
      </trkpt>
      <trkpt lat="45.47158" lon="5.77553">
        <ele>882.693898475</ele>
        <time>2015-05-06T09:31:36Z</time>
      </trkpt>
      <trkpt lat="45.47157" lon="5.77567">
        <ele>884.48496067</ele>
        <time>2015-05-06T09:31:41Z</time>
      </trkpt>
      <trkpt lat="45.47156" lon="5.77579">
        <ele>884.48496067</ele>
        <time>2015-05-06T09:31:46Z</time>
      </trkpt>
      <trkpt lat="45.47155" lon="5.77592">
        <ele>886.575257071</ele>
        <time>2015-05-06T09:31:51Z</time>
      </trkpt>
      <trkpt lat="45.47154" lon="5.77606">
        <ele>888.366383173</ele>
        <time>2015-05-06T09:31:56Z</time>
      </trkpt>
      <trkpt lat="45.47148" lon="5.77618">
        <ele>890.313512809</ele>
        <time>2015-05-06T09:32:01Z</time>
      </trkpt>
      <trkpt lat="45.47138" lon="5.77626">
        <ele>892.405597334</ele>
        <time>2015-05-06T09:32:06Z</time>
      </trkpt>
      <trkpt lat="45.47135" lon="5.77634">
        <ele>892.405597334</ele>
        <time>2015-05-06T09:32:11Z</time>
      </trkpt>
      <trkpt lat="45.47132" lon="5.77637">
        <ele>894.34375776</ele>
        <time>2015-05-06T09:32:16Z</time>
      </trkpt>
      <trkpt lat="45.47131" lon="5.77647">
        <ele>894.34375776</ele>
        <time>2015-05-06T09:32:20Z</time>
      </trkpt>
      <trkpt lat="45.47133" lon="5.77652">
        <ele>896.572056089</ele>
        <time>2015-05-06T09:32:26Z</time>
      </trkpt>
      <trkpt lat="45.47132" lon="5.77664">
        <ele>896.572056089</ele>
        <time>2015-05-06T09:32:31Z</time>
      </trkpt>
      <trkpt lat="45.47134" lon="5.77677">
        <ele>898.492319488</ele>
        <time>2015-05-06T09:32:37Z</time>
      </trkpt>
      <trkpt lat="45.47139" lon="5.77693">
        <ele>900.271735245</ele>
        <time>2015-05-06T09:32:41Z</time>
      </trkpt>
      <trkpt lat="45.47144" lon="5.77703">
        <ele>900.271735245</ele>
        <time>2015-05-06T09:32:47Z</time>
      </trkpt>
      <trkpt lat="45.47146" lon="5.77711">
        <ele>901.489138989</ele>
        <time>2015-05-06T09:32:51Z</time>
      </trkpt>
      <trkpt lat="45.47147" lon="5.7772">
        <ele>901.489138989</ele>
        <time>2015-05-06T09:32:56Z</time>
      </trkpt>
      <trkpt lat="45.47147" lon="5.77738">
        <ele>902.476435435</ele>
        <time>2015-05-06T09:33:01Z</time>
      </trkpt>
      <trkpt lat="45.47149" lon="5.7775">
        <ele>902.476435435</ele>
        <time>2015-05-06T09:33:05Z</time>
      </trkpt>
      <trkpt lat="45.47148" lon="5.77768">
        <ele>903.109432886</ele>
        <time>2015-05-06T09:33:11Z</time>
      </trkpt>
      <trkpt lat="45.4715" lon="5.77785">
        <ele>903.706372917</ele>
        <time>2015-05-06T09:33:17Z</time>
      </trkpt>
      <trkpt lat="45.47154" lon="5.77799">
        <ele>903.985727204</ele>
        <time>2015-05-06T09:33:21Z</time>
      </trkpt>
      <trkpt lat="45.47158" lon="5.77814">
        <ele>903.975721958</ele>
        <time>2015-05-06T09:33:27Z</time>
      </trkpt>
      <trkpt lat="45.47159" lon="5.7783">
        <ele>903.703264097</ele>
        <time>2015-05-06T09:33:32Z</time>
      </trkpt>
      <trkpt lat="45.47157" lon="5.77848">
        <ele>903.049834984</ele>
        <time>2015-05-06T09:33:36Z</time>
      </trkpt>
      <trkpt lat="45.4716" lon="5.77864">
        <ele>902.194836484</ele>
        <time>2015-05-06T09:33:42Z</time>
      </trkpt>
      <trkpt lat="45.47161" lon="5.7788">
        <ele>901.44907269</ele>
        <time>2015-05-06T09:33:46Z</time>
      </trkpt>
      <trkpt lat="45.47164" lon="5.77896">
        <ele>900.811865902</ele>
        <time>2015-05-06T09:33:52Z</time>
      </trkpt>
      <trkpt lat="45.47167" lon="5.77913">
        <ele>899.84981221</ele>
        <time>2015-05-06T09:33:56Z</time>
      </trkpt>
      <trkpt lat="45.47172" lon="5.77926">
        <ele>898.882691037</ele>
        <time>2015-05-06T09:34:02Z</time>
      </trkpt>
      <trkpt lat="45.47177" lon="5.77934">
        <ele>898.882691037</ele>
        <time>2015-05-06T09:34:06Z</time>
      </trkpt>
      <trkpt lat="45.4718" lon="5.77942">
        <ele>897.774308622</ele>
        <time>2015-05-06T09:34:12Z</time>
      </trkpt>
      <trkpt lat="45.47185" lon="5.77947">
        <ele>897.774308622</ele>
        <time>2015-05-06T09:34:16Z</time>
      </trkpt>
      <trkpt lat="45.47191" lon="5.77953">
        <ele>896.686938146</ele>
        <time>2015-05-06T09:34:22Z</time>
      </trkpt>
      <trkpt lat="45.47196" lon="5.77958">
        <ele>896.686938146</ele>
        <time>2015-05-06T09:34:26Z</time>
      </trkpt>
      <trkpt lat="45.47201" lon="5.77964">
        <ele>895.626584716</ele>
        <time>2015-05-06T09:34:32Z</time>
      </trkpt>
      <trkpt lat="45.47204" lon="5.7797">
        <ele>895.626584716</ele>
        <time>2015-05-06T09:34:36Z</time>
      </trkpt>
      <trkpt lat="45.47205" lon="5.77973">
        <ele>895.626584716</ele>
        <time>2015-05-06T09:34:42Z</time>
      </trkpt>
      <trkpt lat="45.47205" lon="5.77975">
        <ele>894.022097157</ele>
        <time>2015-05-06T09:34:46Z</time>
      </trkpt>
      <trkpt lat="45.47205" lon="5.77975">
        <ele>894.022097157</ele>
        <time>2015-05-06T09:34:52Z</time>
      </trkpt>
      <trkpt lat="45.47205" lon="5.77975">
        <ele>894.022097157</ele>
        <time>2015-05-06T09:34:56Z</time>
      </trkpt>
      <trkpt lat="45.47205" lon="5.77975">
        <ele>894.022097157</ele>
        <time>2015-05-06T09:35:02Z</time>
      </trkpt>
      <trkpt lat="45.47206" lon="5.77976">
        <ele>894.022097157</ele>
        <time>2015-05-06T09:35:06Z</time>
      </trkpt>
      <trkpt lat="45.4721" lon="5.77985">
        <ele>892.498525913</ele>
        <time>2015-05-06T09:35:12Z</time>
      </trkpt>
      <trkpt lat="45.47212" lon="5.77998">
        <ele>891.202231993</ele>
        <time>2015-05-06T09:35:16Z</time>
      </trkpt>
      <trkpt lat="45.47214" lon="5.78011">
        <ele>889.835635862</ele>
        <time>2015-05-06T09:35:22Z</time>
      </trkpt>
      <trkpt lat="45.47215" lon="5.78026">
        <ele>888.555338057</ele>
        <time>2015-05-06T09:35:26Z</time>
      </trkpt>
      <trkpt lat="45.47213" lon="5.78037">
        <ele>888.555338057</ele>
        <time>2015-05-06T09:35:32Z</time>
      </trkpt>
      <trkpt lat="45.4721" lon="5.78049">
        <ele>886.929517259</ele>
        <time>2015-05-06T09:35:36Z</time>
      </trkpt>
      <trkpt lat="45.47204" lon="5.78061">
        <ele>885.423492227</ele>
        <time>2015-05-06T09:35:41Z</time>
      </trkpt>
      <trkpt lat="45.472" lon="5.78085">
        <ele>883.026702513</ele>
        <time>2015-05-06T09:35:47Z</time>
      </trkpt>
      <trkpt lat="45.47193" lon="5.78096">
        <ele>880.822658229</ele>
        <time>2015-05-06T09:35:51Z</time>
      </trkpt>
      <trkpt lat="45.47188" lon="5.78109">
        <ele>878.805698943</ele>
        <time>2015-05-06T09:35:57Z</time>
      </trkpt>
      <trkpt lat="45.4719" lon="5.78127">
        <ele>876.681579304</ele>
        <time>2015-05-06T09:36:01Z</time>
      </trkpt>
      <trkpt lat="45.4719" lon="5.78145">
        <ele>875.186497391</ele>
        <time>2015-05-06T09:36:07Z</time>
      </trkpt>
      <trkpt lat="45.47191" lon="5.78155">
        <ele>875.186497391</ele>
        <time>2015-05-06T09:36:11Z</time>
      </trkpt>
      <trkpt lat="45.47197" lon="5.78174">
        <ele>872.982979915</ele>
        <time>2015-05-06T09:36:17Z</time>
      </trkpt>
      <trkpt lat="45.47204" lon="5.7818">
        <ele>872.982979915</ele>
        <time>2015-05-06T09:36:21Z</time>
      </trkpt>
      <trkpt lat="45.47212" lon="5.78187">
        <ele>870.851096613</ele>
        <time>2015-05-06T09:36:27Z</time>
      </trkpt>
      <trkpt lat="45.47223" lon="5.78192">
        <ele>868.360255682</ele>
        <time>2015-05-06T09:36:31Z</time>
      </trkpt>
      <trkpt lat="45.47231" lon="5.78199">
        <ele>865.976909004</ele>
        <time>2015-05-06T09:36:37Z</time>
      </trkpt>
      <trkpt lat="45.47237" lon="5.78205">
        <ele>865.976909004</ele>
        <time>2015-05-06T09:36:41Z</time>
      </trkpt>
      <trkpt lat="45.4724" lon="5.78201">
        <ele>863.268005829</ele>
        <time>2015-05-06T09:36:47Z</time>
      </trkpt>
      <trkpt lat="45.47246" lon="5.78211">
        <ele>860.841732187</ele>
        <time>2015-05-06T09:36:51Z</time>
      </trkpt>
      <trkpt lat="45.47254" lon="5.78218">
        <ele>860.841732187</ele>
        <time>2015-05-06T09:36:57Z</time>
      </trkpt>
      <trkpt lat="45.47262" lon="5.78234">
        <ele>858.828200611</ele>
        <time>2015-05-06T09:37:01Z</time>
      </trkpt>
      <trkpt lat="45.47276" lon="5.78254">
        <ele>857.058317479</ele>
        <time>2015-05-06T09:37:07Z</time>
      </trkpt>
      <trkpt lat="45.47284" lon="5.78263">
        <ele>855.518574566</ele>
        <time>2015-05-06T09:37:11Z</time>
      </trkpt>
      <trkpt lat="45.47286" lon="5.78272">
        <ele>855.518574566</ele>
        <time>2015-05-06T09:37:17Z</time>
      </trkpt>
      <trkpt lat="45.47296" lon="5.78282">
        <ele>853.33088399</ele>
        <time>2015-05-06T09:37:21Z</time>
      </trkpt>
      <trkpt lat="45.47306" lon="5.78298">
        <ele>851.412561847</ele>
        <time>2015-05-06T09:37:27Z</time>
      </trkpt>
      <trkpt lat="45.47308" lon="5.78306">
        <ele>851.412561847</ele>
        <time>2015-05-06T09:37:31Z</time>
      </trkpt>
      <trkpt lat="45.47308" lon="5.78312">
        <ele>850.756650369</ele>
        <time>2015-05-06T09:37:37Z</time>
      </trkpt>
      <trkpt lat="45.47313" lon="5.78322">
        <ele>850.756650369</ele>
        <time>2015-05-06T09:37:41Z</time>
      </trkpt>
      <trkpt lat="45.47309" lon="5.78337">
        <ele>850.117800505</ele>
        <time>2015-05-06T09:37:47Z</time>
      </trkpt>
      <trkpt lat="45.47308" lon="5.78337">
        <ele>850.117800505</ele>
        <time>2015-05-06T09:37:51Z</time>
      </trkpt>
      <trkpt lat="45.473" lon="5.78337">
        <ele>850.215324051</ele>
        <time>2015-05-06T09:37:57Z</time>
      </trkpt>
      <trkpt lat="45.47293" lon="5.78337">
        <ele>850.215324051</ele>
        <time>2015-05-06T09:38:01Z</time>
      </trkpt>
      <trkpt lat="45.4729" lon="5.78343">
        <ele>850.992869508</ele>
        <time>2015-05-06T09:38:07Z</time>
      </trkpt>
      <trkpt lat="45.47286" lon="5.78353">
        <ele>850.992869508</ele>
        <time>2015-05-06T09:38:11Z</time>
      </trkpt>
      <trkpt lat="45.47279" lon="5.78362">
        <ele>852.107915927</ele>
        <time>2015-05-06T09:38:17Z</time>
      </trkpt>
      <trkpt lat="45.47275" lon="5.7837">
        <ele>852.107915927</ele>
        <time>2015-05-06T09:38:21Z</time>
      </trkpt>
      <trkpt lat="45.4727" lon="5.78377">
        <ele>853.386114041</ele>
        <time>2015-05-06T09:38:27Z</time>
      </trkpt>
      <trkpt lat="45.4727" lon="5.78386">
        <ele>853.386114041</ele>
        <time>2015-05-06T09:38:31Z</time>
      </trkpt>
      <trkpt lat="45.4727" lon="5.78396">
        <ele>855.674117358</ele>
        <time>2015-05-06T09:38:37Z</time>
      </trkpt>
      <trkpt lat="45.47269" lon="5.78402">
        <ele>855.674117358</ele>
        <time>2015-05-06T09:38:41Z</time>
      </trkpt>
      <trkpt lat="45.47277" lon="5.78416">
        <ele>857.591787176</ele>
        <time>2015-05-06T09:38:47Z</time>
      </trkpt>
      <trkpt lat="45.47266" lon="5.78424">
        <ele>859.734787486</ele>
        <time>2015-05-06T09:38:51Z</time>
      </trkpt>
      <trkpt lat="45.47273" lon="5.78435">
        <ele>861.501466001</ele>
        <time>2015-05-06T09:38:57Z</time>
      </trkpt>
      <trkpt lat="45.47281" lon="5.78448">
        <ele>863.488303935</ele>
        <time>2015-05-06T09:39:01Z</time>
      </trkpt>
      <trkpt lat="45.47287" lon="5.78458">
        <ele>865.670919305</ele>
        <time>2015-05-06T09:39:07Z</time>
      </trkpt>
      <trkpt lat="45.47293" lon="5.78464">
        <ele>865.670919305</ele>
        <time>2015-05-06T09:39:11Z</time>
      </trkpt>
      <trkpt lat="45.47301" lon="5.78468">
        <ele>868.458547325</ele>
        <time>2015-05-06T09:39:17Z</time>
      </trkpt>
      <trkpt lat="45.47306" lon="5.78475">
        <ele>868.458547325</ele>
        <time>2015-05-06T09:39:21Z</time>
      </trkpt>
      <trkpt lat="45.4731" lon="5.78483">
        <ele>870.499393037</ele>
        <time>2015-05-06T09:39:27Z</time>
      </trkpt>
      <trkpt lat="45.47314" lon="5.78492">
        <ele>870.499393037</ele>
        <time>2015-05-06T09:39:31Z</time>
      </trkpt>
      <trkpt lat="45.47313" lon="5.78507">
        <ele>872.560702393</ele>
        <time>2015-05-06T09:39:37Z</time>
      </trkpt>
      <trkpt lat="45.47313" lon="5.78515">
        <ele>872.560702393</ele>
        <time>2015-05-06T09:39:41Z</time>
      </trkpt>
      <trkpt lat="45.47311" lon="5.78518">
        <ele>872.560702393</ele>
        <time>2015-05-06T09:39:47Z</time>
      </trkpt>
      <trkpt lat="45.47305" lon="5.78529">
        <ele>875.065186871</ele>
        <time>2015-05-06T09:39:51Z</time>
      </trkpt>
      <trkpt lat="45.47302" lon="5.78541">
        <ele>875.065186871</ele>
        <time>2015-05-06T09:39:57Z</time>
      </trkpt>
      <trkpt lat="45.47297" lon="5.78551">
        <ele>877.682832049</ele>
        <time>2015-05-06T09:40:01Z</time>
      </trkpt>
      <trkpt lat="45.47294" lon="5.78558">
        <ele>877.682832049</ele>
        <time>2015-05-06T09:40:07Z</time>
      </trkpt>
      <trkpt lat="45.47289" lon="5.78569">
        <ele>879.53124536</ele>
        <time>2015-05-06T09:40:11Z</time>
      </trkpt>
      <trkpt lat="45.47288" lon="5.78579">
        <ele>879.53124536</ele>
        <time>2015-05-06T09:40:17Z</time>
      </trkpt>
      <trkpt lat="45.47279" lon="5.78573">
        <ele>881.524503666</ele>
        <time>2015-05-06T09:40:21Z</time>
      </trkpt>
      <trkpt lat="45.47276" lon="5.78578">
        <ele>881.524503666</ele>
        <time>2015-05-06T09:40:27Z</time>
      </trkpt>
      <trkpt lat="45.47273" lon="5.78582">
        <ele>881.524503666</ele>
        <time>2015-05-06T09:40:31Z</time>
      </trkpt>
      <trkpt lat="45.47268" lon="5.78581">
        <ele>884.221077261</ele>
        <time>2015-05-06T09:40:37Z</time>
      </trkpt>
      <trkpt lat="45.47265" lon="5.78585">
        <ele>884.221077261</ele>
        <time>2015-05-06T09:40:41Z</time>
      </trkpt>
      <trkpt lat="45.47261" lon="5.78587">
        <ele>884.221077261</ele>
        <time>2015-05-06T09:40:47Z</time>
      </trkpt>
      <trkpt lat="45.47248" lon="5.78591">
        <ele>887.848399441</ele>
        <time>2015-05-06T09:40:51Z</time>
      </trkpt>
      <trkpt lat="45.47243" lon="5.78603">
        <ele>891.461892726</ele>
        <time>2015-05-06T09:40:57Z</time>
      </trkpt>
      <trkpt lat="45.47238" lon="5.78611">
        <ele>891.461892726</ele>
        <time>2015-05-06T09:41:01Z</time>
      </trkpt>
      <trkpt lat="45.47233" lon="5.78623">
        <ele>894.907175749</ele>
        <time>2015-05-06T09:41:07Z</time>
      </trkpt>
      <trkpt lat="45.4723" lon="5.78633">
        <ele>894.907175749</ele>
        <time>2015-05-06T09:41:11Z</time>
      </trkpt>
      <trkpt lat="45.47229" lon="5.78645">
        <ele>898.04190832</ele>
        <time>2015-05-06T09:41:17Z</time>
      </trkpt>
      <trkpt lat="45.47222" lon="5.78657">
        <ele>900.879431143</ele>
        <time>2015-05-06T09:41:21Z</time>
      </trkpt>
      <trkpt lat="45.47214" lon="5.78666">
        <ele>903.721413916</ele>
        <time>2015-05-06T09:41:27Z</time>
      </trkpt>
      <trkpt lat="45.4721" lon="5.78675">
        <ele>903.721413916</ele>
        <time>2015-05-06T09:41:31Z</time>
      </trkpt>
      <trkpt lat="45.47206" lon="5.7868">
        <ele>906.559391158</ele>
        <time>2015-05-06T09:41:37Z</time>
      </trkpt>
      <trkpt lat="45.47207" lon="5.78693">
        <ele>908.521127114</ele>
        <time>2015-05-06T09:41:41Z</time>
      </trkpt>
      <trkpt lat="45.47194" lon="5.78698">
        <ele>910.674629215</ele>
        <time>2015-05-06T09:41:47Z</time>
      </trkpt>
      <trkpt lat="45.47187" lon="5.78705">
        <ele>910.674629215</ele>
        <time>2015-05-06T09:41:51Z</time>
      </trkpt>
      <trkpt lat="45.47175" lon="5.78713">
        <ele>913.000397522</ele>
        <time>2015-05-06T09:41:57Z</time>
      </trkpt>
      <trkpt lat="45.47172" lon="5.78727">
        <ele>915.336031804</ele>
        <time>2015-05-06T09:42:01Z</time>
      </trkpt>
      <trkpt lat="45.47167" lon="5.7873">
        <ele>915.336031804</ele>
        <time>2015-05-06T09:42:06Z</time>
      </trkpt>
      <trkpt lat="45.47162" lon="5.78734">
        <ele>917.098957412</ele>
        <time>2015-05-06T09:42:11Z</time>
      </trkpt>
      <trkpt lat="45.47159" lon="5.78743">
        <ele>917.098957412</ele>
        <time>2015-05-06T09:42:17Z</time>
      </trkpt>
      <trkpt lat="45.47148" lon="5.78746">
        <ele>919.336477669</ele>
        <time>2015-05-06T09:42:21Z</time>
      </trkpt>
      <trkpt lat="45.4714" lon="5.78749">
        <ele>919.336477669</ele>
        <time>2015-05-06T09:42:27Z</time>
      </trkpt>
      <trkpt lat="45.47129" lon="5.78748">
        <ele>922.009099939</ele>
        <time>2015-05-06T09:42:31Z</time>
      </trkpt>
      <trkpt lat="45.47124" lon="5.7875">
        <ele>922.009099939</ele>
        <time>2015-05-06T09:42:36Z</time>
      </trkpt>
      <trkpt lat="45.47121" lon="5.78756">
        <ele>924.358699384</ele>
        <time>2015-05-06T09:42:42Z</time>
      </trkpt>
      <trkpt lat="45.47117" lon="5.7876">
        <ele>924.358699384</ele>
        <time>2015-05-06T09:42:46Z</time>
      </trkpt>
      <trkpt lat="45.47112" lon="5.78761">
        <ele>925.972208432</ele>
        <time>2015-05-06T09:42:52Z</time>
      </trkpt>
      <trkpt lat="45.47114" lon="5.78763">
        <ele>925.972208432</ele>
        <time>2015-05-06T09:42:56Z</time>
      </trkpt>
      <trkpt lat="45.47103" lon="5.78772">
        <ele>927.333865727</ele>
        <time>2015-05-06T09:43:02Z</time>
      </trkpt>
      <trkpt lat="45.47104" lon="5.78781">
        <ele>927.333865727</ele>
        <time>2015-05-06T09:43:06Z</time>
      </trkpt>
      <trkpt lat="45.47098" lon="5.78793">
        <ele>928.028597847</ele>
        <time>2015-05-06T09:43:12Z</time>
      </trkpt>
      <trkpt lat="45.47093" lon="5.78793">
        <ele>928.028597847</ele>
        <time>2015-05-06T09:43:16Z</time>
      </trkpt>
      <trkpt lat="45.47095" lon="5.78797">
        <ele>928.970901521</ele>
        <time>2015-05-06T09:43:22Z</time>
      </trkpt>
      <trkpt lat="45.47091" lon="5.78806">
        <ele>928.970901521</ele>
        <time>2015-05-06T09:43:26Z</time>
      </trkpt>
      <trkpt lat="45.47089" lon="5.78807">
        <ele>929.422369311</ele>
        <time>2015-05-06T09:43:32Z</time>
      </trkpt>
      <trkpt lat="45.47077" lon="5.78806">
        <ele>930.141500552</ele>
        <time>2015-05-06T09:43:36Z</time>
      </trkpt>
      <trkpt lat="45.47069" lon="5.78807">
        <ele>930.141500552</ele>
        <time>2015-05-06T09:43:42Z</time>
      </trkpt>
      <trkpt lat="45.47063" lon="5.78805">
        <ele>931.254038927</ele>
        <time>2015-05-06T09:43:46Z</time>
      </trkpt>
      <trkpt lat="45.47052" lon="5.78804">
        <ele>932.299086449</ele>
        <time>2015-05-06T09:43:52Z</time>
      </trkpt>
      <trkpt lat="45.47044" lon="5.78806">
        <ele>932.299086449</ele>
        <time>2015-05-06T09:43:56Z</time>
      </trkpt>
      <trkpt lat="45.47034" lon="5.78803">
        <ele>934.002812092</ele>
        <time>2015-05-06T09:44:02Z</time>
      </trkpt>
      <trkpt lat="45.47019" lon="5.788">
        <ele>935.306979092</ele>
        <time>2015-05-06T09:44:06Z</time>
      </trkpt>
      <trkpt lat="45.47015" lon="5.78798">
        <ele>935.306979092</ele>
        <time>2015-05-06T09:44:12Z</time>
      </trkpt>
      <trkpt lat="45.47005" lon="5.78801">
        <ele>936.241097338</ele>
        <time>2015-05-06T09:44:16Z</time>
      </trkpt>
      <trkpt lat="45.46995" lon="5.78803">
        <ele>936.68953558</ele>
        <time>2015-05-06T09:44:22Z</time>
      </trkpt>
      <trkpt lat="45.46988" lon="5.78805">
        <ele>936.68953558</ele>
        <time>2015-05-06T09:44:26Z</time>
      </trkpt>
      <trkpt lat="45.46986" lon="5.78811">
        <ele>936.690718108</ele>
        <time>2015-05-06T09:44:32Z</time>
      </trkpt>
      <trkpt lat="45.46979" lon="5.78814">
        <ele>936.690718108</ele>
        <time>2015-05-06T09:44:36Z</time>
      </trkpt>
      <trkpt lat="45.46967" lon="5.78817">
        <ele>937.578576769</ele>
        <time>2015-05-06T09:44:42Z</time>
      </trkpt>
      <trkpt lat="45.46952" lon="5.78823">
        <ele>938.713183251</ele>
        <time>2015-05-06T09:44:46Z</time>
      </trkpt>
      <trkpt lat="45.46948" lon="5.78828">
        <ele>938.713183251</ele>
        <time>2015-05-06T09:44:52Z</time>
      </trkpt>
      <trkpt lat="45.46949" lon="5.78839">
        <ele>939.212753271</ele>
        <time>2015-05-06T09:44:56Z</time>
      </trkpt>
      <trkpt lat="45.46944" lon="5.78848">
        <ele>939.212753271</ele>
        <time>2015-05-06T09:45:02Z</time>
      </trkpt>
      <trkpt lat="45.46937" lon="5.78852">
        <ele>939.703209989</ele>
        <time>2015-05-06T09:45:05Z</time>
      </trkpt>
      <trkpt lat="45.46927" lon="5.78861">
        <ele>939.755772437</ele>
        <time>2015-05-06T09:45:12Z</time>
      </trkpt>
      <trkpt lat="45.46916" lon="5.78863">
        <ele>939.983181619</ele>
        <time>2015-05-06T09:45:16Z</time>
      </trkpt>
      <trkpt lat="45.46907" lon="5.78871">
        <ele>940.088014808</ele>
        <time>2015-05-06T09:45:22Z</time>
      </trkpt>
      <trkpt lat="45.469" lon="5.78877">
        <ele>940.088014808</ele>
        <time>2015-05-06T09:45:26Z</time>
      </trkpt>
      <trkpt lat="45.46891" lon="5.78888">
        <ele>940.083257342</ele>
        <time>2015-05-06T09:45:32Z</time>
      </trkpt>
      <trkpt lat="45.46884" lon="5.78893">
        <ele>940.083257342</ele>
        <time>2015-05-06T09:45:36Z</time>
      </trkpt>
      <trkpt lat="45.46872" lon="5.78906">
        <ele>940.125341015</ele>
        <time>2015-05-06T09:45:42Z</time>
      </trkpt>
      <trkpt lat="45.46865" lon="5.78913">
        <ele>940.125341015</ele>
        <time>2015-05-06T09:45:46Z</time>
      </trkpt>
      <trkpt lat="45.46852" lon="5.78913">
        <ele>939.638488958</ele>
        <time>2015-05-06T09:45:52Z</time>
      </trkpt>
      <trkpt lat="45.46844" lon="5.7893">
        <ele>939.531774894</ele>
        <time>2015-05-06T09:45:56Z</time>
      </trkpt>
      <trkpt lat="45.46839" lon="5.78943">
        <ele>939.205262129</ele>
        <time>2015-05-06T09:46:01Z</time>
      </trkpt>
      <trkpt lat="45.46837" lon="5.78953">
        <ele>939.205262129</ele>
        <time>2015-05-06T09:46:06Z</time>
      </trkpt>
      <trkpt lat="45.46828" lon="5.7896">
        <ele>939.400640022</ele>
        <time>2015-05-06T09:46:12Z</time>
      </trkpt>
      <trkpt lat="45.46829" lon="5.78967">
        <ele>939.400640022</ele>
        <time>2015-05-06T09:46:16Z</time>
      </trkpt>
      <trkpt lat="45.46824" lon="5.78971">
        <ele>939.362467122</ele>
        <time>2015-05-06T09:46:22Z</time>
      </trkpt>
      <trkpt lat="45.46824" lon="5.78978">
        <ele>939.362467122</ele>
        <time>2015-05-06T09:46:26Z</time>
      </trkpt>
      <trkpt lat="45.46821" lon="5.7898">
        <ele>939.362467122</ele>
        <time>2015-05-06T09:46:32Z</time>
      </trkpt>
      <trkpt lat="45.4682" lon="5.78983">
        <ele>939.688374394</ele>
        <time>2015-05-06T09:46:36Z</time>
      </trkpt>
      <trkpt lat="45.4682" lon="5.78985">
        <ele>939.688374394</ele>
        <time>2015-05-06T09:46:42Z</time>
      </trkpt>
      <trkpt lat="45.4682" lon="5.79">
        <ele>939.633985994</ele>
        <time>2015-05-06T09:46:46Z</time>
      </trkpt>
      <trkpt lat="45.46812" lon="5.79007">
        <ele>938.942918843</ele>
        <time>2015-05-06T09:46:52Z</time>
      </trkpt>
      <trkpt lat="45.46804" lon="5.79009">
        <ele>938.942918843</ele>
        <time>2015-05-06T09:46:56Z</time>
      </trkpt>
      <trkpt lat="45.46803" lon="5.79009">
        <ele>938.820427165</ele>
        <time>2015-05-06T09:47:00Z</time>
      </trkpt>
      <trkpt lat="45.46803" lon="5.79009">
        <ele>938.820427165</ele>
        <time>2015-05-06T09:47:05Z</time>
      </trkpt>
      <trkpt lat="45.46804" lon="5.7901">
        <ele>938.820427165</ele>
        <time>2015-05-06T09:47:10Z</time>
      </trkpt>
      <trkpt lat="45.46803" lon="5.79009">
        <ele>938.820427165</ele>
        <time>2015-05-06T09:47:16Z</time>
      </trkpt>
      <trkpt lat="45.46803" lon="5.79009">
        <ele>938.820427165</ele>
        <time>2015-05-06T09:47:21Z</time>
      </trkpt>
      <trkpt lat="45.46804" lon="5.79011">
        <ele>938.820427165</ele>
        <time>2015-05-06T09:47:27Z</time>
      </trkpt>
      <trkpt lat="45.46798" lon="5.79021">
        <ele>937.643419287</ele>
        <time>2015-05-06T09:47:31Z</time>
      </trkpt>
      <trkpt lat="45.468" lon="5.79028">
        <ele>937.643419287</ele>
        <time>2015-05-06T09:47:37Z</time>
      </trkpt>
      <trkpt lat="45.46796" lon="5.79036">
        <ele>937.657775849</ele>
        <time>2015-05-06T09:47:41Z</time>
      </trkpt>
      <trkpt lat="45.46798" lon="5.79044">
        <ele>937.657775849</ele>
        <time>2015-05-06T09:47:47Z</time>
      </trkpt>
      <trkpt lat="45.46794" lon="5.79045">
        <ele>937.770495283</ele>
        <time>2015-05-06T09:47:52Z</time>
      </trkpt>
      <trkpt lat="45.46793" lon="5.79046">
        <ele>937.770495283</ele>
        <time>2015-05-06T09:47:56Z</time>
      </trkpt>
      <trkpt lat="45.46791" lon="5.79045">
        <ele>937.770495283</ele>
        <time>2015-05-06T09:48:02Z</time>
      </trkpt>
      <trkpt lat="45.46791" lon="5.79045">
        <ele>937.770495283</ele>
        <time>2015-05-06T09:48:06Z</time>
      </trkpt>
      <trkpt lat="45.46791" lon="5.79046">
        <ele>937.770495283</ele>
        <time>2015-05-06T09:48:12Z</time>
      </trkpt>
      <trkpt lat="45.46786" lon="5.79058">
        <ele>938.265475653</ele>
        <time>2015-05-06T09:48:16Z</time>
      </trkpt>
      <trkpt lat="45.46778" lon="5.79067">
        <ele>938.828126231</ele>
        <time>2015-05-06T09:48:21Z</time>
      </trkpt>
      <trkpt lat="45.46775" lon="5.79073">
        <ele>938.828126231</ele>
        <time>2015-05-06T09:48:25Z</time>
      </trkpt>
      <trkpt lat="45.46778" lon="5.79081">
        <ele>940.031329964</ele>
        <time>2015-05-06T09:48:31Z</time>
      </trkpt>
      <trkpt lat="45.46774" lon="5.79085">
        <ele>940.031329964</ele>
        <time>2015-05-06T09:48:36Z</time>
      </trkpt>
      <trkpt lat="45.46772" lon="5.79096">
        <ele>941.683426597</ele>
        <time>2015-05-06T09:48:42Z</time>
      </trkpt>
      <trkpt lat="45.46771" lon="5.79098">
        <ele>941.683426597</ele>
        <time>2015-05-06T09:48:46Z</time>
      </trkpt>
      <trkpt lat="45.46766" lon="5.79101">
        <ele>941.683426597</ele>
        <time>2015-05-06T09:48:52Z</time>
      </trkpt>
      <trkpt lat="45.46767" lon="5.7911">
        <ele>943.893701158</ele>
        <time>2015-05-06T09:48:56Z</time>
      </trkpt>
      <trkpt lat="45.46764" lon="5.79115">
        <ele>943.893701158</ele>
        <time>2015-05-06T09:49:02Z</time>
      </trkpt>
      <trkpt lat="45.4676" lon="5.79118">
        <ele>946.473538433</ele>
        <time>2015-05-06T09:49:06Z</time>
      </trkpt>
      <trkpt lat="45.46754" lon="5.7912">
        <ele>946.473538433</ele>
        <time>2015-05-06T09:49:12Z</time>
      </trkpt>
      <trkpt lat="45.46754" lon="5.79122">
        <ele>946.473538433</ele>
        <time>2015-05-06T09:49:16Z</time>
      </trkpt>
      <trkpt lat="45.46749" lon="5.79126">
        <ele>949.679408252</ele>
        <time>2015-05-06T09:49:22Z</time>
      </trkpt>
      <trkpt lat="45.46742" lon="5.79125">
        <ele>949.679408252</ele>
        <time>2015-05-06T09:49:26Z</time>
      </trkpt>
      <trkpt lat="45.46741" lon="5.79129">
        <ele>953.458914486</ele>
        <time>2015-05-06T09:49:32Z</time>
      </trkpt>
      <trkpt lat="45.46733" lon="5.79126">
        <ele>953.458914486</ele>
        <time>2015-05-06T09:49:36Z</time>
      </trkpt>
      <trkpt lat="45.46726" lon="5.79135">
        <ele>956.897208044</ele>
        <time>2015-05-06T09:49:42Z</time>
      </trkpt>
      <trkpt lat="45.46724" lon="5.79139">
        <ele>956.897208044</ele>
        <time>2015-05-06T09:49:46Z</time>
      </trkpt>
      <trkpt lat="45.46721" lon="5.79146">
        <ele>960.588710188</ele>
        <time>2015-05-06T09:49:52Z</time>
      </trkpt>
      <trkpt lat="45.46714" lon="5.79152">
        <ele>960.588710188</ele>
        <time>2015-05-06T09:49:56Z</time>
      </trkpt>
      <trkpt lat="45.46713" lon="5.79161">
        <ele>964.362930325</ele>
        <time>2015-05-06T09:50:02Z</time>
      </trkpt>
      <trkpt lat="45.46717" lon="5.79171">
        <ele>964.362930325</ele>
        <time>2015-05-06T09:50:06Z</time>
      </trkpt>
      <trkpt lat="45.46721" lon="5.79175">
        <ele>967.485266174</ele>
        <time>2015-05-06T09:50:12Z</time>
      </trkpt>
      <trkpt lat="45.46723" lon="5.7918">
        <ele>967.485266174</ele>
        <time>2015-05-06T09:50:16Z</time>
      </trkpt>
      <trkpt lat="45.46724" lon="5.79185">
        <ele>967.485266174</ele>
        <time>2015-05-06T09:50:22Z</time>
      </trkpt>
      <trkpt lat="45.46722" lon="5.79193">
        <ele>970.862190174</ele>
        <time>2015-05-06T09:50:26Z</time>
      </trkpt>
      <trkpt lat="45.46727" lon="5.79196">
        <ele>970.862190174</ele>
        <time>2015-05-06T09:50:32Z</time>
      </trkpt>
      <trkpt lat="45.46728" lon="5.79209">
        <ele>974.756504277</ele>
        <time>2015-05-06T09:50:36Z</time>
      </trkpt>
      <trkpt lat="45.46727" lon="5.7922">
        <ele>974.756504277</ele>
        <time>2015-05-06T09:50:41Z</time>
      </trkpt>
      <trkpt lat="45.46727" lon="5.7923">
        <ele>978.401568497</ele>
        <time>2015-05-06T09:50:45Z</time>
      </trkpt>
      <trkpt lat="45.46729" lon="5.79236">
        <ele>978.401568497</ele>
        <time>2015-05-06T09:50:52Z</time>
      </trkpt>
      <trkpt lat="45.46727" lon="5.79243">
        <ele>981.808421858</ele>
        <time>2015-05-06T09:50:56Z</time>
      </trkpt>
      <trkpt lat="45.46727" lon="5.79249">
        <ele>981.808421858</ele>
        <time>2015-05-06T09:51:02Z</time>
      </trkpt>
      <trkpt lat="45.46727" lon="5.79255">
        <ele>981.808421858</ele>
        <time>2015-05-06T09:51:06Z</time>
      </trkpt>
      <trkpt lat="45.46731" lon="5.79262">
        <ele>985.132192008</ele>
        <time>2015-05-06T09:51:12Z</time>
      </trkpt>
      <trkpt lat="45.46731" lon="5.79269">
        <ele>985.132192008</ele>
        <time>2015-05-06T09:51:16Z</time>
      </trkpt>
      <trkpt lat="45.46734" lon="5.79271">
        <ele>985.132192008</ele>
        <time>2015-05-06T09:51:22Z</time>
      </trkpt>
      <trkpt lat="45.46733" lon="5.79272">
        <ele>985.132192008</ele>
        <time>2015-05-06T09:51:26Z</time>
      </trkpt>
      <trkpt lat="45.46733" lon="5.79273">
        <ele>988.516975656</ele>
        <time>2015-05-06T09:51:32Z</time>
      </trkpt>
      <trkpt lat="45.46733" lon="5.79273">
        <ele>988.516975656</ele>
        <time>2015-05-06T09:51:35Z</time>
      </trkpt>
      <trkpt lat="45.46733" lon="5.79273">
        <ele>988.516975656</ele>
        <time>2015-05-06T09:51:42Z</time>
      </trkpt>
      <trkpt lat="45.46733" lon="5.79273">
        <ele>988.516975656</ele>
        <time>2015-05-06T09:51:45Z</time>
      </trkpt>
      <trkpt lat="45.46733" lon="5.79273">
        <ele>988.516975656</ele>
        <time>2015-05-06T09:51:50Z</time>
      </trkpt>
      <trkpt lat="45.46724" lon="5.7928">
        <ele>991.5198086</ele>
        <time>2015-05-06T09:51:55Z</time>
      </trkpt>
      <trkpt lat="45.46724" lon="5.79294">
        <ele>994.307929135</ele>
        <time>2015-05-06T09:52:00Z</time>
      </trkpt>
      <trkpt lat="45.46727" lon="5.7929">
        <ele>994.307929135</ele>
        <time>2015-05-06T09:52:05Z</time>
      </trkpt>
      <trkpt lat="45.46724" lon="5.79292">
        <ele>994.307929135</ele>
        <time>2015-05-06T09:52:11Z</time>
      </trkpt>
      <trkpt lat="45.46724" lon="5.79292">
        <ele>994.307929135</ele>
        <time>2015-05-06T09:52:17Z</time>
      </trkpt>
      <trkpt lat="45.46724" lon="5.79292">
        <ele>994.307929135</ele>
        <time>2015-05-06T09:52:21Z</time>
      </trkpt>
      <trkpt lat="45.46725" lon="5.79307">
        <ele>996.892931883</ele>
        <time>2015-05-06T09:52:27Z</time>
      </trkpt>
      <trkpt lat="45.46728" lon="5.79322">
        <ele>999.574504219</ele>
        <time>2015-05-06T09:52:31Z</time>
      </trkpt>
      <trkpt lat="45.4673" lon="5.79338">
        <ele>1002.341978026</ele>
        <time>2015-05-06T09:52:36Z</time>
      </trkpt>
      <trkpt lat="45.46735" lon="5.79343">
        <ele>1002.341978026</ele>
        <time>2015-05-06T09:52:41Z</time>
      </trkpt>
      <trkpt lat="45.46741" lon="5.79349">
        <ele>1004.608934352</ele>
        <time>2015-05-06T09:52:47Z</time>
      </trkpt>
      <trkpt lat="45.46747" lon="5.79359">
        <ele>1006.554140341</ele>
        <time>2015-05-06T09:52:51Z</time>
      </trkpt>
      <trkpt lat="45.46754" lon="5.79367">
        <ele>1006.554140341</ele>
        <time>2015-05-06T09:52:57Z</time>
      </trkpt>
      <trkpt lat="45.46755" lon="5.79372">
        <ele>1008.920722852</ele>
        <time>2015-05-06T09:53:01Z</time>
      </trkpt>
      <trkpt lat="45.46761" lon="5.79378">
        <ele>1008.920722852</ele>
        <time>2015-05-06T09:53:07Z</time>
      </trkpt>
      <trkpt lat="45.46771" lon="5.79391">
        <ele>1010.810953161</ele>
        <time>2015-05-06T09:53:11Z</time>
      </trkpt>
      <trkpt lat="45.46772" lon="5.79394">
        <ele>1010.810953161</ele>
        <time>2015-05-06T09:53:17Z</time>
      </trkpt>
      <trkpt lat="45.46774" lon="5.79405">
        <ele>1012.259184037</ele>
        <time>2015-05-06T09:53:21Z</time>
      </trkpt>
      <trkpt lat="45.46777" lon="5.79415">
        <ele>1012.259184037</ele>
        <time>2015-05-06T09:53:26Z</time>
      </trkpt>
      <trkpt lat="45.46784" lon="5.79412">
        <ele>1012.866272826</ele>
        <time>2015-05-06T09:53:30Z</time>
      </trkpt>
      <trkpt lat="45.46786" lon="5.79417">
        <ele>1012.866272826</ele>
        <time>2015-05-06T09:53:35Z</time>
      </trkpt>
      <trkpt lat="45.46787" lon="5.79419">
        <ele>1012.866272826</ele>
        <time>2015-05-06T09:53:41Z</time>
      </trkpt>
      <trkpt lat="45.46787" lon="5.79424">
        <ele>1013.561867704</ele>
        <time>2015-05-06T09:53:46Z</time>
      </trkpt>
      <trkpt lat="45.46786" lon="5.79425">
        <ele>1013.561867704</ele>
        <time>2015-05-06T09:53:52Z</time>
      </trkpt>
      <trkpt lat="45.46786" lon="5.79426">
        <ele>1013.561867704</ele>
        <time>2015-05-06T09:53:56Z</time>
      </trkpt>
      <trkpt lat="45.46798" lon="5.79436">
        <ele>1013.477837354</ele>
        <time>2015-05-06T09:54:02Z</time>
      </trkpt>
      <trkpt lat="45.46812" lon="5.79455">
        <ele>1013.109086223</ele>
        <time>2015-05-06T09:54:06Z</time>
      </trkpt>
      <trkpt lat="45.46824" lon="5.79469">
        <ele>1012.626795135</ele>
        <time>2015-05-06T09:54:11Z</time>
      </trkpt>
      <trkpt lat="45.46832" lon="5.79481">
        <ele>1012.045811437</ele>
        <time>2015-05-06T09:54:17Z</time>
      </trkpt>
      <trkpt lat="45.46838" lon="5.79495">
        <ele>1010.515512207</ele>
        <time>2015-05-06T09:54:21Z</time>
      </trkpt>
      <trkpt lat="45.4684" lon="5.79503">
        <ele>1010.515512207</ele>
        <time>2015-05-06T09:54:27Z</time>
      </trkpt>
      <trkpt lat="45.46849" lon="5.79514">
        <ele>1008.40329896</ele>
        <time>2015-05-06T09:54:31Z</time>
      </trkpt>
      <trkpt lat="45.46852" lon="5.79524">
        <ele>1008.40329896</ele>
        <time>2015-05-06T09:54:36Z</time>
      </trkpt>
      <trkpt lat="45.46855" lon="5.79544">
        <ele>1007.204067236</ele>
        <time>2015-05-06T09:54:41Z</time>
      </trkpt>
      <trkpt lat="45.46855" lon="5.79558">
        <ele>1005.850384099</ele>
        <time>2015-05-06T09:54:47Z</time>
      </trkpt>
      <trkpt lat="45.46852" lon="5.79569">
        <ele>1005.850384099</ele>
        <time>2015-05-06T09:54:51Z</time>
      </trkpt>
      <trkpt lat="45.46854" lon="5.79574">
        <ele>1004.650576969</ele>
        <time>2015-05-06T09:54:55Z</time>
      </trkpt>
      <trkpt lat="45.4685" lon="5.79597">
        <ele>1003.457451971</ele>
        <time>2015-05-06T09:55:00Z</time>
      </trkpt>
      <trkpt lat="45.46841" lon="5.79612">
        <ele>1001.990374007</ele>
        <time>2015-05-06T09:55:05Z</time>
      </trkpt>
      <trkpt lat="45.46839" lon="5.7962">
        <ele>1001.990374007</ele>
        <time>2015-05-06T09:55:10Z</time>
      </trkpt>
      <trkpt lat="45.46836" lon="5.79621">
        <ele>1000.134062126</ele>
        <time>2015-05-06T09:55:16Z</time>
      </trkpt>
      <trkpt lat="45.46834" lon="5.79639">
        <ele>998.07086102</ele>
        <time>2015-05-06T09:55:22Z</time>
      </trkpt>
      <trkpt lat="45.46839" lon="5.79657">
        <ele>995.681904693</ele>
        <time>2015-05-06T09:55:26Z</time>
      </trkpt>
      <trkpt lat="45.46839" lon="5.7967">
        <ele>995.681904693</ele>
        <time>2015-05-06T09:55:32Z</time>
      </trkpt>
      <trkpt lat="45.46833" lon="5.79686">
        <ele>992.137224236</ele>
        <time>2015-05-06T09:55:36Z</time>
      </trkpt>
      <trkpt lat="45.46826" lon="5.797">
        <ele>988.544294175</ele>
        <time>2015-05-06T09:55:41Z</time>
      </trkpt>
      <trkpt lat="45.46813" lon="5.79706">
        <ele>985.64091457</ele>
        <time>2015-05-06T09:55:46Z</time>
      </trkpt>
      <trkpt lat="45.46805" lon="5.79709">
        <ele>985.64091457</ele>
        <time>2015-05-06T09:55:52Z</time>
      </trkpt>
      <trkpt lat="45.46796" lon="5.79712">
        <ele>982.2350538</ele>
        <time>2015-05-06T09:55:56Z</time>
      </trkpt>
      <trkpt lat="45.46789" lon="5.79726">
        <ele>978.952716968</ele>
        <time>2015-05-06T09:56:02Z</time>
      </trkpt>
      <trkpt lat="45.46788" lon="5.7974">
        <ele>975.796843065</ele>
        <time>2015-05-06T09:56:06Z</time>
      </trkpt>
      <trkpt lat="45.46794" lon="5.79755">
        <ele>973.201832284</ele>
        <time>2015-05-06T09:56:12Z</time>
      </trkpt>
      <trkpt lat="45.46795" lon="5.79772">
        <ele>970.847733363</ele>
        <time>2015-05-06T09:56:16Z</time>
      </trkpt>
      <trkpt lat="45.46799" lon="5.79788">
        <ele>968.725327705</ele>
        <time>2015-05-06T09:56:22Z</time>
      </trkpt>
      <trkpt lat="45.468" lon="5.79807">
        <ele>966.536881899</ele>
        <time>2015-05-06T09:56:26Z</time>
      </trkpt>
      <trkpt lat="45.46804" lon="5.79822">
        <ele>964.150510579</ele>
        <time>2015-05-06T09:56:32Z</time>
      </trkpt>
      <trkpt lat="45.46805" lon="5.79839">
        <ele>962.020698611</ele>
        <time>2015-05-06T09:56:36Z</time>
      </trkpt>
      <trkpt lat="45.46805" lon="5.79852">
        <ele>959.991065302</ele>
        <time>2015-05-06T09:56:42Z</time>
      </trkpt>
      <trkpt lat="45.46807" lon="5.79866">
        <ele>958.06023676</ele>
        <time>2015-05-06T09:56:46Z</time>
      </trkpt>
      <trkpt lat="45.46806" lon="5.79876">
        <ele>958.06023676</ele>
        <time>2015-05-06T09:56:52Z</time>
      </trkpt>
      <trkpt lat="45.46803" lon="5.79885">
        <ele>955.073465922</ele>
        <time>2015-05-06T09:56:56Z</time>
      </trkpt>
      <trkpt lat="45.46799" lon="5.79891">
        <ele>955.073465922</ele>
        <time>2015-05-06T09:57:01Z</time>
      </trkpt>
      <trkpt lat="45.46795" lon="5.79899">
        <ele>952.125158365</ele>
        <time>2015-05-06T09:57:06Z</time>
      </trkpt>
      <trkpt lat="45.46794" lon="5.79909">
        <ele>952.125158365</ele>
        <time>2015-05-06T09:57:12Z</time>
      </trkpt>
      <trkpt lat="45.46788" lon="5.79922">
        <ele>948.643691817</ele>
        <time>2015-05-06T09:57:16Z</time>
      </trkpt>
      <trkpt lat="45.46785" lon="5.79933">
        <ele>948.643691817</ele>
        <time>2015-05-06T09:57:22Z</time>
      </trkpt>
      <trkpt lat="45.46785" lon="5.79944">
        <ele>945.25351708</ele>
        <time>2015-05-06T09:57:26Z</time>
      </trkpt>
      <trkpt lat="45.46786" lon="5.79955">
        <ele>945.25351708</ele>
        <time>2015-05-06T09:57:32Z</time>
      </trkpt>
      <trkpt lat="45.46781" lon="5.79965">
        <ele>942.38854221</ele>
        <time>2015-05-06T09:57:36Z</time>
      </trkpt>
      <trkpt lat="45.46774" lon="5.79976">
        <ele>939.872579682</ele>
        <time>2015-05-06T09:57:41Z</time>
      </trkpt>
      <trkpt lat="45.46769" lon="5.79993">
        <ele>938.117551172</ele>
        <time>2015-05-06T09:57:47Z</time>
      </trkpt>
      <trkpt lat="45.46766" lon="5.80004">
        <ele>938.117551172</ele>
        <time>2015-05-06T09:57:51Z</time>
      </trkpt>
      <trkpt lat="45.46746" lon="5.80018">
        <ele>936.205691846</ele>
        <time>2015-05-06T09:57:56Z</time>
      </trkpt>
      <trkpt lat="45.46743" lon="5.80036">
        <ele>933.86325764</ele>
        <time>2015-05-06T09:58:02Z</time>
      </trkpt>
      <trkpt lat="45.46744" lon="5.80055">
        <ele>931.125771529</ele>
        <time>2015-05-06T09:58:06Z</time>
      </trkpt>
      <trkpt lat="45.46742" lon="5.80069">
        <ele>928.45932601</ele>
        <time>2015-05-06T09:58:12Z</time>
      </trkpt>
      <trkpt lat="45.46745" lon="5.80081">
        <ele>928.45932601</ele>
        <time>2015-05-06T09:58:16Z</time>
      </trkpt>
      <trkpt lat="45.46748" lon="5.80097">
        <ele>925.862987134</ele>
        <time>2015-05-06T09:58:22Z</time>
      </trkpt>
      <trkpt lat="45.46747" lon="5.80113">
        <ele>923.623668043</ele>
        <time>2015-05-06T09:58:26Z</time>
      </trkpt>
      <trkpt lat="45.46751" lon="5.80127">
        <ele>922.005965755</ele>
        <time>2015-05-06T09:58:32Z</time>
      </trkpt>
      <trkpt lat="45.46761" lon="5.80137">
        <ele>920.67662497</ele>
        <time>2015-05-06T09:58:36Z</time>
      </trkpt>
      <trkpt lat="45.46767" lon="5.80146">
        <ele>920.67662497</ele>
        <time>2015-05-06T09:58:42Z</time>
      </trkpt>
      <trkpt lat="45.46775" lon="5.80158">
        <ele>919.181737733</ele>
        <time>2015-05-06T09:58:46Z</time>
      </trkpt>
      <trkpt lat="45.46783" lon="5.80173">
        <ele>917.821562215</ele>
        <time>2015-05-06T09:58:52Z</time>
      </trkpt>
      <trkpt lat="45.46792" lon="5.80186">
        <ele>916.297295068</ele>
        <time>2015-05-06T09:58:56Z</time>
      </trkpt>
      <trkpt lat="45.46791" lon="5.80206">
        <ele>914.620598325</ele>
        <time>2015-05-06T09:59:02Z</time>
      </trkpt>
      <trkpt lat="45.46796" lon="5.80222">
        <ele>913.378997009</ele>
        <time>2015-05-06T09:59:06Z</time>
      </trkpt>
      <trkpt lat="45.46797" lon="5.80235">
        <ele>911.96260815</ele>
        <time>2015-05-06T09:59:12Z</time>
      </trkpt>
      <trkpt lat="45.46799" lon="5.80243">
        <ele>911.96260815</ele>
        <time>2015-05-06T09:59:16Z</time>
      </trkpt>
      <trkpt lat="45.468" lon="5.80247">
        <ele>911.96260815</ele>
        <time>2015-05-06T09:59:22Z</time>
      </trkpt>
      <trkpt lat="45.46801" lon="5.80248">
        <ele>909.662602476</ele>
        <time>2015-05-06T09:59:26Z</time>
      </trkpt>
      <trkpt lat="45.46801" lon="5.80249">
        <ele>909.662602476</ele>
        <time>2015-05-06T09:59:32Z</time>
      </trkpt>
      <trkpt lat="45.46801" lon="5.80249">
        <ele>909.662602476</ele>
        <time>2015-05-06T09:59:36Z</time>
      </trkpt>
      <trkpt lat="45.46801" lon="5.80249">
        <ele>909.662602476</ele>
        <time>2015-05-06T09:59:42Z</time>
      </trkpt>
      <trkpt lat="45.46806" lon="5.80248">
        <ele>909.662602476</ele>
        <time>2015-05-06T09:59:46Z</time>
      </trkpt>
      <trkpt lat="45.4681" lon="5.80253">
        <ele>906.68924875</ele>
        <time>2015-05-06T09:59:52Z</time>
      </trkpt>
      <trkpt lat="45.46812" lon="5.80263">
        <ele>906.68924875</ele>
        <time>2015-05-06T09:59:56Z</time>
      </trkpt>
      <trkpt lat="45.46813" lon="5.80269">
        <ele>904.392037358</ele>
        <time>2015-05-06T10:00:01Z</time>
      </trkpt>
      <trkpt lat="45.46818" lon="5.80275">
        <ele>904.392037358</ele>
        <time>2015-05-06T10:00:07Z</time>
      </trkpt>
      <trkpt lat="45.4682" lon="5.80279">
        <ele>902.28998985</ele>
        <time>2015-05-06T10:00:11Z</time>
      </trkpt>
      <trkpt lat="45.4683" lon="5.80282">
        <ele>900.657368218</ele>
        <time>2015-05-06T10:00:17Z</time>
      </trkpt>
      <trkpt lat="45.46839" lon="5.80284">
        <ele>898.738097876</ele>
        <time>2015-05-06T10:00:21Z</time>
      </trkpt>
      <trkpt lat="45.46853" lon="5.80284">
        <ele>896.98525199</ele>
        <time>2015-05-06T10:00:27Z</time>
      </trkpt>
      <trkpt lat="45.46865" lon="5.80291">
        <ele>895.529854435</ele>
        <time>2015-05-06T10:00:31Z</time>
      </trkpt>
      <trkpt lat="45.46878" lon="5.80302">
        <ele>894.060067867</ele>
        <time>2015-05-06T10:00:36Z</time>
      </trkpt>
      <trkpt lat="45.46882" lon="5.80313">
        <ele>894.060067867</ele>
        <time>2015-05-06T10:00:41Z</time>
      </trkpt>
      <trkpt lat="45.46886" lon="5.80336">
        <ele>892.86338877</ele>
        <time>2015-05-06T10:00:47Z</time>
      </trkpt>
      <trkpt lat="45.4689" lon="5.80348">
        <ele>891.34071235</ele>
        <time>2015-05-06T10:00:51Z</time>
      </trkpt>
      <trkpt lat="45.46897" lon="5.80365">
        <ele>890.523043146</ele>
        <time>2015-05-06T10:00:57Z</time>
      </trkpt>
      <trkpt lat="45.46904" lon="5.80384">
        <ele>890.354867013</ele>
        <time>2015-05-06T10:01:01Z</time>
      </trkpt>
      <trkpt lat="45.46906" lon="5.80404">
        <ele>890.350580146</ele>
        <time>2015-05-06T10:01:07Z</time>
      </trkpt>
      <trkpt lat="45.46913" lon="5.80421">
        <ele>890.780350683</ele>
        <time>2015-05-06T10:01:11Z</time>
      </trkpt>
      <trkpt lat="45.46913" lon="5.80437">
        <ele>890.740414087</ele>
        <time>2015-05-06T10:01:17Z</time>
      </trkpt>
      <trkpt lat="45.46918" lon="5.80449">
        <ele>890.979974647</ele>
        <time>2015-05-06T10:01:21Z</time>
      </trkpt>
      <trkpt lat="45.4693" lon="5.80457">
        <ele>891.039581789</ele>
        <time>2015-05-06T10:01:27Z</time>
      </trkpt>
      <trkpt lat="45.4694" lon="5.80466">
        <ele>890.638220651</ele>
        <time>2015-05-06T10:01:31Z</time>
      </trkpt>
      <trkpt lat="45.4695" lon="5.80476">
        <ele>889.949226216</ele>
        <time>2015-05-06T10:01:37Z</time>
      </trkpt>
      <trkpt lat="45.46959" lon="5.80483">
        <ele>889.710541578</ele>
        <time>2015-05-06T10:01:41Z</time>
      </trkpt>
      <trkpt lat="45.46965" lon="5.80498">
        <ele>889.307734023</ele>
        <time>2015-05-06T10:01:47Z</time>
      </trkpt>
      <trkpt lat="45.46965" lon="5.80523">
        <ele>888.748514173</ele>
        <time>2015-05-06T10:01:51Z</time>
      </trkpt>
      <trkpt lat="45.46965" lon="5.80547">
        <ele>888.184683362</ele>
        <time>2015-05-06T10:01:57Z</time>
      </trkpt>
      <trkpt lat="45.46968" lon="5.80565">
        <ele>887.757016098</ele>
        <time>2015-05-06T10:02:01Z</time>
      </trkpt>
      <trkpt lat="45.46972" lon="5.8058">
        <ele>886.87512182</ele>
        <time>2015-05-06T10:02:07Z</time>
      </trkpt>
      <trkpt lat="45.46979" lon="5.80594">
        <ele>886.002147485</ele>
        <time>2015-05-06T10:02:11Z</time>
      </trkpt>
      <trkpt lat="45.46986" lon="5.80607">
        <ele>885.134974693</ele>
        <time>2015-05-06T10:02:17Z</time>
      </trkpt>
      <trkpt lat="45.46997" lon="5.8061">
        <ele>884.270812763</ele>
        <time>2015-05-06T10:02:21Z</time>
      </trkpt>
      <trkpt lat="45.47009" lon="5.80614">
        <ele>884.127737942</ele>
        <time>2015-05-06T10:02:27Z</time>
      </trkpt>
      <trkpt lat="45.47022" lon="5.8062">
        <ele>883.783945816</ele>
        <time>2015-05-06T10:02:31Z</time>
      </trkpt>
      <trkpt lat="45.4703" lon="5.80633">
        <ele>883.394803678</ele>
        <time>2015-05-06T10:02:37Z</time>
      </trkpt>
      <trkpt lat="45.47044" lon="5.80641">
        <ele>882.816286761</ele>
        <time>2015-05-06T10:02:41Z</time>
      </trkpt>
      <trkpt lat="45.47055" lon="5.80653">
        <ele>882.203820847</ele>
        <time>2015-05-06T10:02:47Z</time>
      </trkpt>
      <trkpt lat="45.4706" lon="5.80677">
        <ele>881.125180503</ele>
        <time>2015-05-06T10:02:51Z</time>
      </trkpt>
      <trkpt lat="45.47064" lon="5.80692">
        <ele>879.757756282</ele>
        <time>2015-05-06T10:02:57Z</time>
      </trkpt>
      <trkpt lat="45.47068" lon="5.8071">
        <ele>878.266825234</ele>
        <time>2015-05-06T10:03:01Z</time>
      </trkpt>
      <trkpt lat="45.47073" lon="5.80725">
        <ele>876.517747503</ele>
        <time>2015-05-06T10:03:07Z</time>
      </trkpt>
      <trkpt lat="45.47086" lon="5.80733">
        <ele>874.530700005</ele>
        <time>2015-05-06T10:03:11Z</time>
      </trkpt>
      <trkpt lat="45.47094" lon="5.80745">
        <ele>872.901570903</ele>
        <time>2015-05-06T10:03:17Z</time>
      </trkpt>
      <trkpt lat="45.47103" lon="5.80758">
        <ele>871.605097919</ele>
        <time>2015-05-06T10:03:21Z</time>
      </trkpt>
      <trkpt lat="45.47116" lon="5.80769">
        <ele>870.328782466</ele>
        <time>2015-05-06T10:03:27Z</time>
      </trkpt>
      <trkpt lat="45.47121" lon="5.80782">
        <ele>868.927192926</ele>
        <time>2015-05-06T10:03:31Z</time>
      </trkpt>
      <trkpt lat="45.47126" lon="5.808">
        <ele>867.842428348</ele>
        <time>2015-05-06T10:03:36Z</time>
      </trkpt>
      <trkpt lat="45.47136" lon="5.80813">
        <ele>866.762713841</ele>
        <time>2015-05-06T10:03:42Z</time>
      </trkpt>
      <trkpt lat="45.47145" lon="5.80828">
        <ele>865.39920605</ele>
        <time>2015-05-06T10:03:46Z</time>
      </trkpt>
      <trkpt lat="45.4715" lon="5.80842">
        <ele>864.061559783</ele>
        <time>2015-05-06T10:03:52Z</time>
      </trkpt>
      <trkpt lat="45.47156" lon="5.80858">
        <ele>862.748423334</ele>
        <time>2015-05-06T10:03:56Z</time>
      </trkpt>
      <trkpt lat="45.47166" lon="5.80867">
        <ele>861.602618432</ele>
        <time>2015-05-06T10:04:02Z</time>
      </trkpt>
      <trkpt lat="45.47173" lon="5.80876">
        <ele>860.323700222</ele>
        <time>2015-05-06T10:04:06Z</time>
      </trkpt>
      <trkpt lat="45.47182" lon="5.8089">
        <ele>858.633691646</ele>
        <time>2015-05-06T10:04:12Z</time>
      </trkpt>
      <trkpt lat="45.47191" lon="5.80903">
        <ele>856.996764425</ele>
        <time>2015-05-06T10:04:16Z</time>
      </trkpt>
      <trkpt lat="45.47201" lon="5.80917">
        <ele>855.41052512</ele>
        <time>2015-05-06T10:04:22Z</time>
      </trkpt>
      <trkpt lat="45.47211" lon="5.80928">
        <ele>853.728512448</ele>
        <time>2015-05-06T10:04:26Z</time>
      </trkpt>
      <trkpt lat="45.47218" lon="5.80937">
        <ele>852.103519459</ele>
        <time>2015-05-06T10:04:32Z</time>
      </trkpt>
      <trkpt lat="45.47229" lon="5.80951">
        <ele>850.676954978</ele>
        <time>2015-05-06T10:04:36Z</time>
      </trkpt>
      <trkpt lat="45.47238" lon="5.80959">
        <ele>849.146945578</ele>
        <time>2015-05-06T10:04:42Z</time>
      </trkpt>
      <trkpt lat="45.47247" lon="5.80971">
        <ele>847.522297816</ele>
        <time>2015-05-06T10:04:46Z</time>
      </trkpt>
      <trkpt lat="45.47255" lon="5.8098">
        <ele>845.379091158</ele>
        <time>2015-05-06T10:04:52Z</time>
      </trkpt>
      <trkpt lat="45.47264" lon="5.80994">
        <ele>842.902428038</ele>
        <time>2015-05-06T10:04:56Z</time>
      </trkpt>
      <trkpt lat="45.47276" lon="5.81">
        <ele>840.552947397</ele>
        <time>2015-05-06T10:05:02Z</time>
      </trkpt>
      <trkpt lat="45.47279" lon="5.80999">
        <ele>840.552947397</ele>
        <time>2015-05-06T10:05:06Z</time>
      </trkpt>
      <trkpt lat="45.4728" lon="5.80999">
        <ele>840.552947397</ele>
        <time>2015-05-06T10:05:12Z</time>
      </trkpt>
      <trkpt lat="45.4728" lon="5.81">
        <ele>840.552947397</ele>
        <time>2015-05-06T10:05:16Z</time>
      </trkpt>
      <trkpt lat="45.47288" lon="5.81008">
        <ele>838.03650575</ele>
        <time>2015-05-06T10:05:22Z</time>
      </trkpt>
      <trkpt lat="45.47298" lon="5.8102">
        <ele>835.369217682</ele>
        <time>2015-05-06T10:05:26Z</time>
      </trkpt>
      <trkpt lat="45.47305" lon="5.81031">
        <ele>832.710499454</ele>
        <time>2015-05-06T10:05:32Z</time>
      </trkpt>
      <trkpt lat="45.4731" lon="5.81046">
        <ele>830.640310002</ele>
        <time>2015-05-06T10:05:36Z</time>
      </trkpt>
      <trkpt lat="45.47318" lon="5.81069">
        <ele>828.829624846</ele>
        <time>2015-05-06T10:05:42Z</time>
      </trkpt>
      <trkpt lat="45.47325" lon="5.8108">
        <ele>826.540461337</ele>
        <time>2015-05-06T10:05:46Z</time>
      </trkpt>
      <trkpt lat="45.47337" lon="5.81087">
        <ele>824.819656218</ele>
        <time>2015-05-06T10:05:52Z</time>
      </trkpt>
      <trkpt lat="45.47342" lon="5.81097">
        <ele>824.819656218</ele>
        <time>2015-05-06T10:05:56Z</time>
      </trkpt>
      <trkpt lat="45.47355" lon="5.81105">
        <ele>822.617925421</ele>
        <time>2015-05-06T10:06:02Z</time>
      </trkpt>
      <trkpt lat="45.47364" lon="5.81117">
        <ele>820.549565651</ele>
        <time>2015-05-06T10:06:06Z</time>
      </trkpt>
      <trkpt lat="45.47367" lon="5.81138">
        <ele>818.606857184</ele>
        <time>2015-05-06T10:06:12Z</time>
      </trkpt>
      <trkpt lat="45.47378" lon="5.81149">
        <ele>816.4940003</ele>
        <time>2015-05-06T10:06:16Z</time>
      </trkpt>
      <trkpt lat="45.47386" lon="5.81158">
        <ele>814.225551051</ele>
        <time>2015-05-06T10:06:22Z</time>
      </trkpt>
      <trkpt lat="45.47398" lon="5.81177">
        <ele>812.103581405</ele>
        <time>2015-05-06T10:06:26Z</time>
      </trkpt>
      <trkpt lat="45.474" lon="5.81195">
        <ele>809.975154742</ele>
        <time>2015-05-06T10:06:32Z</time>
      </trkpt>
      <trkpt lat="45.474" lon="5.81209">
        <ele>807.98673513</ele>
        <time>2015-05-06T10:06:36Z</time>
      </trkpt>
      <trkpt lat="45.47387" lon="5.81225">
        <ele>806.273561034</ele>
        <time>2015-05-06T10:06:41Z</time>
      </trkpt>
      <trkpt lat="45.47373" lon="5.81221">
        <ele>804.960092985</ele>
        <time>2015-05-06T10:06:46Z</time>
      </trkpt>
      <trkpt lat="45.47363" lon="5.8123">
        <ele>803.72812665</ele>
        <time>2015-05-06T10:06:52Z</time>
      </trkpt>
      <trkpt lat="45.47357" lon="5.81247">
        <ele>801.994319222</ele>
        <time>2015-05-06T10:06:56Z</time>
      </trkpt>
      <trkpt lat="45.47346" lon="5.81243">
        <ele>800.228308398</ele>
        <time>2015-05-06T10:07:01Z</time>
      </trkpt>
      <trkpt lat="45.47343" lon="5.81244">
        <ele>800.228308398</ele>
        <time>2015-05-06T10:07:05Z</time>
      </trkpt>
      <trkpt lat="45.47341" lon="5.81246">
        <ele>800.228308398</ele>
        <time>2015-05-06T10:07:10Z</time>
      </trkpt>
      <trkpt lat="45.47337" lon="5.81244">
        <ele>799.009382061</ele>
        <time>2015-05-06T10:07:15Z</time>
      </trkpt>
      <trkpt lat="45.47319" lon="5.81242">
        <ele>797.863914151</ele>
        <time>2015-05-06T10:07:21Z</time>
      </trkpt>
      <trkpt lat="45.47308" lon="5.81237">
        <ele>795.488154156</ele>
        <time>2015-05-06T10:07:26Z</time>
      </trkpt>
      <trkpt lat="45.47298" lon="5.81224">
        <ele>793.415647302</ele>
        <time>2015-05-06T10:07:31Z</time>
      </trkpt>
      <trkpt lat="45.47293" lon="5.81216">
        <ele>793.415647302</ele>
        <time>2015-05-06T10:07:36Z</time>
      </trkpt>
      <trkpt lat="45.47281" lon="5.81202">
        <ele>791.192950663</ele>
        <time>2015-05-06T10:07:42Z</time>
      </trkpt>
      <trkpt lat="45.47274" lon="5.8119">
        <ele>789.409091909</ele>
        <time>2015-05-06T10:07:45Z</time>
      </trkpt>
      <trkpt lat="45.47263" lon="5.81177">
        <ele>788.464449446</ele>
        <time>2015-05-06T10:07:51Z</time>
      </trkpt>
      <trkpt lat="45.47251" lon="5.81166">
        <ele>788.007046803</ele>
        <time>2015-05-06T10:07:56Z</time>
      </trkpt>
      <trkpt lat="45.47242" lon="5.81156">
        <ele>786.988813602</ele>
        <time>2015-05-06T10:08:01Z</time>
      </trkpt>
      <trkpt lat="45.47234" lon="5.81151">
        <ele>786.025447271</ele>
        <time>2015-05-06T10:08:06Z</time>
      </trkpt>
      <trkpt lat="45.47224" lon="5.81146">
        <ele>785.254919158</ele>
        <time>2015-05-06T10:08:11Z</time>
      </trkpt>
      <trkpt lat="45.47215" lon="5.81133">
        <ele>783.939854818</ele>
        <time>2015-05-06T10:08:16Z</time>
      </trkpt>
      <trkpt lat="45.47202" lon="5.81112">
        <ele>783.127912646</ele>
        <time>2015-05-06T10:08:21Z</time>
      </trkpt>
      <trkpt lat="45.47191" lon="5.811">
        <ele>782.63550084</ele>
        <time>2015-05-06T10:08:26Z</time>
      </trkpt>
      <trkpt lat="45.4718" lon="5.81097">
        <ele>782.003412935</ele>
        <time>2015-05-06T10:08:31Z</time>
      </trkpt>
      <trkpt lat="45.47168" lon="5.81096">
        <ele>781.815370548</ele>
        <time>2015-05-06T10:08:36Z</time>
      </trkpt>
      <trkpt lat="45.47156" lon="5.81088">
        <ele>781.602225128</ele>
        <time>2015-05-06T10:08:41Z</time>
      </trkpt>
      <trkpt lat="45.47146" lon="5.81083">
        <ele>781.505849079</ele>
        <time>2015-05-06T10:08:46Z</time>
      </trkpt>
      <trkpt lat="45.47135" lon="5.8108">
        <ele>781.513305829</ele>
        <time>2015-05-06T10:08:51Z</time>
      </trkpt>
      <trkpt lat="45.47123" lon="5.81078">
        <ele>782.044713095</ele>
        <time>2015-05-06T10:08:56Z</time>
      </trkpt>
      <trkpt lat="45.4711" lon="5.81079">
        <ele>782.911485109</ele>
        <time>2015-05-06T10:09:01Z</time>
      </trkpt>
      <trkpt lat="45.47097" lon="5.81087">
        <ele>783.649810483</ele>
        <time>2015-05-06T10:09:06Z</time>
      </trkpt>
      <trkpt lat="45.47084" lon="5.81089">
        <ele>783.830404672</ele>
        <time>2015-05-06T10:09:11Z</time>
      </trkpt>
      <trkpt lat="45.47074" lon="5.81088">
        <ele>784.065966507</ele>
        <time>2015-05-06T10:09:16Z</time>
      </trkpt>
      <trkpt lat="45.47061" lon="5.81089">
        <ele>784.635924425</ele>
        <time>2015-05-06T10:09:21Z</time>
      </trkpt>
      <trkpt lat="45.47052" lon="5.81086">
        <ele>784.645473716</ele>
        <time>2015-05-06T10:09:26Z</time>
      </trkpt>
      <trkpt lat="45.47042" lon="5.81082">
        <ele>784.996573837</ele>
        <time>2015-05-06T10:09:31Z</time>
      </trkpt>
      <trkpt lat="45.47028" lon="5.81083">
        <ele>785.803544456</ele>
        <time>2015-05-06T10:09:36Z</time>
      </trkpt>
      <trkpt lat="45.47019" lon="5.81082">
        <ele>786.59472065</ele>
        <time>2015-05-06T10:09:41Z</time>
      </trkpt>
      <trkpt lat="45.47009" lon="5.81077">
        <ele>786.356825576</ele>
        <time>2015-05-06T10:09:46Z</time>
      </trkpt>
      <trkpt lat="45.46995" lon="5.81077">
        <ele>785.883380458</ele>
        <time>2015-05-06T10:09:51Z</time>
      </trkpt>
      <trkpt lat="45.46987" lon="5.81078">
        <ele>785.883380458</ele>
        <time>2015-05-06T10:09:56Z</time>
      </trkpt>
      <trkpt lat="45.46987" lon="5.81075">
        <ele>785.478084655</ele>
        <time>2015-05-06T10:10:01Z</time>
      </trkpt>
      <trkpt lat="45.46988" lon="5.81072">
        <ele>785.478084655</ele>
        <time>2015-05-06T10:10:06Z</time>
      </trkpt>
      <trkpt lat="45.46988" lon="5.81071">
        <ele>785.478084655</ele>
        <time>2015-05-06T10:10:11Z</time>
      </trkpt>
      <trkpt lat="45.46988" lon="5.81071">
        <ele>785.478084655</ele>
        <time>2015-05-06T10:10:16Z</time>
      </trkpt>
      <trkpt lat="45.46984" lon="5.8107">
        <ele>785.478084655</ele>
        <time>2015-05-06T10:10:21Z</time>
      </trkpt>
      <trkpt lat="45.46978" lon="5.81067">
        <ele>784.269385558</ele>
        <time>2015-05-06T10:10:26Z</time>
      </trkpt>
      <trkpt lat="45.46968" lon="5.81064">
        <ele>782.893250345</ele>
        <time>2015-05-06T10:10:32Z</time>
      </trkpt>
      <trkpt lat="45.46956" lon="5.81065">
        <ele>781.507185806</ele>
        <time>2015-05-06T10:10:36Z</time>
      </trkpt>
      <trkpt lat="45.46944" lon="5.81062">
        <ele>779.82493246</ele>
        <time>2015-05-06T10:10:41Z</time>
      </trkpt>
      <trkpt lat="45.46933" lon="5.81048">
        <ele>777.870409014</ele>
        <time>2015-05-06T10:10:46Z</time>
      </trkpt>
      <trkpt lat="45.46921" lon="5.81046">
        <ele>775.810734675</ele>
        <time>2015-05-06T10:10:51Z</time>
      </trkpt>
      <trkpt lat="45.4691" lon="5.81045">
        <ele>773.801115421</ele>
        <time>2015-05-06T10:10:56Z</time>
      </trkpt>
      <trkpt lat="45.46899" lon="5.81048">
        <ele>771.841158134</ele>
        <time>2015-05-06T10:11:01Z</time>
      </trkpt>
      <trkpt lat="45.46889" lon="5.81054">
        <ele>769.786287838</ele>
        <time>2015-05-06T10:11:06Z</time>
      </trkpt>
      <trkpt lat="45.46874" lon="5.81063">
        <ele>768.079288036</ele>
        <time>2015-05-06T10:11:11Z</time>
      </trkpt>
      <trkpt lat="45.46859" lon="5.81063">
        <ele>766.841234103</ele>
        <time>2015-05-06T10:11:16Z</time>
      </trkpt>
      <trkpt lat="45.46844" lon="5.81059">
        <ele>765.318332477</ele>
        <time>2015-05-06T10:11:21Z</time>
      </trkpt>
      <trkpt lat="45.4683" lon="5.81056">
        <ele>763.389406413</ele>
        <time>2015-05-06T10:11:26Z</time>
      </trkpt>
      <trkpt lat="45.46817" lon="5.81064">
        <ele>761.663868782</ele>
        <time>2015-05-06T10:11:31Z</time>
      </trkpt>
      <trkpt lat="45.46804" lon="5.8106">
        <ele>760.273448433</ele>
        <time>2015-05-06T10:11:36Z</time>
      </trkpt>
      <trkpt lat="45.4679" lon="5.81058">
        <ele>758.906905231</ele>
        <time>2015-05-06T10:11:41Z</time>
      </trkpt>
      <trkpt lat="45.46776" lon="5.81047">
        <ele>757.131660292</ele>
        <time>2015-05-06T10:11:46Z</time>
      </trkpt>
      <trkpt lat="45.46765" lon="5.81047">
        <ele>755.412696712</ele>
        <time>2015-05-06T10:11:51Z</time>
      </trkpt>
      <trkpt lat="45.46753" lon="5.8105">
        <ele>753.460093276</ele>
        <time>2015-05-06T10:11:56Z</time>
      </trkpt>
      <trkpt lat="45.46745" lon="5.81052">
        <ele>753.460093276</ele>
        <time>2015-05-06T10:12:01Z</time>
      </trkpt>
      <trkpt lat="45.46729" lon="5.81053">
        <ele>751.438176623</ele>
        <time>2015-05-06T10:12:05Z</time>
      </trkpt>
      <trkpt lat="45.46717" lon="5.81036">
        <ele>747.770015309</ele>
        <time>2015-05-06T10:12:11Z</time>
      </trkpt>
      <trkpt lat="45.46705" lon="5.81036">
        <ele>744.890081625</ele>
        <time>2015-05-06T10:12:16Z</time>
      </trkpt>
      <trkpt lat="45.4669" lon="5.81032">
        <ele>742.313622539</ele>
        <time>2015-05-06T10:12:21Z</time>
      </trkpt>
      <trkpt lat="45.46681" lon="5.81025">
        <ele>739.878787947</ele>
        <time>2015-05-06T10:12:26Z</time>
      </trkpt>
      <trkpt lat="45.4667" lon="5.81024">
        <ele>737.291021173</ele>
        <time>2015-05-06T10:12:31Z</time>
      </trkpt>
      <trkpt lat="45.46657" lon="5.81027">
        <ele>734.854182936</ele>
        <time>2015-05-06T10:12:36Z</time>
      </trkpt>
      <trkpt lat="45.46646" lon="5.81023">
        <ele>733.1375131</ele>
        <time>2015-05-06T10:12:40Z</time>
      </trkpt>
      <trkpt lat="45.46629" lon="5.81018">
        <ele>731.369313948</ele>
        <time>2015-05-06T10:12:46Z</time>
      </trkpt>
      <trkpt lat="45.46618" lon="5.81014">
        <ele>729.266952497</ele>
        <time>2015-05-06T10:12:51Z</time>
      </trkpt>
      <trkpt lat="45.46601" lon="5.81011">
        <ele>727.578172815</ele>
        <time>2015-05-06T10:12:56Z</time>
      </trkpt>
      <trkpt lat="45.46589" lon="5.81006">
        <ele>725.697530627</ele>
        <time>2015-05-06T10:13:01Z</time>
      </trkpt>
      <trkpt lat="45.4658" lon="5.80997">
        <ele>723.496831458</ele>
        <time>2015-05-06T10:13:05Z</time>
      </trkpt>
      <trkpt lat="45.46567" lon="5.80982">
        <ele>721.578655605</ele>
        <time>2015-05-06T10:13:11Z</time>
      </trkpt>
      <trkpt lat="45.46552" lon="5.80975">
        <ele>720.068098394</ele>
        <time>2015-05-06T10:13:16Z</time>
      </trkpt>
      <trkpt lat="45.46534" lon="5.80966">
        <ele>718.791609222</ele>
        <time>2015-05-06T10:13:21Z</time>
      </trkpt>
      <trkpt lat="45.46522" lon="5.80955">
        <ele>717.299420752</ele>
        <time>2015-05-06T10:13:26Z</time>
      </trkpt>
      <trkpt lat="45.46509" lon="5.80948">
        <ele>716.03999644</ele>
        <time>2015-05-06T10:13:31Z</time>
      </trkpt>
      <trkpt lat="45.46501" lon="5.80932">
        <ele>714.419349586</ele>
        <time>2015-05-06T10:13:36Z</time>
      </trkpt>
      <trkpt lat="45.46487" lon="5.80926">
        <ele>713.47329507</ele>
        <time>2015-05-06T10:13:41Z</time>
      </trkpt>
      <trkpt lat="45.46474" lon="5.80913">
        <ele>713.006714661</ele>
        <time>2015-05-06T10:13:46Z</time>
      </trkpt>
      <trkpt lat="45.46461" lon="5.80906">
        <ele>712.405092358</ele>
        <time>2015-05-06T10:13:51Z</time>
      </trkpt>
      <trkpt lat="45.46445" lon="5.80896">
        <ele>711.675834628</ele>
        <time>2015-05-06T10:13:56Z</time>
      </trkpt>
      <trkpt lat="45.4643" lon="5.8089">
        <ele>710.537906157</ele>
        <time>2015-05-06T10:14:01Z</time>
      </trkpt>
      <trkpt lat="45.46415" lon="5.80889">
        <ele>709.740816614</ele>
        <time>2015-05-06T10:14:06Z</time>
      </trkpt>
      <trkpt lat="45.46403" lon="5.80884">
        <ele>709.113377638</ele>
        <time>2015-05-06T10:14:11Z</time>
      </trkpt>
      <trkpt lat="45.46392" lon="5.80877">
        <ele>707.920045705</ele>
        <time>2015-05-06T10:14:16Z</time>
      </trkpt>
      <trkpt lat="45.46378" lon="5.80871">
        <ele>706.345559375</ele>
        <time>2015-05-06T10:14:21Z</time>
      </trkpt>
      <trkpt lat="45.46365" lon="5.80862">
        <ele>705.138599698</ele>
        <time>2015-05-06T10:14:26Z</time>
      </trkpt>
      <trkpt lat="45.46359" lon="5.80859">
        <ele>705.138599698</ele>
        <time>2015-05-06T10:14:31Z</time>
      </trkpt>
      <trkpt lat="45.46345" lon="5.80858">
        <ele>703.550708912</ele>
        <time>2015-05-06T10:14:36Z</time>
      </trkpt>
      <trkpt lat="45.46325" lon="5.80853">
        <ele>702.330593724</ele>
        <time>2015-05-06T10:14:41Z</time>
      </trkpt>
      <trkpt lat="45.4631" lon="5.80855">
        <ele>701.306267</ele>
        <time>2015-05-06T10:14:46Z</time>
      </trkpt>
      <trkpt lat="45.463" lon="5.80862">
        <ele>700.317833081</ele>
        <time>2015-05-06T10:14:51Z</time>
      </trkpt>
      <trkpt lat="45.46286" lon="5.80864">
        <ele>699.793496269</ele>
        <time>2015-05-06T10:14:56Z</time>
      </trkpt>
      <trkpt lat="45.46275" lon="5.80869">
        <ele>699.264051224</ele>
        <time>2015-05-06T10:15:01Z</time>
      </trkpt>
      <trkpt lat="45.46262" lon="5.80881">
        <ele>698.583017125</ele>
        <time>2015-05-06T10:15:06Z</time>
      </trkpt>
      <trkpt lat="45.46249" lon="5.80887">
        <ele>697.471012873</ele>
        <time>2015-05-06T10:15:11Z</time>
      </trkpt>
      <trkpt lat="45.46236" lon="5.80879">
        <ele>696.102752038</ele>
        <time>2015-05-06T10:15:16Z</time>
      </trkpt>
      <trkpt lat="45.46224" lon="5.8087">
        <ele>693.920306307</ele>
        <time>2015-05-06T10:15:21Z</time>
      </trkpt>
      <trkpt lat="45.46209" lon="5.80872">
        <ele>692.138378231</ele>
        <time>2015-05-06T10:15:26Z</time>
      </trkpt>
      <trkpt lat="45.46196" lon="5.80869">
        <ele>690.584339238</ele>
        <time>2015-05-06T10:15:31Z</time>
      </trkpt>
      <trkpt lat="45.46179" lon="5.80859">
        <ele>689.097622924</ele>
        <time>2015-05-06T10:15:36Z</time>
      </trkpt>
      <trkpt lat="45.46166" lon="5.80854">
        <ele>687.673397181</ele>
        <time>2015-05-06T10:15:41Z</time>
      </trkpt>
      <trkpt lat="45.46155" lon="5.80853">
        <ele>686.595247391</ele>
        <time>2015-05-06T10:15:46Z</time>
      </trkpt>
      <trkpt lat="45.46142" lon="5.80845">
        <ele>685.548526691</ele>
        <time>2015-05-06T10:15:51Z</time>
      </trkpt>
      <trkpt lat="45.46129" lon="5.8084">
        <ele>684.097517954</ele>
        <time>2015-05-06T10:15:56Z</time>
      </trkpt>
      <trkpt lat="45.46116" lon="5.80836">
        <ele>681.983771297</ele>
        <time>2015-05-06T10:16:01Z</time>
      </trkpt>
      <trkpt lat="45.46102" lon="5.80829">
        <ele>679.690249471</ele>
        <time>2015-05-06T10:16:06Z</time>
      </trkpt>
      <trkpt lat="45.46091" lon="5.80819">
        <ele>677.520837893</ele>
        <time>2015-05-06T10:16:11Z</time>
      </trkpt>
      <trkpt lat="45.4608" lon="5.80815">
        <ele>675.036195732</ele>
        <time>2015-05-06T10:16:16Z</time>
      </trkpt>
      <trkpt lat="45.46071" lon="5.80826">
        <ele>672.550689407</ele>
        <time>2015-05-06T10:16:21Z</time>
      </trkpt>
      <trkpt lat="45.46075" lon="5.80834">
        <ele>672.550689407</ele>
        <time>2015-05-06T10:16:26Z</time>
      </trkpt>
      <trkpt lat="45.46082" lon="5.80845">
        <ele>669.923246582</ele>
        <time>2015-05-06T10:16:30Z</time>
      </trkpt>
      <trkpt lat="45.46089" lon="5.80851">
        <ele>669.923246582</ele>
        <time>2015-05-06T10:16:35Z</time>
      </trkpt>
      <trkpt lat="45.46095" lon="5.80863">
        <ele>666.879421877</ele>
        <time>2015-05-06T10:16:41Z</time>
      </trkpt>
      <trkpt lat="45.46107" lon="5.80874">
        <ele>663.742510769</ele>
        <time>2015-05-06T10:16:46Z</time>
      </trkpt>
      <trkpt lat="45.46115" lon="5.80883">
        <ele>660.524056023</ele>
        <time>2015-05-06T10:16:51Z</time>
      </trkpt>
      <trkpt lat="45.46122" lon="5.80899">
        <ele>657.379039731</ele>
        <time>2015-05-06T10:16:56Z</time>
      </trkpt>
      <trkpt lat="45.46135" lon="5.80905">
        <ele>654.306679238</ele>
        <time>2015-05-06T10:17:01Z</time>
      </trkpt>
      <trkpt lat="45.46138" lon="5.80915">
        <ele>654.306679238</ele>
        <time>2015-05-06T10:17:06Z</time>
      </trkpt>
      <trkpt lat="45.46139" lon="5.80919">
        <ele>652.314753849</ele>
        <time>2015-05-06T10:17:11Z</time>
      </trkpt>
      <trkpt lat="45.46141" lon="5.80932">
        <ele>650.748684264</ele>
        <time>2015-05-06T10:17:16Z</time>
      </trkpt>
      <trkpt lat="45.46147" lon="5.8095">
        <ele>649.288929605</ele>
        <time>2015-05-06T10:17:21Z</time>
      </trkpt>
      <trkpt lat="45.46153" lon="5.8096">
        <ele>647.783164051</ele>
        <time>2015-05-06T10:17:26Z</time>
      </trkpt>
      <trkpt lat="45.46161" lon="5.80967">
        <ele>646.09031472</ele>
        <time>2015-05-06T10:17:31Z</time>
      </trkpt>
      <trkpt lat="45.46167" lon="5.80978">
        <ele>644.36835856</ele>
        <time>2015-05-06T10:17:36Z</time>
      </trkpt>
      <trkpt lat="45.46174" lon="5.80985">
        <ele>642.907805278</ele>
        <time>2015-05-06T10:17:41Z</time>
      </trkpt>
      <trkpt lat="45.46183" lon="5.80996">
        <ele>641.977041268</ele>
        <time>2015-05-06T10:17:46Z</time>
      </trkpt>
      <trkpt lat="45.46188" lon="5.81001">
        <ele>641.977041268</ele>
        <time>2015-05-06T10:17:51Z</time>
      </trkpt>
      <trkpt lat="45.46192" lon="5.81011">
        <ele>641.246764024</ele>
        <time>2015-05-06T10:17:56Z</time>
      </trkpt>
      <trkpt lat="45.46198" lon="5.81021">
        <ele>640.411264561</ele>
        <time>2015-05-06T10:18:01Z</time>
      </trkpt>
      <trkpt lat="45.46195" lon="5.81025">
        <ele>640.411264561</ele>
        <time>2015-05-06T10:18:06Z</time>
      </trkpt>
      <trkpt lat="45.46194" lon="5.81024">
        <ele>640.411264561</ele>
        <time>2015-05-06T10:18:11Z</time>
      </trkpt>
      <trkpt lat="45.46189" lon="5.81022">
        <ele>639.475783274</ele>
        <time>2015-05-06T10:18:16Z</time>
      </trkpt>
      <trkpt lat="45.46188" lon="5.81018">
        <ele>639.475783274</ele>
        <time>2015-05-06T10:18:21Z</time>
      </trkpt>
      <trkpt lat="45.46186" lon="5.81015">
        <ele>639.475783274</ele>
        <time>2015-05-06T10:18:27Z</time>
      </trkpt>
      <trkpt lat="45.46182" lon="5.81015">
        <ele>638.733662648</ele>
        <time>2015-05-06T10:18:32Z</time>
      </trkpt>
      <trkpt lat="45.46179" lon="5.81016">
        <ele>638.733662648</ele>
        <time>2015-05-06T10:18:36Z</time>
      </trkpt>
      <trkpt lat="45.46174" lon="5.81015">
        <ele>638.733662648</ele>
        <time>2015-05-06T10:18:40Z</time>
      </trkpt>
      <trkpt lat="45.46169" lon="5.81014">
        <ele>638.312036605</ele>
        <time>2015-05-06T10:18:45Z</time>
      </trkpt>
      <trkpt lat="45.46162" lon="5.81012">
        <ele>638.312036605</ele>
        <time>2015-05-06T10:18:52Z</time>
      </trkpt>
      <trkpt lat="45.46158" lon="5.81012">
        <ele>638.039581865</ele>
        <time>2015-05-06T10:18:56Z</time>
      </trkpt>
      <trkpt lat="45.46153" lon="5.81008">
        <ele>638.039581865</ele>
        <time>2015-05-06T10:19:02Z</time>
      </trkpt>
      <trkpt lat="45.46147" lon="5.81002">
        <ele>637.757155336</ele>
        <time>2015-05-06T10:19:06Z</time>
      </trkpt>
      <trkpt lat="45.46143" lon="5.80997">
        <ele>637.757155336</ele>
        <time>2015-05-06T10:19:12Z</time>
      </trkpt>
      <trkpt lat="45.46138" lon="5.8099">
        <ele>637.17324446</ele>
        <time>2015-05-06T10:19:16Z</time>
      </trkpt>
      <trkpt lat="45.46133" lon="5.8099">
        <ele>637.17324446</ele>
        <time>2015-05-06T10:19:22Z</time>
      </trkpt>
      <trkpt lat="45.46128" lon="5.80987">
        <ele>636.883296758</ele>
        <time>2015-05-06T10:19:26Z</time>
      </trkpt>
      <trkpt lat="45.46123" lon="5.80983">
        <ele>636.883296758</ele>
        <time>2015-05-06T10:19:32Z</time>
      </trkpt>
      <trkpt lat="45.46119" lon="5.80981">
        <ele>636.429457343</ele>
        <time>2015-05-06T10:19:36Z</time>
      </trkpt>
      <trkpt lat="45.46116" lon="5.80982">
        <ele>636.429457343</ele>
        <time>2015-05-06T10:19:42Z</time>
      </trkpt>
      <trkpt lat="45.46111" lon="5.80983">
        <ele>636.429457343</ele>
        <time>2015-05-06T10:19:46Z</time>
      </trkpt>
      <trkpt lat="45.46105" lon="5.80984">
        <ele>635.099790244</ele>
        <time>2015-05-06T10:19:52Z</time>
      </trkpt>
      <trkpt lat="45.46098" lon="5.80984">
        <ele>635.099790244</ele>
        <time>2015-05-06T10:19:56Z</time>
      </trkpt>
      <trkpt lat="45.46097" lon="5.80986">
        <ele>635.099790244</ele>
        <time>2015-05-06T10:20:01Z</time>
      </trkpt>
      <trkpt lat="45.46098" lon="5.80983">
        <ele>634.398835334</ele>
        <time>2015-05-06T10:20:05Z</time>
      </trkpt>
      <trkpt lat="45.46096" lon="5.80982">
        <ele>634.398835334</ele>
        <time>2015-05-06T10:20:11Z</time>
      </trkpt>
      <trkpt lat="45.46097" lon="5.80983">
        <ele>634.398835334</ele>
        <time>2015-05-06T10:20:17Z</time>
      </trkpt>
      <trkpt lat="45.46096" lon="5.80984">
        <ele>634.398835334</ele>
        <time>2015-05-06T10:20:21Z</time>
      </trkpt>
      <trkpt lat="45.46096" lon="5.80984">
        <ele>634.398835334</ele>
        <time>2015-05-06T10:20:27Z</time>
      </trkpt>
      <trkpt lat="45.46096" lon="5.80984">
        <ele>634.398835334</ele>
        <time>2015-05-06T10:20:31Z</time>
      </trkpt>
      <trkpt lat="45.46084" lon="5.80985">
        <ele>633.413123787</ele>
        <time>2015-05-06T10:20:36Z</time>
      </trkpt>
      <trkpt lat="45.46079" lon="5.80992">
        <ele>633.413123787</ele>
        <time>2015-05-06T10:20:41Z</time>
      </trkpt>
      <trkpt lat="45.46073" lon="5.80996">
        <ele>632.450035992</ele>
        <time>2015-05-06T10:20:47Z</time>
      </trkpt>
      <trkpt lat="45.46073" lon="5.80996">
        <ele>632.450035992</ele>
        <time>2015-05-06T10:20:51Z</time>
      </trkpt>
      <trkpt lat="45.4607" lon="5.80997">
        <ele>632.450035992</ele>
        <time>2015-05-06T10:20:57Z</time>
      </trkpt>
      <trkpt lat="45.46069" lon="5.80997">
        <ele>632.450035992</ele>
        <time>2015-05-06T10:21:01Z</time>
      </trkpt>
      <trkpt lat="45.46069" lon="5.80997">
        <ele>632.450035992</ele>
        <time>2015-05-06T10:21:07Z</time>
      </trkpt>
      <trkpt lat="45.46069" lon="5.80998">
        <ele>632.450035992</ele>
        <time>2015-05-06T10:21:11Z</time>
      </trkpt>
      <trkpt lat="45.46068" lon="5.80998">
        <ele>632.450035992</ele>
        <time>2015-05-06T10:21:17Z</time>
      </trkpt>
      <trkpt lat="45.46068" lon="5.80999">
        <ele>632.450035992</ele>
        <time>2015-05-06T10:21:21Z</time>
      </trkpt>
      <trkpt lat="45.46068" lon="5.80999">
        <ele>632.450035992</ele>
        <time>2015-05-06T10:21:27Z</time>
      </trkpt>
      <trkpt lat="45.46068" lon="5.80999">
        <ele>632.450035992</ele>
        <time>2015-05-06T10:21:31Z</time>
      </trkpt>
      <trkpt lat="45.46068" lon="5.80999">
        <ele>632.450035992</ele>
        <time>2015-05-06T10:21:37Z</time>
      </trkpt>
      <trkpt lat="45.46068" lon="5.80999">
        <ele>632.450035992</ele>
        <time>2015-05-06T10:21:41Z</time>
      </trkpt>
      <trkpt lat="45.46068" lon="5.80999">
        <ele>632.450035992</ele>
        <time>2015-05-06T10:21:46Z</time>
      </trkpt>
      <trkpt lat="45.46068" lon="5.80999">
        <ele>632.450035992</ele>
        <time>2015-05-06T10:21:51Z</time>
      </trkpt>
      <trkpt lat="45.46068" lon="5.80999">
        <ele>632.450035992</ele>
        <time>2015-05-06T10:21:56Z</time>
      </trkpt>
      <trkpt lat="45.46061" lon="5.81006">
        <ele>631.506145821</ele>
        <time>2015-05-06T10:22:01Z</time>
      </trkpt>
      <trkpt lat="45.46053" lon="5.8101">
        <ele>631.506145821</ele>
        <time>2015-05-06T10:22:05Z</time>
      </trkpt>
      <trkpt lat="45.4605" lon="5.81016">
        <ele>629.713616956</ele>
        <time>2015-05-06T10:22:11Z</time>
      </trkpt>
      <trkpt lat="45.46049" lon="5.81022">
        <ele>629.713616956</ele>
        <time>2015-05-06T10:22:17Z</time>
      </trkpt>
      <trkpt lat="45.46048" lon="5.81023">
        <ele>629.713616956</ele>
        <time>2015-05-06T10:22:21Z</time>
      </trkpt>
      <trkpt lat="45.46042" lon="5.81028">
        <ele>626.991355822</ele>
        <time>2015-05-06T10:22:27Z</time>
      </trkpt>
      <trkpt lat="45.46036" lon="5.81033">
        <ele>626.991355822</ele>
        <time>2015-05-06T10:22:31Z</time>
      </trkpt>
      <trkpt lat="45.46031" lon="5.81038">
        <ele>625.42855277</ele>
        <time>2015-05-06T10:22:36Z</time>
      </trkpt>
      <trkpt lat="45.46024" lon="5.81043">
        <ele>625.42855277</ele>
        <time>2015-05-06T10:22:42Z</time>
      </trkpt>
      <trkpt lat="45.46023" lon="5.81044">
        <ele>624.36371972</ele>
        <time>2015-05-06T10:22:46Z</time>
      </trkpt>
      <trkpt lat="45.46022" lon="5.81046">
        <ele>624.36371972</ele>
        <time>2015-05-06T10:22:52Z</time>
      </trkpt>
      <trkpt lat="45.46019" lon="5.81048">
        <ele>624.36371972</ele>
        <time>2015-05-06T10:22:56Z</time>
      </trkpt>
      <trkpt lat="45.46018" lon="5.81049">
        <ele>624.36371972</ele>
        <time>2015-05-06T10:23:02Z</time>
      </trkpt>
      <trkpt lat="45.46009" lon="5.81055">
        <ele>623.182604858</ele>
        <time>2015-05-06T10:23:06Z</time>
      </trkpt>
      <trkpt lat="45.45997" lon="5.81052">
        <ele>620.884107416</ele>
        <time>2015-05-06T10:23:12Z</time>
      </trkpt>
      <trkpt lat="45.45986" lon="5.81045">
        <ele>618.561389698</ele>
        <time>2015-05-06T10:23:16Z</time>
      </trkpt>
      <trkpt lat="45.45977" lon="5.81035">
        <ele>615.930404168</ele>
        <time>2015-05-06T10:23:22Z</time>
      </trkpt>
      <trkpt lat="45.4597" lon="5.81039">
        <ele>615.930404168</ele>
        <time>2015-05-06T10:23:26Z</time>
      </trkpt>
      <trkpt lat="45.45977" lon="5.81054">
        <ele>613.305295924</ele>
        <time>2015-05-06T10:23:32Z</time>
      </trkpt>
      <trkpt lat="45.45982" lon="5.81067">
        <ele>611.121235668</ele>
        <time>2015-05-06T10:23:36Z</time>
      </trkpt>
      <trkpt lat="45.45986" lon="5.81071">
        <ele>611.121235668</ele>
        <time>2015-05-06T10:23:42Z</time>
      </trkpt>
      <trkpt lat="45.45984" lon="5.81069">
        <ele>611.121235668</ele>
        <time>2015-05-06T10:23:46Z</time>
      </trkpt>
      <trkpt lat="45.45982" lon="5.8107">
        <ele>611.121235668</ele>
        <time>2015-05-06T10:23:52Z</time>
      </trkpt>
      <trkpt lat="45.45983" lon="5.8107">
        <ele>611.121235668</ele>
        <time>2015-05-06T10:23:56Z</time>
      </trkpt>
      <trkpt lat="45.45983" lon="5.81073">
        <ele>609.347855769</ele>
        <time>2015-05-06T10:24:02Z</time>
      </trkpt>
      <trkpt lat="45.45985" lon="5.81081">
        <ele>609.347855769</ele>
        <time>2015-05-06T10:24:06Z</time>
      </trkpt>
      <trkpt lat="45.45983" lon="5.81094">
        <ele>607.23530435</ele>
        <time>2015-05-06T10:24:12Z</time>
      </trkpt>
      <trkpt lat="45.45979" lon="5.81109">
        <ele>605.674976238</ele>
        <time>2015-05-06T10:24:15Z</time>
      </trkpt>
      <trkpt lat="45.45976" lon="5.81128">
        <ele>604.626556034</ele>
        <time>2015-05-06T10:24:20Z</time>
      </trkpt>
      <trkpt lat="45.45974" lon="5.81143">
        <ele>603.474796653</ele>
        <time>2015-05-06T10:24:25Z</time>
      </trkpt>
      <trkpt lat="45.45972" lon="5.81152">
        <ele>603.474796653</ele>
        <time>2015-05-06T10:24:30Z</time>
      </trkpt>
      <trkpt lat="45.45972" lon="5.81161">
        <ele>602.658704622</ele>
        <time>2015-05-06T10:24:35Z</time>
      </trkpt>
      <trkpt lat="45.45971" lon="5.81171">
        <ele>602.658704622</ele>
        <time>2015-05-06T10:24:40Z</time>
      </trkpt>
      <trkpt lat="45.4597" lon="5.8118">
        <ele>602.439979636</ele>
        <time>2015-05-06T10:24:45Z</time>
      </trkpt>
      <trkpt lat="45.45969" lon="5.81188">
        <ele>602.439979636</ele>
        <time>2015-05-06T10:24:50Z</time>
      </trkpt>
      <trkpt lat="45.45969" lon="5.81196">
        <ele>602.338867671</ele>
        <time>2015-05-06T10:24:55Z</time>
      </trkpt>
      <trkpt lat="45.45969" lon="5.81206">
        <ele>602.338867671</ele>
        <time>2015-05-06T10:25:00Z</time>
      </trkpt>
      <trkpt lat="45.45968" lon="5.81224">
        <ele>601.910537296</ele>
        <time>2015-05-06T10:25:07Z</time>
      </trkpt>
      <trkpt lat="45.45967" lon="5.81238">
        <ele>601.176103829</ele>
        <time>2015-05-06T10:25:10Z</time>
      </trkpt>
      <trkpt lat="45.45962" lon="5.81257">
        <ele>600.444238207</ele>
        <time>2015-05-06T10:25:15Z</time>
      </trkpt>
      <trkpt lat="45.45952" lon="5.8127">
        <ele>599.568627008</ele>
        <time>2015-05-06T10:25:22Z</time>
      </trkpt>
      <trkpt lat="45.45941" lon="5.81278">
        <ele>599.278810992</ele>
        <time>2015-05-06T10:25:26Z</time>
      </trkpt>
      <trkpt lat="45.45935" lon="5.81288">
        <ele>598.663912704</ele>
        <time>2015-05-06T10:25:31Z</time>
      </trkpt>
      <trkpt lat="45.45925" lon="5.81297">
        <ele>597.889700468</ele>
        <time>2015-05-06T10:25:37Z</time>
      </trkpt>
      <trkpt lat="45.45912" lon="5.81301">
        <ele>597.110258656</ele>
        <time>2015-05-06T10:25:41Z</time>
      </trkpt>
      <trkpt lat="45.459" lon="5.81305">
        <ele>596.756639464</ele>
        <time>2015-05-06T10:25:47Z</time>
      </trkpt>
      <trkpt lat="45.45888" lon="5.81306">
        <ele>597.227089682</ele>
        <time>2015-05-06T10:25:51Z</time>
      </trkpt>
      <trkpt lat="45.45877" lon="5.81305">
        <ele>597.879570999</ele>
        <time>2015-05-06T10:25:57Z</time>
      </trkpt>
      <trkpt lat="45.45866" lon="5.81309">
        <ele>598.695210932</ele>
        <time>2015-05-06T10:26:01Z</time>
      </trkpt>
      <trkpt lat="45.45855" lon="5.81311">
        <ele>599.367921346</ele>
        <time>2015-05-06T10:26:07Z</time>
      </trkpt>
      <trkpt lat="45.45844" lon="5.81313">
        <ele>600.046922277</ele>
        <time>2015-05-06T10:26:11Z</time>
      </trkpt>
      <trkpt lat="45.45834" lon="5.81316">
        <ele>601.158776065</ele>
        <time>2015-05-06T10:26:17Z</time>
      </trkpt>
      <trkpt lat="45.45824" lon="5.81318">
        <ele>602.521160761</ele>
        <time>2015-05-06T10:26:21Z</time>
      </trkpt>
      <trkpt lat="45.45814" lon="5.81323">
        <ele>603.67634221</ele>
        <time>2015-05-06T10:26:27Z</time>
      </trkpt>
      <trkpt lat="45.4581" lon="5.81329">
        <ele>603.67634221</ele>
        <time>2015-05-06T10:26:30Z</time>
      </trkpt>
      <trkpt lat="45.4581" lon="5.81335">
        <ele>604.921478049</ele>
        <time>2015-05-06T10:26:36Z</time>
      </trkpt>
      <trkpt lat="45.45805" lon="5.81341">
        <ele>604.921478049</ele>
        <time>2015-05-06T10:26:42Z</time>
      </trkpt>
      <trkpt lat="45.45796" lon="5.81344">
        <ele>606.24356191</ele>
        <time>2015-05-06T10:26:46Z</time>
      </trkpt>
      <trkpt lat="45.45785" lon="5.81339">
        <ele>607.198141493</ele>
        <time>2015-05-06T10:26:52Z</time>
      </trkpt>
      <trkpt lat="45.4577" lon="5.81336">
        <ele>607.806932317</ele>
        <time>2015-05-06T10:26:56Z</time>
      </trkpt>
      <trkpt lat="45.4576" lon="5.81337">
        <ele>607.658848367</ele>
        <time>2015-05-06T10:27:01Z</time>
      </trkpt>
      <trkpt lat="45.45747" lon="5.81347">
        <ele>607.095837178</ele>
        <time>2015-05-06T10:27:07Z</time>
      </trkpt>
      <trkpt lat="45.45735" lon="5.81352">
        <ele>606.724265485</ele>
        <time>2015-05-06T10:27:11Z</time>
      </trkpt>
      <trkpt lat="45.4572" lon="5.81354">
        <ele>606.529120513</ele>
        <time>2015-05-06T10:27:17Z</time>
      </trkpt>
      <trkpt lat="45.45707" lon="5.81355">
        <ele>606.496135453</ele>
        <time>2015-05-06T10:27:21Z</time>
      </trkpt>
      <trkpt lat="45.45695" lon="5.81349">
        <ele>607.044102269</ele>
        <time>2015-05-06T10:27:27Z</time>
      </trkpt>
      <trkpt lat="45.45685" lon="5.81351">
        <ele>607.262545912</ele>
        <time>2015-05-06T10:27:31Z</time>
      </trkpt>
      <trkpt lat="45.45684" lon="5.81363">
        <ele>607.262545912</ele>
        <time>2015-05-06T10:27:36Z</time>
      </trkpt>
      <trkpt lat="45.45684" lon="5.81376">
        <ele>607.605923435</ele>
        <time>2015-05-06T10:27:40Z</time>
      </trkpt>
      <trkpt lat="45.45684" lon="5.81386">
        <ele>607.605923435</ele>
        <time>2015-05-06T10:27:46Z</time>
      </trkpt>
      <trkpt lat="45.45683" lon="5.81406">
        <ele>608.639191394</ele>
        <time>2015-05-06T10:27:51Z</time>
      </trkpt>
      <trkpt lat="45.4568" lon="5.81421">
        <ele>609.731103123</ele>
        <time>2015-05-06T10:27:56Z</time>
      </trkpt>
      <trkpt lat="45.45675" lon="5.81437">
        <ele>611.449632517</ele>
        <time>2015-05-06T10:28:01Z</time>
      </trkpt>
      <trkpt lat="45.45672" lon="5.8145">
        <ele>613.166511874</ele>
        <time>2015-05-06T10:28:06Z</time>
      </trkpt>
      <trkpt lat="45.45665" lon="5.81463">
        <ele>614.8762091</ele>
        <time>2015-05-06T10:28:11Z</time>
      </trkpt>
      <trkpt lat="45.45659" lon="5.81474">
        <ele>616.429647339</ele>
        <time>2015-05-06T10:28:15Z</time>
      </trkpt>
      <trkpt lat="45.45655" lon="5.81486">
        <ele>616.429647339</ele>
        <time>2015-05-06T10:28:20Z</time>
      </trkpt>
      <trkpt lat="45.45651" lon="5.81492">
        <ele>618.121618306</ele>
        <time>2015-05-06T10:28:25Z</time>
      </trkpt>
      <trkpt lat="45.45652" lon="5.81496">
        <ele>618.121618306</ele>
        <time>2015-05-06T10:28:30Z</time>
      </trkpt>
      <trkpt lat="45.4565" lon="5.81498">
        <ele>618.121618306</ele>
        <time>2015-05-06T10:28:36Z</time>
      </trkpt>
      <trkpt lat="45.45649" lon="5.81507">
        <ele>620.080909494</ele>
        <time>2015-05-06T10:28:42Z</time>
      </trkpt>
      <trkpt lat="45.45651" lon="5.81513">
        <ele>620.080909494</ele>
        <time>2015-05-06T10:28:46Z</time>
      </trkpt>
      <trkpt lat="45.45648" lon="5.81518">
        <ele>620.080909494</ele>
        <time>2015-05-06T10:28:52Z</time>
      </trkpt>
      <trkpt lat="45.45645" lon="5.81526">
        <ele>622.282142531</ele>
        <time>2015-05-06T10:28:56Z</time>
      </trkpt>
      <trkpt lat="45.45647" lon="5.81534">
        <ele>622.282142531</ele>
        <time>2015-05-06T10:29:02Z</time>
      </trkpt>
      <trkpt lat="45.45647" lon="5.81539">
        <ele>624.124840331</ele>
        <time>2015-05-06T10:29:06Z</time>
      </trkpt>
      <trkpt lat="45.4564" lon="5.81544">
        <ele>624.124840331</ele>
        <time>2015-05-06T10:29:12Z</time>
      </trkpt>
      <trkpt lat="45.45635" lon="5.81547">
        <ele>625.91847404</ele>
        <time>2015-05-06T10:29:16Z</time>
      </trkpt>
      <trkpt lat="45.45637" lon="5.81546">
        <ele>625.91847404</ele>
        <time>2015-05-06T10:29:22Z</time>
      </trkpt>
      <trkpt lat="45.45637" lon="5.81546">
        <ele>625.91847404</ele>
        <time>2015-05-06T10:29:26Z</time>
      </trkpt>
      <trkpt lat="45.45637" lon="5.81546">
        <ele>625.91847404</ele>
        <time>2015-05-06T10:29:32Z</time>
      </trkpt>
      <trkpt lat="45.45637" lon="5.81545">
        <ele>625.91847404</ele>
        <time>2015-05-06T10:29:36Z</time>
      </trkpt>
      <trkpt lat="45.45637" lon="5.81545">
        <ele>625.91847404</ele>
        <time>2015-05-06T10:29:42Z</time>
      </trkpt>
      <trkpt lat="45.45637" lon="5.81545">
        <ele>625.91847404</ele>
        <time>2015-05-06T10:29:46Z</time>
      </trkpt>
      <trkpt lat="45.45637" lon="5.81545">
        <ele>625.91847404</ele>
        <time>2015-05-06T10:29:52Z</time>
      </trkpt>
      <trkpt lat="45.45637" lon="5.81545">
        <ele>625.91847404</ele>
        <time>2015-05-06T10:29:56Z</time>
      </trkpt>
      <trkpt lat="45.45638" lon="5.81545">
        <ele>625.91847404</ele>
        <time>2015-05-06T10:30:02Z</time>
      </trkpt>
      <trkpt lat="45.45638" lon="5.81545">
        <ele>625.91847404</ele>
        <time>2015-05-06T10:30:06Z</time>
      </trkpt>
      <trkpt lat="45.45648" lon="5.81555">
        <ele>629.102978922</ele>
        <time>2015-05-06T10:30:12Z</time>
      </trkpt>
      <trkpt lat="45.45652" lon="5.81567">
        <ele>631.838342303</ele>
        <time>2015-05-06T10:30:16Z</time>
      </trkpt>
      <trkpt lat="45.45659" lon="5.81572">
        <ele>631.838342303</ele>
        <time>2015-05-06T10:30:22Z</time>
      </trkpt>
      <trkpt lat="45.45664" lon="5.81579">
        <ele>635.015162134</ele>
        <time>2015-05-06T10:30:26Z</time>
      </trkpt>
      <trkpt lat="45.45667" lon="5.81591">
        <ele>635.015162134</ele>
        <time>2015-05-06T10:30:31Z</time>
      </trkpt>
      <trkpt lat="45.45667" lon="5.81594">
        <ele>638.881123452</ele>
        <time>2015-05-06T10:30:37Z</time>
      </trkpt>
      <trkpt lat="45.45668" lon="5.81602">
        <ele>638.881123452</ele>
        <time>2015-05-06T10:30:41Z</time>
      </trkpt>
      <trkpt lat="45.45676" lon="5.81602">
        <ele>642.22287472</ele>
        <time>2015-05-06T10:30:47Z</time>
      </trkpt>
      <trkpt lat="45.45679" lon="5.81602">
        <ele>642.22287472</ele>
        <time>2015-05-06T10:30:51Z</time>
      </trkpt>
      <trkpt lat="45.45682" lon="5.81603">
        <ele>642.22287472</ele>
        <time>2015-05-06T10:30:57Z</time>
      </trkpt>
      <trkpt lat="45.45685" lon="5.81609">
        <ele>647.232439676</ele>
        <time>2015-05-06T10:31:01Z</time>
      </trkpt>
      <trkpt lat="45.45689" lon="5.81608">
        <ele>647.232439676</ele>
        <time>2015-05-06T10:31:07Z</time>
      </trkpt>
      <trkpt lat="45.45688" lon="5.81608">
        <ele>647.232439676</ele>
        <time>2015-05-06T10:31:11Z</time>
      </trkpt>
      <trkpt lat="45.45688" lon="5.81607">
        <ele>647.232439676</ele>
        <time>2015-05-06T10:31:17Z</time>
      </trkpt>
      <trkpt lat="45.45687" lon="5.81607">
        <ele>647.232439676</ele>
        <time>2015-05-06T10:31:21Z</time>
      </trkpt>
      <trkpt lat="45.45687" lon="5.81607">
        <ele>647.232439676</ele>
        <time>2015-05-06T10:31:27Z</time>
      </trkpt>
      <trkpt lat="45.45687" lon="5.81607">
        <ele>647.232439676</ele>
        <time>2015-05-06T10:31:31Z</time>
      </trkpt>
      <trkpt lat="45.45687" lon="5.81607">
        <ele>647.232439676</ele>
        <time>2015-05-06T10:31:36Z</time>
      </trkpt>
      <trkpt lat="45.45693" lon="5.81614">
        <ele>652.765923785</ele>
        <time>2015-05-06T10:31:40Z</time>
      </trkpt>
      <trkpt lat="45.45699" lon="5.81624">
        <ele>658.050462619</ele>
        <time>2015-05-06T10:31:45Z</time>
      </trkpt>
      <trkpt lat="45.45712" lon="5.81638">
        <ele>662.515039875</ele>
        <time>2015-05-06T10:31:52Z</time>
      </trkpt>
      <trkpt lat="45.45713" lon="5.81643">
        <ele>662.515039875</ele>
        <time>2015-05-06T10:31:56Z</time>
      </trkpt>
      <trkpt lat="45.45721" lon="5.81652">
        <ele>666.497832941</ele>
        <time>2015-05-06T10:32:02Z</time>
      </trkpt>
      <trkpt lat="45.45724" lon="5.81658">
        <ele>666.497832941</ele>
        <time>2015-05-06T10:32:06Z</time>
      </trkpt>
      <trkpt lat="45.45732" lon="5.8166">
        <ele>670.457930867</ele>
        <time>2015-05-06T10:32:12Z</time>
      </trkpt>
      <trkpt lat="45.45732" lon="5.81667">
        <ele>670.457930867</ele>
        <time>2015-05-06T10:32:16Z</time>
      </trkpt>
      <trkpt lat="45.45741" lon="5.81673">
        <ele>674.532837665</ele>
        <time>2015-05-06T10:32:22Z</time>
      </trkpt>
      <trkpt lat="45.45747" lon="5.81677">
        <ele>674.532837665</ele>
        <time>2015-05-06T10:32:26Z</time>
      </trkpt>
      <trkpt lat="45.45754" lon="5.81685">
        <ele>678.273490503</ele>
        <time>2015-05-06T10:32:32Z</time>
      </trkpt>
      <trkpt lat="45.45758" lon="5.81693">
        <ele>678.273490503</ele>
        <time>2015-05-06T10:32:36Z</time>
      </trkpt>
      <trkpt lat="45.45764" lon="5.81697">
        <ele>681.841498123</ele>
        <time>2015-05-06T10:32:42Z</time>
      </trkpt>
      <trkpt lat="45.45767" lon="5.81705">
        <ele>681.841498123</ele>
        <time>2015-05-06T10:32:46Z</time>
      </trkpt>
      <trkpt lat="45.4577" lon="5.81712">
        <ele>684.810936344</ele>
        <time>2015-05-06T10:32:52Z</time>
      </trkpt>
      <trkpt lat="45.45779" lon="5.81714">
        <ele>687.797920953</ele>
        <time>2015-05-06T10:32:56Z</time>
      </trkpt>
      <trkpt lat="45.45782" lon="5.81724">
        <ele>687.797920953</ele>
        <time>2015-05-06T10:33:02Z</time>
      </trkpt>
      <trkpt lat="45.45784" lon="5.81731">
        <ele>691.66177022</ele>
        <time>2015-05-06T10:33:06Z</time>
      </trkpt>
      <trkpt lat="45.45787" lon="5.81735">
        <ele>691.66177022</ele>
        <time>2015-05-06T10:33:12Z</time>
      </trkpt>
      <trkpt lat="45.45787" lon="5.81745">
        <ele>695.178943184</ele>
        <time>2015-05-06T10:33:16Z</time>
      </trkpt>
      <trkpt lat="45.45786" lon="5.8175">
        <ele>695.178943184</ele>
        <time>2015-05-06T10:33:21Z</time>
      </trkpt>
      <trkpt lat="45.45793" lon="5.81754">
        <ele>698.658138944</ele>
        <time>2015-05-06T10:33:27Z</time>
      </trkpt>
      <trkpt lat="45.45792" lon="5.81757">
        <ele>698.658138944</ele>
        <time>2015-05-06T10:33:31Z</time>
      </trkpt>
      <trkpt lat="45.4579" lon="5.8176">
        <ele>698.658138944</ele>
        <time>2015-05-06T10:33:37Z</time>
      </trkpt>
      <trkpt lat="45.45792" lon="5.81761">
        <ele>698.658138944</ele>
        <time>2015-05-06T10:33:41Z</time>
      </trkpt>
      <trkpt lat="45.45792" lon="5.81761">
        <ele>698.658138944</ele>
        <time>2015-05-06T10:33:47Z</time>
      </trkpt>
      <trkpt lat="45.45795" lon="5.81765">
        <ele>701.376976016</ele>
        <time>2015-05-06T10:33:51Z</time>
      </trkpt>
      <trkpt lat="45.45803" lon="5.81781">
        <ele>703.677308805</ele>
        <time>2015-05-06T10:33:57Z</time>
      </trkpt>
      <trkpt lat="45.45804" lon="5.81791">
        <ele>703.677308805</ele>
        <time>2015-05-06T10:34:01Z</time>
      </trkpt>
      <trkpt lat="45.45814" lon="5.81803">
        <ele>706.453746075</ele>
        <time>2015-05-06T10:34:06Z</time>
      </trkpt>
      <trkpt lat="45.45819" lon="5.81808">
        <ele>706.453746075</ele>
        <time>2015-05-06T10:34:10Z</time>
      </trkpt>
      <trkpt lat="45.45819" lon="5.8181">
        <ele>706.453746075</ele>
        <time>2015-05-06T10:34:15Z</time>
      </trkpt>
      <trkpt lat="45.4582" lon="5.8181">
        <ele>706.453746075</ele>
        <time>2015-05-06T10:34:21Z</time>
      </trkpt>
      <trkpt lat="45.4582" lon="5.8181">
        <ele>709.237078555</ele>
        <time>2015-05-06T10:34:27Z</time>
      </trkpt>
      <trkpt lat="45.4582" lon="5.8181">
        <ele>709.237078555</ele>
        <time>2015-05-06T10:34:31Z</time>
      </trkpt>
      <trkpt lat="45.45821" lon="5.8181">
        <ele>709.237078555</ele>
        <time>2015-05-06T10:34:37Z</time>
      </trkpt>
      <trkpt lat="45.45821" lon="5.8181">
        <ele>709.237078555</ele>
        <time>2015-05-06T10:34:41Z</time>
      </trkpt>
      <trkpt lat="45.45821" lon="5.8181">
        <ele>709.237078555</ele>
        <time>2015-05-06T10:34:46Z</time>
      </trkpt>
      <trkpt lat="45.45821" lon="5.8181">
        <ele>709.237078555</ele>
        <time>2015-05-06T10:34:50Z</time>
      </trkpt>
      <trkpt lat="45.45821" lon="5.8181">
        <ele>709.237078555</ele>
        <time>2015-05-06T10:34:57Z</time>
      </trkpt>
      <trkpt lat="45.45821" lon="5.8181">
        <ele>709.237078555</ele>
        <time>2015-05-06T10:35:01Z</time>
      </trkpt>
      <trkpt lat="45.45806" lon="5.81826">
        <ele>711.016321358</ele>
        <time>2015-05-06T10:35:07Z</time>
      </trkpt>
      <trkpt lat="45.45797" lon="5.81826">
        <ele>711.016321358</ele>
        <time>2015-05-06T10:35:11Z</time>
      </trkpt>
      <trkpt lat="45.45791" lon="5.81841">
        <ele>712.443000059</ele>
        <time>2015-05-06T10:35:17Z</time>
      </trkpt>
      <trkpt lat="45.45789" lon="5.81836">
        <ele>712.443000059</ele>
        <time>2015-05-06T10:35:21Z</time>
      </trkpt>
      <trkpt lat="45.45783" lon="5.81839">
        <ele>714.266067633</ele>
        <time>2015-05-06T10:35:27Z</time>
      </trkpt>
      <trkpt lat="45.45777" lon="5.81842">
        <ele>714.266067633</ele>
        <time>2015-05-06T10:35:31Z</time>
      </trkpt>
      <trkpt lat="45.45771" lon="5.81846">
        <ele>716.169739151</ele>
        <time>2015-05-06T10:35:37Z</time>
      </trkpt>
      <trkpt lat="45.45762" lon="5.81845">
        <ele>716.169739151</ele>
        <time>2015-05-06T10:35:41Z</time>
      </trkpt>
      <trkpt lat="45.45755" lon="5.81855">
        <ele>718.005463621</ele>
        <time>2015-05-06T10:35:47Z</time>
      </trkpt>
      <trkpt lat="45.4576" lon="5.81855">
        <ele>718.005463621</ele>
        <time>2015-05-06T10:35:51Z</time>
      </trkpt>
      <trkpt lat="45.45768" lon="5.81855">
        <ele>720.212372899</ele>
        <time>2015-05-06T10:35:57Z</time>
      </trkpt>
      <trkpt lat="45.45759" lon="5.81862">
        <ele>721.322972714</ele>
        <time>2015-05-06T10:36:01Z</time>
      </trkpt>
      <trkpt lat="45.45749" lon="5.81863">
        <ele>722.142414958</ele>
        <time>2015-05-06T10:36:07Z</time>
      </trkpt>
      <trkpt lat="45.45744" lon="5.81865">
        <ele>722.142414958</ele>
        <time>2015-05-06T10:36:11Z</time>
      </trkpt>
      <trkpt lat="45.45741" lon="5.81866">
        <ele>722.142414958</ele>
        <time>2015-05-06T10:36:17Z</time>
      </trkpt>
      <trkpt lat="45.4574" lon="5.81865">
        <ele>723.273495832</ele>
        <time>2015-05-06T10:36:21Z</time>
      </trkpt>
      <trkpt lat="45.45739" lon="5.81866">
        <ele>723.273495832</ele>
        <time>2015-05-06T10:36:27Z</time>
      </trkpt>
      <trkpt lat="45.45736" lon="5.81865">
        <ele>723.273495832</ele>
        <time>2015-05-06T10:36:31Z</time>
      </trkpt>
      <trkpt lat="45.45734" lon="5.81863">
        <ele>723.273495832</ele>
        <time>2015-05-06T10:36:37Z</time>
      </trkpt>
      <trkpt lat="45.45733" lon="5.81863">
        <ele>723.273495832</ele>
        <time>2015-05-06T10:36:41Z</time>
      </trkpt>
      <trkpt lat="45.45731" lon="5.81863">
        <ele>726.570927135</ele>
        <time>2015-05-06T10:36:47Z</time>
      </trkpt>
      <trkpt lat="45.4573" lon="5.81863">
        <ele>726.570927135</ele>
        <time>2015-05-06T10:36:51Z</time>
      </trkpt>
      <trkpt lat="45.4573" lon="5.81863">
        <ele>726.570927135</ele>
        <time>2015-05-06T10:36:57Z</time>
      </trkpt>
      <trkpt lat="45.4573" lon="5.81863">
        <ele>726.570927135</ele>
        <time>2015-05-06T10:37:01Z</time>
      </trkpt>
      <trkpt lat="45.4573" lon="5.81863">
        <ele>726.570927135</ele>
        <time>2015-05-06T10:37:07Z</time>
      </trkpt>
      <trkpt lat="45.4572" lon="5.81862">
        <ele>730.144377155</ele>
        <time>2015-05-06T10:37:11Z</time>
      </trkpt>
      <trkpt lat="45.45714" lon="5.81866">
        <ele>730.144377155</ele>
        <time>2015-05-06T10:37:17Z</time>
      </trkpt>
      <trkpt lat="45.45712" lon="5.8187">
        <ele>734.259213032</ele>
        <time>2015-05-06T10:37:21Z</time>
      </trkpt>
      <trkpt lat="45.45713" lon="5.81877">
        <ele>734.259213032</ele>
        <time>2015-05-06T10:37:27Z</time>
      </trkpt>
      <trkpt lat="45.45716" lon="5.81884">
        <ele>738.727512214</ele>
        <time>2015-05-06T10:37:31Z</time>
      </trkpt>
      <trkpt lat="45.45723" lon="5.81889">
        <ele>738.727512214</ele>
        <time>2015-05-06T10:37:37Z</time>
      </trkpt>
      <trkpt lat="45.45729" lon="5.81894">
        <ele>742.653671591</ele>
        <time>2015-05-06T10:37:41Z</time>
      </trkpt>
      <trkpt lat="45.45738" lon="5.81895">
        <ele>742.653671591</ele>
        <time>2015-05-06T10:37:46Z</time>
      </trkpt>
      <trkpt lat="45.45744" lon="5.81899">
        <ele>747.37113714</ele>
        <time>2015-05-06T10:37:50Z</time>
      </trkpt>
      <trkpt lat="45.45748" lon="5.81911">
        <ele>747.37113714</ele>
        <time>2015-05-06T10:37:55Z</time>
      </trkpt>
      <trkpt lat="45.45757" lon="5.81922">
        <ele>752.239814833</ele>
        <time>2015-05-06T10:38:02Z</time>
      </trkpt>
      <trkpt lat="45.45762" lon="5.81928">
        <ele>752.239814833</ele>
        <time>2015-05-06T10:38:06Z</time>
      </trkpt>
      <trkpt lat="45.4577" lon="5.81931">
        <ele>757.38685207</ele>
        <time>2015-05-06T10:38:12Z</time>
      </trkpt>
      <trkpt lat="45.45776" lon="5.81937">
        <ele>757.38685207</ele>
        <time>2015-05-06T10:38:16Z</time>
      </trkpt>
      <trkpt lat="45.45787" lon="5.81942">
        <ele>761.920595053</ele>
        <time>2015-05-06T10:38:22Z</time>
      </trkpt>
      <trkpt lat="45.45785" lon="5.81949">
        <ele>761.920595053</ele>
        <time>2015-05-06T10:38:26Z</time>
      </trkpt>
      <trkpt lat="45.45784" lon="5.81953">
        <ele>761.920595053</ele>
        <time>2015-05-06T10:38:30Z</time>
      </trkpt>
      <trkpt lat="45.4578" lon="5.81955">
        <ele>766.457829792</ele>
        <time>2015-05-06T10:38:35Z</time>
      </trkpt>
      <trkpt lat="45.45779" lon="5.81955">
        <ele>766.457829792</ele>
        <time>2015-05-06T10:38:40Z</time>
      </trkpt>
      <trkpt lat="45.45778" lon="5.81956">
        <ele>766.457829792</ele>
        <time>2015-05-06T10:38:45Z</time>
      </trkpt>
      <trkpt lat="45.45779" lon="5.81961">
        <ele>766.457829792</ele>
        <time>2015-05-06T10:38:52Z</time>
      </trkpt>
      <trkpt lat="45.45782" lon="5.81966">
        <ele>770.27313708</ele>
        <time>2015-05-06T10:38:56Z</time>
      </trkpt>
      <trkpt lat="45.45786" lon="5.8197">
        <ele>770.27313708</ele>
        <time>2015-05-06T10:39:01Z</time>
      </trkpt>
      <trkpt lat="45.45783" lon="5.81975">
        <ele>770.27313708</ele>
        <time>2015-05-06T10:39:06Z</time>
      </trkpt>
      <trkpt lat="45.45777" lon="5.81986">
        <ele>772.840638471</ele>
        <time>2015-05-06T10:39:11Z</time>
      </trkpt>
      <trkpt lat="45.45784" lon="5.8199">
        <ele>772.840638471</ele>
        <time>2015-05-06T10:39:16Z</time>
      </trkpt>
      <trkpt lat="45.45801" lon="5.81994">
        <ele>775.117810599</ele>
        <time>2015-05-06T10:39:21Z</time>
      </trkpt>
      <trkpt lat="45.45805" lon="5.81995">
        <ele>775.117810599</ele>
        <time>2015-05-06T10:39:26Z</time>
      </trkpt>
      <trkpt lat="45.45805" lon="5.81994">
        <ele>775.117810599</ele>
        <time>2015-05-06T10:39:31Z</time>
      </trkpt>
      <trkpt lat="45.45803" lon="5.82005">
        <ele>778.425048644</ele>
        <time>2015-05-06T10:39:36Z</time>
      </trkpt>
      <trkpt lat="45.45805" lon="5.82012">
        <ele>778.425048644</ele>
        <time>2015-05-06T10:39:41Z</time>
      </trkpt>
      <trkpt lat="45.45805" lon="5.82018">
        <ele>781.244847425</ele>
        <time>2015-05-06T10:39:46Z</time>
      </trkpt>
      <trkpt lat="45.45803" lon="5.8202">
        <ele>781.244847425</ele>
        <time>2015-05-06T10:39:51Z</time>
      </trkpt>
      <trkpt lat="45.45801" lon="5.82021">
        <ele>781.244847425</ele>
        <time>2015-05-06T10:39:56Z</time>
      </trkpt>
      <trkpt lat="45.45798" lon="5.82021">
        <ele>781.244847425</ele>
        <time>2015-05-06T10:40:01Z</time>
      </trkpt>
      <trkpt lat="45.45787" lon="5.82027">
        <ele>783.613742236</ele>
        <time>2015-05-06T10:40:06Z</time>
      </trkpt>
      <trkpt lat="45.45773" lon="5.8203">
        <ele>785.278702283</ele>
        <time>2015-05-06T10:40:11Z</time>
      </trkpt>
      <trkpt lat="45.45772" lon="5.82023">
        <ele>785.278702283</ele>
        <time>2015-05-06T10:40:16Z</time>
      </trkpt>
      <trkpt lat="45.45772" lon="5.82022">
        <ele>785.278702283</ele>
        <time>2015-05-06T10:40:21Z</time>
      </trkpt>
      <trkpt lat="45.45772" lon="5.82023">
        <ele>785.278702283</ele>
        <time>2015-05-06T10:40:26Z</time>
      </trkpt>
      <trkpt lat="45.45764" lon="5.82022">
        <ele>787.160211925</ele>
        <time>2015-05-06T10:40:31Z</time>
      </trkpt>
      <trkpt lat="45.45762" lon="5.82022">
        <ele>787.160211925</ele>
        <time>2015-05-06T10:40:36Z</time>
      </trkpt>
      <trkpt lat="45.45756" lon="5.82023">
        <ele>787.160211925</ele>
        <time>2015-05-06T10:40:41Z</time>
      </trkpt>
      <trkpt lat="45.45754" lon="5.82021">
        <ele>789.82235876</ele>
        <time>2015-05-06T10:40:46Z</time>
      </trkpt>
      <trkpt lat="45.45749" lon="5.82019">
        <ele>789.82235876</ele>
        <time>2015-05-06T10:40:51Z</time>
      </trkpt>
      <trkpt lat="45.45745" lon="5.82016">
        <ele>792.200418879</ele>
        <time>2015-05-06T10:40:56Z</time>
      </trkpt>
      <trkpt lat="45.45741" lon="5.82011">
        <ele>792.200418879</ele>
        <time>2015-05-06T10:41:01Z</time>
      </trkpt>
      <trkpt lat="45.45732" lon="5.82009">
        <ele>795.038041918</ele>
        <time>2015-05-06T10:41:06Z</time>
      </trkpt>
      <trkpt lat="45.45728" lon="5.82002">
        <ele>795.038041918</ele>
        <time>2015-05-06T10:41:11Z</time>
      </trkpt>
      <trkpt lat="45.45722" lon="5.82">
        <ele>798.014203308</ele>
        <time>2015-05-06T10:41:16Z</time>
      </trkpt>
      <trkpt lat="45.45716" lon="5.81996">
        <ele>798.014203308</ele>
        <time>2015-05-06T10:41:21Z</time>
      </trkpt>
      <trkpt lat="45.45714" lon="5.82">
        <ele>801.263422089</ele>
        <time>2015-05-06T10:41:26Z</time>
      </trkpt>
      <trkpt lat="45.45709" lon="5.82001">
        <ele>801.263422089</ele>
        <time>2015-05-06T10:41:31Z</time>
      </trkpt>
      <trkpt lat="45.45706" lon="5.81999">
        <ele>801.263422089</ele>
        <time>2015-05-06T10:41:36Z</time>
      </trkpt>
      <trkpt lat="45.457" lon="5.81996">
        <ele>805.053694909</ele>
        <time>2015-05-06T10:41:41Z</time>
      </trkpt>
      <trkpt lat="45.45689" lon="5.81997">
        <ele>808.478937886</ele>
        <time>2015-05-06T10:41:46Z</time>
      </trkpt>
      <trkpt lat="45.45688" lon="5.8199">
        <ele>808.478937886</ele>
        <time>2015-05-06T10:41:51Z</time>
      </trkpt>
      <trkpt lat="45.45684" lon="5.81983">
        <ele>811.853555</ele>
        <time>2015-05-06T10:41:56Z</time>
      </trkpt>
      <trkpt lat="45.4568" lon="5.81984">
        <ele>811.853555</ele>
        <time>2015-05-06T10:42:01Z</time>
      </trkpt>
      <trkpt lat="45.45674" lon="5.81976">
        <ele>814.604343537</ele>
        <time>2015-05-06T10:42:06Z</time>
      </trkpt>
      <trkpt lat="45.45668" lon="5.81975">
        <ele>814.604343537</ele>
        <time>2015-05-06T10:42:11Z</time>
      </trkpt>
      <trkpt lat="45.45667" lon="5.81973">
        <ele>814.604343537</ele>
        <time>2015-05-06T10:42:16Z</time>
      </trkpt>
      <trkpt lat="45.45665" lon="5.8197">
        <ele>816.634303503</ele>
        <time>2015-05-06T10:42:21Z</time>
      </trkpt>
      <trkpt lat="45.45661" lon="5.8197">
        <ele>816.634303503</ele>
        <time>2015-05-06T10:42:26Z</time>
      </trkpt>
      <trkpt lat="45.45656" lon="5.81964">
        <ele>819.008479726</ele>
        <time>2015-05-06T10:42:31Z</time>
      </trkpt>
      <trkpt lat="45.45653" lon="5.81961">
        <ele>819.008479726</ele>
        <time>2015-05-06T10:42:36Z</time>
      </trkpt>
      <trkpt lat="45.45651" lon="5.8196">
        <ele>819.008479726</ele>
        <time>2015-05-06T10:42:41Z</time>
      </trkpt>
      <trkpt lat="45.45649" lon="5.81954">
        <ele>820.839269223</ele>
        <time>2015-05-06T10:42:46Z</time>
      </trkpt>
      <trkpt lat="45.45641" lon="5.81947">
        <ele>820.839269223</ele>
        <time>2015-05-06T10:42:51Z</time>
      </trkpt>
      <trkpt lat="45.45631" lon="5.81945">
        <ele>823.323345173</ele>
        <time>2015-05-06T10:42:56Z</time>
      </trkpt>
      <trkpt lat="45.45628" lon="5.81945">
        <ele>823.323345173</ele>
        <time>2015-05-06T10:43:01Z</time>
      </trkpt>
      <trkpt lat="45.45625" lon="5.81942">
        <ele>823.323345173</ele>
        <time>2015-05-06T10:43:06Z</time>
      </trkpt>
      <trkpt lat="45.45617" lon="5.81938">
        <ele>826.12651498</ele>
        <time>2015-05-06T10:43:11Z</time>
      </trkpt>
      <trkpt lat="45.45605" lon="5.81936">
        <ele>828.649997651</ele>
        <time>2015-05-06T10:43:16Z</time>
      </trkpt>
      <trkpt lat="45.45595" lon="5.81929">
        <ele>830.916202018</ele>
        <time>2015-05-06T10:43:21Z</time>
      </trkpt>
      <trkpt lat="45.45586" lon="5.81925">
        <ele>830.916202018</ele>
        <time>2015-05-06T10:43:26Z</time>
      </trkpt>
      <trkpt lat="45.45583" lon="5.81918">
        <ele>833.090694001</ele>
        <time>2015-05-06T10:43:31Z</time>
      </trkpt>
      <trkpt lat="45.45574" lon="5.81909">
        <ele>834.894766086</ele>
        <time>2015-05-06T10:43:36Z</time>
      </trkpt>
      <trkpt lat="45.45568" lon="5.81904">
        <ele>834.894766086</ele>
        <time>2015-05-06T10:43:41Z</time>
      </trkpt>
      <trkpt lat="45.45565" lon="5.81901">
        <ele>837.368184179</ele>
        <time>2015-05-06T10:43:46Z</time>
      </trkpt>
      <trkpt lat="45.45561" lon="5.81899">
        <ele>837.368184179</ele>
        <time>2015-05-06T10:43:51Z</time>
      </trkpt>
      <trkpt lat="45.45558" lon="5.81899">
        <ele>837.368184179</ele>
        <time>2015-05-06T10:43:56Z</time>
      </trkpt>
      <trkpt lat="45.45552" lon="5.81889">
        <ele>839.598965431</ele>
        <time>2015-05-06T10:44:01Z</time>
      </trkpt>
      <trkpt lat="45.45537" lon="5.81889">
        <ele>841.319195228</ele>
        <time>2015-05-06T10:44:06Z</time>
      </trkpt>
      <trkpt lat="45.4553" lon="5.81885">
        <ele>841.319195228</ele>
        <time>2015-05-06T10:44:11Z</time>
      </trkpt>
      <trkpt lat="45.45524" lon="5.81881">
        <ele>843.290794529</ele>
        <time>2015-05-06T10:44:16Z</time>
      </trkpt>
      <trkpt lat="45.45521" lon="5.81876">
        <ele>843.290794529</ele>
        <time>2015-05-06T10:44:21Z</time>
      </trkpt>
      <trkpt lat="45.45514" lon="5.81868">
        <ele>845.498393129</ele>
        <time>2015-05-06T10:44:26Z</time>
      </trkpt>
      <trkpt lat="45.45511" lon="5.81865">
        <ele>845.498393129</ele>
        <time>2015-05-06T10:44:31Z</time>
      </trkpt>
      <trkpt lat="45.45508" lon="5.8186">
        <ele>845.498393129</ele>
        <time>2015-05-06T10:44:36Z</time>
      </trkpt>
      <trkpt lat="45.455" lon="5.81855">
        <ele>847.350578449</ele>
        <time>2015-05-06T10:44:41Z</time>
      </trkpt>
      <trkpt lat="45.45491" lon="5.81853">
        <ele>849.16497751</ele>
        <time>2015-05-06T10:44:46Z</time>
      </trkpt>
      <trkpt lat="45.45485" lon="5.81851">
        <ele>849.16497751</ele>
        <time>2015-05-06T10:44:51Z</time>
      </trkpt>
      <trkpt lat="45.45476" lon="5.81846">
        <ele>851.380029296</ele>
        <time>2015-05-06T10:44:56Z</time>
      </trkpt>
      <trkpt lat="45.45468" lon="5.81843">
        <ele>851.380029296</ele>
        <time>2015-05-06T10:45:01Z</time>
      </trkpt>
      <trkpt lat="45.45458" lon="5.8184">
        <ele>852.959653392</ele>
        <time>2015-05-06T10:45:06Z</time>
      </trkpt>
      <trkpt lat="45.45452" lon="5.81838">
        <ele>852.959653392</ele>
        <time>2015-05-06T10:45:11Z</time>
      </trkpt>
      <trkpt lat="45.4545" lon="5.81834">
        <ele>854.242581596</ele>
        <time>2015-05-06T10:45:16Z</time>
      </trkpt>
      <trkpt lat="45.45446" lon="5.81831">
        <ele>854.242581596</ele>
        <time>2015-05-06T10:45:21Z</time>
      </trkpt>
      <trkpt lat="45.45444" lon="5.81825">
        <ele>854.242581596</ele>
        <time>2015-05-06T10:45:26Z</time>
      </trkpt>
      <trkpt lat="45.4544" lon="5.81822">
        <ele>856.408078049</ele>
        <time>2015-05-06T10:45:31Z</time>
      </trkpt>
      <trkpt lat="45.45438" lon="5.81822">
        <ele>856.408078049</ele>
        <time>2015-05-06T10:45:36Z</time>
      </trkpt>
      <trkpt lat="45.45438" lon="5.8182">
        <ele>856.408078049</ele>
        <time>2015-05-06T10:45:41Z</time>
      </trkpt>
      <trkpt lat="45.45438" lon="5.81819">
        <ele>856.408078049</ele>
        <time>2015-05-06T10:45:45Z</time>
      </trkpt>
      <trkpt lat="45.45438" lon="5.81819">
        <ele>856.408078049</ele>
        <time>2015-05-06T10:45:50Z</time>
      </trkpt>
      <trkpt lat="45.45438" lon="5.81819">
        <ele>856.408078049</ele>
        <time>2015-05-06T10:45:55Z</time>
      </trkpt>
      <trkpt lat="45.45433" lon="5.81816">
        <ele>856.408078049</ele>
        <time>2015-05-06T10:46:00Z</time>
      </trkpt>
      <trkpt lat="45.45427" lon="5.81814">
        <ele>858.384548325</ele>
        <time>2015-05-06T10:46:05Z</time>
      </trkpt>
      <trkpt lat="45.45425" lon="5.81805">
        <ele>858.384548325</ele>
        <time>2015-05-06T10:46:11Z</time>
      </trkpt>
      <trkpt lat="45.45415" lon="5.81803">
        <ele>860.332446511</ele>
        <time>2015-05-06T10:46:17Z</time>
      </trkpt>
      <trkpt lat="45.4541" lon="5.81802">
        <ele>860.332446511</ele>
        <time>2015-05-06T10:46:21Z</time>
      </trkpt>
      <trkpt lat="45.45407" lon="5.81801">
        <ele>860.332446511</ele>
        <time>2015-05-06T10:46:27Z</time>
      </trkpt>
      <trkpt lat="45.454" lon="5.818">
        <ele>862.256317736</ele>
        <time>2015-05-06T10:46:31Z</time>
      </trkpt>
      <trkpt lat="45.45391" lon="5.81801">
        <ele>863.439792273</ele>
        <time>2015-05-06T10:46:36Z</time>
      </trkpt>
      <trkpt lat="45.45384" lon="5.81795">
        <ele>863.439792273</ele>
        <time>2015-05-06T10:46:42Z</time>
      </trkpt>
      <trkpt lat="45.45379" lon="5.8179">
        <ele>864.373995448</ele>
        <time>2015-05-06T10:46:46Z</time>
      </trkpt>
      <trkpt lat="45.45371" lon="5.81793">
        <ele>864.373995448</ele>
        <time>2015-05-06T10:46:52Z</time>
      </trkpt>
      <trkpt lat="45.45366" lon="5.81796">
        <ele>865.514574737</ele>
        <time>2015-05-06T10:46:56Z</time>
      </trkpt>
      <trkpt lat="45.45367" lon="5.81793">
        <ele>865.514574737</ele>
        <time>2015-05-06T10:47:01Z</time>
      </trkpt>
      <trkpt lat="45.45363" lon="5.81795">
        <ele>865.514574737</ele>
        <time>2015-05-06T10:47:05Z</time>
      </trkpt>
      <trkpt lat="45.45363" lon="5.81793">
        <ele>865.514574737</ele>
        <time>2015-05-06T10:47:10Z</time>
      </trkpt>
      <trkpt lat="45.45363" lon="5.81792">
        <ele>867.283023727</ele>
        <time>2015-05-06T10:47:17Z</time>
      </trkpt>
      <trkpt lat="45.45362" lon="5.81792">
        <ele>867.283023727</ele>
        <time>2015-05-06T10:47:21Z</time>
      </trkpt>
      <trkpt lat="45.45352" lon="5.81778">
        <ele>869.779783948</ele>
        <time>2015-05-06T10:47:27Z</time>
      </trkpt>
      <trkpt lat="45.45343" lon="5.81771">
        <ele>872.519325986</ele>
        <time>2015-05-06T10:47:31Z</time>
      </trkpt>
      <trkpt lat="45.45337" lon="5.81765">
        <ele>872.519325986</ele>
        <time>2015-05-06T10:47:37Z</time>
      </trkpt>
      <trkpt lat="45.45334" lon="5.81758">
        <ele>876.636231023</ele>
        <time>2015-05-06T10:47:41Z</time>
      </trkpt>
      <trkpt lat="45.45328" lon="5.81755">
        <ele>876.636231023</ele>
        <time>2015-05-06T10:47:47Z</time>
      </trkpt>
      <trkpt lat="45.45325" lon="5.81753">
        <ele>879.286780093</ele>
        <time>2015-05-06T10:47:51Z</time>
      </trkpt>
      <trkpt lat="45.4532" lon="5.81749">
        <ele>879.286780093</ele>
        <time>2015-05-06T10:47:57Z</time>
      </trkpt>
      <trkpt lat="45.45317" lon="5.81744">
        <ele>882.73996842</ele>
        <time>2015-05-06T10:48:01Z</time>
      </trkpt>
      <trkpt lat="45.45315" lon="5.81742">
        <ele>882.73996842</ele>
        <time>2015-05-06T10:48:07Z</time>
      </trkpt>
      <trkpt lat="45.45311" lon="5.81738">
        <ele>882.73996842</ele>
        <time>2015-05-06T10:48:11Z</time>
      </trkpt>
      <trkpt lat="45.45307" lon="5.81735">
        <ele>886.645907095</ele>
        <time>2015-05-06T10:48:17Z</time>
      </trkpt>
      <trkpt lat="45.45303" lon="5.81735">
        <ele>886.645907095</ele>
        <time>2015-05-06T10:48:21Z</time>
      </trkpt>
      <trkpt lat="45.45299" lon="5.81737">
        <ele>886.645907095</ele>
        <time>2015-05-06T10:48:27Z</time>
      </trkpt>
      <trkpt lat="45.45292" lon="5.81742">
        <ele>890.967312928</ele>
        <time>2015-05-06T10:48:31Z</time>
      </trkpt>
      <trkpt lat="45.45289" lon="5.8174">
        <ele>890.967312928</ele>
        <time>2015-05-06T10:48:37Z</time>
      </trkpt>
      <trkpt lat="45.45289" lon="5.81741">
        <ele>890.967312928</ele>
        <time>2015-05-06T10:48:41Z</time>
      </trkpt>
      <trkpt lat="45.45283" lon="5.81744">
        <ele>895.23610788</ele>
        <time>2015-05-06T10:48:47Z</time>
      </trkpt>
      <trkpt lat="45.4527" lon="5.81749">
        <ele>899.306949864</ele>
        <time>2015-05-06T10:48:51Z</time>
      </trkpt>
      <trkpt lat="45.45265" lon="5.81751">
        <ele>899.306949864</ele>
        <time>2015-05-06T10:48:57Z</time>
      </trkpt>
      <trkpt lat="45.45262" lon="5.81752">
        <ele>899.306949864</ele>
        <time>2015-05-06T10:49:01Z</time>
      </trkpt>
      <trkpt lat="45.45257" lon="5.81752">
        <ele>903.766282509</ele>
        <time>2015-05-06T10:49:07Z</time>
      </trkpt>
      <trkpt lat="45.45256" lon="5.81757">
        <ele>903.766282509</ele>
        <time>2015-05-06T10:49:11Z</time>
      </trkpt>
      <trkpt lat="45.45248" lon="5.81761">
        <ele>907.571169502</ele>
        <time>2015-05-06T10:49:17Z</time>
      </trkpt>
      <trkpt lat="45.45241" lon="5.81764">
        <ele>907.571169502</ele>
        <time>2015-05-06T10:49:20Z</time>
      </trkpt>
      <trkpt lat="45.45242" lon="5.81766">
        <ele>911.198260815</ele>
        <time>2015-05-06T10:49:25Z</time>
      </trkpt>
      <trkpt lat="45.45237" lon="5.81767">
        <ele>911.198260815</ele>
        <time>2015-05-06T10:49:31Z</time>
      </trkpt>
      <trkpt lat="45.4523" lon="5.81769">
        <ele>914.225058511</ele>
        <time>2015-05-06T10:49:36Z</time>
      </trkpt>
      <trkpt lat="45.45223" lon="5.81774">
        <ele>914.225058511</ele>
        <time>2015-05-06T10:49:41Z</time>
      </trkpt>
      <trkpt lat="45.4522" lon="5.81781">
        <ele>916.838270542</ele>
        <time>2015-05-06T10:49:46Z</time>
      </trkpt>
      <trkpt lat="45.45216" lon="5.81778">
        <ele>916.838270542</ele>
        <time>2015-05-06T10:49:51Z</time>
      </trkpt>
      <trkpt lat="45.45204" lon="5.81784">
        <ele>918.779758148</ele>
        <time>2015-05-06T10:49:56Z</time>
      </trkpt>
      <trkpt lat="45.45202" lon="5.81798">
        <ele>920.244602196</ele>
        <time>2015-05-06T10:50:01Z</time>
      </trkpt>
      <trkpt lat="45.45205" lon="5.81807">
        <ele>920.244602196</ele>
        <time>2015-05-06T10:50:06Z</time>
      </trkpt>
      <trkpt lat="45.45207" lon="5.81809">
        <ele>921.991367777</ele>
        <time>2015-05-06T10:50:10Z</time>
      </trkpt>
      <trkpt lat="45.45208" lon="5.81812">
        <ele>921.991367777</ele>
        <time>2015-05-06T10:50:15Z</time>
      </trkpt>
      <trkpt lat="45.45208" lon="5.81813">
        <ele>921.991367777</ele>
        <time>2015-05-06T10:50:20Z</time>
      </trkpt>
      <trkpt lat="45.45209" lon="5.81815">
        <ele>921.991367777</ele>
        <time>2015-05-06T10:50:25Z</time>
      </trkpt>
      <trkpt lat="45.45219" lon="5.81821">
        <ele>924.57802042</ele>
        <time>2015-05-06T10:50:30Z</time>
      </trkpt>
      <trkpt lat="45.4523" lon="5.81829">
        <ele>926.789866811</ele>
        <time>2015-05-06T10:50:36Z</time>
      </trkpt>
      <trkpt lat="45.45242" lon="5.81842">
        <ele>928.367175257</ele>
        <time>2015-05-06T10:50:41Z</time>
      </trkpt>
      <trkpt lat="45.45252" lon="5.81854">
        <ele>929.359302005</ele>
        <time>2015-05-06T10:50:47Z</time>
      </trkpt>
      <trkpt lat="45.45262" lon="5.81862">
        <ele>930.245950447</ele>
        <time>2015-05-06T10:50:51Z</time>
      </trkpt>
      <trkpt lat="45.45272" lon="5.81873">
        <ele>930.895423186</ele>
        <time>2015-05-06T10:50:56Z</time>
      </trkpt>
      <trkpt lat="45.45286" lon="5.81883">
        <ele>931.330447404</ele>
        <time>2015-05-06T10:51:02Z</time>
      </trkpt>
      <trkpt lat="45.45298" lon="5.8189">
        <ele>931.860864735</ele>
        <time>2015-05-06T10:51:06Z</time>
      </trkpt>
      <trkpt lat="45.45318" lon="5.8189">
        <ele>929.891207425</ele>
        <time>2015-05-06T10:51:12Z</time>
      </trkpt>
      <trkpt lat="45.45328" lon="5.81899">
        <ele>927.923384603</ele>
        <time>2015-05-06T10:51:16Z</time>
      </trkpt>
      <trkpt lat="45.45338" lon="5.81911">
        <ele>925.969631506</ele>
        <time>2015-05-06T10:51:22Z</time>
      </trkpt>
      <trkpt lat="45.45346" lon="5.81918">
        <ele>924.185228983</ele>
        <time>2015-05-06T10:51:26Z</time>
      </trkpt>
      <trkpt lat="45.4535" lon="5.81938">
        <ele>922.425199636</ele>
        <time>2015-05-06T10:51:30Z</time>
      </trkpt>
      <trkpt lat="45.45357" lon="5.81956">
        <ele>920.69908108</ele>
        <time>2015-05-06T10:51:36Z</time>
      </trkpt>
      <trkpt lat="45.45371" lon="5.81964">
        <ele>919.159527994</ele>
        <time>2015-05-06T10:51:41Z</time>
      </trkpt>
      <trkpt lat="45.45381" lon="5.81976">
        <ele>918.091353566</ele>
        <time>2015-05-06T10:51:46Z</time>
      </trkpt>
      <trkpt lat="45.45393" lon="5.81979">
        <ele>917.756898374</ele>
        <time>2015-05-06T10:51:51Z</time>
      </trkpt>
      <trkpt lat="45.45402" lon="5.81987">
        <ele>917.532269813</ele>
        <time>2015-05-06T10:51:56Z</time>
      </trkpt>
      <trkpt lat="45.45411" lon="5.81993">
        <ele>917.703524901</ele>
        <time>2015-05-06T10:52:01Z</time>
      </trkpt>
      <trkpt lat="45.45421" lon="5.82">
        <ele>917.381466555</ele>
        <time>2015-05-06T10:52:06Z</time>
      </trkpt>
      <trkpt lat="45.45436" lon="5.82004">
        <ele>917.616808567</ele>
        <time>2015-05-06T10:52:11Z</time>
      </trkpt>
      <trkpt lat="45.45452" lon="5.82014">
        <ele>917.940170401</ele>
        <time>2015-05-06T10:52:16Z</time>
      </trkpt>
      <trkpt lat="45.45466" lon="5.82024">
        <ele>917.627952536</ele>
        <time>2015-05-06T10:52:21Z</time>
      </trkpt>
      <trkpt lat="45.45483" lon="5.82032">
        <ele>917.308268157</ele>
        <time>2015-05-06T10:52:26Z</time>
      </trkpt>
      <trkpt lat="45.45496" lon="5.82041">
        <ele>915.97766415</ele>
        <time>2015-05-06T10:52:31Z</time>
      </trkpt>
      <trkpt lat="45.45511" lon="5.8205">
        <ele>913.86190116</ele>
        <time>2015-05-06T10:52:36Z</time>
      </trkpt>
      <trkpt lat="45.45526" lon="5.82055">
        <ele>910.019237019</ele>
        <time>2015-05-06T10:52:41Z</time>
      </trkpt>
      <trkpt lat="45.45527" lon="5.82077">
        <ele>905.455153973</ele>
        <time>2015-05-06T10:52:46Z</time>
      </trkpt>
      <trkpt lat="45.4553" lon="5.82091">
        <ele>901.535366576</ele>
        <time>2015-05-06T10:52:51Z</time>
      </trkpt>
      <trkpt lat="45.45538" lon="5.82107">
        <ele>898.226174292</ele>
        <time>2015-05-06T10:52:55Z</time>
      </trkpt>
      <trkpt lat="45.45546" lon="5.82115">
        <ele>895.350227333</ele>
        <time>2015-05-06T10:53:01Z</time>
      </trkpt>
      <trkpt lat="45.45557" lon="5.82132">
        <ele>892.885785819</ele>
        <time>2015-05-06T10:53:06Z</time>
      </trkpt>
      <trkpt lat="45.45563" lon="5.82148">
        <ele>891.243565911</ele>
        <time>2015-05-06T10:53:11Z</time>
      </trkpt>
      <trkpt lat="45.45574" lon="5.8216">
        <ele>890.36915291</ele>
        <time>2015-05-06T10:53:16Z</time>
      </trkpt>
      <trkpt lat="45.4559" lon="5.82162">
        <ele>889.777327966</ele>
        <time>2015-05-06T10:53:21Z</time>
      </trkpt>
      <trkpt lat="45.45599" lon="5.82173">
        <ele>889.449753815</ele>
        <time>2015-05-06T10:53:26Z</time>
      </trkpt>
      <trkpt lat="45.45615" lon="5.82177">
        <ele>889.080188074</ele>
        <time>2015-05-06T10:53:31Z</time>
      </trkpt>
      <trkpt lat="45.45631" lon="5.82186">
        <ele>888.528841257</ele>
        <time>2015-05-06T10:53:36Z</time>
      </trkpt>
      <trkpt lat="45.45642" lon="5.82192">
        <ele>888.098780192</ele>
        <time>2015-05-06T10:53:41Z</time>
      </trkpt>
      <trkpt lat="45.45653" lon="5.82204">
        <ele>887.349672026</ele>
        <time>2015-05-06T10:53:46Z</time>
      </trkpt>
      <trkpt lat="45.45667" lon="5.82208">
        <ele>886.594755287</ele>
        <time>2015-05-06T10:53:51Z</time>
      </trkpt>
      <trkpt lat="45.45681" lon="5.82224">
        <ele>883.962391002</ele>
        <time>2015-05-06T10:53:56Z</time>
      </trkpt>
      <trkpt lat="45.45686" lon="5.8224">
        <ele>881.18215521</ele>
        <time>2015-05-06T10:54:01Z</time>
      </trkpt>
      <trkpt lat="45.45693" lon="5.82258">
        <ele>879.424446463</ele>
        <time>2015-05-06T10:54:06Z</time>
      </trkpt>
      <trkpt lat="45.45697" lon="5.82266">
        <ele>879.424446463</ele>
        <time>2015-05-06T10:54:11Z</time>
      </trkpt>
      <trkpt lat="45.45694" lon="5.8227">
        <ele>878.185392656</ele>
        <time>2015-05-06T10:54:16Z</time>
      </trkpt>
      <trkpt lat="45.45691" lon="5.82271">
        <ele>878.185392656</ele>
        <time>2015-05-06T10:54:21Z</time>
      </trkpt>
      <trkpt lat="45.45691" lon="5.82272">
        <ele>878.185392656</ele>
        <time>2015-05-06T10:54:26Z</time>
      </trkpt>
      <trkpt lat="45.4569" lon="5.8227">
        <ele>878.185392656</ele>
        <time>2015-05-06T10:54:31Z</time>
      </trkpt>
      <trkpt lat="45.45692" lon="5.8227">
        <ele>878.185392656</ele>
        <time>2015-05-06T10:54:36Z</time>
      </trkpt>
      <trkpt lat="45.45696" lon="5.82272">
        <ele>877.284704227</ele>
        <time>2015-05-06T10:54:41Z</time>
      </trkpt>
      <trkpt lat="45.45696" lon="5.82274">
        <ele>877.284704227</ele>
        <time>2015-05-06T10:54:45Z</time>
      </trkpt>
      <trkpt lat="45.45696" lon="5.82273">
        <ele>877.284704227</ele>
        <time>2015-05-06T10:54:50Z</time>
      </trkpt>
      <trkpt lat="45.45689" lon="5.82272">
        <ele>877.284704227</ele>
        <time>2015-05-06T10:54:55Z</time>
      </trkpt>
      <trkpt lat="45.45688" lon="5.82273">
        <ele>877.707086305</ele>
        <time>2015-05-06T10:55:00Z</time>
      </trkpt>
      <trkpt lat="45.45688" lon="5.82274">
        <ele>877.707086305</ele>
        <time>2015-05-06T10:55:05Z</time>
      </trkpt>
      <trkpt lat="45.45687" lon="5.82276">
        <ele>877.707086305</ele>
        <time>2015-05-06T10:55:10Z</time>
      </trkpt>
      <trkpt lat="45.45687" lon="5.82276">
        <ele>877.707086305</ele>
        <time>2015-05-06T10:55:16Z</time>
      </trkpt>
      <trkpt lat="45.45687" lon="5.82276">
        <ele>877.707086305</ele>
        <time>2015-05-06T10:55:22Z</time>
      </trkpt>
      <trkpt lat="45.45687" lon="5.82276">
        <ele>877.707086305</ele>
        <time>2015-05-06T10:55:26Z</time>
      </trkpt>
      <trkpt lat="45.45687" lon="5.82276">
        <ele>877.707086305</ele>
        <time>2015-05-06T10:55:32Z</time>
      </trkpt>
      <trkpt lat="45.45687" lon="5.82276">
        <ele>877.707086305</ele>
        <time>2015-05-06T10:55:36Z</time>
      </trkpt>
      <trkpt lat="45.45687" lon="5.82276">
        <ele>877.707086305</ele>
        <time>2015-05-06T10:55:42Z</time>
      </trkpt>
      <trkpt lat="45.45687" lon="5.82276">
        <ele>877.707086305</ele>
        <time>2015-05-06T10:55:46Z</time>
      </trkpt>
      <trkpt lat="45.45687" lon="5.82276">
        <ele>877.707086305</ele>
        <time>2015-05-06T10:55:52Z</time>
      </trkpt>
      <trkpt lat="45.45687" lon="5.82276">
        <ele>877.707086305</ele>
        <time>2015-05-06T10:55:56Z</time>
      </trkpt>
      <trkpt lat="45.45687" lon="5.82276">
        <ele>877.707086305</ele>
        <time>2015-05-06T10:56:02Z</time>
      </trkpt>
      <trkpt lat="45.45687" lon="5.82276">
        <ele>877.707086305</ele>
        <time>2015-05-06T10:56:06Z</time>
      </trkpt>
      <trkpt lat="45.45687" lon="5.82276">
        <ele>877.707086305</ele>
        <time>2015-05-06T10:56:12Z</time>
      </trkpt>
      <trkpt lat="45.45687" lon="5.82276">
        <ele>877.707086305</ele>
        <time>2015-05-06T10:56:16Z</time>
      </trkpt>
      <trkpt lat="45.45687" lon="5.82276">
        <ele>877.707086305</ele>
        <time>2015-05-06T10:56:22Z</time>
      </trkpt>
      <trkpt lat="45.45687" lon="5.82276">
        <ele>877.707086305</ele>
        <time>2015-05-06T10:56:26Z</time>
      </trkpt>
      <trkpt lat="45.45687" lon="5.82276">
        <ele>877.707086305</ele>
        <time>2015-05-06T10:56:32Z</time>
      </trkpt>
      <trkpt lat="45.45687" lon="5.82276">
        <ele>877.707086305</ele>
        <time>2015-05-06T10:56:36Z</time>
      </trkpt>
      <trkpt lat="45.45687" lon="5.82276">
        <ele>877.707086305</ele>
        <time>2015-05-06T10:56:41Z</time>
      </trkpt>
      <trkpt lat="45.45687" lon="5.82276">
        <ele>877.707086305</ele>
        <time>2015-05-06T10:56:45Z</time>
      </trkpt>
      <trkpt lat="45.45687" lon="5.82276">
        <ele>877.707086305</ele>
        <time>2015-05-06T10:56:50Z</time>
      </trkpt>
      <trkpt lat="45.45687" lon="5.82276">
        <ele>877.707086305</ele>
        <time>2015-05-06T10:56:56Z</time>
      </trkpt>
      <trkpt lat="45.45687" lon="5.82276">
        <ele>877.707086305</ele>
        <time>2015-05-06T10:57:01Z</time>
      </trkpt>
      <trkpt lat="45.45686" lon="5.82286">
        <ele>877.622908431</ele>
        <time>2015-05-06T10:57:05Z</time>
      </trkpt>
      <trkpt lat="45.4569" lon="5.82317">
        <ele>878.220429687</ele>
        <time>2015-05-06T10:57:12Z</time>
      </trkpt>
      <trkpt lat="45.45695" lon="5.82326">
        <ele>878.220429687</ele>
        <time>2015-05-06T10:57:16Z</time>
      </trkpt>
      <trkpt lat="45.457" lon="5.82336">
        <ele>879.30156955</ele>
        <time>2015-05-06T10:57:22Z</time>
      </trkpt>
      <trkpt lat="45.45707" lon="5.82349">
        <ele>880.537215052</ele>
        <time>2015-05-06T10:57:26Z</time>
      </trkpt>
      <trkpt lat="45.45713" lon="5.82354">
        <ele>880.537215052</ele>
        <time>2015-05-06T10:57:32Z</time>
      </trkpt>
      <trkpt lat="45.4572" lon="5.82368">
        <ele>881.477792058</ele>
        <time>2015-05-06T10:57:36Z</time>
      </trkpt>
      <trkpt lat="45.45716" lon="5.82374">
        <ele>881.477792058</ele>
        <time>2015-05-06T10:57:42Z</time>
      </trkpt>
      <trkpt lat="45.45716" lon="5.82376">
        <ele>881.477792058</ele>
        <time>2015-05-06T10:57:46Z</time>
      </trkpt>
      <trkpt lat="45.45715" lon="5.82376">
        <ele>881.477792058</ele>
        <time>2015-05-06T10:57:52Z</time>
      </trkpt>
      <trkpt lat="45.45715" lon="5.82376">
        <ele>881.477792058</ele>
        <time>2015-05-06T10:57:56Z</time>
      </trkpt>
      <trkpt lat="45.45715" lon="5.82376">
        <ele>881.477792058</ele>
        <time>2015-05-06T10:58:02Z</time>
      </trkpt>
      <trkpt lat="45.45707" lon="5.82375">
        <ele>883.436845227</ele>
        <time>2015-05-06T10:58:06Z</time>
      </trkpt>
      <trkpt lat="45.45693" lon="5.82381">
        <ele>885.610970176</ele>
        <time>2015-05-06T10:58:12Z</time>
      </trkpt>
      <trkpt lat="45.45687" lon="5.82381">
        <ele>885.610970176</ele>
        <time>2015-05-06T10:58:16Z</time>
      </trkpt>
      <trkpt lat="45.45683" lon="5.82377">
        <ele>888.552160515</ele>
        <time>2015-05-06T10:58:22Z</time>
      </trkpt>
      <trkpt lat="45.45675" lon="5.82377">
        <ele>888.552160515</ele>
        <time>2015-05-06T10:58:26Z</time>
      </trkpt>
      <trkpt lat="45.45671" lon="5.82372">
        <ele>891.616830716</ele>
        <time>2015-05-06T10:58:32Z</time>
      </trkpt>
      <trkpt lat="45.4566" lon="5.8237">
        <ele>895.217145847</ele>
        <time>2015-05-06T10:58:36Z</time>
      </trkpt>
      <trkpt lat="45.45658" lon="5.82365">
        <ele>895.217145847</ele>
        <time>2015-05-06T10:58:42Z</time>
      </trkpt>
      <trkpt lat="45.45656" lon="5.82361">
        <ele>895.217145847</ele>
        <time>2015-05-06T10:58:46Z</time>
      </trkpt>
      <trkpt lat="45.45649" lon="5.82368">
        <ele>899.877675983</ele>
        <time>2015-05-06T10:58:52Z</time>
      </trkpt>
      <trkpt lat="45.45645" lon="5.82373">
        <ele>899.877675983</ele>
        <time>2015-05-06T10:58:56Z</time>
      </trkpt>
      <trkpt lat="45.45646" lon="5.82371">
        <ele>899.877675983</ele>
        <time>2015-05-06T10:59:02Z</time>
      </trkpt>
      <trkpt lat="45.45647" lon="5.82369">
        <ele>899.877675983</ele>
        <time>2015-05-06T10:59:06Z</time>
      </trkpt>
      <trkpt lat="45.45647" lon="5.82369">
        <ele>899.877675983</ele>
        <time>2015-05-06T10:59:12Z</time>
      </trkpt>
      <trkpt lat="45.45647" lon="5.82369">
        <ele>905.072812591</ele>
        <time>2015-05-06T10:59:16Z</time>
      </trkpt>
      <trkpt lat="45.45647" lon="5.82369">
        <ele>905.072812591</ele>
        <time>2015-05-06T10:59:22Z</time>
      </trkpt>
      <trkpt lat="45.45651" lon="5.82368">
        <ele>905.072812591</ele>
        <time>2015-05-06T10:59:26Z</time>
      </trkpt>
      <trkpt lat="45.45657" lon="5.82388">
        <ele>910.45831387</ele>
        <time>2015-05-06T10:59:32Z</time>
      </trkpt>
      <trkpt lat="45.45663" lon="5.82373">
        <ele>916.435430074</ele>
        <time>2015-05-06T10:59:36Z</time>
      </trkpt>
      <trkpt lat="45.45666" lon="5.82387">
        <ele>921.212827353</ele>
        <time>2015-05-06T10:59:41Z</time>
      </trkpt>
      <trkpt lat="45.45667" lon="5.82402">
        <ele>924.863711946</ele>
        <time>2015-05-06T10:59:46Z</time>
      </trkpt>
      <trkpt lat="45.45666" lon="5.82403">
        <ele>924.863711946</ele>
        <time>2015-05-06T10:59:52Z</time>
      </trkpt>
      <trkpt lat="45.45668" lon="5.82403">
        <ele>924.863711946</ele>
        <time>2015-05-06T10:59:56Z</time>
      </trkpt>
      <trkpt lat="45.45668" lon="5.82403">
        <ele>924.863711946</ele>
        <time>2015-05-06T11:00:01Z</time>
      </trkpt>
      <trkpt lat="45.45668" lon="5.82402">
        <ele>924.863711946</ele>
        <time>2015-05-06T11:00:06Z</time>
      </trkpt>
      <trkpt lat="45.45668" lon="5.82402">
        <ele>924.863711946</ele>
        <time>2015-05-06T11:00:12Z</time>
      </trkpt>
      <trkpt lat="45.45668" lon="5.82402">
        <ele>924.863711946</ele>
        <time>2015-05-06T11:00:16Z</time>
      </trkpt>
      <trkpt lat="45.45668" lon="5.82402">
        <ele>924.863711946</ele>
        <time>2015-05-06T11:00:22Z</time>
      </trkpt>
      <trkpt lat="45.45668" lon="5.82402">
        <ele>924.863711946</ele>
        <time>2015-05-06T11:00:26Z</time>
      </trkpt>
      <trkpt lat="45.45668" lon="5.82402">
        <ele>924.863711946</ele>
        <time>2015-05-06T11:00:32Z</time>
      </trkpt>
      <trkpt lat="45.45668" lon="5.82402">
        <ele>924.863711946</ele>
        <time>2015-05-06T11:00:36Z</time>
      </trkpt>
      <trkpt lat="45.45668" lon="5.82402">
        <ele>924.863711946</ele>
        <time>2015-05-06T11:00:42Z</time>
      </trkpt>
      <trkpt lat="45.45668" lon="5.82402">
        <ele>924.863711946</ele>
        <time>2015-05-06T11:00:46Z</time>
      </trkpt>
      <trkpt lat="45.45668" lon="5.82402">
        <ele>924.863711946</ele>
        <time>2015-05-06T11:00:52Z</time>
      </trkpt>
      <trkpt lat="45.45668" lon="5.82402">
        <ele>924.863711946</ele>
        <time>2015-05-06T11:00:56Z</time>
      </trkpt>
      <trkpt lat="45.45668" lon="5.82402">
        <ele>924.863711946</ele>
        <time>2015-05-06T11:01:02Z</time>
      </trkpt>
      <trkpt lat="45.45686" lon="5.82421">
        <ele>931.494466476</ele>
        <time>2015-05-06T11:01:06Z</time>
      </trkpt>
      <trkpt lat="45.45687" lon="5.82437">
        <ele>936.831543222</ele>
        <time>2015-05-06T11:01:12Z</time>
      </trkpt>
      <trkpt lat="45.45685" lon="5.82444">
        <ele>936.831543222</ele>
        <time>2015-05-06T11:01:16Z</time>
      </trkpt>
      <trkpt lat="45.45678" lon="5.82439">
        <ele>942.107287929</ele>
        <time>2015-05-06T11:01:22Z</time>
      </trkpt>
      <trkpt lat="45.45675" lon="5.82436">
        <ele>942.107287929</ele>
        <time>2015-05-06T11:01:26Z</time>
      </trkpt>
      <trkpt lat="45.45674" lon="5.82438">
        <ele>942.107287929</ele>
        <time>2015-05-06T11:01:32Z</time>
      </trkpt>
      <trkpt lat="45.45667" lon="5.82443">
        <ele>947.59937647</ele>
        <time>2015-05-06T11:01:36Z</time>
      </trkpt>
      <trkpt lat="45.45665" lon="5.82442">
        <ele>947.59937647</ele>
        <time>2015-05-06T11:01:42Z</time>
      </trkpt>
      <trkpt lat="45.45657" lon="5.82441">
        <ele>951.691406076</ele>
        <time>2015-05-06T11:01:46Z</time>
      </trkpt>
      <trkpt lat="45.45652" lon="5.82442">
        <ele>951.691406076</ele>
        <time>2015-05-06T11:01:52Z</time>
      </trkpt>
      <trkpt lat="45.4565" lon="5.82442">
        <ele>951.691406076</ele>
        <time>2015-05-06T11:01:56Z</time>
      </trkpt>
      <trkpt lat="45.4565" lon="5.82445">
        <ele>955.628137773</ele>
        <time>2015-05-06T11:02:02Z</time>
      </trkpt>
      <trkpt lat="45.4565" lon="5.82447">
        <ele>955.628137773</ele>
        <time>2015-05-06T11:02:06Z</time>
      </trkpt>
      <trkpt lat="45.45652" lon="5.82445">
        <ele>955.628137773</ele>
        <time>2015-05-06T11:02:12Z</time>
      </trkpt>
      <trkpt lat="45.45652" lon="5.82442">
        <ele>955.628137773</ele>
        <time>2015-05-06T11:02:16Z</time>
      </trkpt>
      <trkpt lat="45.45651" lon="5.82441">
        <ele>955.628137773</ele>
        <time>2015-05-06T11:02:22Z</time>
      </trkpt>
      <trkpt lat="45.45643" lon="5.82439">
        <ele>959.843165391</ele>
        <time>2015-05-06T11:02:26Z</time>
      </trkpt>
      <trkpt lat="45.45639" lon="5.82435">
        <ele>959.843165391</ele>
        <time>2015-05-06T11:02:32Z</time>
      </trkpt>
      <trkpt lat="45.45638" lon="5.82451">
        <ele>963.152622559</ele>
        <time>2015-05-06T11:02:36Z</time>
      </trkpt>
      <trkpt lat="45.45633" lon="5.8246">
        <ele>963.152622559</ele>
        <time>2015-05-06T11:02:42Z</time>
      </trkpt>
      <trkpt lat="45.45641" lon="5.82466">
        <ele>965.759541844</ele>
        <time>2015-05-06T11:02:46Z</time>
      </trkpt>
      <trkpt lat="45.45644" lon="5.82468">
        <ele>965.759541844</ele>
        <time>2015-05-06T11:02:52Z</time>
      </trkpt>
      <trkpt lat="45.45645" lon="5.8247">
        <ele>965.759541844</ele>
        <time>2015-05-06T11:02:56Z</time>
      </trkpt>
      <trkpt lat="45.45643" lon="5.82467">
        <ele>965.759541844</ele>
        <time>2015-05-06T11:03:01Z</time>
      </trkpt>
      <trkpt lat="45.45651" lon="5.82468">
        <ele>967.998508039</ele>
        <time>2015-05-06T11:03:06Z</time>
      </trkpt>
      <trkpt lat="45.45658" lon="5.82473">
        <ele>967.998508039</ele>
        <time>2015-05-06T11:03:11Z</time>
      </trkpt>
      <trkpt lat="45.45649" lon="5.82461">
        <ele>971.333824854</ele>
        <time>2015-05-06T11:03:15Z</time>
      </trkpt>
      <trkpt lat="45.45651" lon="5.82466">
        <ele>971.333824854</ele>
        <time>2015-05-06T11:03:21Z</time>
      </trkpt>
      <trkpt lat="45.45654" lon="5.82471">
        <ele>971.333824854</ele>
        <time>2015-05-06T11:03:25Z</time>
      </trkpt>
      <trkpt lat="45.45655" lon="5.82471">
        <ele>974.669627987</ele>
        <time>2015-05-06T11:03:31Z</time>
      </trkpt>
      <trkpt lat="45.45659" lon="5.82479">
        <ele>974.669627987</ele>
        <time>2015-05-06T11:03:37Z</time>
      </trkpt>
      <trkpt lat="45.45659" lon="5.82487">
        <ele>978.143796052</ele>
        <time>2015-05-06T11:03:41Z</time>
      </trkpt>
      <trkpt lat="45.45663" lon="5.82489">
        <ele>978.143796052</ele>
        <time>2015-05-06T11:03:47Z</time>
      </trkpt>
      <trkpt lat="45.45671" lon="5.82509">
        <ele>982.172258467</ele>
        <time>2015-05-06T11:03:51Z</time>
      </trkpt>
      <trkpt lat="45.4568" lon="5.82515">
        <ele>985.986284967</ele>
        <time>2015-05-06T11:03:57Z</time>
      </trkpt>
      <trkpt lat="45.45675" lon="5.82521">
        <ele>985.986284967</ele>
        <time>2015-05-06T11:04:01Z</time>
      </trkpt>
      <trkpt lat="45.45679" lon="5.82517">
        <ele>990.171551051</ele>
        <time>2015-05-06T11:04:07Z</time>
      </trkpt>
      <trkpt lat="45.45683" lon="5.82522">
        <ele>990.171551051</ele>
        <time>2015-05-06T11:04:11Z</time>
      </trkpt>
      <trkpt lat="45.45687" lon="5.82532">
        <ele>994.40532915</ele>
        <time>2015-05-06T11:04:17Z</time>
      </trkpt>
      <trkpt lat="45.45689" lon="5.82535">
        <ele>994.40532915</ele>
        <time>2015-05-06T11:04:21Z</time>
      </trkpt>
      <trkpt lat="45.45693" lon="5.82549">
        <ele>998.388787318</ele>
        <time>2015-05-06T11:04:27Z</time>
      </trkpt>
      <trkpt lat="45.457" lon="5.82556">
        <ele>998.388787318</ele>
        <time>2015-05-06T11:04:31Z</time>
      </trkpt>
      <trkpt lat="45.45699" lon="5.82559">
        <ele>1002.566623507</ele>
        <time>2015-05-06T11:04:37Z</time>
      </trkpt>
      <trkpt lat="45.45699" lon="5.82562">
        <ele>1002.566623507</ele>
        <time>2015-05-06T11:04:41Z</time>
      </trkpt>
      <trkpt lat="45.45698" lon="5.8256">
        <ele>1002.566623507</ele>
        <time>2015-05-06T11:04:45Z</time>
      </trkpt>
      <trkpt lat="45.45698" lon="5.82558">
        <ele>1002.566623507</ele>
        <time>2015-05-06T11:04:50Z</time>
      </trkpt>
      <trkpt lat="45.45698" lon="5.82558">
        <ele>1002.566623507</ele>
        <time>2015-05-06T11:04:55Z</time>
      </trkpt>
      <trkpt lat="45.45698" lon="5.82558">
        <ele>1002.566623507</ele>
        <time>2015-05-06T11:05:00Z</time>
      </trkpt>
      <trkpt lat="45.457" lon="5.82564">
        <ele>1006.341859306</ele>
        <time>2015-05-06T11:05:06Z</time>
      </trkpt>
      <trkpt lat="45.457" lon="5.82566">
        <ele>1006.341859306</ele>
        <time>2015-05-06T11:05:12Z</time>
      </trkpt>
      <trkpt lat="45.45701" lon="5.82566">
        <ele>1006.341859306</ele>
        <time>2015-05-06T11:05:16Z</time>
      </trkpt>
      <trkpt lat="45.45702" lon="5.82572">
        <ele>1006.341859306</ele>
        <time>2015-05-06T11:05:22Z</time>
      </trkpt>
      <trkpt lat="45.45703" lon="5.82573">
        <ele>1006.341859306</ele>
        <time>2015-05-06T11:05:26Z</time>
      </trkpt>
      <trkpt lat="45.45702" lon="5.82573">
        <ele>1006.341859306</ele>
        <time>2015-05-06T11:05:31Z</time>
      </trkpt>
      <trkpt lat="45.45697" lon="5.82581">
        <ele>1008.730471232</ele>
        <time>2015-05-06T11:05:36Z</time>
      </trkpt>
      <trkpt lat="45.45699" lon="5.82593">
        <ele>1008.730471232</ele>
        <time>2015-05-06T11:05:40Z</time>
      </trkpt>
      <trkpt lat="45.45701" lon="5.82594">
        <ele>1010.842460784</ele>
        <time>2015-05-06T11:05:45Z</time>
      </trkpt>
      <trkpt lat="45.45702" lon="5.82593">
        <ele>1010.842460784</ele>
        <time>2015-05-06T11:05:50Z</time>
      </trkpt>
      <trkpt lat="45.457" lon="5.82595">
        <ele>1010.842460784</ele>
        <time>2015-05-06T11:05:56Z</time>
      </trkpt>
      <trkpt lat="45.457" lon="5.82596">
        <ele>1010.842460784</ele>
        <time>2015-05-06T11:06:01Z</time>
      </trkpt>
      <trkpt lat="45.457" lon="5.82596">
        <ele>1010.842460784</ele>
        <time>2015-05-06T11:06:06Z</time>
      </trkpt>
      <trkpt lat="45.4569" lon="5.82596">
        <ele>1013.130897951</ele>
        <time>2015-05-06T11:06:11Z</time>
      </trkpt>
      <trkpt lat="45.4568" lon="5.82597">
        <ele>1015.150666182</ele>
        <time>2015-05-06T11:06:16Z</time>
      </trkpt>
      <trkpt lat="45.45674" lon="5.82594">
        <ele>1015.150666182</ele>
        <time>2015-05-06T11:06:21Z</time>
      </trkpt>
      <trkpt lat="45.45669" lon="5.8259">
        <ele>1016.778558737</ele>
        <time>2015-05-06T11:06:26Z</time>
      </trkpt>
      <trkpt lat="45.45659" lon="5.82588">
        <ele>1018.189954578</ele>
        <time>2015-05-06T11:06:31Z</time>
      </trkpt>
      <trkpt lat="45.4565" lon="5.82586">
        <ele>1019.259924422</ele>
        <time>2015-05-06T11:06:36Z</time>
      </trkpt>
      <trkpt lat="45.45643" lon="5.82581">
        <ele>1019.259924422</ele>
        <time>2015-05-06T11:06:41Z</time>
      </trkpt>
      <trkpt lat="45.45631" lon="5.8258">
        <ele>1021.459064604</ele>
        <time>2015-05-06T11:06:45Z</time>
      </trkpt>
      <trkpt lat="45.45627" lon="5.82581">
        <ele>1021.459064604</ele>
        <time>2015-05-06T11:06:50Z</time>
      </trkpt>
      <trkpt lat="45.4562" lon="5.82584">
        <ele>1023.552920025</ele>
        <time>2015-05-06T11:06:56Z</time>
      </trkpt>
      <trkpt lat="45.45617" lon="5.82588">
        <ele>1023.552920025</ele>
        <time>2015-05-06T11:07:01Z</time>
      </trkpt>
      <trkpt lat="45.45617" lon="5.82593">
        <ele>1023.552920025</ele>
        <time>2015-05-06T11:07:07Z</time>
      </trkpt>
      <trkpt lat="45.45617" lon="5.826">
        <ele>1025.695141249</ele>
        <time>2015-05-06T11:07:11Z</time>
      </trkpt>
      <trkpt lat="45.45617" lon="5.82606">
        <ele>1025.695141249</ele>
        <time>2015-05-06T11:07:17Z</time>
      </trkpt>
      <trkpt lat="45.45618" lon="5.82613">
        <ele>1028.172179074</ele>
        <time>2015-05-06T11:07:21Z</time>
      </trkpt>
      <trkpt lat="45.45617" lon="5.8262">
        <ele>1028.172179074</ele>
        <time>2015-05-06T11:07:27Z</time>
      </trkpt>
      <trkpt lat="45.45612" lon="5.82624">
        <ele>1029.95159974</ele>
        <time>2015-05-06T11:07:30Z</time>
      </trkpt>
      <trkpt lat="45.45609" lon="5.82624">
        <ele>1029.95159974</ele>
        <time>2015-05-06T11:07:35Z</time>
      </trkpt>
      <trkpt lat="45.45608" lon="5.82626">
        <ele>1029.95159974</ele>
        <time>2015-05-06T11:07:40Z</time>
      </trkpt>
      <trkpt lat="45.45609" lon="5.82627">
        <ele>1029.95159974</ele>
        <time>2015-05-06T11:07:45Z</time>
      </trkpt>
      <trkpt lat="45.45608" lon="5.82626">
        <ele>1029.95159974</ele>
        <time>2015-05-06T11:07:50Z</time>
      </trkpt>
      <trkpt lat="45.456" lon="5.82626">
        <ele>1032.096409531</ele>
        <time>2015-05-06T11:07:56Z</time>
      </trkpt>
      <trkpt lat="45.45594" lon="5.82624">
        <ele>1032.096409531</ele>
        <time>2015-05-06T11:08:02Z</time>
      </trkpt>
      <trkpt lat="45.45586" lon="5.82624">
        <ele>1034.581796559</ele>
        <time>2015-05-06T11:08:06Z</time>
      </trkpt>
      <trkpt lat="45.4559" lon="5.82631">
        <ele>1034.581796559</ele>
        <time>2015-05-06T11:08:12Z</time>
      </trkpt>
      <trkpt lat="45.45588" lon="5.82621">
        <ele>1037.672101472</ele>
        <time>2015-05-06T11:08:16Z</time>
      </trkpt>
      <trkpt lat="45.45587" lon="5.82619">
        <ele>1037.672101472</ele>
        <time>2015-05-06T11:08:21Z</time>
      </trkpt>
      <trkpt lat="45.45587" lon="5.82619">
        <ele>1037.672101472</ele>
        <time>2015-05-06T11:08:27Z</time>
      </trkpt>
      <trkpt lat="45.45588" lon="5.82618">
        <ele>1037.672101472</ele>
        <time>2015-05-06T11:08:31Z</time>
      </trkpt>
      <trkpt lat="45.45587" lon="5.82618">
        <ele>1037.672101472</ele>
        <time>2015-05-06T11:08:37Z</time>
      </trkpt>
      <trkpt lat="45.45587" lon="5.82618">
        <ele>1037.672101472</ele>
        <time>2015-05-06T11:08:41Z</time>
      </trkpt>
      <trkpt lat="45.45587" lon="5.82618">
        <ele>1037.672101472</ele>
        <time>2015-05-06T11:08:46Z</time>
      </trkpt>
      <trkpt lat="45.45586" lon="5.82619">
        <ele>1037.672101472</ele>
        <time>2015-05-06T11:08:50Z</time>
      </trkpt>
      <trkpt lat="45.45582" lon="5.82621">
        <ele>1037.672101472</ele>
        <time>2015-05-06T11:08:56Z</time>
      </trkpt>
      <trkpt lat="45.45575" lon="5.82622">
        <ele>1040.169491887</ele>
        <time>2015-05-06T11:09:02Z</time>
      </trkpt>
      <trkpt lat="45.45573" lon="5.8262">
        <ele>1040.169491887</ele>
        <time>2015-05-06T11:09:06Z</time>
      </trkpt>
      <trkpt lat="45.45573" lon="5.82622">
        <ele>1040.169491887</ele>
        <time>2015-05-06T11:09:12Z</time>
      </trkpt>
      <trkpt lat="45.45576" lon="5.82623">
        <ele>1040.169491887</ele>
        <time>2015-05-06T11:09:16Z</time>
      </trkpt>
      <trkpt lat="45.45574" lon="5.82625">
        <ele>1040.169491887</ele>
        <time>2015-05-06T11:09:21Z</time>
      </trkpt>
      <trkpt lat="45.45576" lon="5.82626">
        <ele>1044.568620272</ele>
        <time>2015-05-06T11:09:26Z</time>
      </trkpt>
      <trkpt lat="45.45576" lon="5.82626">
        <ele>1044.568620272</ele>
        <time>2015-05-06T11:09:32Z</time>
      </trkpt>
      <trkpt lat="45.45576" lon="5.82628">
        <ele>1044.568620272</ele>
        <time>2015-05-06T11:09:36Z</time>
      </trkpt>
      <trkpt lat="45.45564" lon="5.82629">
        <ele>1048.275817445</ele>
        <time>2015-05-06T11:09:42Z</time>
      </trkpt>
      <trkpt lat="45.4556" lon="5.8263">
        <ele>1048.275817445</ele>
        <time>2015-05-06T11:09:46Z</time>
      </trkpt>
      <trkpt lat="45.45561" lon="5.82634">
        <ele>1048.275817445</ele>
        <time>2015-05-06T11:09:52Z</time>
      </trkpt>
      <trkpt lat="45.45566" lon="5.82636">
        <ele>1051.628045841</ele>
        <time>2015-05-06T11:09:56Z</time>
      </trkpt>
      <trkpt lat="45.45565" lon="5.82641">
        <ele>1051.628045841</ele>
        <time>2015-05-06T11:10:00Z</time>
      </trkpt>
      <trkpt lat="45.45566" lon="5.82645">
        <ele>1051.628045841</ele>
        <time>2015-05-06T11:10:05Z</time>
      </trkpt>
      <trkpt lat="45.45566" lon="5.82645">
        <ele>1051.628045841</ele>
        <time>2015-05-06T11:10:10Z</time>
      </trkpt>
      <trkpt lat="45.45566" lon="5.82645">
        <ele>1051.628045841</ele>
        <time>2015-05-06T11:10:16Z</time>
      </trkpt>
      <trkpt lat="45.45566" lon="5.82645">
        <ele>1051.628045841</ele>
        <time>2015-05-06T11:10:21Z</time>
      </trkpt>
      <trkpt lat="45.45565" lon="5.82645">
        <ele>1054.218003666</ele>
        <time>2015-05-06T11:10:27Z</time>
      </trkpt>
      <trkpt lat="45.45568" lon="5.82646">
        <ele>1054.218003666</ele>
        <time>2015-05-06T11:10:31Z</time>
      </trkpt>
      <trkpt lat="45.45572" lon="5.82644">
        <ele>1054.218003666</ele>
        <time>2015-05-06T11:10:36Z</time>
      </trkpt>
      <trkpt lat="45.45572" lon="5.82644">
        <ele>1054.218003666</ele>
        <time>2015-05-06T11:10:41Z</time>
      </trkpt>
      <trkpt lat="45.45572" lon="5.82645">
        <ele>1054.218003666</ele>
        <time>2015-05-06T11:10:47Z</time>
      </trkpt>
      <trkpt lat="45.45572" lon="5.82645">
        <ele>1054.218003666</ele>
        <time>2015-05-06T11:10:51Z</time>
      </trkpt>
      <trkpt lat="45.45572" lon="5.82645">
        <ele>1054.218003666</ele>
        <time>2015-05-06T11:10:57Z</time>
      </trkpt>
      <trkpt lat="45.45572" lon="5.82645">
        <ele>1054.218003666</ele>
        <time>2015-05-06T11:11:01Z</time>
      </trkpt>
      <trkpt lat="45.45572" lon="5.82645">
        <ele>1054.218003666</ele>
        <time>2015-05-06T11:11:07Z</time>
      </trkpt>
      <trkpt lat="45.45572" lon="5.82645">
        <ele>1054.218003666</ele>
        <time>2015-05-06T11:11:11Z</time>
      </trkpt>
      <trkpt lat="45.45572" lon="5.82645">
        <ele>1054.218003666</ele>
        <time>2015-05-06T11:11:15Z</time>
      </trkpt>
      <trkpt lat="45.45572" lon="5.82645">
        <ele>1054.218003666</ele>
        <time>2015-05-06T11:11:21Z</time>
      </trkpt>
      <trkpt lat="45.4558" lon="5.82657">
        <ele>1057.399830785</ele>
        <time>2015-05-06T11:11:27Z</time>
      </trkpt>
      <trkpt lat="45.45579" lon="5.82663">
        <ele>1057.399830785</ele>
        <time>2015-05-06T11:11:31Z</time>
      </trkpt>
      <trkpt lat="45.45586" lon="5.82669">
        <ele>1059.976688266</ele>
        <time>2015-05-06T11:11:37Z</time>
      </trkpt>
      <trkpt lat="45.45587" lon="5.82671">
        <ele>1059.976688266</ele>
        <time>2015-05-06T11:11:41Z</time>
      </trkpt>
      <trkpt lat="45.45588" lon="5.82674">
        <ele>1059.976688266</ele>
        <time>2015-05-06T11:11:46Z</time>
      </trkpt>
      <trkpt lat="45.45588" lon="5.82675">
        <ele>1059.976688266</ele>
        <time>2015-05-06T11:11:50Z</time>
      </trkpt>
      <trkpt lat="45.45588" lon="5.82676">
        <ele>1059.976688266</ele>
        <time>2015-05-06T11:11:55Z</time>
      </trkpt>
      <trkpt lat="45.45587" lon="5.82683">
        <ele>1061.561948334</ele>
        <time>2015-05-06T11:12:01Z</time>
      </trkpt>
      <trkpt lat="45.45587" lon="5.82684">
        <ele>1061.561948334</ele>
        <time>2015-05-06T11:12:07Z</time>
      </trkpt>
      <trkpt lat="45.45588" lon="5.82683">
        <ele>1061.561948334</ele>
        <time>2015-05-06T11:12:11Z</time>
      </trkpt>
      <trkpt lat="45.45589" lon="5.82683">
        <ele>1061.561948334</ele>
        <time>2015-05-06T11:12:17Z</time>
      </trkpt>
      <trkpt lat="45.45589" lon="5.82683">
        <ele>1061.561948334</ele>
        <time>2015-05-06T11:12:21Z</time>
      </trkpt>
      <trkpt lat="45.45589" lon="5.82683">
        <ele>1061.561948334</ele>
        <time>2015-05-06T11:12:26Z</time>
      </trkpt>
      <trkpt lat="45.45589" lon="5.82683">
        <ele>1061.561948334</ele>
        <time>2015-05-06T11:12:32Z</time>
      </trkpt>
      <trkpt lat="45.45589" lon="5.82683">
        <ele>1061.561948334</ele>
        <time>2015-05-06T11:12:36Z</time>
      </trkpt>
      <trkpt lat="45.45589" lon="5.82683">
        <ele>1061.561948334</ele>
        <time>2015-05-06T11:12:40Z</time>
      </trkpt>
      <trkpt lat="45.45589" lon="5.82683">
        <ele>1061.561948334</ele>
        <time>2015-05-06T11:12:45Z</time>
      </trkpt>
      <trkpt lat="45.45613" lon="5.82696">
        <ele>1062.808974446</ele>
        <time>2015-05-06T11:12:50Z</time>
      </trkpt>
      <trkpt lat="45.4561" lon="5.82703">
        <ele>1062.808974446</ele>
        <time>2015-05-06T11:12:55Z</time>
      </trkpt>
      <trkpt lat="45.45608" lon="5.82703">
        <ele>1062.808974446</ele>
        <time>2015-05-06T11:13:00Z</time>
      </trkpt>
      <trkpt lat="45.45607" lon="5.82705">
        <ele>1062.808974446</ele>
        <time>2015-05-06T11:13:05Z</time>
      </trkpt>
      <trkpt lat="45.45608" lon="5.82705">
        <ele>1062.808974446</ele>
        <time>2015-05-06T11:13:11Z</time>
      </trkpt>
      <trkpt lat="45.45608" lon="5.82704">
        <ele>1063.603544972</ele>
        <time>2015-05-06T11:13:17Z</time>
      </trkpt>
      <trkpt lat="45.45608" lon="5.82704">
        <ele>1063.603544972</ele>
        <time>2015-05-06T11:13:21Z</time>
      </trkpt>
      <trkpt lat="45.45608" lon="5.82704">
        <ele>1063.603544972</ele>
        <time>2015-05-06T11:13:27Z</time>
      </trkpt>
      <trkpt lat="45.45607" lon="5.82702">
        <ele>1063.603544972</ele>
        <time>2015-05-06T11:13:31Z</time>
      </trkpt>
      <trkpt lat="45.4561" lon="5.82708">
        <ele>1063.603544972</ele>
        <time>2015-05-06T11:13:36Z</time>
      </trkpt>
      <trkpt lat="45.45611" lon="5.82707">
        <ele>1063.603544972</ele>
        <time>2015-05-06T11:13:40Z</time>
      </trkpt>
      <trkpt lat="45.45611" lon="5.82707">
        <ele>1063.603544972</ele>
        <time>2015-05-06T11:13:45Z</time>
      </trkpt>
      <trkpt lat="45.45611" lon="5.82707">
        <ele>1063.603544972</ele>
        <time>2015-05-06T11:13:52Z</time>
      </trkpt>
      <trkpt lat="45.45611" lon="5.82707">
        <ele>1063.603544972</ele>
        <time>2015-05-06T11:13:56Z</time>
      </trkpt>
      <trkpt lat="45.45624" lon="5.82724">
        <ele>1063.696987896</ele>
        <time>2015-05-06T11:14:02Z</time>
      </trkpt>
      <trkpt lat="45.45628" lon="5.82734">
        <ele>1063.696987896</ele>
        <time>2015-05-06T11:14:06Z</time>
      </trkpt>
      <trkpt lat="45.45632" lon="5.82738">
        <ele>1063.293179517</ele>
        <time>2015-05-06T11:14:12Z</time>
      </trkpt>
      <trkpt lat="45.45638" lon="5.82742">
        <ele>1063.293179517</ele>
        <time>2015-05-06T11:14:16Z</time>
      </trkpt>
      <trkpt lat="45.45635" lon="5.82748">
        <ele>1063.158818118</ele>
        <time>2015-05-06T11:14:22Z</time>
      </trkpt>
      <trkpt lat="45.45636" lon="5.82745">
        <ele>1063.158818118</ele>
        <time>2015-05-06T11:14:26Z</time>
      </trkpt>
      <trkpt lat="45.45638" lon="5.82749">
        <ele>1063.158818118</ele>
        <time>2015-05-06T11:14:32Z</time>
      </trkpt>
      <trkpt lat="45.45644" lon="5.82757">
        <ele>1063.282906017</ele>
        <time>2015-05-06T11:14:36Z</time>
      </trkpt>
      <trkpt lat="45.45652" lon="5.82765">
        <ele>1063.510333105</ele>
        <time>2015-05-06T11:14:42Z</time>
      </trkpt>
      <trkpt lat="45.45658" lon="5.82774">
        <ele>1063.510333105</ele>
        <time>2015-05-06T11:14:46Z</time>
      </trkpt>
      <trkpt lat="45.45666" lon="5.82788">
        <ele>1063.408767988</ele>
        <time>2015-05-06T11:14:52Z</time>
      </trkpt>
      <trkpt lat="45.4567" lon="5.82793">
        <ele>1063.408767988</ele>
        <time>2015-05-06T11:14:56Z</time>
      </trkpt>
      <trkpt lat="45.45672" lon="5.82789">
        <ele>1063.408767988</ele>
        <time>2015-05-06T11:15:02Z</time>
      </trkpt>
      <trkpt lat="45.45676" lon="5.82784">
        <ele>1064.451887992</ele>
        <time>2015-05-06T11:15:06Z</time>
      </trkpt>
      <trkpt lat="45.45681" lon="5.82792">
        <ele>1064.451887992</ele>
        <time>2015-05-06T11:15:12Z</time>
      </trkpt>
      <trkpt lat="45.45687" lon="5.82799">
        <ele>1065.119549722</ele>
        <time>2015-05-06T11:15:16Z</time>
      </trkpt>
      <trkpt lat="45.4569" lon="5.82814">
        <ele>1065.301190932</ele>
        <time>2015-05-06T11:15:22Z</time>
      </trkpt>
      <trkpt lat="45.45698" lon="5.82819">
        <ele>1065.301190932</ele>
        <time>2015-05-06T11:15:26Z</time>
      </trkpt>
      <trkpt lat="45.45698" lon="5.82822">
        <ele>1065.616140174</ele>
        <time>2015-05-06T11:15:32Z</time>
      </trkpt>
      <trkpt lat="45.457" lon="5.82824">
        <ele>1065.616140174</ele>
        <time>2015-05-06T11:15:36Z</time>
      </trkpt>
      <trkpt lat="45.457" lon="5.82823">
        <ele>1065.616140174</ele>
        <time>2015-05-06T11:15:42Z</time>
      </trkpt>
      <trkpt lat="45.457" lon="5.82823">
        <ele>1065.616140174</ele>
        <time>2015-05-06T11:15:46Z</time>
      </trkpt>
      <trkpt lat="45.457" lon="5.82823">
        <ele>1065.616140174</ele>
        <time>2015-05-06T11:15:52Z</time>
      </trkpt>
      <trkpt lat="45.457" lon="5.82823">
        <ele>1065.616140174</ele>
        <time>2015-05-06T11:15:56Z</time>
      </trkpt>
      <trkpt lat="45.45696" lon="5.82825">
        <ele>1065.616140174</ele>
        <time>2015-05-06T11:16:02Z</time>
      </trkpt>
      <trkpt lat="45.45697" lon="5.82824">
        <ele>1066.349476901</ele>
        <time>2015-05-06T11:16:06Z</time>
      </trkpt>
      <trkpt lat="45.45698" lon="5.82826">
        <ele>1066.349476901</ele>
        <time>2015-05-06T11:16:11Z</time>
      </trkpt>
      <trkpt lat="45.45698" lon="5.82826">
        <ele>1066.349476901</ele>
        <time>2015-05-06T11:16:15Z</time>
      </trkpt>
      <trkpt lat="45.45698" lon="5.82826">
        <ele>1066.349476901</ele>
        <time>2015-05-06T11:16:20Z</time>
      </trkpt>
      <trkpt lat="45.45698" lon="5.82826">
        <ele>1066.349476901</ele>
        <time>2015-05-06T11:16:26Z</time>
      </trkpt>
      <trkpt lat="45.45698" lon="5.82826">
        <ele>1066.349476901</ele>
        <time>2015-05-06T11:16:32Z</time>
      </trkpt>
      <trkpt lat="45.45698" lon="5.82826">
        <ele>1066.349476901</ele>
        <time>2015-05-06T11:16:36Z</time>
      </trkpt>
      <trkpt lat="45.45696" lon="5.82826">
        <ele>1066.349476901</ele>
        <time>2015-05-06T11:16:42Z</time>
      </trkpt>
      <trkpt lat="45.45687" lon="5.82824">
        <ele>1066.899333853</ele>
        <time>2015-05-06T11:16:46Z</time>
      </trkpt>
      <trkpt lat="45.45677" lon="5.82826">
        <ele>1066.996622914</ele>
        <time>2015-05-06T11:16:51Z</time>
      </trkpt>
      <trkpt lat="45.45671" lon="5.82824">
        <ele>1066.996622914</ele>
        <time>2015-05-06T11:16:55Z</time>
      </trkpt>
      <trkpt lat="45.45666" lon="5.82821">
        <ele>1067.113672303</ele>
        <time>2015-05-06T11:17:01Z</time>
      </trkpt>
      <trkpt lat="45.45665" lon="5.82822">
        <ele>1067.113672303</ele>
        <time>2015-05-06T11:17:05Z</time>
      </trkpt>
      <trkpt lat="45.45664" lon="5.82822">
        <ele>1067.113672303</ele>
        <time>2015-05-06T11:17:11Z</time>
      </trkpt>
      <trkpt lat="45.45652" lon="5.82817">
        <ele>1068.120211596</ele>
        <time>2015-05-06T11:17:17Z</time>
      </trkpt>
      <trkpt lat="45.45642" lon="5.8281">
        <ele>1069.6665144</ele>
        <time>2015-05-06T11:17:21Z</time>
      </trkpt>
      <trkpt lat="45.45633" lon="5.82804">
        <ele>1071.42685054</ele>
        <time>2015-05-06T11:17:27Z</time>
      </trkpt>
      <trkpt lat="45.45625" lon="5.82796">
        <ele>1072.954530419</ele>
        <time>2015-05-06T11:17:31Z</time>
      </trkpt>
      <trkpt lat="45.45618" lon="5.82791">
        <ele>1072.954530419</ele>
        <time>2015-05-06T11:17:37Z</time>
      </trkpt>
      <trkpt lat="45.45611" lon="5.82784">
        <ele>1074.412606531</ele>
        <time>2015-05-06T11:17:41Z</time>
      </trkpt>
      <trkpt lat="45.45602" lon="5.82782">
        <ele>1075.519853526</ele>
        <time>2015-05-06T11:17:46Z</time>
      </trkpt>
      <trkpt lat="45.45593" lon="5.8278">
        <ele>1076.881200573</ele>
        <time>2015-05-06T11:17:52Z</time>
      </trkpt>
      <trkpt lat="45.45586" lon="5.82773">
        <ele>1076.881200573</ele>
        <time>2015-05-06T11:17:56Z</time>
      </trkpt>
      <trkpt lat="45.45577" lon="5.82768">
        <ele>1077.903386725</ele>
        <time>2015-05-06T11:18:02Z</time>
      </trkpt>
      <trkpt lat="45.45567" lon="5.8276">
        <ele>1078.18164718</ele>
        <time>2015-05-06T11:18:06Z</time>
      </trkpt>
      <trkpt lat="45.45559" lon="5.82752">
        <ele>1078.495781858</ele>
        <time>2015-05-06T11:18:12Z</time>
      </trkpt>
      <trkpt lat="45.45554" lon="5.82744">
        <ele>1078.495781858</ele>
        <time>2015-05-06T11:18:16Z</time>
      </trkpt>
      <trkpt lat="45.45546" lon="5.82739">
        <ele>1078.991616962</ele>
        <time>2015-05-06T11:18:22Z</time>
      </trkpt>
      <trkpt lat="45.45536" lon="5.82734">
        <ele>1079.227166099</ele>
        <time>2015-05-06T11:18:26Z</time>
      </trkpt>
      <trkpt lat="45.45529" lon="5.82727">
        <ele>1079.369938205</ele>
        <time>2015-05-06T11:18:32Z</time>
      </trkpt>
      <trkpt lat="45.45519" lon="5.82718">
        <ele>1079.431137144</ele>
        <time>2015-05-06T11:18:36Z</time>
      </trkpt>
      <trkpt lat="45.45513" lon="5.82716">
        <ele>1079.431137144</ele>
        <time>2015-05-06T11:18:42Z</time>
      </trkpt>
      <trkpt lat="45.45505" lon="5.82705">
        <ele>1080.57411323</ele>
        <time>2015-05-06T11:18:46Z</time>
      </trkpt>
      <trkpt lat="45.45497" lon="5.82698">
        <ele>1081.856019812</ele>
        <time>2015-05-06T11:18:52Z</time>
      </trkpt>
      <trkpt lat="45.4549" lon="5.8269">
        <ele>1083.123294589</ele>
        <time>2015-05-06T11:18:56Z</time>
      </trkpt>
      <trkpt lat="45.45485" lon="5.82683">
        <ele>1083.123294589</ele>
        <time>2015-05-06T11:19:01Z</time>
      </trkpt>
      <trkpt lat="45.45484" lon="5.82686">
        <ele>1084.233560541</ele>
        <time>2015-05-06T11:19:05Z</time>
      </trkpt>
      <trkpt lat="45.45484" lon="5.82686">
        <ele>1084.233560541</ele>
        <time>2015-05-06T11:19:10Z</time>
      </trkpt>
      <trkpt lat="45.45486" lon="5.82688">
        <ele>1084.233560541</ele>
        <time>2015-05-06T11:19:15Z</time>
      </trkpt>
      <trkpt lat="45.45492" lon="5.82692">
        <ele>1085.343433788</ele>
        <time>2015-05-06T11:19:21Z</time>
      </trkpt>
      <trkpt lat="45.45501" lon="5.82699">
        <ele>1085.733237203</ele>
        <time>2015-05-06T11:19:27Z</time>
      </trkpt>
      <trkpt lat="45.45508" lon="5.82705">
        <ele>1085.733237203</ele>
        <time>2015-05-06T11:19:31Z</time>
      </trkpt>
      <trkpt lat="45.45521" lon="5.82706">
        <ele>1086.035063408</ele>
        <time>2015-05-06T11:19:37Z</time>
      </trkpt>
      <trkpt lat="45.45527" lon="5.82712">
        <ele>1086.035063408</ele>
        <time>2015-05-06T11:19:41Z</time>
      </trkpt>
      <trkpt lat="45.45543" lon="5.82725">
        <ele>1086.402370273</ele>
        <time>2015-05-06T11:19:46Z</time>
      </trkpt>
      <trkpt lat="45.45549" lon="5.82736">
        <ele>1086.256488933</ele>
        <time>2015-05-06T11:19:52Z</time>
      </trkpt>
      <trkpt lat="45.45554" lon="5.82743">
        <ele>1086.256488933</ele>
        <time>2015-05-06T11:19:56Z</time>
      </trkpt>
      <trkpt lat="45.45554" lon="5.82746">
        <ele>1085.639027607</ele>
        <time>2015-05-06T11:20:00Z</time>
      </trkpt>
      <trkpt lat="45.45553" lon="5.82747">
        <ele>1085.639027607</ele>
        <time>2015-05-06T11:20:05Z</time>
      </trkpt>
      <trkpt lat="45.45551" lon="5.82751">
        <ele>1085.639027607</ele>
        <time>2015-05-06T11:20:11Z</time>
      </trkpt>
      <trkpt lat="45.45553" lon="5.8275">
        <ele>1085.639027607</ele>
        <time>2015-05-06T11:20:15Z</time>
      </trkpt>
      <trkpt lat="45.45553" lon="5.82749">
        <ele>1085.639027607</ele>
        <time>2015-05-06T11:20:20Z</time>
      </trkpt>
      <trkpt lat="45.45553" lon="5.8275">
        <ele>1085.639027607</ele>
        <time>2015-05-06T11:20:26Z</time>
      </trkpt>
      <trkpt lat="45.45566" lon="5.82751">
        <ele>1084.877964294</ele>
        <time>2015-05-06T11:20:32Z</time>
      </trkpt>
      <trkpt lat="45.45571" lon="5.82752">
        <ele>1084.877964294</ele>
        <time>2015-05-06T11:20:36Z</time>
      </trkpt>
      <trkpt lat="45.45575" lon="5.82764">
        <ele>1083.845129261</ele>
        <time>2015-05-06T11:20:40Z</time>
      </trkpt>
      <trkpt lat="45.45584" lon="5.82755">
        <ele>1082.422399192</ele>
        <time>2015-05-06T11:20:47Z</time>
      </trkpt>
      <trkpt lat="45.4559" lon="5.82771">
        <ele>1080.645392786</ele>
        <time>2015-05-06T11:20:51Z</time>
      </trkpt>
      <trkpt lat="45.45597" lon="5.82773">
        <ele>1080.645392786</ele>
        <time>2015-05-06T11:20:57Z</time>
      </trkpt>
      <trkpt lat="45.45601" lon="5.82783">
        <ele>1078.692066892</ele>
        <time>2015-05-06T11:21:01Z</time>
      </trkpt>
      <trkpt lat="45.45606" lon="5.82788">
        <ele>1078.692066892</ele>
        <time>2015-05-06T11:21:07Z</time>
      </trkpt>
      <trkpt lat="45.45612" lon="5.82794">
        <ele>1076.871750415</ele>
        <time>2015-05-06T11:21:11Z</time>
      </trkpt>
      <trkpt lat="45.45617" lon="5.82794">
        <ele>1076.871750415</ele>
        <time>2015-05-06T11:21:17Z</time>
      </trkpt>
      <trkpt lat="45.45624" lon="5.82799">
        <ele>1074.74994761</ele>
        <time>2015-05-06T11:21:21Z</time>
      </trkpt>
      <trkpt lat="45.45628" lon="5.82799">
        <ele>1074.74994761</ele>
        <time>2015-05-06T11:21:27Z</time>
      </trkpt>
      <trkpt lat="45.45635" lon="5.82808">
        <ele>1073.798189926</ele>
        <time>2015-05-06T11:21:31Z</time>
      </trkpt>
      <trkpt lat="45.45642" lon="5.82808">
        <ele>1073.798189926</ele>
        <time>2015-05-06T11:21:36Z</time>
      </trkpt>
      <trkpt lat="45.45638" lon="5.82812">
        <ele>1073.070662087</ele>
        <time>2015-05-06T11:21:40Z</time>
      </trkpt>
      <trkpt lat="45.45638" lon="5.82813">
        <ele>1073.070662087</ele>
        <time>2015-05-06T11:21:45Z</time>
      </trkpt>
      <trkpt lat="45.45639" lon="5.82813">
        <ele>1073.070662087</ele>
        <time>2015-05-06T11:21:50Z</time>
      </trkpt>
      <trkpt lat="45.45646" lon="5.82816">
        <ele>1073.070662087</ele>
        <time>2015-05-06T11:21:55Z</time>
      </trkpt>
      <trkpt lat="45.45652" lon="5.82821">
        <ele>1072.843098097</ele>
        <time>2015-05-06T11:22:01Z</time>
      </trkpt>
      <trkpt lat="45.45658" lon="5.8282">
        <ele>1072.843098097</ele>
        <time>2015-05-06T11:22:07Z</time>
      </trkpt>
      <trkpt lat="45.45661" lon="5.8281">
        <ele>1072.504718539</ele>
        <time>2015-05-06T11:22:11Z</time>
      </trkpt>
      <trkpt lat="45.45661" lon="5.8281">
        <ele>1072.504718539</ele>
        <time>2015-05-06T11:22:17Z</time>
      </trkpt>
      <trkpt lat="45.45662" lon="5.82809">
        <ele>1072.504718539</ele>
        <time>2015-05-06T11:22:21Z</time>
      </trkpt>
      <trkpt lat="45.45663" lon="5.8281">
        <ele>1072.504718539</ele>
        <time>2015-05-06T11:22:27Z</time>
      </trkpt>
      <trkpt lat="45.45663" lon="5.8281">
        <ele>1072.504718539</ele>
        <time>2015-05-06T11:22:31Z</time>
      </trkpt>
      <trkpt lat="45.45669" lon="5.82813">
        <ele>1072.504718539</ele>
        <time>2015-05-06T11:22:37Z</time>
      </trkpt>
      <trkpt lat="45.45674" lon="5.82823">
        <ele>1073.219074402</ele>
        <time>2015-05-06T11:22:41Z</time>
      </trkpt>
      <trkpt lat="45.45676" lon="5.82824">
        <ele>1073.219074402</ele>
        <time>2015-05-06T11:22:45Z</time>
      </trkpt>
      <trkpt lat="45.45677" lon="5.82825">
        <ele>1073.219074402</ele>
        <time>2015-05-06T11:22:51Z</time>
      </trkpt>
      <trkpt lat="45.45688" lon="5.82829">
        <ele>1072.458335159</ele>
        <time>2015-05-06T11:22:56Z</time>
      </trkpt>
      <trkpt lat="45.45693" lon="5.82828">
        <ele>1072.458335159</ele>
        <time>2015-05-06T11:23:02Z</time>
      </trkpt>
      <trkpt lat="45.45695" lon="5.82823">
        <ele>1072.207669126</ele>
        <time>2015-05-06T11:23:06Z</time>
      </trkpt>
      <trkpt lat="45.45701" lon="5.82826">
        <ele>1072.207669126</ele>
        <time>2015-05-06T11:23:12Z</time>
      </trkpt>
      <trkpt lat="45.45701" lon="5.82825">
        <ele>1072.207669126</ele>
        <time>2015-05-06T11:23:16Z</time>
      </trkpt>
      <trkpt lat="45.45701" lon="5.82826">
        <ele>1072.207669126</ele>
        <time>2015-05-06T11:23:21Z</time>
      </trkpt>
      <trkpt lat="45.45701" lon="5.82825">
        <ele>1072.207669126</ele>
        <time>2015-05-06T11:23:27Z</time>
      </trkpt>
      <trkpt lat="45.45701" lon="5.82825">
        <ele>1072.207669126</ele>
        <time>2015-05-06T11:23:31Z</time>
      </trkpt>
      <trkpt lat="45.45707" lon="5.8283">
        <ele>1071.278489223</ele>
        <time>2015-05-06T11:23:37Z</time>
      </trkpt>
      <trkpt lat="45.45711" lon="5.82837">
        <ele>1071.278489223</ele>
        <time>2015-05-06T11:23:41Z</time>
      </trkpt>
      <trkpt lat="45.45711" lon="5.82838">
        <ele>1071.278489223</ele>
        <time>2015-05-06T11:23:45Z</time>
      </trkpt>
      <trkpt lat="45.45715" lon="5.82843">
        <ele>1070.732937269</ele>
        <time>2015-05-06T11:23:51Z</time>
      </trkpt>
      <trkpt lat="45.45715" lon="5.82846">
        <ele>1070.732937269</ele>
        <time>2015-05-06T11:23:56Z</time>
      </trkpt>
      <trkpt lat="45.45714" lon="5.82845">
        <ele>1070.732937269</ele>
        <time>2015-05-06T11:24:00Z</time>
      </trkpt>
      <trkpt lat="45.45714" lon="5.82845">
        <ele>1070.732937269</ele>
        <time>2015-05-06T11:24:06Z</time>
      </trkpt>
      <trkpt lat="45.45714" lon="5.82845">
        <ele>1070.732937269</ele>
        <time>2015-05-06T11:24:11Z</time>
      </trkpt>
      <trkpt lat="45.45713" lon="5.82846">
        <ele>1070.732937269</ele>
        <time>2015-05-06T11:24:17Z</time>
      </trkpt>
      <trkpt lat="45.45712" lon="5.82845">
        <ele>1070.732937269</ele>
        <time>2015-05-06T11:24:21Z</time>
      </trkpt>
      <trkpt lat="45.4571" lon="5.82846">
        <ele>1070.732937269</ele>
        <time>2015-05-06T11:24:27Z</time>
      </trkpt>
      <trkpt lat="45.45704" lon="5.82848">
        <ele>1070.401014611</ele>
        <time>2015-05-06T11:24:31Z</time>
      </trkpt>
      <trkpt lat="45.45696" lon="5.82851">
        <ele>1070.401014611</ele>
        <time>2015-05-06T11:24:37Z</time>
      </trkpt>
      <trkpt lat="45.45693" lon="5.82849">
        <ele>1070.412688432</ele>
        <time>2015-05-06T11:24:41Z</time>
      </trkpt>
      <trkpt lat="45.45687" lon="5.8285">
        <ele>1070.412688432</ele>
        <time>2015-05-06T11:24:47Z</time>
      </trkpt>
      <trkpt lat="45.45679" lon="5.82848">
        <ele>1070.310830852</ele>
        <time>2015-05-06T11:24:51Z</time>
      </trkpt>
      <trkpt lat="45.45674" lon="5.82848">
        <ele>1070.310830852</ele>
        <time>2015-05-06T11:24:57Z</time>
      </trkpt>
      <trkpt lat="45.45668" lon="5.82855">
        <ele>1070.392637257</ele>
        <time>2015-05-06T11:25:01Z</time>
      </trkpt>
      <trkpt lat="45.45663" lon="5.82854">
        <ele>1070.392637257</ele>
        <time>2015-05-06T11:25:07Z</time>
      </trkpt>
      <trkpt lat="45.45656" lon="5.82849">
        <ele>1070.932833979</ele>
        <time>2015-05-06T11:25:11Z</time>
      </trkpt>
      <trkpt lat="45.45649" lon="5.82849">
        <ele>1070.932833979</ele>
        <time>2015-05-06T11:25:17Z</time>
      </trkpt>
      <trkpt lat="45.45643" lon="5.82844">
        <ele>1071.319901178</ele>
        <time>2015-05-06T11:25:21Z</time>
      </trkpt>
      <trkpt lat="45.45641" lon="5.82847">
        <ele>1071.319901178</ele>
        <time>2015-05-06T11:25:27Z</time>
      </trkpt>
      <trkpt lat="45.45632" lon="5.82843">
        <ele>1072.284570484</ele>
        <time>2015-05-06T11:25:31Z</time>
      </trkpt>
      <trkpt lat="45.45622" lon="5.8284">
        <ele>1073.637519833</ele>
        <time>2015-05-06T11:25:37Z</time>
      </trkpt>
      <trkpt lat="45.45618" lon="5.82836">
        <ele>1073.637519833</ele>
        <time>2015-05-06T11:25:41Z</time>
      </trkpt>
      <trkpt lat="45.45614" lon="5.82836">
        <ele>1075.20217308</ele>
        <time>2015-05-06T11:25:46Z</time>
      </trkpt>
      <trkpt lat="45.4561" lon="5.82836">
        <ele>1075.20217308</ele>
        <time>2015-05-06T11:25:52Z</time>
      </trkpt>
      <trkpt lat="45.45605" lon="5.82832">
        <ele>1077.10249796</ele>
        <time>2015-05-06T11:25:56Z</time>
      </trkpt>
      <trkpt lat="45.45602" lon="5.82824">
        <ele>1077.10249796</ele>
        <time>2015-05-06T11:26:02Z</time>
      </trkpt>
      <trkpt lat="45.45602" lon="5.82824">
        <ele>1077.10249796</ele>
        <time>2015-05-06T11:26:06Z</time>
      </trkpt>
      <trkpt lat="45.45602" lon="5.82824">
        <ele>1077.10249796</ele>
        <time>2015-05-06T11:26:12Z</time>
      </trkpt>
      <trkpt lat="45.45602" lon="5.82823">
        <ele>1077.10249796</ele>
        <time>2015-05-06T11:26:16Z</time>
      </trkpt>
      <trkpt lat="45.456" lon="5.82821">
        <ele>1080.028822614</ele>
        <time>2015-05-06T11:26:22Z</time>
      </trkpt>
      <trkpt lat="45.45588" lon="5.8282">
        <ele>1082.312091402</ele>
        <time>2015-05-06T11:26:26Z</time>
      </trkpt>
      <trkpt lat="45.45576" lon="5.82815">
        <ele>1084.425221691</ele>
        <time>2015-05-06T11:26:32Z</time>
      </trkpt>
      <trkpt lat="45.45568" lon="5.82811">
        <ele>1084.425221691</ele>
        <time>2015-05-06T11:26:36Z</time>
      </trkpt>
      <trkpt lat="45.45563" lon="5.82807">
        <ele>1086.951004654</ele>
        <time>2015-05-06T11:26:42Z</time>
      </trkpt>
      <trkpt lat="45.45558" lon="5.82804">
        <ele>1086.951004654</ele>
        <time>2015-05-06T11:26:46Z</time>
      </trkpt>
      <trkpt lat="45.45553" lon="5.82797">
        <ele>1089.419529057</ele>
        <time>2015-05-06T11:26:52Z</time>
      </trkpt>
      <trkpt lat="45.4555" lon="5.82796">
        <ele>1089.419529057</ele>
        <time>2015-05-06T11:26:56Z</time>
      </trkpt>
      <trkpt lat="45.45545" lon="5.82796">
        <ele>1089.419529057</ele>
        <time>2015-05-06T11:27:01Z</time>
      </trkpt>
      <trkpt lat="45.4554" lon="5.82796">
        <ele>1091.683847775</ele>
        <time>2015-05-06T11:27:07Z</time>
      </trkpt>
      <trkpt lat="45.45536" lon="5.82794">
        <ele>1091.683847775</ele>
        <time>2015-05-06T11:27:10Z</time>
      </trkpt>
      <trkpt lat="45.45535" lon="5.82797">
        <ele>1091.683847775</ele>
        <time>2015-05-06T11:27:15Z</time>
      </trkpt>
      <trkpt lat="45.45526" lon="5.82791">
        <ele>1094.329015035</ele>
        <time>2015-05-06T11:27:22Z</time>
      </trkpt>
      <trkpt lat="45.45533" lon="5.82795">
        <ele>1094.329015035</ele>
        <time>2015-05-06T11:27:26Z</time>
      </trkpt>
      <trkpt lat="45.45535" lon="5.82802">
        <ele>1097.319688205</ele>
        <time>2015-05-06T11:27:32Z</time>
      </trkpt>
      <trkpt lat="45.45537" lon="5.82801">
        <ele>1097.319688205</ele>
        <time>2015-05-06T11:27:36Z</time>
      </trkpt>
      <trkpt lat="45.4553" lon="5.82799">
        <ele>1099.90170425</ele>
        <time>2015-05-06T11:27:42Z</time>
      </trkpt>
      <trkpt lat="45.45524" lon="5.82802">
        <ele>1099.90170425</ele>
        <time>2015-05-06T11:27:46Z</time>
      </trkpt>
      <trkpt lat="45.45518" lon="5.82798">
        <ele>1102.242235602</ele>
        <time>2015-05-06T11:27:52Z</time>
      </trkpt>
      <trkpt lat="45.45517" lon="5.82805">
        <ele>1102.242235602</ele>
        <time>2015-05-06T11:27:56Z</time>
      </trkpt>
      <trkpt lat="45.45511" lon="5.82804">
        <ele>1103.920539556</ele>
        <time>2015-05-06T11:28:02Z</time>
      </trkpt>
      <trkpt lat="45.45511" lon="5.82805">
        <ele>1103.920539556</ele>
        <time>2015-05-06T11:28:06Z</time>
      </trkpt>
      <trkpt lat="45.45509" lon="5.82809">
        <ele>1103.920539556</ele>
        <time>2015-05-06T11:28:12Z</time>
      </trkpt>
      <trkpt lat="45.45507" lon="5.82821">
        <ele>1105.989891315</ele>
        <time>2015-05-06T11:28:16Z</time>
      </trkpt>
      <trkpt lat="45.45496" lon="5.82801">
        <ele>1108.416465103</ele>
        <time>2015-05-06T11:28:22Z</time>
      </trkpt>
      <trkpt lat="45.45493" lon="5.828">
        <ele>1108.416465103</ele>
        <time>2015-05-06T11:28:26Z</time>
      </trkpt>
      <trkpt lat="45.45488" lon="5.82797">
        <ele>1110.447513398</ele>
        <time>2015-05-06T11:28:32Z</time>
      </trkpt>
      <trkpt lat="45.45485" lon="5.82799">
        <ele>1110.447513398</ele>
        <time>2015-05-06T11:28:36Z</time>
      </trkpt>
      <trkpt lat="45.45479" lon="5.82796">
        <ele>1111.67507047</ele>
        <time>2015-05-06T11:28:42Z</time>
      </trkpt>
      <trkpt lat="45.45477" lon="5.82797">
        <ele>1111.67507047</ele>
        <time>2015-05-06T11:28:46Z</time>
      </trkpt>
      <trkpt lat="45.45474" lon="5.82794">
        <ele>1111.67507047</ele>
        <time>2015-05-06T11:28:52Z</time>
      </trkpt>
      <trkpt lat="45.45472" lon="5.82794">
        <ele>1111.67507047</ele>
        <time>2015-05-06T11:28:56Z</time>
      </trkpt>
      <trkpt lat="45.45463" lon="5.82797">
        <ele>1114.173439926</ele>
        <time>2015-05-06T11:29:02Z</time>
      </trkpt>
      <trkpt lat="45.4546" lon="5.82786">
        <ele>1114.173439926</ele>
        <time>2015-05-06T11:29:06Z</time>
      </trkpt>
      <trkpt lat="45.45457" lon="5.82783">
        <ele>1117.267141934</ele>
        <time>2015-05-06T11:29:12Z</time>
      </trkpt>
      <trkpt lat="45.45459" lon="5.82783">
        <ele>1117.267141934</ele>
        <time>2015-05-06T11:29:16Z</time>
      </trkpt>
      <trkpt lat="45.45456" lon="5.8278">
        <ele>1117.267141934</ele>
        <time>2015-05-06T11:29:22Z</time>
      </trkpt>
      <trkpt lat="45.45456" lon="5.82778">
        <ele>1117.267141934</ele>
        <time>2015-05-06T11:29:26Z</time>
      </trkpt>
      <trkpt lat="45.45456" lon="5.82777">
        <ele>1117.267141934</ele>
        <time>2015-05-06T11:29:32Z</time>
      </trkpt>
      <trkpt lat="45.45456" lon="5.82776">
        <ele>1117.267141934</ele>
        <time>2015-05-06T11:29:36Z</time>
      </trkpt>
      <trkpt lat="45.45455" lon="5.82773">
        <ele>1120.617033081</ele>
        <time>2015-05-06T11:29:42Z</time>
      </trkpt>
      <trkpt lat="45.45455" lon="5.82772">
        <ele>1120.617033081</ele>
        <time>2015-05-06T11:29:46Z</time>
      </trkpt>
      <trkpt lat="45.45455" lon="5.82772">
        <ele>1120.617033081</ele>
        <time>2015-05-06T11:29:51Z</time>
      </trkpt>
      <trkpt lat="45.45455" lon="5.82772">
        <ele>1120.617033081</ele>
        <time>2015-05-06T11:29:55Z</time>
      </trkpt>
      <trkpt lat="45.45455" lon="5.82772">
        <ele>1120.617033081</ele>
        <time>2015-05-06T11:30:00Z</time>
      </trkpt>
      <trkpt lat="45.45448" lon="5.82772">
        <ele>1120.617033081</ele>
        <time>2015-05-06T11:30:06Z</time>
      </trkpt>
      <trkpt lat="45.4545" lon="5.82768">
        <ele>1124.052446003</ele>
        <time>2015-05-06T11:30:11Z</time>
      </trkpt>
      <trkpt lat="45.45448" lon="5.82768">
        <ele>1124.052446003</ele>
        <time>2015-05-06T11:30:15Z</time>
      </trkpt>
      <trkpt lat="45.45448" lon="5.82767">
        <ele>1124.052446003</ele>
        <time>2015-05-06T11:30:20Z</time>
      </trkpt>
      <trkpt lat="45.45449" lon="5.82768">
        <ele>1124.052446003</ele>
        <time>2015-05-06T11:30:25Z</time>
      </trkpt>
      <trkpt lat="45.45449" lon="5.82766">
        <ele>1124.052446003</ele>
        <time>2015-05-06T11:30:31Z</time>
      </trkpt>
      <trkpt lat="45.45449" lon="5.82766">
        <ele>1124.052446003</ele>
        <time>2015-05-06T11:30:36Z</time>
      </trkpt>
      <trkpt lat="45.45449" lon="5.82766">
        <ele>1124.052446003</ele>
        <time>2015-05-06T11:30:40Z</time>
      </trkpt>
      <trkpt lat="45.45449" lon="5.82766">
        <ele>1124.052446003</ele>
        <time>2015-05-06T11:30:46Z</time>
      </trkpt>
      <trkpt lat="45.45449" lon="5.82766">
        <ele>1124.052446003</ele>
        <time>2015-05-06T11:30:51Z</time>
      </trkpt>
      <trkpt lat="45.45449" lon="5.82766">
        <ele>1124.052446003</ele>
        <time>2015-05-06T11:30:57Z</time>
      </trkpt>
      <trkpt lat="45.45449" lon="5.82766">
        <ele>1124.052446003</ele>
        <time>2015-05-06T11:31:01Z</time>
      </trkpt>
      <trkpt lat="45.45449" lon="5.82765">
        <ele>1124.052446003</ele>
        <time>2015-05-06T11:31:07Z</time>
      </trkpt>
      <trkpt lat="45.45449" lon="5.82765">
        <ele>1124.052446003</ele>
        <time>2015-05-06T11:31:11Z</time>
      </trkpt>
      <trkpt lat="45.45449" lon="5.82765">
        <ele>1124.052446003</ele>
        <time>2015-05-06T11:31:17Z</time>
      </trkpt>
      <trkpt lat="45.45449" lon="5.82765">
        <ele>1124.052446003</ele>
        <time>2015-05-06T11:31:21Z</time>
      </trkpt>
      <trkpt lat="45.45449" lon="5.82765">
        <ele>1124.052446003</ele>
        <time>2015-05-06T11:31:27Z</time>
      </trkpt>
      <trkpt lat="45.45449" lon="5.82765">
        <ele>1124.052446003</ele>
        <time>2015-05-06T11:31:31Z</time>
      </trkpt>
      <trkpt lat="45.45449" lon="5.82765">
        <ele>1124.052446003</ele>
        <time>2015-05-06T11:31:37Z</time>
      </trkpt>
      <trkpt lat="45.45449" lon="5.82765">
        <ele>1124.052446003</ele>
        <time>2015-05-06T11:31:41Z</time>
      </trkpt>
      <trkpt lat="45.45449" lon="5.82765">
        <ele>1124.052446003</ele>
        <time>2015-05-06T11:31:47Z</time>
      </trkpt>
      <trkpt lat="45.45449" lon="5.82765">
        <ele>1124.052446003</ele>
        <time>2015-05-06T11:31:51Z</time>
      </trkpt>
      <trkpt lat="45.45454" lon="5.82774">
        <ele>1127.126966902</ele>
        <time>2015-05-06T11:31:57Z</time>
      </trkpt>
      <trkpt lat="45.4546" lon="5.82783">
        <ele>1127.126966902</ele>
        <time>2015-05-06T11:32:01Z</time>
      </trkpt>
      <trkpt lat="45.45466" lon="5.82795">
        <ele>1131.589844512</ele>
        <time>2015-05-06T11:32:07Z</time>
      </trkpt>
      <trkpt lat="45.45475" lon="5.8281">
        <ele>1136.031799722</ele>
        <time>2015-05-06T11:32:11Z</time>
      </trkpt>
      <trkpt lat="45.45483" lon="5.82818">
        <ele>1139.579680713</ele>
        <time>2015-05-06T11:32:17Z</time>
      </trkpt>
      <trkpt lat="45.45482" lon="5.8282">
        <ele>1139.579680713</ele>
        <time>2015-05-06T11:32:21Z</time>
      </trkpt>
      <trkpt lat="45.45486" lon="5.82824">
        <ele>1139.579680713</ele>
        <time>2015-05-06T11:32:27Z</time>
      </trkpt>
      <trkpt lat="45.45487" lon="5.82821">
        <ele>1143.588873329</ele>
        <time>2015-05-06T11:32:31Z</time>
      </trkpt>
      <trkpt lat="45.45491" lon="5.82825">
        <ele>1143.588873329</ele>
        <time>2015-05-06T11:32:37Z</time>
      </trkpt>
      <trkpt lat="45.45498" lon="5.82826">
        <ele>1147.584799917</ele>
        <time>2015-05-06T11:32:41Z</time>
      </trkpt>
      <trkpt lat="45.45506" lon="5.82824">
        <ele>1147.584799917</ele>
        <time>2015-05-06T11:32:47Z</time>
      </trkpt>
      <trkpt lat="45.45513" lon="5.82836">
        <ele>1150.983907834</ele>
        <time>2015-05-06T11:32:51Z</time>
      </trkpt>
      <trkpt lat="45.45517" lon="5.82837">
        <ele>1150.983907834</ele>
        <time>2015-05-06T11:32:57Z</time>
      </trkpt>
      <trkpt lat="45.45521" lon="5.82846">
        <ele>1154.400316237</ele>
        <time>2015-05-06T11:33:01Z</time>
      </trkpt>
      <trkpt lat="45.45526" lon="5.82845">
        <ele>1154.400316237</ele>
        <time>2015-05-06T11:33:07Z</time>
      </trkpt>
      <trkpt lat="45.45529" lon="5.82852">
        <ele>1157.53855859</ele>
        <time>2015-05-06T11:33:11Z</time>
      </trkpt>
      <trkpt lat="45.45533" lon="5.82855">
        <ele>1157.53855859</ele>
        <time>2015-05-06T11:33:17Z</time>
      </trkpt>
      <trkpt lat="45.45536" lon="5.8286">
        <ele>1160.558228925</ele>
        <time>2015-05-06T11:33:21Z</time>
      </trkpt>
      <trkpt lat="45.45542" lon="5.82873">
        <ele>1163.463657869</ele>
        <time>2015-05-06T11:33:27Z</time>
      </trkpt>
      <trkpt lat="45.45546" lon="5.82877">
        <ele>1163.463657869</ele>
        <time>2015-05-06T11:33:31Z</time>
      </trkpt>
      <trkpt lat="45.45548" lon="5.82878">
        <ele>1163.463657869</ele>
        <time>2015-05-06T11:33:37Z</time>
      </trkpt>
      <trkpt lat="45.45547" lon="5.82877">
        <ele>1163.463657869</ele>
        <time>2015-05-06T11:33:41Z</time>
      </trkpt>
      <trkpt lat="45.45549" lon="5.82877">
        <ele>1166.547635326</ele>
        <time>2015-05-06T11:33:45Z</time>
      </trkpt>
      <trkpt lat="45.45551" lon="5.82878">
        <ele>1166.547635326</ele>
        <time>2015-05-06T11:33:51Z</time>
      </trkpt>
      <trkpt lat="45.45553" lon="5.8288">
        <ele>1166.547635326</ele>
        <time>2015-05-06T11:33:56Z</time>
      </trkpt>
      <trkpt lat="45.45557" lon="5.8289">
        <ele>1169.072392376</ele>
        <time>2015-05-06T11:34:01Z</time>
      </trkpt>
      <trkpt lat="45.45562" lon="5.82896">
        <ele>1169.072392376</ele>
        <time>2015-05-06T11:34:05Z</time>
      </trkpt>
      <trkpt lat="45.45557" lon="5.82897">
        <ele>1172.08548101</ele>
        <time>2015-05-06T11:34:11Z</time>
      </trkpt>
      <trkpt lat="45.45549" lon="5.82892">
        <ele>1172.08548101</ele>
        <time>2015-05-06T11:34:17Z</time>
      </trkpt>
      <trkpt lat="45.45544" lon="5.82888">
        <ele>1175.115234358</ele>
        <time>2015-05-06T11:34:21Z</time>
      </trkpt>
      <trkpt lat="45.45541" lon="5.82885">
        <ele>1175.115234358</ele>
        <time>2015-05-06T11:34:27Z</time>
      </trkpt>
      <trkpt lat="45.45535" lon="5.82889">
        <ele>1178.301240615</ele>
        <time>2015-05-06T11:34:31Z</time>
      </trkpt>
      <trkpt lat="45.45532" lon="5.82888">
        <ele>1178.301240615</ele>
        <time>2015-05-06T11:34:37Z</time>
      </trkpt>
      <trkpt lat="45.45531" lon="5.82888">
        <ele>1178.301240615</ele>
        <time>2015-05-06T11:34:41Z</time>
      </trkpt>
      <trkpt lat="45.45527" lon="5.82891">
        <ele>1178.301240615</ele>
        <time>2015-05-06T11:34:47Z</time>
      </trkpt>
      <trkpt lat="45.45525" lon="5.82889">
        <ele>1181.916710091</ele>
        <time>2015-05-06T11:34:51Z</time>
      </trkpt>
      <trkpt lat="45.45524" lon="5.8289">
        <ele>1181.916710091</ele>
        <time>2015-05-06T11:34:57Z</time>
      </trkpt>
      <trkpt lat="45.45516" lon="5.82888">
        <ele>1184.916776197</ele>
        <time>2015-05-06T11:35:02Z</time>
      </trkpt>
      <trkpt lat="45.45509" lon="5.82887">
        <ele>1184.916776197</ele>
        <time>2015-05-06T11:35:06Z</time>
      </trkpt>
      <trkpt lat="45.455" lon="5.82885">
        <ele>1187.920470176</ele>
        <time>2015-05-06T11:35:12Z</time>
      </trkpt>
      <trkpt lat="45.45491" lon="5.82886">
        <ele>1190.49274851</ele>
        <time>2015-05-06T11:35:16Z</time>
      </trkpt>
      <trkpt lat="45.45485" lon="5.82881">
        <ele>1190.49274851</ele>
        <time>2015-05-06T11:35:22Z</time>
      </trkpt>
      <trkpt lat="45.45479" lon="5.82881">
        <ele>1193.817139976</ele>
        <time>2015-05-06T11:35:26Z</time>
      </trkpt>
      <trkpt lat="45.45474" lon="5.82881">
        <ele>1193.817139976</ele>
        <time>2015-05-06T11:35:32Z</time>
      </trkpt>
      <trkpt lat="45.45469" lon="5.82876">
        <ele>1196.250182705</ele>
        <time>2015-05-06T11:35:36Z</time>
      </trkpt>
      <trkpt lat="45.45473" lon="5.8288">
        <ele>1196.250182705</ele>
        <time>2015-05-06T11:35:41Z</time>
      </trkpt>
      <trkpt lat="45.45476" lon="5.82878">
        <ele>1198.289362659</ele>
        <time>2015-05-06T11:35:47Z</time>
      </trkpt>
      <trkpt lat="45.45479" lon="5.8288">
        <ele>1198.289362659</ele>
        <time>2015-05-06T11:35:51Z</time>
      </trkpt>
      <trkpt lat="45.45482" lon="5.82882">
        <ele>1198.289362659</ele>
        <time>2015-05-06T11:35:57Z</time>
      </trkpt>
      <trkpt lat="45.45488" lon="5.82885">
        <ele>1200.25276692</ele>
        <time>2015-05-06T11:36:01Z</time>
      </trkpt>
      <trkpt lat="45.45494" lon="5.8289">
        <ele>1200.25276692</ele>
        <time>2015-05-06T11:36:07Z</time>
      </trkpt>
      <trkpt lat="45.45503" lon="5.82893">
        <ele>1202.147246471</ele>
        <time>2015-05-06T11:36:11Z</time>
      </trkpt>
      <trkpt lat="45.45502" lon="5.82891">
        <ele>1202.147246471</ele>
        <time>2015-05-06T11:36:17Z</time>
      </trkpt>
      <trkpt lat="45.45503" lon="5.82889">
        <ele>1202.147246471</ele>
        <time>2015-05-06T11:36:21Z</time>
      </trkpt>
      <trkpt lat="45.45509" lon="5.82893">
        <ele>1204.988248343</ele>
        <time>2015-05-06T11:36:27Z</time>
      </trkpt>
      <trkpt lat="45.45514" lon="5.82901">
        <ele>1204.988248343</ele>
        <time>2015-05-06T11:36:31Z</time>
      </trkpt>
      <trkpt lat="45.45523" lon="5.82909">
        <ele>1207.984752867</ele>
        <time>2015-05-06T11:36:37Z</time>
      </trkpt>
      <trkpt lat="45.45527" lon="5.8291">
        <ele>1207.984752867</ele>
        <time>2015-05-06T11:36:41Z</time>
      </trkpt>
      <trkpt lat="45.45525" lon="5.82913">
        <ele>1207.984752867</ele>
        <time>2015-05-06T11:36:47Z</time>
      </trkpt>
      <trkpt lat="45.45527" lon="5.82917">
        <ele>1210.403519014</ele>
        <time>2015-05-06T11:36:51Z</time>
      </trkpt>
      <trkpt lat="45.45533" lon="5.82923">
        <ele>1210.403519014</ele>
        <time>2015-05-06T11:36:57Z</time>
      </trkpt>
      <trkpt lat="45.45538" lon="5.8293">
        <ele>1212.287443943</ele>
        <time>2015-05-06T11:37:01Z</time>
      </trkpt>
      <trkpt lat="45.45538" lon="5.82928">
        <ele>1212.287443943</ele>
        <time>2015-05-06T11:37:06Z</time>
      </trkpt>
      <trkpt lat="45.4554" lon="5.8293">
        <ele>1212.287443943</ele>
        <time>2015-05-06T11:37:11Z</time>
      </trkpt>
      <trkpt lat="45.45539" lon="5.8293">
        <ele>1212.287443943</ele>
        <time>2015-05-06T11:37:16Z</time>
      </trkpt>
      <trkpt lat="45.45539" lon="5.82929">
        <ele>1212.287443943</ele>
        <time>2015-05-06T11:37:21Z</time>
      </trkpt>
      <trkpt lat="45.4554" lon="5.8293">
        <ele>1212.287443943</ele>
        <time>2015-05-06T11:37:26Z</time>
      </trkpt>
      <trkpt lat="45.4554" lon="5.8293">
        <ele>1212.287443943</ele>
        <time>2015-05-06T11:37:30Z</time>
      </trkpt>
      <trkpt lat="45.4554" lon="5.8293">
        <ele>1212.287443943</ele>
        <time>2015-05-06T11:37:37Z</time>
      </trkpt>
      <trkpt lat="45.45542" lon="5.8293">
        <ele>1212.287443943</ele>
        <time>2015-05-06T11:37:41Z</time>
      </trkpt>
      <trkpt lat="45.45551" lon="5.82942">
        <ele>1214.830753863</ele>
        <time>2015-05-06T11:37:47Z</time>
      </trkpt>
      <trkpt lat="45.45559" lon="5.82947">
        <ele>1214.830753863</ele>
        <time>2015-05-06T11:37:51Z</time>
      </trkpt>
      <trkpt lat="45.45562" lon="5.82951">
        <ele>1216.976511905</ele>
        <time>2015-05-06T11:37:57Z</time>
      </trkpt>
      <trkpt lat="45.45564" lon="5.82951">
        <ele>1216.976511905</ele>
        <time>2015-05-06T11:38:01Z</time>
      </trkpt>
      <trkpt lat="45.45563" lon="5.82946">
        <ele>1216.976511905</ele>
        <time>2015-05-06T11:38:07Z</time>
      </trkpt>
      <trkpt lat="45.45564" lon="5.82947">
        <ele>1216.976511905</ele>
        <time>2015-05-06T11:38:11Z</time>
      </trkpt>
      <trkpt lat="45.45564" lon="5.82946">
        <ele>1216.976511905</ele>
        <time>2015-05-06T11:38:17Z</time>
      </trkpt>
      <trkpt lat="45.45564" lon="5.82947">
        <ele>1216.976511905</ele>
        <time>2015-05-06T11:38:21Z</time>
      </trkpt>
      <trkpt lat="45.45565" lon="5.82948">
        <ele>1216.976511905</ele>
        <time>2015-05-06T11:38:27Z</time>
      </trkpt>
      <trkpt lat="45.45573" lon="5.82963">
        <ele>1218.178941862</ele>
        <time>2015-05-06T11:38:31Z</time>
      </trkpt>
      <trkpt lat="45.45584" lon="5.82978">
        <ele>1219.087952777</ele>
        <time>2015-05-06T11:38:37Z</time>
      </trkpt>
      <trkpt lat="45.45589" lon="5.82979">
        <ele>1219.087952777</ele>
        <time>2015-05-06T11:38:41Z</time>
      </trkpt>
      <trkpt lat="45.45589" lon="5.82973">
        <ele>1220.594801282</ele>
        <time>2015-05-06T11:38:47Z</time>
      </trkpt>
      <trkpt lat="45.45595" lon="5.82981">
        <ele>1220.594801282</ele>
        <time>2015-05-06T11:38:51Z</time>
      </trkpt>
      <trkpt lat="45.45595" lon="5.8298">
        <ele>1220.594801282</ele>
        <time>2015-05-06T11:38:57Z</time>
      </trkpt>
      <trkpt lat="45.45596" lon="5.82981">
        <ele>1222.370736424</ele>
        <time>2015-05-06T11:39:00Z</time>
      </trkpt>
      <trkpt lat="45.45597" lon="5.82982">
        <ele>1222.370736424</ele>
        <time>2015-05-06T11:39:05Z</time>
      </trkpt>
      <trkpt lat="45.45597" lon="5.82982">
        <ele>1222.370736424</ele>
        <time>2015-05-06T11:39:10Z</time>
      </trkpt>
      <trkpt lat="45.45597" lon="5.82984">
        <ele>1222.370736424</ele>
        <time>2015-05-06T11:39:15Z</time>
      </trkpt>
      <trkpt lat="45.45597" lon="5.82984">
        <ele>1222.370736424</ele>
        <time>2015-05-06T11:39:20Z</time>
      </trkpt>
      <trkpt lat="45.45597" lon="5.82984">
        <ele>1222.370736424</ele>
        <time>2015-05-06T11:39:25Z</time>
      </trkpt>
      <trkpt lat="45.45597" lon="5.82984">
        <ele>1222.370736424</ele>
        <time>2015-05-06T11:39:31Z</time>
      </trkpt>
      <trkpt lat="45.45597" lon="5.82984">
        <ele>1222.370736424</ele>
        <time>2015-05-06T11:39:36Z</time>
      </trkpt>
      <trkpt lat="45.45597" lon="5.82984">
        <ele>1222.370736424</ele>
        <time>2015-05-06T11:39:41Z</time>
      </trkpt>
      <trkpt lat="45.45597" lon="5.82984">
        <ele>1222.370736424</ele>
        <time>2015-05-06T11:39:46Z</time>
      </trkpt>
      <trkpt lat="45.45597" lon="5.82984">
        <ele>1222.370736424</ele>
        <time>2015-05-06T11:39:51Z</time>
      </trkpt>
      <trkpt lat="45.45597" lon="5.82984">
        <ele>1222.370736424</ele>
        <time>2015-05-06T11:39:56Z</time>
      </trkpt>
      <trkpt lat="45.45597" lon="5.82984">
        <ele>1222.370736424</ele>
        <time>2015-05-06T11:40:01Z</time>
      </trkpt>
      <trkpt lat="45.45597" lon="5.82984">
        <ele>1222.370736424</ele>
        <time>2015-05-06T11:40:06Z</time>
      </trkpt>
      <trkpt lat="45.45597" lon="5.82984">
        <ele>1222.370736424</ele>
        <time>2015-05-06T11:40:11Z</time>
      </trkpt>
      <trkpt lat="45.45597" lon="5.82984">
        <ele>1222.370736424</ele>
        <time>2015-05-06T11:40:16Z</time>
      </trkpt>
      <trkpt lat="45.45597" lon="5.82984">
        <ele>1222.370736424</ele>
        <time>2015-05-06T11:40:21Z</time>
      </trkpt>
      <trkpt lat="45.45597" lon="5.82984">
        <ele>1222.370736424</ele>
        <time>2015-05-06T11:40:26Z</time>
      </trkpt>
      <trkpt lat="45.45597" lon="5.82984">
        <ele>1222.370736424</ele>
        <time>2015-05-06T11:40:31Z</time>
      </trkpt>
      <trkpt lat="45.45597" lon="5.82984">
        <ele>1222.370736424</ele>
        <time>2015-05-06T11:40:36Z</time>
      </trkpt>
      <trkpt lat="45.45597" lon="5.82984">
        <ele>1222.370736424</ele>
        <time>2015-05-06T11:40:41Z</time>
      </trkpt>
      <trkpt lat="45.45597" lon="5.82984">
        <ele>1222.370736424</ele>
        <time>2015-05-06T11:40:45Z</time>
      </trkpt>
      <trkpt lat="45.45597" lon="5.82984">
        <ele>1222.370736424</ele>
        <time>2015-05-06T11:40:51Z</time>
      </trkpt>
      <trkpt lat="45.45597" lon="5.82984">
        <ele>1222.370736424</ele>
        <time>2015-05-06T11:40:56Z</time>
      </trkpt>
      <trkpt lat="45.45597" lon="5.82984">
        <ele>1222.370736424</ele>
        <time>2015-05-06T11:41:01Z</time>
      </trkpt>
      <trkpt lat="45.45597" lon="5.82984">
        <ele>1222.370736424</ele>
        <time>2015-05-06T11:41:05Z</time>
      </trkpt>
      <trkpt lat="45.45597" lon="5.82984">
        <ele>1222.370736424</ele>
        <time>2015-05-06T11:41:11Z</time>
      </trkpt>
      <trkpt lat="45.45597" lon="5.82984">
        <ele>1222.370736424</ele>
        <time>2015-05-06T11:41:16Z</time>
      </trkpt>
      <trkpt lat="45.45597" lon="5.82984">
        <ele>1222.370736424</ele>
        <time>2015-05-06T11:41:21Z</time>
      </trkpt>
      <trkpt lat="45.45597" lon="5.82984">
        <ele>1222.370736424</ele>
        <time>2015-05-06T11:41:26Z</time>
      </trkpt>
      <trkpt lat="45.45587" lon="5.8298">
        <ele>1223.678084641</ele>
        <time>2015-05-06T11:41:31Z</time>
      </trkpt>
      <trkpt lat="45.4557" lon="5.82977">
        <ele>1225.131680235</ele>
        <time>2015-05-06T11:41:36Z</time>
      </trkpt>
      <trkpt lat="45.45557" lon="5.82973">
        <ele>1226.436107754</ele>
        <time>2015-05-06T11:41:41Z</time>
      </trkpt>
      <trkpt lat="45.45549" lon="5.82976">
        <ele>1226.436107754</ele>
        <time>2015-05-06T11:41:46Z</time>
      </trkpt>
      <trkpt lat="45.45543" lon="5.82977">
        <ele>1227.750387131</ele>
        <time>2015-05-06T11:41:51Z</time>
      </trkpt>
      <trkpt lat="45.45535" lon="5.82973">
        <ele>1227.750387131</ele>
        <time>2015-05-06T11:41:56Z</time>
      </trkpt>
      <trkpt lat="45.45532" lon="5.82978">
        <ele>1228.357133022</ele>
        <time>2015-05-06T11:42:01Z</time>
      </trkpt>
      <trkpt lat="45.45528" lon="5.82975">
        <ele>1228.357133022</ele>
        <time>2015-05-06T11:42:05Z</time>
      </trkpt>
      <trkpt lat="45.45522" lon="5.82978">
        <ele>1229.467048963</ele>
        <time>2015-05-06T11:42:11Z</time>
      </trkpt>
      <trkpt lat="45.45513" lon="5.82978">
        <ele>1229.467048963</ele>
        <time>2015-05-06T11:42:16Z</time>
      </trkpt>
      <trkpt lat="45.45508" lon="5.82974">
        <ele>1230.903438895</ele>
        <time>2015-05-06T11:42:21Z</time>
      </trkpt>
      <trkpt lat="45.45501" lon="5.82971">
        <ele>1230.903438895</ele>
        <time>2015-05-06T11:42:26Z</time>
      </trkpt>
      <trkpt lat="45.45493" lon="5.8297">
        <ele>1233.798614785</ele>
        <time>2015-05-06T11:42:31Z</time>
      </trkpt>
      <trkpt lat="45.45489" lon="5.82967">
        <ele>1233.798614785</ele>
        <time>2015-05-06T11:42:36Z</time>
      </trkpt>
      <trkpt lat="45.45485" lon="5.82968">
        <ele>1233.798614785</ele>
        <time>2015-05-06T11:42:41Z</time>
      </trkpt>
      <trkpt lat="45.45477" lon="5.82969">
        <ele>1235.738887768</ele>
        <time>2015-05-06T11:42:46Z</time>
      </trkpt>
      <trkpt lat="45.4548" lon="5.82973">
        <ele>1235.738887768</ele>
        <time>2015-05-06T11:42:51Z</time>
      </trkpt>
      <trkpt lat="45.4548" lon="5.82971">
        <ele>1235.738887768</ele>
        <time>2015-05-06T11:42:56Z</time>
      </trkpt>
      <trkpt lat="45.45482" lon="5.82972">
        <ele>1235.738887768</ele>
        <time>2015-05-06T11:43:01Z</time>
      </trkpt>
      <trkpt lat="45.45482" lon="5.82972">
        <ele>1235.738887768</ele>
        <time>2015-05-06T11:43:06Z</time>
      </trkpt>
      <trkpt lat="45.45482" lon="5.82972">
        <ele>1235.738887768</ele>
        <time>2015-05-06T11:43:11Z</time>
      </trkpt>
      <trkpt lat="45.45482" lon="5.82971">
        <ele>1235.738887768</ele>
        <time>2015-05-06T11:43:16Z</time>
      </trkpt>
      <trkpt lat="45.45482" lon="5.82971">
        <ele>1235.738887768</ele>
        <time>2015-05-06T11:43:21Z</time>
      </trkpt>
      <trkpt lat="45.45482" lon="5.82971">
        <ele>1235.738887768</ele>
        <time>2015-05-06T11:43:26Z</time>
      </trkpt>
      <trkpt lat="45.45482" lon="5.82971">
        <ele>1235.738887768</ele>
        <time>2015-05-06T11:43:31Z</time>
      </trkpt>
      <trkpt lat="45.45486" lon="5.82976">
        <ele>1237.660938704</ele>
        <time>2015-05-06T11:43:36Z</time>
      </trkpt>
      <trkpt lat="45.45494" lon="5.82988">
        <ele>1238.847404856</ele>
        <time>2015-05-06T11:43:41Z</time>
      </trkpt>
      <trkpt lat="45.45502" lon="5.82999">
        <ele>1239.788507463</ele>
        <time>2015-05-06T11:43:46Z</time>
      </trkpt>
      <trkpt lat="45.45511" lon="5.83006">
        <ele>1241.227297083</ele>
        <time>2015-05-06T11:43:51Z</time>
      </trkpt>
      <trkpt lat="45.45519" lon="5.83005">
        <ele>1241.227297083</ele>
        <time>2015-05-06T11:43:56Z</time>
      </trkpt>
      <trkpt lat="45.45524" lon="5.83009">
        <ele>1243.418437064</ele>
        <time>2015-05-06T11:44:01Z</time>
      </trkpt>
      <trkpt lat="45.45537" lon="5.83015">
        <ele>1245.010472906</ele>
        <time>2015-05-06T11:44:06Z</time>
      </trkpt>
      <trkpt lat="45.45539" lon="5.83016">
        <ele>1245.010472906</ele>
        <time>2015-05-06T11:44:10Z</time>
      </trkpt>
      <trkpt lat="45.4554" lon="5.8301">
        <ele>1245.010472906</ele>
        <time>2015-05-06T11:44:15Z</time>
      </trkpt>
      <trkpt lat="45.45544" lon="5.83018">
        <ele>1246.914497206</ele>
        <time>2015-05-06T11:44:22Z</time>
      </trkpt>
      <trkpt lat="45.45548" lon="5.83018">
        <ele>1246.914497206</ele>
        <time>2015-05-06T11:44:25Z</time>
      </trkpt>
      <trkpt lat="45.45553" lon="5.83018">
        <ele>1246.914497206</ele>
        <time>2015-05-06T11:44:32Z</time>
      </trkpt>
      <trkpt lat="45.45558" lon="5.83021">
        <ele>1248.964943576</ele>
        <time>2015-05-06T11:44:36Z</time>
      </trkpt>
      <trkpt lat="45.45566" lon="5.83027">
        <ele>1251.152033099</ele>
        <time>2015-05-06T11:44:42Z</time>
      </trkpt>
      <trkpt lat="45.45569" lon="5.83028">
        <ele>1251.152033099</ele>
        <time>2015-05-06T11:44:46Z</time>
      </trkpt>
      <trkpt lat="45.4557" lon="5.83033">
        <ele>1251.152033099</ele>
        <time>2015-05-06T11:44:52Z</time>
      </trkpt>
      <trkpt lat="45.45571" lon="5.83037">
        <ele>1253.466249051</ele>
        <time>2015-05-06T11:44:56Z</time>
      </trkpt>
      <trkpt lat="45.45578" lon="5.83044">
        <ele>1253.466249051</ele>
        <time>2015-05-06T11:45:02Z</time>
      </trkpt>
      <trkpt lat="45.45583" lon="5.83055">
        <ele>1255.466014008</ele>
        <time>2015-05-06T11:45:06Z</time>
      </trkpt>
      <trkpt lat="45.45589" lon="5.83057">
        <ele>1255.466014008</ele>
        <time>2015-05-06T11:45:12Z</time>
      </trkpt>
      <trkpt lat="45.45597" lon="5.83064">
        <ele>1257.607671712</ele>
        <time>2015-05-06T11:45:16Z</time>
      </trkpt>
      <trkpt lat="45.45604" lon="5.83068">
        <ele>1257.607671712</ele>
        <time>2015-05-06T11:45:22Z</time>
      </trkpt>
      <trkpt lat="45.45609" lon="5.8307">
        <ele>1260.16947229</ele>
        <time>2015-05-06T11:45:26Z</time>
      </trkpt>
      <trkpt lat="45.45605" lon="5.83075">
        <ele>1260.16947229</ele>
        <time>2015-05-06T11:45:31Z</time>
      </trkpt>
      <trkpt lat="45.45604" lon="5.83076">
        <ele>1260.16947229</ele>
        <time>2015-05-06T11:45:37Z</time>
      </trkpt>
      <trkpt lat="45.45607" lon="5.83092">
        <ele>1262.975657011</ele>
        <time>2015-05-06T11:45:41Z</time>
      </trkpt>
      <trkpt lat="45.45608" lon="5.8309">
        <ele>1262.975657011</ele>
        <time>2015-05-06T11:45:45Z</time>
      </trkpt>
      <trkpt lat="45.45608" lon="5.83087">
        <ele>1262.975657011</ele>
        <time>2015-05-06T11:45:50Z</time>
      </trkpt>
      <trkpt lat="45.45607" lon="5.83086">
        <ele>1262.975657011</ele>
        <time>2015-05-06T11:45:56Z</time>
      </trkpt>
      <trkpt lat="45.45608" lon="5.83086">
        <ele>1262.975657011</ele>
        <time>2015-05-06T11:46:01Z</time>
      </trkpt>
      <trkpt lat="45.45608" lon="5.83086">
        <ele>1262.975657011</ele>
        <time>2015-05-06T11:46:06Z</time>
      </trkpt>
      <trkpt lat="45.45608" lon="5.83086">
        <ele>1262.975657011</ele>
        <time>2015-05-06T11:46:12Z</time>
      </trkpt>
      <trkpt lat="45.45608" lon="5.83086">
        <ele>1262.975657011</ele>
        <time>2015-05-06T11:46:16Z</time>
      </trkpt>
      <trkpt lat="45.45608" lon="5.83086">
        <ele>1262.975657011</ele>
        <time>2015-05-06T11:46:22Z</time>
      </trkpt>
      <trkpt lat="45.45608" lon="5.83086">
        <ele>1262.975657011</ele>
        <time>2015-05-06T11:46:26Z</time>
      </trkpt>
      <trkpt lat="45.45608" lon="5.83086">
        <ele>1262.975657011</ele>
        <time>2015-05-06T11:46:32Z</time>
      </trkpt>
      <trkpt lat="45.45608" lon="5.83086">
        <ele>1262.975657011</ele>
        <time>2015-05-06T11:46:36Z</time>
      </trkpt>
      <trkpt lat="45.45608" lon="5.83086">
        <ele>1262.975657011</ele>
        <time>2015-05-06T11:46:42Z</time>
      </trkpt>
      <trkpt lat="45.45608" lon="5.83086">
        <ele>1262.975657011</ele>
        <time>2015-05-06T11:46:46Z</time>
      </trkpt>
      <trkpt lat="45.45608" lon="5.83086">
        <ele>1262.975657011</ele>
        <time>2015-05-06T11:46:52Z</time>
      </trkpt>
      <trkpt lat="45.45614" lon="5.83095">
        <ele>1265.862642043</ele>
        <time>2015-05-06T11:46:56Z</time>
      </trkpt>
      <trkpt lat="45.45624" lon="5.83104">
        <ele>1268.102144528</ele>
        <time>2015-05-06T11:47:02Z</time>
      </trkpt>
      <trkpt lat="45.45634" lon="5.83112">
        <ele>1270.462270841</ele>
        <time>2015-05-06T11:47:06Z</time>
      </trkpt>
      <trkpt lat="45.45639" lon="5.83105">
        <ele>1270.462270841</ele>
        <time>2015-05-06T11:47:12Z</time>
      </trkpt>
      <trkpt lat="45.45648" lon="5.83113">
        <ele>1273.077887441</ele>
        <time>2015-05-06T11:47:16Z</time>
      </trkpt>
      <trkpt lat="45.45658" lon="5.83125">
        <ele>1275.640875918</ele>
        <time>2015-05-06T11:47:21Z</time>
      </trkpt>
      <trkpt lat="45.4566" lon="5.83129">
        <ele>1275.640875918</ele>
        <time>2015-05-06T11:47:26Z</time>
      </trkpt>
      <trkpt lat="45.45668" lon="5.83133">
        <ele>1278.586433079</ele>
        <time>2015-05-06T11:47:32Z</time>
      </trkpt>
      <trkpt lat="45.45672" lon="5.83137">
        <ele>1278.586433079</ele>
        <time>2015-05-06T11:47:36Z</time>
      </trkpt>
      <trkpt lat="45.45672" lon="5.83139">
        <ele>1278.586433079</ele>
        <time>2015-05-06T11:47:42Z</time>
      </trkpt>
      <trkpt lat="45.45673" lon="5.83139">
        <ele>1278.586433079</ele>
        <time>2015-05-06T11:47:46Z</time>
      </trkpt>
      <trkpt lat="45.45673" lon="5.83137">
        <ele>1278.586433079</ele>
        <time>2015-05-06T11:47:52Z</time>
      </trkpt>
      <trkpt lat="45.45673" lon="5.83137">
        <ele>1278.586433079</ele>
        <time>2015-05-06T11:47:56Z</time>
      </trkpt>
      <trkpt lat="45.45673" lon="5.83137">
        <ele>1281.74025222</ele>
        <time>2015-05-06T11:48:02Z</time>
      </trkpt>
      <trkpt lat="45.45673" lon="5.83137">
        <ele>1281.74025222</ele>
        <time>2015-05-06T11:48:06Z</time>
      </trkpt>
      <trkpt lat="45.45673" lon="5.83137">
        <ele>1281.74025222</ele>
        <time>2015-05-06T11:48:12Z</time>
      </trkpt>
      <trkpt lat="45.45673" lon="5.83137">
        <ele>1281.74025222</ele>
        <time>2015-05-06T11:48:16Z</time>
      </trkpt>
      <trkpt lat="45.45673" lon="5.83137">
        <ele>1281.74025222</ele>
        <time>2015-05-06T11:48:22Z</time>
      </trkpt>
      <trkpt lat="45.45673" lon="5.83137">
        <ele>1281.74025222</ele>
        <time>2015-05-06T11:48:26Z</time>
      </trkpt>
      <trkpt lat="45.45673" lon="5.83137">
        <ele>1281.74025222</ele>
        <time>2015-05-06T11:48:32Z</time>
      </trkpt>
      <trkpt lat="45.45673" lon="5.83137">
        <ele>1281.74025222</ele>
        <time>2015-05-06T11:48:36Z</time>
      </trkpt>
      <trkpt lat="45.45673" lon="5.83137">
        <ele>1281.74025222</ele>
        <time>2015-05-06T11:48:42Z</time>
      </trkpt>
      <trkpt lat="45.45673" lon="5.83137">
        <ele>1281.74025222</ele>
        <time>2015-05-06T11:48:46Z</time>
      </trkpt>
      <trkpt lat="45.45673" lon="5.83137">
        <ele>1281.74025222</ele>
        <time>2015-05-06T11:48:52Z</time>
      </trkpt>
      <trkpt lat="45.45673" lon="5.83137">
        <ele>1281.74025222</ele>
        <time>2015-05-06T11:48:56Z</time>
      </trkpt>
      <trkpt lat="45.45673" lon="5.83137">
        <ele>1281.74025222</ele>
        <time>2015-05-06T11:49:02Z</time>
      </trkpt>
      <trkpt lat="45.45673" lon="5.83137">
        <ele>1281.74025222</ele>
        <time>2015-05-06T11:49:06Z</time>
      </trkpt>
      <trkpt lat="45.45674" lon="5.83137">
        <ele>1281.74025222</ele>
        <time>2015-05-06T11:49:12Z</time>
      </trkpt>
      <trkpt lat="45.45674" lon="5.83137">
        <ele>1281.74025222</ele>
        <time>2015-05-06T11:49:16Z</time>
      </trkpt>
      <trkpt lat="45.45674" lon="5.83137">
        <ele>1281.74025222</ele>
        <time>2015-05-06T11:49:22Z</time>
      </trkpt>
      <trkpt lat="45.45674" lon="5.83137">
        <ele>1281.74025222</ele>
        <time>2015-05-06T11:49:26Z</time>
      </trkpt>
      <trkpt lat="45.45674" lon="5.83137">
        <ele>1281.74025222</ele>
        <time>2015-05-06T11:49:32Z</time>
      </trkpt>
      <trkpt lat="45.45674" lon="5.83137">
        <ele>1281.74025222</ele>
        <time>2015-05-06T11:49:36Z</time>
      </trkpt>
      <trkpt lat="45.45674" lon="5.83137">
        <ele>1281.74025222</ele>
        <time>2015-05-06T11:49:42Z</time>
      </trkpt>
      <trkpt lat="45.4568" lon="5.83143">
        <ele>1281.74025222</ele>
        <time>2015-05-06T11:49:46Z</time>
      </trkpt>
      <trkpt lat="45.45686" lon="5.83151">
        <ele>1283.931457702</ele>
        <time>2015-05-06T11:49:52Z</time>
      </trkpt>
      <trkpt lat="45.45691" lon="5.83153">
        <ele>1283.931457702</ele>
        <time>2015-05-06T11:49:56Z</time>
      </trkpt>
      <trkpt lat="45.45693" lon="5.83156">
        <ele>1283.931457702</ele>
        <time>2015-05-06T11:50:02Z</time>
      </trkpt>
      <trkpt lat="45.45692" lon="5.83157">
        <ele>1285.951324799</ele>
        <time>2015-05-06T11:50:06Z</time>
      </trkpt>
      <trkpt lat="45.45692" lon="5.83158">
        <ele>1285.951324799</ele>
        <time>2015-05-06T11:50:12Z</time>
      </trkpt>
      <trkpt lat="45.45692" lon="5.83158">
        <ele>1285.951324799</ele>
        <time>2015-05-06T11:50:16Z</time>
      </trkpt>
      <trkpt lat="45.45692" lon="5.83157">
        <ele>1285.951324799</ele>
        <time>2015-05-06T11:50:21Z</time>
      </trkpt>
      <trkpt lat="45.45692" lon="5.83157">
        <ele>1285.951324799</ele>
        <time>2015-05-06T11:50:25Z</time>
      </trkpt>
      <trkpt lat="45.45692" lon="5.83157">
        <ele>1285.951324799</ele>
        <time>2015-05-06T11:50:30Z</time>
      </trkpt>
      <trkpt lat="45.45692" lon="5.83157">
        <ele>1285.951324799</ele>
        <time>2015-05-06T11:50:36Z</time>
      </trkpt>
      <trkpt lat="45.45692" lon="5.83157">
        <ele>1285.951324799</ele>
        <time>2015-05-06T11:50:40Z</time>
      </trkpt>
      <trkpt lat="45.45692" lon="5.83157">
        <ele>1285.951324799</ele>
        <time>2015-05-06T11:50:46Z</time>
      </trkpt>
      <trkpt lat="45.45692" lon="5.83157">
        <ele>1285.951324799</ele>
        <time>2015-05-06T11:50:51Z</time>
      </trkpt>
      <trkpt lat="45.45692" lon="5.83157">
        <ele>1285.951324799</ele>
        <time>2015-05-06T11:50:56Z</time>
      </trkpt>
      <trkpt lat="45.45692" lon="5.83157">
        <ele>1285.951324799</ele>
        <time>2015-05-06T11:51:00Z</time>
      </trkpt>
      <trkpt lat="45.45692" lon="5.83157">
        <ele>1285.951324799</ele>
        <time>2015-05-06T11:51:05Z</time>
      </trkpt>
      <trkpt lat="45.45692" lon="5.83157">
        <ele>1285.951324799</ele>
        <time>2015-05-06T11:51:11Z</time>
      </trkpt>
      <trkpt lat="45.45692" lon="5.83157">
        <ele>1285.951324799</ele>
        <time>2015-05-06T11:51:15Z</time>
      </trkpt>
      <trkpt lat="45.45692" lon="5.83157">
        <ele>1285.951324799</ele>
        <time>2015-05-06T11:51:22Z</time>
      </trkpt>
      <trkpt lat="45.45692" lon="5.83157">
        <ele>1285.951324799</ele>
        <time>2015-05-06T11:51:26Z</time>
      </trkpt>
      <trkpt lat="45.45692" lon="5.83157">
        <ele>1285.951324799</ele>
        <time>2015-05-06T11:51:31Z</time>
      </trkpt>
      <trkpt lat="45.45692" lon="5.83157">
        <ele>1285.951324799</ele>
        <time>2015-05-06T11:51:36Z</time>
      </trkpt>
      <trkpt lat="45.45692" lon="5.83157">
        <ele>1285.951324799</ele>
        <time>2015-05-06T11:51:41Z</time>
      </trkpt>
      <trkpt lat="45.45692" lon="5.83157">
        <ele>1285.951324799</ele>
        <time>2015-05-06T11:51:46Z</time>
      </trkpt>
      <trkpt lat="45.45692" lon="5.83157">
        <ele>1285.951324799</ele>
        <time>2015-05-06T11:51:51Z</time>
      </trkpt>
      <trkpt lat="45.45692" lon="5.83157">
        <ele>1285.951324799</ele>
        <time>2015-05-06T11:51:56Z</time>
      </trkpt>
      <trkpt lat="45.45692" lon="5.83157">
        <ele>1285.951324799</ele>
        <time>2015-05-06T11:52:01Z</time>
      </trkpt>
      <trkpt lat="45.45692" lon="5.83157">
        <ele>1285.951324799</ele>
        <time>2015-05-06T11:52:06Z</time>
      </trkpt>
      <trkpt lat="45.45692" lon="5.83157">
        <ele>1285.951324799</ele>
        <time>2015-05-06T11:52:11Z</time>
      </trkpt>
      <trkpt lat="45.45692" lon="5.83157">
        <ele>1285.951324799</ele>
        <time>2015-05-06T11:52:16Z</time>
      </trkpt>
      <trkpt lat="45.45692" lon="5.83157">
        <ele>1285.951324799</ele>
        <time>2015-05-06T11:52:21Z</time>
      </trkpt>
      <trkpt lat="45.45692" lon="5.83157">
        <ele>1285.951324799</ele>
        <time>2015-05-06T11:52:26Z</time>
      </trkpt>
      <trkpt lat="45.45692" lon="5.83157">
        <ele>1285.951324799</ele>
        <time>2015-05-06T11:52:31Z</time>
      </trkpt>
      <trkpt lat="45.45692" lon="5.83157">
        <ele>1285.951324799</ele>
        <time>2015-05-06T11:52:36Z</time>
      </trkpt>
      <trkpt lat="45.45692" lon="5.83157">
        <ele>1285.951324799</ele>
        <time>2015-05-06T11:52:41Z</time>
      </trkpt>
      <trkpt lat="45.4569" lon="5.83159">
        <ele>1285.951324799</ele>
        <time>2015-05-06T11:52:46Z</time>
      </trkpt>
      <trkpt lat="45.4569" lon="5.83157">
        <ele>1285.951324799</ele>
        <time>2015-05-06T11:52:51Z</time>
      </trkpt>
      <trkpt lat="45.45691" lon="5.83156">
        <ele>1285.951324799</ele>
        <time>2015-05-06T11:52:56Z</time>
      </trkpt>
      <trkpt lat="45.45691" lon="5.83157">
        <ele>1285.951324799</ele>
        <time>2015-05-06T11:53:01Z</time>
      </trkpt>
      <trkpt lat="45.45691" lon="5.83157">
        <ele>1285.951324799</ele>
        <time>2015-05-06T11:53:06Z</time>
      </trkpt>
      <trkpt lat="45.45691" lon="5.83157">
        <ele>1285.951324799</ele>
        <time>2015-05-06T11:53:11Z</time>
      </trkpt>
      <trkpt lat="45.45691" lon="5.83157">
        <ele>1285.951324799</ele>
        <time>2015-05-06T11:53:16Z</time>
      </trkpt>
      <trkpt lat="45.45691" lon="5.83157">
        <ele>1285.951324799</ele>
        <time>2015-05-06T11:53:21Z</time>
      </trkpt>
      <trkpt lat="45.45691" lon="5.83157">
        <ele>1285.951324799</ele>
        <time>2015-05-06T11:53:26Z</time>
      </trkpt>
      <trkpt lat="45.45691" lon="5.83157">
        <ele>1285.951324799</ele>
        <time>2015-05-06T11:53:31Z</time>
      </trkpt>
      <trkpt lat="45.45691" lon="5.83157">
        <ele>1285.951324799</ele>
        <time>2015-05-06T11:53:36Z</time>
      </trkpt>
      <trkpt lat="45.45691" lon="5.83157">
        <ele>1285.951324799</ele>
        <time>2015-05-06T11:53:41Z</time>
      </trkpt>
      <trkpt lat="45.45691" lon="5.83157">
        <ele>1285.951324799</ele>
        <time>2015-05-06T11:53:46Z</time>
      </trkpt>
      <trkpt lat="45.45691" lon="5.83157">
        <ele>1285.951324799</ele>
        <time>2015-05-06T11:53:51Z</time>
      </trkpt>
      <trkpt lat="45.45691" lon="5.83157">
        <ele>1285.951324799</ele>
        <time>2015-05-06T11:53:56Z</time>
      </trkpt>
      <trkpt lat="45.45693" lon="5.83154">
        <ele>1285.951324799</ele>
        <time>2015-05-06T11:54:01Z</time>
      </trkpt>
      <trkpt lat="45.45693" lon="5.83154">
        <ele>1288.677591605</ele>
        <time>2015-05-06T11:54:06Z</time>
      </trkpt>
      <trkpt lat="45.45693" lon="5.83153">
        <ele>1288.677591605</ele>
        <time>2015-05-06T11:54:11Z</time>
      </trkpt>
      <trkpt lat="45.45693" lon="5.83153">
        <ele>1288.677591605</ele>
        <time>2015-05-06T11:54:16Z</time>
      </trkpt>
      <trkpt lat="45.45693" lon="5.83153">
        <ele>1288.677591605</ele>
        <time>2015-05-06T11:54:21Z</time>
      </trkpt>
      <trkpt lat="45.45693" lon="5.83153">
        <ele>1288.677591605</ele>
        <time>2015-05-06T11:54:26Z</time>
      </trkpt>
      <trkpt lat="45.45693" lon="5.83153">
        <ele>1288.677591605</ele>
        <time>2015-05-06T11:54:31Z</time>
      </trkpt>
      <trkpt lat="45.45693" lon="5.83153">
        <ele>1288.677591605</ele>
        <time>2015-05-06T11:54:36Z</time>
      </trkpt>
      <trkpt lat="45.45693" lon="5.83153">
        <ele>1288.677591605</ele>
        <time>2015-05-06T11:54:40Z</time>
      </trkpt>
      <trkpt lat="45.45693" lon="5.83153">
        <ele>1288.677591605</ele>
        <time>2015-05-06T11:54:46Z</time>
      </trkpt>
      <trkpt lat="45.45693" lon="5.83153">
        <ele>1288.677591605</ele>
        <time>2015-05-06T11:54:51Z</time>
      </trkpt>
      <trkpt lat="45.45693" lon="5.83153">
        <ele>1288.677591605</ele>
        <time>2015-05-06T11:54:56Z</time>
      </trkpt>
      <trkpt lat="45.45693" lon="5.83153">
        <ele>1288.677591605</ele>
        <time>2015-05-06T11:55:01Z</time>
      </trkpt>
      <trkpt lat="45.45692" lon="5.83152">
        <ele>1288.677591605</ele>
        <time>2015-05-06T11:55:06Z</time>
      </trkpt>
      <trkpt lat="45.45688" lon="5.83151">
        <ele>1288.677591605</ele>
        <time>2015-05-06T11:55:11Z</time>
      </trkpt>
      <trkpt lat="45.45688" lon="5.83151">
        <ele>1288.677591605</ele>
        <time>2015-05-06T11:55:16Z</time>
      </trkpt>
      <trkpt lat="45.45688" lon="5.83151">
        <ele>1288.677591605</ele>
        <time>2015-05-06T11:55:21Z</time>
      </trkpt>
      <trkpt lat="45.45688" lon="5.83151">
        <ele>1288.677591605</ele>
        <time>2015-05-06T11:55:26Z</time>
      </trkpt>
      <trkpt lat="45.45688" lon="5.83151">
        <ele>1288.677591605</ele>
        <time>2015-05-06T11:55:31Z</time>
      </trkpt>
      <trkpt lat="45.45688" lon="5.83151">
        <ele>1288.677591605</ele>
        <time>2015-05-06T11:55:36Z</time>
      </trkpt>
      <trkpt lat="45.45688" lon="5.83151">
        <ele>1288.677591605</ele>
        <time>2015-05-06T11:55:41Z</time>
      </trkpt>
      <trkpt lat="45.45678" lon="5.83147">
        <ele>1290.903979615</ele>
        <time>2015-05-06T11:55:46Z</time>
      </trkpt>
      <trkpt lat="45.45663" lon="5.83144">
        <ele>1292.667114083</ele>
        <time>2015-05-06T11:55:51Z</time>
      </trkpt>
      <trkpt lat="45.45659" lon="5.83147">
        <ele>1292.667114083</ele>
        <time>2015-05-06T11:55:57Z</time>
      </trkpt>
      <trkpt lat="45.45656" lon="5.83144">
        <ele>1292.667114083</ele>
        <time>2015-05-06T11:56:01Z</time>
      </trkpt>
      <trkpt lat="45.45648" lon="5.83142">
        <ele>1294.722784911</ele>
        <time>2015-05-06T11:56:06Z</time>
      </trkpt>
      <trkpt lat="45.45643" lon="5.83138">
        <ele>1294.722784911</ele>
        <time>2015-05-06T11:56:11Z</time>
      </trkpt>
      <trkpt lat="45.4564" lon="5.83138">
        <ele>1294.722784911</ele>
        <time>2015-05-06T11:56:16Z</time>
      </trkpt>
      <trkpt lat="45.45644" lon="5.8314">
        <ele>1295.896994006</ele>
        <time>2015-05-06T11:56:21Z</time>
      </trkpt>
      <trkpt lat="45.45646" lon="5.83142">
        <ele>1295.896994006</ele>
        <time>2015-05-06T11:56:26Z</time>
      </trkpt>
      <trkpt lat="45.45644" lon="5.83142">
        <ele>1295.896994006</ele>
        <time>2015-05-06T11:56:31Z</time>
      </trkpt>
      <trkpt lat="45.45644" lon="5.83142">
        <ele>1295.896994006</ele>
        <time>2015-05-06T11:56:36Z</time>
      </trkpt>
      <trkpt lat="45.45644" lon="5.83143">
        <ele>1295.896994006</ele>
        <time>2015-05-06T11:56:41Z</time>
      </trkpt>
      <trkpt lat="45.45644" lon="5.83142">
        <ele>1295.896994006</ele>
        <time>2015-05-06T11:56:46Z</time>
      </trkpt>
      <trkpt lat="45.45644" lon="5.83142">
        <ele>1295.896994006</ele>
        <time>2015-05-06T11:56:51Z</time>
      </trkpt>
      <trkpt lat="45.45613" lon="5.83136">
        <ele>1298.707232911</ele>
        <time>2015-05-06T11:56:56Z</time>
      </trkpt>
      <trkpt lat="45.45604" lon="5.83134">
        <ele>1298.707232911</ele>
        <time>2015-05-06T11:57:00Z</time>
      </trkpt>
      <trkpt lat="45.45602" lon="5.83137">
        <ele>1301.590464547</ele>
        <time>2015-05-06T11:57:05Z</time>
      </trkpt>
      <trkpt lat="45.45596" lon="5.83133">
        <ele>1301.590464547</ele>
        <time>2015-05-06T11:57:11Z</time>
      </trkpt>
      <trkpt lat="45.45593" lon="5.83137">
        <ele>1304.395264614</ele>
        <time>2015-05-06T11:57:16Z</time>
      </trkpt>
      <trkpt lat="45.45589" lon="5.83142">
        <ele>1304.395264614</ele>
        <time>2015-05-06T11:57:21Z</time>
      </trkpt>
      <trkpt lat="45.45585" lon="5.83142">
        <ele>1307.269775497</ele>
        <time>2015-05-06T11:57:26Z</time>
      </trkpt>
      <trkpt lat="45.45583" lon="5.8314">
        <ele>1307.269775497</ele>
        <time>2015-05-06T11:57:31Z</time>
      </trkpt>
      <trkpt lat="45.45582" lon="5.83141">
        <ele>1307.269775497</ele>
        <time>2015-05-06T11:57:36Z</time>
      </trkpt>
      <trkpt lat="45.45582" lon="5.83141">
        <ele>1307.269775497</ele>
        <time>2015-05-06T11:57:41Z</time>
      </trkpt>
      <trkpt lat="45.45582" lon="5.8314">
        <ele>1307.269775497</ele>
        <time>2015-05-06T11:57:46Z</time>
      </trkpt>
      <trkpt lat="45.45582" lon="5.8314">
        <ele>1307.269775497</ele>
        <time>2015-05-06T11:57:50Z</time>
      </trkpt>
      <trkpt lat="45.45582" lon="5.8314">
        <ele>1307.269775497</ele>
        <time>2015-05-06T11:57:56Z</time>
      </trkpt>
      <trkpt lat="45.45572" lon="5.83136">
        <ele>1309.198176935</ele>
        <time>2015-05-06T11:58:02Z</time>
      </trkpt>
      <trkpt lat="45.4557" lon="5.83135">
        <ele>1309.198176935</ele>
        <time>2015-05-06T11:58:06Z</time>
      </trkpt>
      <trkpt lat="45.45568" lon="5.83134">
        <ele>1309.198176935</ele>
        <time>2015-05-06T11:58:12Z</time>
      </trkpt>
      <trkpt lat="45.45566" lon="5.83133">
        <ele>1309.198176935</ele>
        <time>2015-05-06T11:58:16Z</time>
      </trkpt>
      <trkpt lat="45.45566" lon="5.83133">
        <ele>1309.198176935</ele>
        <time>2015-05-06T11:58:22Z</time>
      </trkpt>
      <trkpt lat="45.45545" lon="5.8313">
        <ele>1311.259488018</ele>
        <time>2015-05-06T11:58:26Z</time>
      </trkpt>
      <trkpt lat="45.45536" lon="5.83129">
        <ele>1311.259488018</ele>
        <time>2015-05-06T11:58:32Z</time>
      </trkpt>
      <trkpt lat="45.45535" lon="5.83126">
        <ele>1313.58843237</ele>
        <time>2015-05-06T11:58:36Z</time>
      </trkpt>
      <trkpt lat="45.45526" lon="5.83128">
        <ele>1316.020872327</ele>
        <time>2015-05-06T11:58:42Z</time>
      </trkpt>
      <trkpt lat="45.45524" lon="5.83129">
        <ele>1316.020872327</ele>
        <time>2015-05-06T11:58:46Z</time>
      </trkpt>
      <trkpt lat="45.45525" lon="5.83131">
        <ele>1316.020872327</ele>
        <time>2015-05-06T11:58:52Z</time>
      </trkpt>
      <trkpt lat="45.45523" lon="5.83133">
        <ele>1316.020872327</ele>
        <time>2015-05-06T11:58:56Z</time>
      </trkpt>
      <trkpt lat="45.45523" lon="5.83134">
        <ele>1316.020872327</ele>
        <time>2015-05-06T11:59:02Z</time>
      </trkpt>
      <trkpt lat="45.45523" lon="5.83134">
        <ele>1316.020872327</ele>
        <time>2015-05-06T11:59:06Z</time>
      </trkpt>
      <trkpt lat="45.45502" lon="5.83134">
        <ele>1318.548556928</ele>
        <time>2015-05-06T11:59:12Z</time>
      </trkpt>
      <trkpt lat="45.45495" lon="5.8314">
        <ele>1318.548556928</ele>
        <time>2015-05-06T11:59:16Z</time>
      </trkpt>
      <trkpt lat="45.45499" lon="5.83159">
        <ele>1321.019472189</ele>
        <time>2015-05-06T11:59:22Z</time>
      </trkpt>
      <trkpt lat="45.45501" lon="5.83153">
        <ele>1321.019472189</ele>
        <time>2015-05-06T11:59:26Z</time>
      </trkpt>
      <trkpt lat="45.455" lon="5.83153">
        <ele>1321.019472189</ele>
        <time>2015-05-06T11:59:32Z</time>
      </trkpt>
      <trkpt lat="45.45499" lon="5.83153">
        <ele>1321.019472189</ele>
        <time>2015-05-06T11:59:36Z</time>
      </trkpt>
      <trkpt lat="45.45499" lon="5.83153">
        <ele>1321.019472189</ele>
        <time>2015-05-06T11:59:41Z</time>
      </trkpt>
      <trkpt lat="45.45499" lon="5.83153">
        <ele>1321.019472189</ele>
        <time>2015-05-06T11:59:46Z</time>
      </trkpt>
      <trkpt lat="45.45499" lon="5.83153">
        <ele>1321.019472189</ele>
        <time>2015-05-06T11:59:51Z</time>
      </trkpt>
      <trkpt lat="45.45499" lon="5.83153">
        <ele>1321.019472189</ele>
        <time>2015-05-06T11:59:57Z</time>
      </trkpt>
      <trkpt lat="45.45499" lon="5.83153">
        <ele>1321.019472189</ele>
        <time>2015-05-06T12:00:01Z</time>
      </trkpt>
      <trkpt lat="45.45499" lon="5.83153">
        <ele>1321.019472189</ele>
        <time>2015-05-06T12:00:07Z</time>
      </trkpt>
      <trkpt lat="45.45499" lon="5.83153">
        <ele>1321.019472189</ele>
        <time>2015-05-06T12:00:11Z</time>
      </trkpt>
      <trkpt lat="45.45499" lon="5.83153">
        <ele>1321.019472189</ele>
        <time>2015-05-06T12:00:17Z</time>
      </trkpt>
      <trkpt lat="45.45499" lon="5.83153">
        <ele>1321.019472189</ele>
        <time>2015-05-06T12:00:21Z</time>
      </trkpt>
      <trkpt lat="45.45504" lon="5.83152">
        <ele>1323.1488291</ele>
        <time>2015-05-06T12:00:27Z</time>
      </trkpt>
      <trkpt lat="45.45509" lon="5.83154">
        <ele>1323.1488291</ele>
        <time>2015-05-06T12:00:31Z</time>
      </trkpt>
      <trkpt lat="45.45512" lon="5.83153">
        <ele>1323.1488291</ele>
        <time>2015-05-06T12:00:37Z</time>
      </trkpt>
      <trkpt lat="45.45513" lon="5.83151">
        <ele>1326.2589523</ele>
        <time>2015-05-06T12:00:41Z</time>
      </trkpt>
      <trkpt lat="45.45514" lon="5.83151">
        <ele>1326.2589523</ele>
        <time>2015-05-06T12:00:46Z</time>
      </trkpt>
      <trkpt lat="45.45514" lon="5.83152">
        <ele>1326.2589523</ele>
        <time>2015-05-06T12:00:51Z</time>
      </trkpt>
      <trkpt lat="45.45514" lon="5.83152">
        <ele>1326.2589523</ele>
        <time>2015-05-06T12:00:56Z</time>
      </trkpt>
      <trkpt lat="45.45514" lon="5.83152">
        <ele>1326.2589523</ele>
        <time>2015-05-06T12:01:02Z</time>
      </trkpt>
      <trkpt lat="45.45527" lon="5.83158">
        <ele>1327.969511116</ele>
        <time>2015-05-06T12:01:06Z</time>
      </trkpt>
      <trkpt lat="45.45535" lon="5.83159">
        <ele>1327.969511116</ele>
        <time>2015-05-06T12:01:12Z</time>
      </trkpt>
      <trkpt lat="45.4554" lon="5.8316">
        <ele>1330.114084063</ele>
        <time>2015-05-06T12:01:16Z</time>
      </trkpt>
      <trkpt lat="45.45546" lon="5.83161">
        <ele>1330.114084063</ele>
        <time>2015-05-06T12:01:22Z</time>
      </trkpt>
      <trkpt lat="45.45552" lon="5.83162">
        <ele>1332.084571584</ele>
        <time>2015-05-06T12:01:26Z</time>
      </trkpt>
      <trkpt lat="45.45557" lon="5.83172">
        <ele>1332.084571584</ele>
        <time>2015-05-06T12:01:32Z</time>
      </trkpt>
      <trkpt lat="45.45564" lon="5.83168">
        <ele>1334.326821817</ele>
        <time>2015-05-06T12:01:36Z</time>
      </trkpt>
      <trkpt lat="45.45566" lon="5.83178">
        <ele>1334.326821817</ele>
        <time>2015-05-06T12:01:42Z</time>
      </trkpt>
      <trkpt lat="45.45568" lon="5.8318">
        <ele>1336.676732664</ele>
        <time>2015-05-06T12:01:46Z</time>
      </trkpt>
      <trkpt lat="45.45569" lon="5.83182">
        <ele>1336.676732664</ele>
        <time>2015-05-06T12:01:52Z</time>
      </trkpt>
      <trkpt lat="45.45571" lon="5.83171">
        <ele>1339.55840808</ele>
        <time>2015-05-06T12:01:56Z</time>
      </trkpt>
      <trkpt lat="45.45575" lon="5.83181">
        <ele>1339.55840808</ele>
        <time>2015-05-06T12:02:02Z</time>
      </trkpt>
      <trkpt lat="45.45577" lon="5.83178">
        <ele>1341.489868805</ele>
        <time>2015-05-06T12:02:06Z</time>
      </trkpt>
      <trkpt lat="45.45577" lon="5.83181">
        <ele>1341.489868805</ele>
        <time>2015-05-06T12:02:12Z</time>
      </trkpt>
      <trkpt lat="45.45577" lon="5.83181">
        <ele>1341.489868805</ele>
        <time>2015-05-06T12:02:16Z</time>
      </trkpt>
      <trkpt lat="45.45577" lon="5.83181">
        <ele>1341.489868805</ele>
        <time>2015-05-06T12:02:22Z</time>
      </trkpt>
      <trkpt lat="45.45577" lon="5.83181">
        <ele>1341.489868805</ele>
        <time>2015-05-06T12:02:26Z</time>
      </trkpt>
      <trkpt lat="45.45577" lon="5.83181">
        <ele>1341.489868805</ele>
        <time>2015-05-06T12:02:32Z</time>
      </trkpt>
      <trkpt lat="45.45581" lon="5.83189">
        <ele>1343.262341878</ele>
        <time>2015-05-06T12:02:36Z</time>
      </trkpt>
      <trkpt lat="45.45589" lon="5.832">
        <ele>1345.032939194</ele>
        <time>2015-05-06T12:02:42Z</time>
      </trkpt>
      <trkpt lat="45.45593" lon="5.83199">
        <ele>1345.032939194</ele>
        <time>2015-05-06T12:02:46Z</time>
      </trkpt>
      <trkpt lat="45.45603" lon="5.83198">
        <ele>1346.803129294</ele>
        <time>2015-05-06T12:02:52Z</time>
      </trkpt>
      <trkpt lat="45.45604" lon="5.83196">
        <ele>1346.803129294</ele>
        <time>2015-05-06T12:02:56Z</time>
      </trkpt>
      <trkpt lat="45.45606" lon="5.83195">
        <ele>1346.803129294</ele>
        <time>2015-05-06T12:03:02Z</time>
      </trkpt>
      <trkpt lat="45.45606" lon="5.83195">
        <ele>1346.803129294</ele>
        <time>2015-05-06T12:03:06Z</time>
      </trkpt>
      <trkpt lat="45.45606" lon="5.83195">
        <ele>1346.803129294</ele>
        <time>2015-05-06T12:03:12Z</time>
      </trkpt>
      <trkpt lat="45.45606" lon="5.83195">
        <ele>1346.803129294</ele>
        <time>2015-05-06T12:03:16Z</time>
      </trkpt>
      <trkpt lat="45.45606" lon="5.83195">
        <ele>1346.803129294</ele>
        <time>2015-05-06T12:03:22Z</time>
      </trkpt>
      <trkpt lat="45.45619" lon="5.83204">
        <ele>1348.430162366</ele>
        <time>2015-05-06T12:03:26Z</time>
      </trkpt>
      <trkpt lat="45.45626" lon="5.83205">
        <ele>1348.430162366</ele>
        <time>2015-05-06T12:03:32Z</time>
      </trkpt>
      <trkpt lat="45.45631" lon="5.83207">
        <ele>1350.79095107</ele>
        <time>2015-05-06T12:03:36Z</time>
      </trkpt>
      <trkpt lat="45.45633" lon="5.83202">
        <ele>1350.79095107</ele>
        <time>2015-05-06T12:03:42Z</time>
      </trkpt>
      <trkpt lat="45.45636" lon="5.83203">
        <ele>1350.79095107</ele>
        <time>2015-05-06T12:03:46Z</time>
      </trkpt>
      <trkpt lat="45.45636" lon="5.83204">
        <ele>1350.79095107</ele>
        <time>2015-05-06T12:03:51Z</time>
      </trkpt>
      <trkpt lat="45.45636" lon="5.83204">
        <ele>1350.79095107</ele>
        <time>2015-05-06T12:03:56Z</time>
      </trkpt>
      <trkpt lat="45.45636" lon="5.83204">
        <ele>1350.79095107</ele>
        <time>2015-05-06T12:04:02Z</time>
      </trkpt>
      <trkpt lat="45.45635" lon="5.83221">
        <ele>1353.543037702</ele>
        <time>2015-05-06T12:04:06Z</time>
      </trkpt>
      <trkpt lat="45.45634" lon="5.83229">
        <ele>1353.543037702</ele>
        <time>2015-05-06T12:04:12Z</time>
      </trkpt>
      <trkpt lat="45.45629" lon="5.83231">
        <ele>1356.368018916</ele>
        <time>2015-05-06T12:04:16Z</time>
      </trkpt>
      <trkpt lat="45.45624" lon="5.83225">
        <ele>1356.368018916</ele>
        <time>2015-05-06T12:04:22Z</time>
      </trkpt>
      <trkpt lat="45.45625" lon="5.83227">
        <ele>1356.368018916</ele>
        <time>2015-05-06T12:04:26Z</time>
      </trkpt>
      <trkpt lat="45.45624" lon="5.83228">
        <ele>1356.368018916</ele>
        <time>2015-05-06T12:04:32Z</time>
      </trkpt>
      <trkpt lat="45.45623" lon="5.83229">
        <ele>1358.970674158</ele>
        <time>2015-05-06T12:04:36Z</time>
      </trkpt>
      <trkpt lat="45.45623" lon="5.83229">
        <ele>1358.970674158</ele>
        <time>2015-05-06T12:04:42Z</time>
      </trkpt>
      <trkpt lat="45.45623" lon="5.83229">
        <ele>1358.970674158</ele>
        <time>2015-05-06T12:04:46Z</time>
      </trkpt>
      <trkpt lat="45.45623" lon="5.83229">
        <ele>1358.970674158</ele>
        <time>2015-05-06T12:04:52Z</time>
      </trkpt>
      <trkpt lat="45.45623" lon="5.8323">
        <ele>1358.970674158</ele>
        <time>2015-05-06T12:04:56Z</time>
      </trkpt>
      <trkpt lat="45.45622" lon="5.83229">
        <ele>1358.970674158</ele>
        <time>2015-05-06T12:05:02Z</time>
      </trkpt>
      <trkpt lat="45.45618" lon="5.8323">
        <ele>1358.970674158</ele>
        <time>2015-05-06T12:05:06Z</time>
      </trkpt>
      <trkpt lat="45.45615" lon="5.83237">
        <ele>1360.789870854</ele>
        <time>2015-05-06T12:05:12Z</time>
      </trkpt>
      <trkpt lat="45.45611" lon="5.83235">
        <ele>1360.789870854</ele>
        <time>2015-05-06T12:05:16Z</time>
      </trkpt>
      <trkpt lat="45.45607" lon="5.83239">
        <ele>1363.037230696</ele>
        <time>2015-05-06T12:05:22Z</time>
      </trkpt>
      <trkpt lat="45.45603" lon="5.8324">
        <ele>1363.037230696</ele>
        <time>2015-05-06T12:05:26Z</time>
      </trkpt>
      <trkpt lat="45.45604" lon="5.83249">
        <ele>1364.384280333</ele>
        <time>2015-05-06T12:05:32Z</time>
      </trkpt>
      <trkpt lat="45.45595" lon="5.83238">
        <ele>1365.620214831</ele>
        <time>2015-05-06T12:05:36Z</time>
      </trkpt>
      <trkpt lat="45.45592" lon="5.83238">
        <ele>1365.620214831</ele>
        <time>2015-05-06T12:05:41Z</time>
      </trkpt>
      <trkpt lat="45.4559" lon="5.83237">
        <ele>1365.620214831</ele>
        <time>2015-05-06T12:05:47Z</time>
      </trkpt>
      <trkpt lat="45.45585" lon="5.83238">
        <ele>1367.188337693</ele>
        <time>2015-05-06T12:05:51Z</time>
      </trkpt>
      <trkpt lat="45.45584" lon="5.83237">
        <ele>1367.188337693</ele>
        <time>2015-05-06T12:05:56Z</time>
      </trkpt>
      <trkpt lat="45.4558" lon="5.83237">
        <ele>1367.188337693</ele>
        <time>2015-05-06T12:06:02Z</time>
      </trkpt>
      <trkpt lat="45.45575" lon="5.83234">
        <ele>1369.066110286</ele>
        <time>2015-05-06T12:06:06Z</time>
      </trkpt>
      <trkpt lat="45.45575" lon="5.83237">
        <ele>1369.066110286</ele>
        <time>2015-05-06T12:06:12Z</time>
      </trkpt>
      <trkpt lat="45.45567" lon="5.83235">
        <ele>1370.511207739</ele>
        <time>2015-05-06T12:06:16Z</time>
      </trkpt>
      <trkpt lat="45.45566" lon="5.83239">
        <ele>1370.511207739</ele>
        <time>2015-05-06T12:06:22Z</time>
      </trkpt>
      <trkpt lat="45.45564" lon="5.83237">
        <ele>1370.511207739</ele>
        <time>2015-05-06T12:06:26Z</time>
      </trkpt>
      <trkpt lat="45.45561" lon="5.83239">
        <ele>1370.511207739</ele>
        <time>2015-05-06T12:06:32Z</time>
      </trkpt>
      <trkpt lat="45.45561" lon="5.83239">
        <ele>1371.701694388</ele>
        <time>2015-05-06T12:06:36Z</time>
      </trkpt>
      <trkpt lat="45.45559" lon="5.83239">
        <ele>1371.701694388</ele>
        <time>2015-05-06T12:06:42Z</time>
      </trkpt>
      <trkpt lat="45.45549" lon="5.83239">
        <ele>1372.947352658</ele>
        <time>2015-05-06T12:06:46Z</time>
      </trkpt>
      <trkpt lat="45.45544" lon="5.83235">
        <ele>1372.947352658</ele>
        <time>2015-05-06T12:06:50Z</time>
      </trkpt>
      <trkpt lat="45.45535" lon="5.83231">
        <ele>1374.823245367</ele>
        <time>2015-05-06T12:06:57Z</time>
      </trkpt>
      <trkpt lat="45.45529" lon="5.83228">
        <ele>1374.823245367</ele>
        <time>2015-05-06T12:07:01Z</time>
      </trkpt>
      <trkpt lat="45.45529" lon="5.83237">
        <ele>1376.275165625</ele>
        <time>2015-05-06T12:07:07Z</time>
      </trkpt>
      <trkpt lat="45.45523" lon="5.83235">
        <ele>1376.275165625</ele>
        <time>2015-05-06T12:07:11Z</time>
      </trkpt>
      <trkpt lat="45.45525" lon="5.83237">
        <ele>1376.275165625</ele>
        <time>2015-05-06T12:07:17Z</time>
      </trkpt>
      <trkpt lat="45.45524" lon="5.83237">
        <ele>1378.921501857</ele>
        <time>2015-05-06T12:07:21Z</time>
      </trkpt>
      <trkpt lat="45.45525" lon="5.83237">
        <ele>1378.921501857</ele>
        <time>2015-05-06T12:07:27Z</time>
      </trkpt>
      <trkpt lat="45.45525" lon="5.83237">
        <ele>1378.921501857</ele>
        <time>2015-05-06T12:07:31Z</time>
      </trkpt>
      <trkpt lat="45.4552" lon="5.83237">
        <ele>1378.921501857</ele>
        <time>2015-05-06T12:07:37Z</time>
      </trkpt>
      <trkpt lat="45.45508" lon="5.83237">
        <ele>1381.376146711</ele>
        <time>2015-05-06T12:07:41Z</time>
      </trkpt>
      <trkpt lat="45.45503" lon="5.8324">
        <ele>1381.376146711</ele>
        <time>2015-05-06T12:07:46Z</time>
      </trkpt>
      <trkpt lat="45.45493" lon="5.83241">
        <ele>1383.508208945</ele>
        <time>2015-05-06T12:07:52Z</time>
      </trkpt>
      <trkpt lat="45.45486" lon="5.83246">
        <ele>1383.508208945</ele>
        <time>2015-05-06T12:07:56Z</time>
      </trkpt>
      <trkpt lat="45.45482" lon="5.83249">
        <ele>1385.34139769</ele>
        <time>2015-05-06T12:08:02Z</time>
      </trkpt>
      <trkpt lat="45.45481" lon="5.83251">
        <ele>1385.34139769</ele>
        <time>2015-05-06T12:08:06Z</time>
      </trkpt>
      <trkpt lat="45.45474" lon="5.83249">
        <ele>1387.474935851</ele>
        <time>2015-05-06T12:08:12Z</time>
      </trkpt>
      <trkpt lat="45.45468" lon="5.83248">
        <ele>1387.474935851</ele>
        <time>2015-05-06T12:08:16Z</time>
      </trkpt>
      <trkpt lat="45.45461" lon="5.83249">
        <ele>1389.598492505</ele>
        <time>2015-05-06T12:08:22Z</time>
      </trkpt>
      <trkpt lat="45.45455" lon="5.83248">
        <ele>1389.598492505</ele>
        <time>2015-05-06T12:08:26Z</time>
      </trkpt>
      <trkpt lat="45.4545" lon="5.83251">
        <ele>1390.992202456</ele>
        <time>2015-05-06T12:08:32Z</time>
      </trkpt>
      <trkpt lat="45.4545" lon="5.83251">
        <ele>1390.992202456</ele>
        <time>2015-05-06T12:08:36Z</time>
      </trkpt>
      <trkpt lat="45.45445" lon="5.8325">
        <ele>1390.992202456</ele>
        <time>2015-05-06T12:08:42Z</time>
      </trkpt>
      <trkpt lat="45.45444" lon="5.83248">
        <ele>1390.992202456</ele>
        <time>2015-05-06T12:08:46Z</time>
      </trkpt>
      <trkpt lat="45.45445" lon="5.83245">
        <ele>1390.992202456</ele>
        <time>2015-05-06T12:08:52Z</time>
      </trkpt>
      <trkpt lat="45.45444" lon="5.83245">
        <ele>1392.864548765</ele>
        <time>2015-05-06T12:08:56Z</time>
      </trkpt>
      <trkpt lat="45.45444" lon="5.83245">
        <ele>1392.864548765</ele>
        <time>2015-05-06T12:09:02Z</time>
      </trkpt>
      <trkpt lat="45.45444" lon="5.83245">
        <ele>1392.864548765</ele>
        <time>2015-05-06T12:09:06Z</time>
      </trkpt>
      <trkpt lat="45.4543" lon="5.83238">
        <ele>1394.460426324</ele>
        <time>2015-05-06T12:09:12Z</time>
      </trkpt>
      <trkpt lat="45.45422" lon="5.8324">
        <ele>1394.460426324</ele>
        <time>2015-05-06T12:09:16Z</time>
      </trkpt>
      <trkpt lat="45.45415" lon="5.83244">
        <ele>1396.666171895</ele>
        <time>2015-05-06T12:09:22Z</time>
      </trkpt>
      <trkpt lat="45.45406" lon="5.83241">
        <ele>1398.427829578</ele>
        <time>2015-05-06T12:09:26Z</time>
      </trkpt>
      <trkpt lat="45.454" lon="5.83241">
        <ele>1398.427829578</ele>
        <time>2015-05-06T12:09:32Z</time>
      </trkpt>
      <trkpt lat="45.45393" lon="5.83239">
        <ele>1400.499420083</ele>
        <time>2015-05-06T12:09:36Z</time>
      </trkpt>
      <trkpt lat="45.45386" lon="5.83237">
        <ele>1400.499420083</ele>
        <time>2015-05-06T12:09:42Z</time>
      </trkpt>
      <trkpt lat="45.45386" lon="5.83238">
        <ele>1400.499420083</ele>
        <time>2015-05-06T12:09:46Z</time>
      </trkpt>
      <trkpt lat="45.45387" lon="5.83238">
        <ele>1400.499420083</ele>
        <time>2015-05-06T12:09:51Z</time>
      </trkpt>
      <trkpt lat="45.45388" lon="5.83239">
        <ele>1402.569901477</ele>
        <time>2015-05-06T12:09:57Z</time>
      </trkpt>
      <trkpt lat="45.45389" lon="5.83241">
        <ele>1402.569901477</ele>
        <time>2015-05-06T12:10:01Z</time>
      </trkpt>
      <trkpt lat="45.45389" lon="5.83242">
        <ele>1402.569901477</ele>
        <time>2015-05-06T12:10:07Z</time>
      </trkpt>
      <trkpt lat="45.45386" lon="5.8324">
        <ele>1402.569901477</ele>
        <time>2015-05-06T12:10:11Z</time>
      </trkpt>
      <trkpt lat="45.45386" lon="5.8324">
        <ele>1402.569901477</ele>
        <time>2015-05-06T12:10:17Z</time>
      </trkpt>
      <trkpt lat="45.45386" lon="5.8324">
        <ele>1402.569901477</ele>
        <time>2015-05-06T12:10:21Z</time>
      </trkpt>
      <trkpt lat="45.4537" lon="5.83239">
        <ele>1404.206948499</ele>
        <time>2015-05-06T12:10:27Z</time>
      </trkpt>
      <trkpt lat="45.45358" lon="5.83238">
        <ele>1405.875853301</ele>
        <time>2015-05-06T12:10:31Z</time>
      </trkpt>
      <trkpt lat="45.45348" lon="5.83235">
        <ele>1407.142947011</ele>
        <time>2015-05-06T12:10:37Z</time>
      </trkpt>
      <trkpt lat="45.45346" lon="5.83238">
        <ele>1407.142947011</ele>
        <time>2015-05-06T12:10:41Z</time>
      </trkpt>
      <trkpt lat="45.45347" lon="5.83239">
        <ele>1407.142947011</ele>
        <time>2015-05-06T12:10:47Z</time>
      </trkpt>
      <trkpt lat="45.45346" lon="5.83238">
        <ele>1407.142947011</ele>
        <time>2015-05-06T12:10:51Z</time>
      </trkpt>
      <trkpt lat="45.45346" lon="5.83238">
        <ele>1407.142947011</ele>
        <time>2015-05-06T12:10:57Z</time>
      </trkpt>
      <trkpt lat="45.45346" lon="5.83238">
        <ele>1407.142947011</ele>
        <time>2015-05-06T12:11:01Z</time>
      </trkpt>
      <trkpt lat="45.45346" lon="5.83238">
        <ele>1407.142947011</ele>
        <time>2015-05-06T12:11:07Z</time>
      </trkpt>
      <trkpt lat="45.45334" lon="5.83233">
        <ele>1408.039851377</ele>
        <time>2015-05-06T12:11:11Z</time>
      </trkpt>
      <trkpt lat="45.45329" lon="5.83231">
        <ele>1408.039851377</ele>
        <time>2015-05-06T12:11:17Z</time>
      </trkpt>
      <trkpt lat="45.45328" lon="5.83229">
        <ele>1408.039851377</ele>
        <time>2015-05-06T12:11:21Z</time>
      </trkpt>
      <trkpt lat="45.45327" lon="5.83227">
        <ele>1408.039851377</ele>
        <time>2015-05-06T12:11:27Z</time>
      </trkpt>
      <trkpt lat="45.45326" lon="5.83227">
        <ele>1408.039851377</ele>
        <time>2015-05-06T12:11:31Z</time>
      </trkpt>
      <trkpt lat="45.45324" lon="5.83226">
        <ele>1409.461540362</ele>
        <time>2015-05-06T12:11:37Z</time>
      </trkpt>
      <trkpt lat="45.45317" lon="5.83225">
        <ele>1409.461540362</ele>
        <time>2015-05-06T12:11:41Z</time>
      </trkpt>
      <trkpt lat="45.45308" lon="5.83221">
        <ele>1410.362291357</ele>
        <time>2015-05-06T12:11:46Z</time>
      </trkpt>
      <trkpt lat="45.45302" lon="5.83215">
        <ele>1410.362291357</ele>
        <time>2015-05-06T12:11:52Z</time>
      </trkpt>
      <trkpt lat="45.45307" lon="5.83213">
        <ele>1411.359844283</ele>
        <time>2015-05-06T12:11:56Z</time>
      </trkpt>
      <trkpt lat="45.45307" lon="5.83212">
        <ele>1411.359844283</ele>
        <time>2015-05-06T12:12:01Z</time>
      </trkpt>
      <trkpt lat="45.45306" lon="5.83209">
        <ele>1411.359844283</ele>
        <time>2015-05-06T12:12:07Z</time>
      </trkpt>
      <trkpt lat="45.45308" lon="5.83206">
        <ele>1411.359844283</ele>
        <time>2015-05-06T12:12:11Z</time>
      </trkpt>
      <trkpt lat="45.45309" lon="5.83206">
        <ele>1411.359844283</ele>
        <time>2015-05-06T12:12:17Z</time>
      </trkpt>
      <trkpt lat="45.45309" lon="5.83206">
        <ele>1411.359844283</ele>
        <time>2015-05-06T12:12:21Z</time>
      </trkpt>
      <trkpt lat="45.45309" lon="5.83206">
        <ele>1411.359844283</ele>
        <time>2015-05-06T12:12:27Z</time>
      </trkpt>
      <trkpt lat="45.45309" lon="5.83206">
        <ele>1411.359844283</ele>
        <time>2015-05-06T12:12:31Z</time>
      </trkpt>
      <trkpt lat="45.45309" lon="5.83206">
        <ele>1411.359844283</ele>
        <time>2015-05-06T12:12:37Z</time>
      </trkpt>
      <trkpt lat="45.45309" lon="5.83206">
        <ele>1411.359844283</ele>
        <time>2015-05-06T12:12:41Z</time>
      </trkpt>
      <trkpt lat="45.45312" lon="5.8321">
        <ele>1413.170356626</ele>
        <time>2015-05-06T12:12:46Z</time>
      </trkpt>
      <trkpt lat="45.45316" lon="5.8322">
        <ele>1413.170356626</ele>
        <time>2015-05-06T12:12:50Z</time>
      </trkpt>
      <trkpt lat="45.45323" lon="5.83231">
        <ele>1414.581605655</ele>
        <time>2015-05-06T12:12:57Z</time>
      </trkpt>
      <trkpt lat="45.4533" lon="5.83234">
        <ele>1414.581605655</ele>
        <time>2015-05-06T12:13:01Z</time>
      </trkpt>
      <trkpt lat="45.4533" lon="5.8323">
        <ele>1417.06549302</ele>
        <time>2015-05-06T12:13:07Z</time>
      </trkpt>
      <trkpt lat="45.45333" lon="5.83225">
        <ele>1417.06549302</ele>
        <time>2015-05-06T12:13:11Z</time>
      </trkpt>
      <trkpt lat="45.45333" lon="5.83229">
        <ele>1417.06549302</ele>
        <time>2015-05-06T12:13:17Z</time>
      </trkpt>
      <trkpt lat="45.45334" lon="5.8323">
        <ele>1417.06549302</ele>
        <time>2015-05-06T12:13:21Z</time>
      </trkpt>
      <trkpt lat="45.45334" lon="5.8323">
        <ele>1419.244630358</ele>
        <time>2015-05-06T12:13:27Z</time>
      </trkpt>
      <trkpt lat="45.45334" lon="5.8323">
        <ele>1419.244630358</ele>
        <time>2015-05-06T12:13:31Z</time>
      </trkpt>
      <trkpt lat="45.45342" lon="5.83245">
        <ele>1421.717072442</ele>
        <time>2015-05-06T12:13:37Z</time>
      </trkpt>
      <trkpt lat="45.4535" lon="5.8325">
        <ele>1424.027306759</ele>
        <time>2015-05-06T12:13:41Z</time>
      </trkpt>
      <trkpt lat="45.45351" lon="5.83257">
        <ele>1424.027306759</ele>
        <time>2015-05-06T12:13:47Z</time>
      </trkpt>
      <trkpt lat="45.45351" lon="5.83256">
        <ele>1424.027306759</ele>
        <time>2015-05-06T12:13:51Z</time>
      </trkpt>
      <trkpt lat="45.45353" lon="5.83256">
        <ele>1424.027306759</ele>
        <time>2015-05-06T12:13:57Z</time>
      </trkpt>
      <trkpt lat="45.45354" lon="5.83256">
        <ele>1424.027306759</ele>
        <time>2015-05-06T12:14:01Z</time>
      </trkpt>
      <trkpt lat="45.45354" lon="5.83256">
        <ele>1424.027306759</ele>
        <time>2015-05-06T12:14:07Z</time>
      </trkpt>
      <trkpt lat="45.45354" lon="5.83256">
        <ele>1424.027306759</ele>
        <time>2015-05-06T12:14:11Z</time>
      </trkpt>
      <trkpt lat="45.45354" lon="5.83256">
        <ele>1424.027306759</ele>
        <time>2015-05-06T12:14:17Z</time>
      </trkpt>
      <trkpt lat="45.45354" lon="5.83256">
        <ele>1424.027306759</ele>
        <time>2015-05-06T12:14:21Z</time>
      </trkpt>
      <trkpt lat="45.45354" lon="5.83256">
        <ele>1424.027306759</ele>
        <time>2015-05-06T12:14:27Z</time>
      </trkpt>
      <trkpt lat="45.4536" lon="5.83265">
        <ele>1425.897820789</ele>
        <time>2015-05-06T12:14:31Z</time>
      </trkpt>
      <trkpt lat="45.45364" lon="5.83269">
        <ele>1425.897820789</ele>
        <time>2015-05-06T12:14:37Z</time>
      </trkpt>
      <trkpt lat="45.45365" lon="5.8327">
        <ele>1425.897820789</ele>
        <time>2015-05-06T12:14:41Z</time>
      </trkpt>
      <trkpt lat="45.45365" lon="5.83268">
        <ele>1425.897820789</ele>
        <time>2015-05-06T12:14:47Z</time>
      </trkpt>
      <trkpt lat="45.45365" lon="5.83268">
        <ele>1425.897820789</ele>
        <time>2015-05-06T12:14:51Z</time>
      </trkpt>
      <trkpt lat="45.45366" lon="5.83268">
        <ele>1425.897820789</ele>
        <time>2015-05-06T12:14:57Z</time>
      </trkpt>
      <trkpt lat="45.45373" lon="5.83277">
        <ele>1428.081476844</ele>
        <time>2015-05-06T12:15:01Z</time>
      </trkpt>
      <trkpt lat="45.45376" lon="5.83283">
        <ele>1428.081476844</ele>
        <time>2015-05-06T12:15:07Z</time>
      </trkpt>
      <trkpt lat="45.45376" lon="5.83278">
        <ele>1428.081476844</ele>
        <time>2015-05-06T12:15:11Z</time>
      </trkpt>
      <trkpt lat="45.45379" lon="5.83278">
        <ele>1430.266157392</ele>
        <time>2015-05-06T12:15:17Z</time>
      </trkpt>
      <trkpt lat="45.45385" lon="5.8328">
        <ele>1430.266157392</ele>
        <time>2015-05-06T12:15:21Z</time>
      </trkpt>
      <trkpt lat="45.45388" lon="5.83283">
        <ele>1432.162654749</ele>
        <time>2015-05-06T12:15:27Z</time>
      </trkpt>
      <trkpt lat="45.4539" lon="5.83281">
        <ele>1432.162654749</ele>
        <time>2015-05-06T12:15:31Z</time>
      </trkpt>
      <trkpt lat="45.45397" lon="5.83285">
        <ele>1434.512581</ele>
        <time>2015-05-06T12:15:37Z</time>
      </trkpt>
      <trkpt lat="45.454" lon="5.83291">
        <ele>1434.512581</ele>
        <time>2015-05-06T12:15:41Z</time>
      </trkpt>
      <trkpt lat="45.45403" lon="5.83294">
        <ele>1434.512581</ele>
        <time>2015-05-06T12:15:46Z</time>
      </trkpt>
      <trkpt lat="45.45406" lon="5.83302">
        <ele>1436.272454567</ele>
        <time>2015-05-06T12:15:50Z</time>
      </trkpt>
      <trkpt lat="45.45411" lon="5.83306">
        <ele>1436.272454567</ele>
        <time>2015-05-06T12:15:56Z</time>
      </trkpt>
      <trkpt lat="45.45417" lon="5.8331">
        <ele>1437.629984024</ele>
        <time>2015-05-06T12:16:00Z</time>
      </trkpt>
      <trkpt lat="45.45417" lon="5.83311">
        <ele>1437.629984024</ele>
        <time>2015-05-06T12:16:06Z</time>
      </trkpt>
      <trkpt lat="45.45417" lon="5.83311">
        <ele>1437.629984024</ele>
        <time>2015-05-06T12:16:11Z</time>
      </trkpt>
      <trkpt lat="45.4542" lon="5.83312">
        <ele>1437.629984024</ele>
        <time>2015-05-06T12:16:17Z</time>
      </trkpt>
      <trkpt lat="45.45421" lon="5.83317">
        <ele>1437.629984024</ele>
        <time>2015-05-06T12:16:21Z</time>
      </trkpt>
      <trkpt lat="45.45422" lon="5.8332">
        <ele>1439.048432094</ele>
        <time>2015-05-06T12:16:27Z</time>
      </trkpt>
      <trkpt lat="45.45426" lon="5.83319">
        <ele>1439.048432094</ele>
        <time>2015-05-06T12:16:31Z</time>
      </trkpt>
      <trkpt lat="45.4543" lon="5.83325">
        <ele>1440.380405642</ele>
        <time>2015-05-06T12:16:37Z</time>
      </trkpt>
      <trkpt lat="45.45432" lon="5.83331">
        <ele>1440.380405642</ele>
        <time>2015-05-06T12:16:42Z</time>
      </trkpt>
      <trkpt lat="45.45437" lon="5.83326">
        <ele>1441.48956904</ele>
        <time>2015-05-06T12:16:46Z</time>
      </trkpt>
      <trkpt lat="45.45441" lon="5.83336">
        <ele>1441.48956904</ele>
        <time>2015-05-06T12:16:51Z</time>
      </trkpt>
      <trkpt lat="45.45446" lon="5.8334">
        <ele>1442.106098483</ele>
        <time>2015-05-06T12:16:56Z</time>
      </trkpt>
      <trkpt lat="45.45444" lon="5.83337">
        <ele>1442.106098483</ele>
        <time>2015-05-06T12:17:02Z</time>
      </trkpt>
      <trkpt lat="45.45448" lon="5.83336">
        <ele>1442.106098483</ele>
        <time>2015-05-06T12:17:06Z</time>
      </trkpt>
      <trkpt lat="45.45452" lon="5.83337">
        <ele>1442.701906373</ele>
        <time>2015-05-06T12:17:12Z</time>
      </trkpt>
      <trkpt lat="45.45456" lon="5.8334">
        <ele>1442.701906373</ele>
        <time>2015-05-06T12:17:16Z</time>
      </trkpt>
      <trkpt lat="45.45459" lon="5.83344">
        <ele>1443.281933954</ele>
        <time>2015-05-06T12:17:22Z</time>
      </trkpt>
      <trkpt lat="45.45464" lon="5.83345">
        <ele>1443.281933954</ele>
        <time>2015-05-06T12:17:26Z</time>
      </trkpt>
      <trkpt lat="45.45469" lon="5.83346">
        <ele>1444.138989777</ele>
        <time>2015-05-06T12:17:32Z</time>
      </trkpt>
      <trkpt lat="45.45472" lon="5.83349">
        <ele>1444.138989777</ele>
        <time>2015-05-06T12:17:36Z</time>
      </trkpt>
      <trkpt lat="45.45475" lon="5.83349">
        <ele>1444.138989777</ele>
        <time>2015-05-06T12:17:42Z</time>
      </trkpt>
      <trkpt lat="45.45475" lon="5.83352">
        <ele>1444.138989777</ele>
        <time>2015-05-06T12:17:46Z</time>
      </trkpt>
      <trkpt lat="45.45475" lon="5.83353">
        <ele>1444.390662342</ele>
        <time>2015-05-06T12:17:52Z</time>
      </trkpt>
      <trkpt lat="45.45475" lon="5.83353">
        <ele>1444.390662342</ele>
        <time>2015-05-06T12:17:56Z</time>
      </trkpt>
      <trkpt lat="45.45477" lon="5.83354">
        <ele>1444.390662342</ele>
        <time>2015-05-06T12:18:02Z</time>
      </trkpt>
      <trkpt lat="45.4548" lon="5.83356">
        <ele>1444.390662342</ele>
        <time>2015-05-06T12:18:06Z</time>
      </trkpt>
      <trkpt lat="45.45482" lon="5.83359">
        <ele>1444.390662342</ele>
        <time>2015-05-06T12:18:12Z</time>
      </trkpt>
      <trkpt lat="45.45484" lon="5.83358">
        <ele>1445.23856589</ele>
        <time>2015-05-06T12:18:16Z</time>
      </trkpt>
      <trkpt lat="45.45487" lon="5.83363">
        <ele>1445.23856589</ele>
        <time>2015-05-06T12:18:22Z</time>
      </trkpt>
      <trkpt lat="45.4549" lon="5.83359">
        <ele>1447.361985057</ele>
        <time>2015-05-06T12:18:26Z</time>
      </trkpt>
      <trkpt lat="45.45492" lon="5.83361">
        <ele>1447.361985057</ele>
        <time>2015-05-06T12:18:32Z</time>
      </trkpt>
      <trkpt lat="45.45493" lon="5.83361">
        <ele>1447.361985057</ele>
        <time>2015-05-06T12:18:36Z</time>
      </trkpt>
      <trkpt lat="45.45493" lon="5.83359">
        <ele>1447.361985057</ele>
        <time>2015-05-06T12:18:42Z</time>
      </trkpt>
      <trkpt lat="45.45493" lon="5.83359">
        <ele>1447.361985057</ele>
        <time>2015-05-06T12:18:46Z</time>
      </trkpt>
      <trkpt lat="45.45493" lon="5.83359">
        <ele>1447.361985057</ele>
        <time>2015-05-06T12:18:52Z</time>
      </trkpt>
      <trkpt lat="45.45493" lon="5.83359">
        <ele>1447.361985057</ele>
        <time>2015-05-06T12:18:56Z</time>
      </trkpt>
      <trkpt lat="45.45493" lon="5.83359">
        <ele>1447.361985057</ele>
        <time>2015-05-06T12:19:02Z</time>
      </trkpt>
      <trkpt lat="45.45493" lon="5.83359">
        <ele>1447.361985057</ele>
        <time>2015-05-06T12:19:06Z</time>
      </trkpt>
      <trkpt lat="45.45493" lon="5.83359">
        <ele>1447.361985057</ele>
        <time>2015-05-06T12:19:11Z</time>
      </trkpt>
      <trkpt lat="45.45493" lon="5.83359">
        <ele>1447.361985057</ele>
        <time>2015-05-06T12:19:16Z</time>
      </trkpt>
      <trkpt lat="45.45493" lon="5.83359">
        <ele>1447.361985057</ele>
        <time>2015-05-06T12:19:22Z</time>
      </trkpt>
      <trkpt lat="45.45493" lon="5.83359">
        <ele>1447.361985057</ele>
        <time>2015-05-06T12:19:25Z</time>
      </trkpt>
      <trkpt lat="45.45493" lon="5.83359">
        <ele>1447.361985057</ele>
        <time>2015-05-06T12:19:31Z</time>
      </trkpt>
      <trkpt lat="45.45493" lon="5.83359">
        <ele>1447.361985057</ele>
        <time>2015-05-06T12:19:35Z</time>
      </trkpt>
      <trkpt lat="45.45495" lon="5.83355">
        <ele>1447.361985057</ele>
        <time>2015-05-06T12:19:42Z</time>
      </trkpt>
      <trkpt lat="45.45497" lon="5.83356">
        <ele>1449.657338299</ele>
        <time>2015-05-06T12:19:46Z</time>
      </trkpt>
      <trkpt lat="45.45498" lon="5.8336">
        <ele>1449.657338299</ele>
        <time>2015-05-06T12:19:52Z</time>
      </trkpt>
      <trkpt lat="45.45499" lon="5.83357">
        <ele>1449.657338299</ele>
        <time>2015-05-06T12:19:56Z</time>
      </trkpt>
      <trkpt lat="45.45499" lon="5.83357">
        <ele>1449.657338299</ele>
        <time>2015-05-06T12:20:02Z</time>
      </trkpt>
      <trkpt lat="45.45499" lon="5.83357">
        <ele>1449.657338299</ele>
        <time>2015-05-06T12:20:06Z</time>
      </trkpt>
      <trkpt lat="45.45499" lon="5.83357">
        <ele>1449.657338299</ele>
        <time>2015-05-06T12:20:12Z</time>
      </trkpt>
      <trkpt lat="45.45499" lon="5.83357">
        <ele>1449.657338299</ele>
        <time>2015-05-06T12:20:16Z</time>
      </trkpt>
      <trkpt lat="45.45499" lon="5.83357">
        <ele>1449.657338299</ele>
        <time>2015-05-06T12:20:22Z</time>
      </trkpt>
      <trkpt lat="45.45503" lon="5.83365">
        <ele>1451.822134585</ele>
        <time>2015-05-06T12:20:26Z</time>
      </trkpt>
      <trkpt lat="45.45505" lon="5.83364">
        <ele>1451.822134585</ele>
        <time>2015-05-06T12:20:32Z</time>
      </trkpt>
      <trkpt lat="45.45507" lon="5.83365">
        <ele>1451.822134585</ele>
        <time>2015-05-06T12:20:36Z</time>
      </trkpt>
      <trkpt lat="45.45507" lon="5.83367">
        <ele>1451.822134585</ele>
        <time>2015-05-06T12:20:41Z</time>
      </trkpt>
      <trkpt lat="45.45507" lon="5.83367">
        <ele>1451.822134585</ele>
        <time>2015-05-06T12:20:47Z</time>
      </trkpt>
      <trkpt lat="45.45507" lon="5.83367">
        <ele>1451.822134585</ele>
        <time>2015-05-06T12:20:51Z</time>
      </trkpt>
      <trkpt lat="45.45511" lon="5.83368">
        <ele>1454.585203878</ele>
        <time>2015-05-06T12:20:57Z</time>
      </trkpt>
      <trkpt lat="45.45513" lon="5.83367">
        <ele>1454.585203878</ele>
        <time>2015-05-06T12:21:01Z</time>
      </trkpt>
      <trkpt lat="45.45517" lon="5.83371">
        <ele>1454.585203878</ele>
        <time>2015-05-06T12:21:07Z</time>
      </trkpt>
      <trkpt lat="45.45522" lon="5.83375">
        <ele>1457.467234433</ele>
        <time>2015-05-06T12:21:11Z</time>
      </trkpt>
      <trkpt lat="45.45524" lon="5.83374">
        <ele>1457.467234433</ele>
        <time>2015-05-06T12:21:17Z</time>
      </trkpt>
      <trkpt lat="45.45525" lon="5.83371">
        <ele>1457.467234433</ele>
        <time>2015-05-06T12:21:21Z</time>
      </trkpt>
      <trkpt lat="45.45525" lon="5.8337">
        <ele>1457.467234433</ele>
        <time>2015-05-06T12:21:27Z</time>
      </trkpt>
      <trkpt lat="45.45525" lon="5.8337">
        <ele>1457.467234433</ele>
        <time>2015-05-06T12:21:31Z</time>
      </trkpt>
      <trkpt lat="45.45525" lon="5.8337">
        <ele>1457.467234433</ele>
        <time>2015-05-06T12:21:37Z</time>
      </trkpt>
      <trkpt lat="45.45529" lon="5.83372">
        <ele>1457.467234433</ele>
        <time>2015-05-06T12:21:41Z</time>
      </trkpt>
      <trkpt lat="45.45529" lon="5.83375">
        <ele>1460.744322981</ele>
        <time>2015-05-06T12:21:47Z</time>
      </trkpt>
      <trkpt lat="45.4553" lon="5.83379">
        <ele>1460.744322981</ele>
        <time>2015-05-06T12:21:51Z</time>
      </trkpt>
      <trkpt lat="45.4553" lon="5.83379">
        <ele>1460.744322981</ele>
        <time>2015-05-06T12:21:57Z</time>
      </trkpt>
      <trkpt lat="45.45526" lon="5.83383">
        <ele>1460.744322981</ele>
        <time>2015-05-06T12:22:01Z</time>
      </trkpt>
      <trkpt lat="45.45525" lon="5.83386">
        <ele>1464.382942857</ele>
        <time>2015-05-06T12:22:07Z</time>
      </trkpt>
      <trkpt lat="45.45523" lon="5.83388">
        <ele>1464.382942857</ele>
        <time>2015-05-06T12:22:11Z</time>
      </trkpt>
      <trkpt lat="45.45519" lon="5.83389">
        <ele>1464.382942857</ele>
        <time>2015-05-06T12:22:17Z</time>
      </trkpt>
      <trkpt lat="45.4552" lon="5.83387">
        <ele>1464.382942857</ele>
        <time>2015-05-06T12:22:21Z</time>
      </trkpt>
      <trkpt lat="45.4552" lon="5.83389">
        <ele>1464.382942857</ele>
        <time>2015-05-06T12:22:27Z</time>
      </trkpt>
      <trkpt lat="45.45519" lon="5.83392">
        <ele>1468.495131217</ele>
        <time>2015-05-06T12:22:31Z</time>
      </trkpt>
      <trkpt lat="45.45518" lon="5.83396">
        <ele>1468.495131217</ele>
        <time>2015-05-06T12:22:37Z</time>
      </trkpt>
      <trkpt lat="45.45519" lon="5.83395">
        <ele>1468.495131217</ele>
        <time>2015-05-06T12:22:41Z</time>
      </trkpt>
      <trkpt lat="45.45518" lon="5.83398">
        <ele>1468.495131217</ele>
        <time>2015-05-06T12:22:46Z</time>
      </trkpt>
      <trkpt lat="45.45518" lon="5.83398">
        <ele>1468.495131217</ele>
        <time>2015-05-06T12:22:51Z</time>
      </trkpt>
      <trkpt lat="45.45518" lon="5.83398">
        <ele>1468.495131217</ele>
        <time>2015-05-06T12:22:56Z</time>
      </trkpt>
      <trkpt lat="45.45518" lon="5.83398">
        <ele>1468.495131217</ele>
        <time>2015-05-06T12:23:01Z</time>
      </trkpt>
      <trkpt lat="45.45518" lon="5.83398">
        <ele>1468.495131217</ele>
        <time>2015-05-06T12:23:05Z</time>
      </trkpt>
      <trkpt lat="45.45518" lon="5.83398">
        <ele>1468.495131217</ele>
        <time>2015-05-06T12:23:12Z</time>
      </trkpt>
      <trkpt lat="45.45518" lon="5.83398">
        <ele>1468.495131217</ele>
        <time>2015-05-06T12:23:16Z</time>
      </trkpt>
      <trkpt lat="45.45518" lon="5.83398">
        <ele>1468.495131217</ele>
        <time>2015-05-06T12:23:21Z</time>
      </trkpt>
      <trkpt lat="45.45518" lon="5.83398">
        <ele>1468.495131217</ele>
        <time>2015-05-06T12:23:26Z</time>
      </trkpt>
      <trkpt lat="45.45518" lon="5.83399">
        <ele>1468.495131217</ele>
        <time>2015-05-06T12:23:32Z</time>
      </trkpt>
      <trkpt lat="45.45518" lon="5.83399">
        <ele>1468.495131217</ele>
        <time>2015-05-06T12:23:36Z</time>
      </trkpt>
      <trkpt lat="45.45518" lon="5.83399">
        <ele>1468.495131217</ele>
        <time>2015-05-06T12:23:42Z</time>
      </trkpt>
      <trkpt lat="45.45518" lon="5.83399">
        <ele>1468.495131217</ele>
        <time>2015-05-06T12:23:46Z</time>
      </trkpt>
      <trkpt lat="45.45518" lon="5.83399">
        <ele>1468.495131217</ele>
        <time>2015-05-06T12:23:52Z</time>
      </trkpt>
      <trkpt lat="45.45518" lon="5.83399">
        <ele>1468.495131217</ele>
        <time>2015-05-06T12:23:56Z</time>
      </trkpt>
      <trkpt lat="45.45518" lon="5.83399">
        <ele>1468.495131217</ele>
        <time>2015-05-06T12:24:02Z</time>
      </trkpt>
      <trkpt lat="45.45518" lon="5.83399">
        <ele>1468.495131217</ele>
        <time>2015-05-06T12:24:06Z</time>
      </trkpt>
      <trkpt lat="45.45518" lon="5.83399">
        <ele>1468.495131217</ele>
        <time>2015-05-06T12:24:12Z</time>
      </trkpt>
      <trkpt lat="45.45518" lon="5.83399">
        <ele>1468.495131217</ele>
        <time>2015-05-06T12:24:16Z</time>
      </trkpt>
      <trkpt lat="45.45518" lon="5.83399">
        <ele>1468.495131217</ele>
        <time>2015-05-06T12:24:22Z</time>
      </trkpt>
      <trkpt lat="45.45518" lon="5.83399">
        <ele>1468.495131217</ele>
        <time>2015-05-06T12:24:26Z</time>
      </trkpt>
      <trkpt lat="45.45518" lon="5.83399">
        <ele>1468.495131217</ele>
        <time>2015-05-06T12:24:32Z</time>
      </trkpt>
      <trkpt lat="45.45518" lon="5.83399">
        <ele>1468.495131217</ele>
        <time>2015-05-06T12:24:36Z</time>
      </trkpt>
      <trkpt lat="45.45518" lon="5.83399">
        <ele>1468.495131217</ele>
        <time>2015-05-06T12:24:42Z</time>
      </trkpt>
      <trkpt lat="45.45518" lon="5.83399">
        <ele>1468.495131217</ele>
        <time>2015-05-06T12:24:46Z</time>
      </trkpt>
      <trkpt lat="45.45518" lon="5.83399">
        <ele>1468.495131217</ele>
        <time>2015-05-06T12:24:51Z</time>
      </trkpt>
      <trkpt lat="45.45518" lon="5.83399">
        <ele>1468.495131217</ele>
        <time>2015-05-06T12:24:57Z</time>
      </trkpt>
      <trkpt lat="45.45518" lon="5.83399">
        <ele>1468.495131217</ele>
        <time>2015-05-06T12:25:01Z</time>
      </trkpt>
      <trkpt lat="45.45515" lon="5.83399">
        <ele>1468.495131217</ele>
        <time>2015-05-06T12:25:07Z</time>
      </trkpt>
      <trkpt lat="45.45513" lon="5.83401">
        <ele>1472.462830557</ele>
        <time>2015-05-06T12:25:11Z</time>
      </trkpt>
      <trkpt lat="45.45512" lon="5.83401">
        <ele>1472.462830557</ele>
        <time>2015-05-06T12:25:17Z</time>
      </trkpt>
      <trkpt lat="45.45512" lon="5.83402">
        <ele>1472.462830557</ele>
        <time>2015-05-06T12:25:21Z</time>
      </trkpt>
      <trkpt lat="45.45512" lon="5.83402">
        <ele>1472.462830557</ele>
        <time>2015-05-06T12:25:27Z</time>
      </trkpt>
      <trkpt lat="45.45512" lon="5.83402">
        <ele>1472.462830557</ele>
        <time>2015-05-06T12:25:31Z</time>
      </trkpt>
      <trkpt lat="45.45512" lon="5.83402">
        <ele>1472.462830557</ele>
        <time>2015-05-06T12:25:37Z</time>
      </trkpt>
      <trkpt lat="45.45512" lon="5.83402">
        <ele>1472.462830557</ele>
        <time>2015-05-06T12:25:41Z</time>
      </trkpt>
      <trkpt lat="45.45512" lon="5.83402">
        <ele>1472.462830557</ele>
        <time>2015-05-06T12:25:46Z</time>
      </trkpt>
      <trkpt lat="45.45512" lon="5.83403">
        <ele>1472.462830557</ele>
        <time>2015-05-06T12:25:52Z</time>
      </trkpt>
      <trkpt lat="45.45512" lon="5.83405">
        <ele>1472.462830557</ele>
        <time>2015-05-06T12:25:56Z</time>
      </trkpt>
      <trkpt lat="45.45511" lon="5.83405">
        <ele>1472.462830557</ele>
        <time>2015-05-06T12:26:02Z</time>
      </trkpt>
      <trkpt lat="45.4551" lon="5.83407">
        <ele>1472.462830557</ele>
        <time>2015-05-06T12:26:06Z</time>
      </trkpt>
      <trkpt lat="45.45509" lon="5.83407">
        <ele>1472.462830557</ele>
        <time>2015-05-06T12:26:12Z</time>
      </trkpt>
      <trkpt lat="45.45509" lon="5.83407">
        <ele>1472.462830557</ele>
        <time>2015-05-06T12:26:16Z</time>
      </trkpt>
      <trkpt lat="45.45509" lon="5.83407">
        <ele>1472.462830557</ele>
        <time>2015-05-06T12:26:21Z</time>
      </trkpt>
      <trkpt lat="45.45509" lon="5.83407">
        <ele>1472.462830557</ele>
        <time>2015-05-06T12:26:26Z</time>
      </trkpt>
      <trkpt lat="45.45509" lon="5.83407">
        <ele>1472.462830557</ele>
        <time>2015-05-06T12:26:30Z</time>
      </trkpt>
      <trkpt lat="45.45509" lon="5.83407">
        <ele>1472.462830557</ele>
        <time>2015-05-06T12:26:36Z</time>
      </trkpt>
      <trkpt lat="45.45509" lon="5.83407">
        <ele>1472.462830557</ele>
        <time>2015-05-06T12:26:41Z</time>
      </trkpt>
      <trkpt lat="45.45509" lon="5.83407">
        <ele>1472.462830557</ele>
        <time>2015-05-06T12:26:46Z</time>
      </trkpt>
      <trkpt lat="45.45509" lon="5.83407">
        <ele>1472.462830557</ele>
        <time>2015-05-06T12:26:52Z</time>
      </trkpt>
      <trkpt lat="45.45509" lon="5.83407">
        <ele>1472.462830557</ele>
        <time>2015-05-06T12:26:56Z</time>
      </trkpt>
      <trkpt lat="45.45509" lon="5.83407">
        <ele>1472.462830557</ele>
        <time>2015-05-06T12:27:01Z</time>
      </trkpt>
      <trkpt lat="45.45509" lon="5.83407">
        <ele>1472.462830557</ele>
        <time>2015-05-06T12:27:07Z</time>
      </trkpt>
      <trkpt lat="45.45508" lon="5.83407">
        <ele>1472.462830557</ele>
        <time>2015-05-06T12:27:11Z</time>
      </trkpt>
      <trkpt lat="45.45505" lon="5.8341">
        <ele>1476.722605996</ele>
        <time>2015-05-06T12:27:16Z</time>
      </trkpt>
      <trkpt lat="45.45502" lon="5.83408">
        <ele>1476.722605996</ele>
        <time>2015-05-06T12:27:22Z</time>
      </trkpt>
      <trkpt lat="45.45502" lon="5.83415">
        <ele>1476.722605996</ele>
        <time>2015-05-06T12:27:26Z</time>
      </trkpt>
      <trkpt lat="45.455" lon="5.83417">
        <ele>1481.389966064</ele>
        <time>2015-05-06T12:27:32Z</time>
      </trkpt>
      <trkpt lat="45.455" lon="5.83417">
        <ele>1481.389966064</ele>
        <time>2015-05-06T12:27:36Z</time>
      </trkpt>
      <trkpt lat="45.45499" lon="5.83416">
        <ele>1481.389966064</ele>
        <time>2015-05-06T12:27:42Z</time>
      </trkpt>
      <trkpt lat="45.45499" lon="5.83416">
        <ele>1481.389966064</ele>
        <time>2015-05-06T12:27:46Z</time>
      </trkpt>
      <trkpt lat="45.45499" lon="5.83416">
        <ele>1481.389966064</ele>
        <time>2015-05-06T12:27:52Z</time>
      </trkpt>
      <trkpt lat="45.45499" lon="5.83416">
        <ele>1481.389966064</ele>
        <time>2015-05-06T12:27:56Z</time>
      </trkpt>
      <trkpt lat="45.45499" lon="5.83416">
        <ele>1481.389966064</ele>
        <time>2015-05-06T12:28:02Z</time>
      </trkpt>
      <trkpt lat="45.45499" lon="5.83416">
        <ele>1481.389966064</ele>
        <time>2015-05-06T12:28:06Z</time>
      </trkpt>
      <trkpt lat="45.45499" lon="5.83416">
        <ele>1481.389966064</ele>
        <time>2015-05-06T12:28:12Z</time>
      </trkpt>
      <trkpt lat="45.45499" lon="5.83416">
        <ele>1481.389966064</ele>
        <time>2015-05-06T12:28:16Z</time>
      </trkpt>
      <trkpt lat="45.45499" lon="5.83416">
        <ele>1481.389966064</ele>
        <time>2015-05-06T12:28:22Z</time>
      </trkpt>
      <trkpt lat="45.45498" lon="5.83417">
        <ele>1481.389966064</ele>
        <time>2015-05-06T12:28:26Z</time>
      </trkpt>
      <trkpt lat="45.45495" lon="5.83422">
        <ele>1481.389966064</ele>
        <time>2015-05-06T12:28:32Z</time>
      </trkpt>
      <trkpt lat="45.45494" lon="5.83423">
        <ele>1481.389966064</ele>
        <time>2015-05-06T12:28:36Z</time>
      </trkpt>
      <trkpt lat="45.45494" lon="5.83424">
        <ele>1481.389966064</ele>
        <time>2015-05-06T12:28:42Z</time>
      </trkpt>
      <trkpt lat="45.45494" lon="5.83424">
        <ele>1481.389966064</ele>
        <time>2015-05-06T12:28:46Z</time>
      </trkpt>
      <trkpt lat="45.45494" lon="5.83424">
        <ele>1486.282641603</ele>
        <time>2015-05-06T12:28:52Z</time>
      </trkpt>
      <trkpt lat="45.45494" lon="5.83424">
        <ele>1486.282641603</ele>
        <time>2015-05-06T12:28:56Z</time>
      </trkpt>
      <trkpt lat="45.45494" lon="5.83424">
        <ele>1486.282641603</ele>
        <time>2015-05-06T12:29:02Z</time>
      </trkpt>
      <trkpt lat="45.45494" lon="5.83424">
        <ele>1486.282641603</ele>
        <time>2015-05-06T12:29:06Z</time>
      </trkpt>
      <trkpt lat="45.45494" lon="5.83424">
        <ele>1486.282641603</ele>
        <time>2015-05-06T12:29:12Z</time>
      </trkpt>
      <trkpt lat="45.45494" lon="5.83424">
        <ele>1486.282641603</ele>
        <time>2015-05-06T12:29:16Z</time>
      </trkpt>
      <trkpt lat="45.45493" lon="5.83424">
        <ele>1486.282641603</ele>
        <time>2015-05-06T12:29:21Z</time>
      </trkpt>
      <trkpt lat="45.45493" lon="5.83424">
        <ele>1486.282641603</ele>
        <time>2015-05-06T12:29:27Z</time>
      </trkpt>
      <trkpt lat="45.45494" lon="5.83426">
        <ele>1486.282641603</ele>
        <time>2015-05-06T12:29:31Z</time>
      </trkpt>
      <trkpt lat="45.45494" lon="5.83436">
        <ele>1490.654766635</ele>
        <time>2015-05-06T12:29:37Z</time>
      </trkpt>
      <trkpt lat="45.45496" lon="5.83442">
        <ele>1490.654766635</ele>
        <time>2015-05-06T12:29:41Z</time>
      </trkpt>
      <trkpt lat="45.45493" lon="5.83442">
        <ele>1490.654766635</ele>
        <time>2015-05-06T12:29:46Z</time>
      </trkpt>
      <trkpt lat="45.45496" lon="5.83439">
        <ele>1496.266725564</ele>
        <time>2015-05-06T12:29:50Z</time>
      </trkpt>
      <trkpt lat="45.45493" lon="5.83439">
        <ele>1496.266725564</ele>
        <time>2015-05-06T12:29:56Z</time>
      </trkpt>
      <trkpt lat="45.45492" lon="5.83439">
        <ele>1496.266725564</ele>
        <time>2015-05-06T12:30:01Z</time>
      </trkpt>
      <trkpt lat="45.45492" lon="5.83438">
        <ele>1496.266725564</ele>
        <time>2015-05-06T12:30:06Z</time>
      </trkpt>
      <trkpt lat="45.45492" lon="5.83438">
        <ele>1496.266725564</ele>
        <time>2015-05-06T12:30:11Z</time>
      </trkpt>
      <trkpt lat="45.45492" lon="5.83438">
        <ele>1496.266725564</ele>
        <time>2015-05-06T12:30:15Z</time>
      </trkpt>
      <trkpt lat="45.45492" lon="5.83438">
        <ele>1496.266725564</ele>
        <time>2015-05-06T12:30:22Z</time>
      </trkpt>
      <trkpt lat="45.45492" lon="5.83438">
        <ele>1496.266725564</ele>
        <time>2015-05-06T12:30:25Z</time>
      </trkpt>
      <trkpt lat="45.45492" lon="5.83438">
        <ele>1496.266725564</ele>
        <time>2015-05-06T12:30:30Z</time>
      </trkpt>
      <trkpt lat="45.45492" lon="5.83438">
        <ele>1496.266725564</ele>
        <time>2015-05-06T12:30:36Z</time>
      </trkpt>
      <trkpt lat="45.45492" lon="5.83438">
        <ele>1496.266725564</ele>
        <time>2015-05-06T12:30:46Z</time>
      </trkpt>
      <trkpt lat="45.45492" lon="5.83444">
        <ele>1496.266725564</ele>
        <time>2015-05-06T12:30:51Z</time>
      </trkpt>
      <trkpt lat="45.45492" lon="5.83443">
        <ele>1496.266725564</ele>
        <time>2015-05-06T12:30:56Z</time>
      </trkpt>
      <trkpt lat="45.45493" lon="5.83442">
        <ele>1502.584569679</ele>
        <time>2015-05-06T12:31:01Z</time>
      </trkpt>
      <trkpt lat="45.45493" lon="5.83441">
        <ele>1502.584569679</ele>
        <time>2015-05-06T12:31:06Z</time>
      </trkpt>
      <trkpt lat="45.45493" lon="5.83441">
        <ele>1502.584569679</ele>
        <time>2015-05-06T12:31:11Z</time>
      </trkpt>
      <trkpt lat="45.45493" lon="5.83441">
        <ele>1502.584569679</ele>
        <time>2015-05-06T12:31:16Z</time>
      </trkpt>
      <trkpt lat="45.45493" lon="5.83441">
        <ele>1502.584569679</ele>
        <time>2015-05-06T12:31:21Z</time>
      </trkpt>
      <trkpt lat="45.45493" lon="5.83441">
        <ele>1502.584569679</ele>
        <time>2015-05-06T12:31:26Z</time>
      </trkpt>
      <trkpt lat="45.45493" lon="5.83441">
        <ele>1502.584569679</ele>
        <time>2015-05-06T12:31:31Z</time>
      </trkpt>
      <trkpt lat="45.45493" lon="5.83441">
        <ele>1502.584569679</ele>
        <time>2015-05-06T12:31:36Z</time>
      </trkpt>
      <trkpt lat="45.45493" lon="5.83441">
        <ele>1502.584569679</ele>
        <time>2015-05-06T12:31:41Z</time>
      </trkpt>
      <trkpt lat="45.45493" lon="5.83441">
        <ele>1502.584569679</ele>
        <time>2015-05-06T12:31:46Z</time>
      </trkpt>
      <trkpt lat="45.45493" lon="5.83441">
        <ele>1502.584569679</ele>
        <time>2015-05-06T12:31:51Z</time>
      </trkpt>
      <trkpt lat="45.45493" lon="5.83441">
        <ele>1502.584569679</ele>
        <time>2015-05-06T12:31:56Z</time>
      </trkpt>
      <trkpt lat="45.45493" lon="5.83441">
        <ele>1502.584569679</ele>
        <time>2015-05-06T12:32:01Z</time>
      </trkpt>
      <trkpt lat="45.45493" lon="5.83441">
        <ele>1502.584569679</ele>
        <time>2015-05-06T12:32:06Z</time>
      </trkpt>
      <trkpt lat="45.45493" lon="5.83441">
        <ele>1502.584569679</ele>
        <time>2015-05-06T12:32:11Z</time>
      </trkpt>
      <trkpt lat="45.45493" lon="5.83441">
        <ele>1502.584569679</ele>
        <time>2015-05-06T12:32:16Z</time>
      </trkpt>
      <trkpt lat="45.45493" lon="5.83441">
        <ele>1502.584569679</ele>
        <time>2015-05-06T12:32:21Z</time>
      </trkpt>
      <trkpt lat="45.45495" lon="5.83448">
        <ele>1502.584569679</ele>
        <time>2015-05-06T12:32:26Z</time>
      </trkpt>
      <trkpt lat="45.45497" lon="5.83455">
        <ele>1508.391186921</ele>
        <time>2015-05-06T12:32:30Z</time>
      </trkpt>
      <trkpt lat="45.45497" lon="5.83455">
        <ele>1508.391186921</ele>
        <time>2015-05-06T12:32:35Z</time>
      </trkpt>
      <trkpt lat="45.45498" lon="5.83456">
        <ele>1508.391186921</ele>
        <time>2015-05-06T12:32:40Z</time>
      </trkpt>
      <trkpt lat="45.45498" lon="5.83455">
        <ele>1508.391186921</ele>
        <time>2015-05-06T12:32:45Z</time>
      </trkpt>
      <trkpt lat="45.45498" lon="5.83455">
        <ele>1508.391186921</ele>
        <time>2015-05-06T12:32:51Z</time>
      </trkpt>
      <trkpt lat="45.45498" lon="5.83455">
        <ele>1508.391186921</ele>
        <time>2015-05-06T12:32:56Z</time>
      </trkpt>
      <trkpt lat="45.45498" lon="5.83455">
        <ele>1508.391186921</ele>
        <time>2015-05-06T12:33:02Z</time>
      </trkpt>
      <trkpt lat="45.45499" lon="5.83457">
        <ele>1508.391186921</ele>
        <time>2015-05-06T12:33:06Z</time>
      </trkpt>
      <trkpt lat="45.45503" lon="5.83463">
        <ele>1514.722145705</ele>
        <time>2015-05-06T12:33:11Z</time>
      </trkpt>
      <trkpt lat="45.45506" lon="5.83466">
        <ele>1514.722145705</ele>
        <time>2015-05-06T12:33:16Z</time>
      </trkpt>
      <trkpt lat="45.45506" lon="5.83467">
        <ele>1514.722145705</ele>
        <time>2015-05-06T12:33:21Z</time>
      </trkpt>
      <trkpt lat="45.45507" lon="5.83468">
        <ele>1514.722145705</ele>
        <time>2015-05-06T12:33:25Z</time>
      </trkpt>
      <trkpt lat="45.45509" lon="5.83468">
        <ele>1514.722145705</ele>
        <time>2015-05-06T12:33:32Z</time>
      </trkpt>
      <trkpt lat="45.45509" lon="5.83467">
        <ele>1514.722145705</ele>
        <time>2015-05-06T12:33:36Z</time>
      </trkpt>
      <trkpt lat="45.45514" lon="5.83473">
        <ele>1522.679777693</ele>
        <time>2015-05-06T12:33:42Z</time>
      </trkpt>
      <trkpt lat="45.45516" lon="5.8347">
        <ele>1522.679777693</ele>
        <time>2015-05-06T12:33:46Z</time>
      </trkpt>
      <trkpt lat="45.45518" lon="5.83469">
        <ele>1522.679777693</ele>
        <time>2015-05-06T12:33:52Z</time>
      </trkpt>
      <trkpt lat="45.45519" lon="5.83469">
        <ele>1522.679777693</ele>
        <time>2015-05-06T12:33:56Z</time>
      </trkpt>
      <trkpt lat="45.4552" lon="5.83469">
        <ele>1522.679777693</ele>
        <time>2015-05-06T12:34:00Z</time>
      </trkpt>
      <trkpt lat="45.4552" lon="5.83468">
        <ele>1522.679777693</ele>
        <time>2015-05-06T12:34:05Z</time>
      </trkpt>
      <trkpt lat="45.45519" lon="5.83469">
        <ele>1522.679777693</ele>
        <time>2015-05-06T12:34:10Z</time>
      </trkpt>
      <trkpt lat="45.45519" lon="5.83468">
        <ele>1522.679777693</ele>
        <time>2015-05-06T12:34:16Z</time>
      </trkpt>
      <trkpt lat="45.45519" lon="5.83469">
        <ele>1522.679777693</ele>
        <time>2015-05-06T12:34:22Z</time>
      </trkpt>
      <trkpt lat="45.45519" lon="5.83468">
        <ele>1522.679777693</ele>
        <time>2015-05-06T12:34:25Z</time>
      </trkpt>
      <trkpt lat="45.45519" lon="5.83468">
        <ele>1522.679777693</ele>
        <time>2015-05-06T12:34:30Z</time>
      </trkpt>
      <trkpt lat="45.45519" lon="5.83468">
        <ele>1522.679777693</ele>
        <time>2015-05-06T12:34:35Z</time>
      </trkpt>
      <trkpt lat="45.45519" lon="5.83468">
        <ele>1522.679777693</ele>
        <time>2015-05-06T12:34:40Z</time>
      </trkpt>
      <trkpt lat="45.45519" lon="5.83468">
        <ele>1522.679777693</ele>
        <time>2015-05-06T12:34:45Z</time>
      </trkpt>
      <trkpt lat="45.45519" lon="5.83468">
        <ele>1522.679777693</ele>
        <time>2015-05-06T12:34:51Z</time>
      </trkpt>
      <trkpt lat="45.45519" lon="5.83468">
        <ele>1522.679777693</ele>
        <time>2015-05-06T12:34:57Z</time>
      </trkpt>
      <trkpt lat="45.45519" lon="5.83468">
        <ele>1522.679777693</ele>
        <time>2015-05-06T12:35:01Z</time>
      </trkpt>
      <trkpt lat="45.45519" lon="5.83468">
        <ele>1522.679777693</ele>
        <time>2015-05-06T12:35:07Z</time>
      </trkpt>
      <trkpt lat="45.45519" lon="5.83467">
        <ele>1522.679777693</ele>
        <time>2015-05-06T12:35:11Z</time>
      </trkpt>
      <trkpt lat="45.45519" lon="5.83468">
        <ele>1522.679777693</ele>
        <time>2015-05-06T12:35:16Z</time>
      </trkpt>
      <trkpt lat="45.45521" lon="5.8347">
        <ele>1531.984097215</ele>
        <time>2015-05-06T12:35:22Z</time>
      </trkpt>
      <trkpt lat="45.45521" lon="5.83473">
        <ele>1531.984097215</ele>
        <time>2015-05-06T12:35:26Z</time>
      </trkpt>
      <trkpt lat="45.45524" lon="5.83474">
        <ele>1531.984097215</ele>
        <time>2015-05-06T12:35:32Z</time>
      </trkpt>
      <trkpt lat="45.45523" lon="5.83477">
        <ele>1531.984097215</ele>
        <time>2015-05-06T12:35:36Z</time>
      </trkpt>
      <trkpt lat="45.45522" lon="5.83476">
        <ele>1531.984097215</ele>
        <time>2015-05-06T12:35:41Z</time>
      </trkpt>
      <trkpt lat="45.45524" lon="5.83477">
        <ele>1541.075161097</ele>
        <time>2015-05-06T12:35:45Z</time>
      </trkpt>
      <trkpt lat="45.45522" lon="5.83473">
        <ele>1541.075161097</ele>
        <time>2015-05-06T12:35:52Z</time>
      </trkpt>
      <trkpt lat="45.45525" lon="5.83478">
        <ele>1541.075161097</ele>
        <time>2015-05-06T12:35:56Z</time>
      </trkpt>
      <trkpt lat="45.45525" lon="5.8348">
        <ele>1549.517280765</ele>
        <time>2015-05-06T12:36:02Z</time>
      </trkpt>
      <trkpt lat="45.45527" lon="5.8348">
        <ele>1549.517280765</ele>
        <time>2015-05-06T12:36:06Z</time>
      </trkpt>
      <trkpt lat="45.45528" lon="5.83481">
        <ele>1549.517280765</ele>
        <time>2015-05-06T12:36:12Z</time>
      </trkpt>
      <trkpt lat="45.45528" lon="5.83483">
        <ele>1549.517280765</ele>
        <time>2015-05-06T12:36:16Z</time>
      </trkpt>
      <trkpt lat="45.45527" lon="5.8348">
        <ele>1549.517280765</ele>
        <time>2015-05-06T12:36:22Z</time>
      </trkpt>
      <trkpt lat="45.45528" lon="5.83478">
        <ele>1549.517280765</ele>
        <time>2015-05-06T12:36:26Z</time>
      </trkpt>
      <trkpt lat="45.45532" lon="5.83479">
        <ele>1557.629467158</ele>
        <time>2015-05-06T12:36:32Z</time>
      </trkpt>
      <trkpt lat="45.45531" lon="5.8348">
        <ele>1557.629467158</ele>
        <time>2015-05-06T12:36:36Z</time>
      </trkpt>
      <trkpt lat="45.45533" lon="5.83482">
        <ele>1557.629467158</ele>
        <time>2015-05-06T12:36:42Z</time>
      </trkpt>
      <trkpt lat="45.45536" lon="5.83487">
        <ele>1557.629467158</ele>
        <time>2015-05-06T12:36:46Z</time>
      </trkpt>
      <trkpt lat="45.45538" lon="5.83489">
        <ele>1565.132122767</ele>
        <time>2015-05-06T12:36:50Z</time>
      </trkpt>
      <trkpt lat="45.4554" lon="5.83495">
        <ele>1565.132122767</ele>
        <time>2015-05-06T12:36:55Z</time>
      </trkpt>
      <trkpt lat="45.45538" lon="5.83497">
        <ele>1565.132122767</ele>
        <time>2015-05-06T12:37:01Z</time>
      </trkpt>
      <trkpt lat="45.45537" lon="5.83499">
        <ele>1572.632932127</ele>
        <time>2015-05-06T12:37:06Z</time>
      </trkpt>
      <trkpt lat="45.45537" lon="5.835">
        <ele>1572.632932127</ele>
        <time>2015-05-06T12:37:12Z</time>
      </trkpt>
      <trkpt lat="45.45537" lon="5.83501">
        <ele>1572.632932127</ele>
        <time>2015-05-06T12:37:16Z</time>
      </trkpt>
      <trkpt lat="45.45537" lon="5.83502">
        <ele>1572.632932127</ele>
        <time>2015-05-06T12:37:22Z</time>
      </trkpt>
      <trkpt lat="45.45538" lon="5.835">
        <ele>1572.632932127</ele>
        <time>2015-05-06T12:37:26Z</time>
      </trkpt>
      <trkpt lat="45.45539" lon="5.835">
        <ele>1572.632932127</ele>
        <time>2015-05-06T12:37:32Z</time>
      </trkpt>
      <trkpt lat="45.45539" lon="5.835">
        <ele>1572.632932127</ele>
        <time>2015-05-06T12:37:36Z</time>
      </trkpt>
      <trkpt lat="45.45539" lon="5.83501">
        <ele>1572.632932127</ele>
        <time>2015-05-06T12:37:42Z</time>
      </trkpt>
      <trkpt lat="45.45539" lon="5.835">
        <ele>1572.632932127</ele>
        <time>2015-05-06T12:37:46Z</time>
      </trkpt>
      <trkpt lat="45.4554" lon="5.83501">
        <ele>1572.632932127</ele>
        <time>2015-05-06T12:37:52Z</time>
      </trkpt>
      <trkpt lat="45.4554" lon="5.83501">
        <ele>1572.632932127</ele>
        <time>2015-05-06T12:37:56Z</time>
      </trkpt>
      <trkpt lat="45.4554" lon="5.83501">
        <ele>1572.632932127</ele>
        <time>2015-05-06T12:38:02Z</time>
      </trkpt>
      <trkpt lat="45.45541" lon="5.83504">
        <ele>1572.632932127</ele>
        <time>2015-05-06T12:38:06Z</time>
      </trkpt>
      <trkpt lat="45.45542" lon="5.83516">
        <ele>1579.974770288</ele>
        <time>2015-05-06T12:38:12Z</time>
      </trkpt>
      <trkpt lat="45.45539" lon="5.8352">
        <ele>1579.974770288</ele>
        <time>2015-05-06T12:38:16Z</time>
      </trkpt>
      <trkpt lat="45.45529" lon="5.83517">
        <ele>1586.292335332</ele>
        <time>2015-05-06T12:38:22Z</time>
      </trkpt>
      <trkpt lat="45.45525" lon="5.83512">
        <ele>1586.292335332</ele>
        <time>2015-05-06T12:38:26Z</time>
      </trkpt>
      <trkpt lat="45.45527" lon="5.83513">
        <ele>1586.292335332</ele>
        <time>2015-05-06T12:38:32Z</time>
      </trkpt>
      <trkpt lat="45.45528" lon="5.83513">
        <ele>1586.292335332</ele>
        <time>2015-05-06T12:38:36Z</time>
      </trkpt>
      <trkpt lat="45.45527" lon="5.83514">
        <ele>1586.292335332</ele>
        <time>2015-05-06T12:38:42Z</time>
      </trkpt>
      <trkpt lat="45.45526" lon="5.83515">
        <ele>1592.228269754</ele>
        <time>2015-05-06T12:38:46Z</time>
      </trkpt>
      <trkpt lat="45.45527" lon="5.83514">
        <ele>1592.228269754</ele>
        <time>2015-05-06T12:38:52Z</time>
      </trkpt>
      <trkpt lat="45.45526" lon="5.83519">
        <ele>1592.228269754</ele>
        <time>2015-05-06T12:38:56Z</time>
      </trkpt>
      <trkpt lat="45.45522" lon="5.83522">
        <ele>1592.228269754</ele>
        <time>2015-05-06T12:39:02Z</time>
      </trkpt>
      <trkpt lat="45.45522" lon="5.83523">
        <ele>1598.523584819</ele>
        <time>2015-05-06T12:39:06Z</time>
      </trkpt>
      <trkpt lat="45.45523" lon="5.83526">
        <ele>1598.523584819</ele>
        <time>2015-05-06T12:39:12Z</time>
      </trkpt>
      <trkpt lat="45.45523" lon="5.8353">
        <ele>1598.523584819</ele>
        <time>2015-05-06T12:39:16Z</time>
      </trkpt>
      <trkpt lat="45.45522" lon="5.83531">
        <ele>1598.523584819</ele>
        <time>2015-05-06T12:39:22Z</time>
      </trkpt>
      <trkpt lat="45.45522" lon="5.83531">
        <ele>1598.523584819</ele>
        <time>2015-05-06T12:39:26Z</time>
      </trkpt>
      <trkpt lat="45.45522" lon="5.83531">
        <ele>1598.523584819</ele>
        <time>2015-05-06T12:39:32Z</time>
      </trkpt>
      <trkpt lat="45.45523" lon="5.8353">
        <ele>1598.523584819</ele>
        <time>2015-05-06T12:39:36Z</time>
      </trkpt>
      <trkpt lat="45.45524" lon="5.83531">
        <ele>1598.523584819</ele>
        <time>2015-05-06T12:39:42Z</time>
      </trkpt>
      <trkpt lat="45.45525" lon="5.83529">
        <ele>1605.720131508</ele>
        <time>2015-05-06T12:39:46Z</time>
      </trkpt>
      <trkpt lat="45.45525" lon="5.83529">
        <ele>1605.720131508</ele>
        <time>2015-05-06T12:39:52Z</time>
      </trkpt>
      <trkpt lat="45.45527" lon="5.83529">
        <ele>1605.720131508</ele>
        <time>2015-05-06T12:39:56Z</time>
      </trkpt>
      <trkpt lat="45.45528" lon="5.83537">
        <ele>1605.720131508</ele>
        <time>2015-05-06T12:40:01Z</time>
      </trkpt>
      <trkpt lat="45.45527" lon="5.83536">
        <ele>1612.444372736</ele>
        <time>2015-05-06T12:40:05Z</time>
      </trkpt>
      <trkpt lat="45.45529" lon="5.83541">
        <ele>1612.444372736</ele>
        <time>2015-05-06T12:40:12Z</time>
      </trkpt>
      <trkpt lat="45.45529" lon="5.8354">
        <ele>1612.444372736</ele>
        <time>2015-05-06T12:40:15Z</time>
      </trkpt>
      <trkpt lat="45.4553" lon="5.83542">
        <ele>1612.444372736</ele>
        <time>2015-05-06T12:40:21Z</time>
      </trkpt>
      <trkpt lat="45.45529" lon="5.83541">
        <ele>1612.444372736</ele>
        <time>2015-05-06T12:40:27Z</time>
      </trkpt>
      <trkpt lat="45.45529" lon="5.83549">
        <ele>1619.010604152</ele>
        <time>2015-05-06T12:40:31Z</time>
      </trkpt>
      <trkpt lat="45.45529" lon="5.83553">
        <ele>1619.010604152</ele>
        <time>2015-05-06T12:40:37Z</time>
      </trkpt>
      <trkpt lat="45.45531" lon="5.83553">
        <ele>1619.010604152</ele>
        <time>2015-05-06T12:40:42Z</time>
      </trkpt>
      <trkpt lat="45.45531" lon="5.83555">
        <ele>1619.010604152</ele>
        <time>2015-05-06T12:40:46Z</time>
      </trkpt>
      <trkpt lat="45.45531" lon="5.83561">
        <ele>1625.134413525</ele>
        <time>2015-05-06T12:40:52Z</time>
      </trkpt>
      <trkpt lat="45.4553" lon="5.83566">
        <ele>1625.134413525</ele>
        <time>2015-05-06T12:40:56Z</time>
      </trkpt>
      <trkpt lat="45.45532" lon="5.83567">
        <ele>1625.134413525</ele>
        <time>2015-05-06T12:41:02Z</time>
      </trkpt>
      <trkpt lat="45.45531" lon="5.8357">
        <ele>1625.134413525</ele>
        <time>2015-05-06T12:41:06Z</time>
      </trkpt>
      <trkpt lat="45.45527" lon="5.8357">
        <ele>1630.986231341</ele>
        <time>2015-05-06T12:41:12Z</time>
      </trkpt>
      <trkpt lat="45.45527" lon="5.83572">
        <ele>1630.986231341</ele>
        <time>2015-05-06T12:41:16Z</time>
      </trkpt>
      <trkpt lat="45.45528" lon="5.83571">
        <ele>1630.986231341</ele>
        <time>2015-05-06T12:41:21Z</time>
      </trkpt>
      <trkpt lat="45.45528" lon="5.83571">
        <ele>1630.986231341</ele>
        <time>2015-05-06T12:41:25Z</time>
      </trkpt>
      <trkpt lat="45.45528" lon="5.83573">
        <ele>1630.986231341</ele>
        <time>2015-05-06T12:41:30Z</time>
      </trkpt>
      <trkpt lat="45.45533" lon="5.83578">
        <ele>1636.00454038</ele>
        <time>2015-05-06T12:41:35Z</time>
      </trkpt>
      <trkpt lat="45.45532" lon="5.83582">
        <ele>1636.00454038</ele>
        <time>2015-05-06T12:41:40Z</time>
      </trkpt>
      <trkpt lat="45.45532" lon="5.83583">
        <ele>1636.00454038</ele>
        <time>2015-05-06T12:41:45Z</time>
      </trkpt>
      <trkpt lat="45.45532" lon="5.83583">
        <ele>1636.00454038</ele>
        <time>2015-05-06T12:41:50Z</time>
      </trkpt>
      <trkpt lat="45.45532" lon="5.83583">
        <ele>1636.00454038</ele>
        <time>2015-05-06T12:41:55Z</time>
      </trkpt>
      <trkpt lat="45.45532" lon="5.83583">
        <ele>1636.00454038</ele>
        <time>2015-05-06T12:42:00Z</time>
      </trkpt>
      <trkpt lat="45.45532" lon="5.83583">
        <ele>1636.00454038</ele>
        <time>2015-05-06T12:42:05Z</time>
      </trkpt>
      <trkpt lat="45.45532" lon="5.83583">
        <ele>1636.00454038</ele>
        <time>2015-05-06T12:42:10Z</time>
      </trkpt>
      <trkpt lat="45.45532" lon="5.83583">
        <ele>1636.00454038</ele>
        <time>2015-05-06T12:42:15Z</time>
      </trkpt>
      <trkpt lat="45.45532" lon="5.83583">
        <ele>1636.00454038</ele>
        <time>2015-05-06T12:42:20Z</time>
      </trkpt>
      <trkpt lat="45.45532" lon="5.83583">
        <ele>1636.00454038</ele>
        <time>2015-05-06T12:42:26Z</time>
      </trkpt>
      <trkpt lat="45.45532" lon="5.83583">
        <ele>1636.00454038</ele>
        <time>2015-05-06T12:42:30Z</time>
      </trkpt>
      <trkpt lat="45.45532" lon="5.83583">
        <ele>1636.00454038</ele>
        <time>2015-05-06T12:42:35Z</time>
      </trkpt>
      <trkpt lat="45.45532" lon="5.83583">
        <ele>1636.00454038</ele>
        <time>2015-05-06T12:42:40Z</time>
      </trkpt>
      <trkpt lat="45.45532" lon="5.83583">
        <ele>1636.00454038</ele>
        <time>2015-05-06T12:42:46Z</time>
      </trkpt>
      <trkpt lat="45.45529" lon="5.83577">
        <ele>1640.248204952</ele>
        <time>2015-05-06T12:42:52Z</time>
      </trkpt>
      <trkpt lat="45.45531" lon="5.83573">
        <ele>1640.248204952</ele>
        <time>2015-05-06T12:42:56Z</time>
      </trkpt>
      <trkpt lat="45.45536" lon="5.83571">
        <ele>1640.248204952</ele>
        <time>2015-05-06T12:43:02Z</time>
      </trkpt>
      <trkpt lat="45.4554" lon="5.83571">
        <ele>1643.630156826</ele>
        <time>2015-05-06T12:43:06Z</time>
      </trkpt>
      <trkpt lat="45.45544" lon="5.83576">
        <ele>1643.630156826</ele>
        <time>2015-05-06T12:43:11Z</time>
      </trkpt>
      <trkpt lat="45.45546" lon="5.83577">
        <ele>1643.630156826</ele>
        <time>2015-05-06T12:43:16Z</time>
      </trkpt>
      <trkpt lat="45.45551" lon="5.8358">
        <ele>1646.793001733</ele>
        <time>2015-05-06T12:43:20Z</time>
      </trkpt>
      <trkpt lat="45.45551" lon="5.8358">
        <ele>1646.793001733</ele>
        <time>2015-05-06T12:43:26Z</time>
      </trkpt>
      <trkpt lat="45.45554" lon="5.83583">
        <ele>1646.793001733</ele>
        <time>2015-05-06T12:43:32Z</time>
      </trkpt>
      <trkpt lat="45.45559" lon="5.83584">
        <ele>1648.747805857</ele>
        <time>2015-05-06T12:43:36Z</time>
      </trkpt>
      <trkpt lat="45.45565" lon="5.83585">
        <ele>1648.747805857</ele>
        <time>2015-05-06T12:43:42Z</time>
      </trkpt>
      <trkpt lat="45.45571" lon="5.83593">
        <ele>1649.878909859</ele>
        <time>2015-05-06T12:43:46Z</time>
      </trkpt>
      <trkpt lat="45.45575" lon="5.83601">
        <ele>1649.878909859</ele>
        <time>2015-05-06T12:43:51Z</time>
      </trkpt>
      <trkpt lat="45.4558" lon="5.8361">
        <ele>1650.256707904</ele>
        <time>2015-05-06T12:43:57Z</time>
      </trkpt>
      <trkpt lat="45.45587" lon="5.83617">
        <ele>1650.256707904</ele>
        <time>2015-05-06T12:44:01Z</time>
      </trkpt>
      <trkpt lat="45.4559" lon="5.83621">
        <ele>1649.804579262</ele>
        <time>2015-05-06T12:44:07Z</time>
      </trkpt>
      <trkpt lat="45.45598" lon="5.83625">
        <ele>1649.804579262</ele>
        <time>2015-05-06T12:44:11Z</time>
      </trkpt>
      <trkpt lat="45.45599" lon="5.83625">
        <ele>1649.318633539</ele>
        <time>2015-05-06T12:44:17Z</time>
      </trkpt>
      <trkpt lat="45.45605" lon="5.8363">
        <ele>1649.318633539</ele>
        <time>2015-05-06T12:44:21Z</time>
      </trkpt>
      <trkpt lat="45.45606" lon="5.8364">
        <ele>1647.663204327</ele>
        <time>2015-05-06T12:44:27Z</time>
      </trkpt>
      <trkpt lat="45.45613" lon="5.83646">
        <ele>1647.663204327</ele>
        <time>2015-05-06T12:44:31Z</time>
      </trkpt>
      <trkpt lat="45.45613" lon="5.83654">
        <ele>1645.374557872</ele>
        <time>2015-05-06T12:44:36Z</time>
      </trkpt>
      <trkpt lat="45.45614" lon="5.83655">
        <ele>1645.374557872</ele>
        <time>2015-05-06T12:44:41Z</time>
      </trkpt>
      <trkpt lat="45.45615" lon="5.83654">
        <ele>1645.374557872</ele>
        <time>2015-05-06T12:44:46Z</time>
      </trkpt>
      <trkpt lat="45.45615" lon="5.83654">
        <ele>1645.374557872</ele>
        <time>2015-05-06T12:44:51Z</time>
      </trkpt>
      <trkpt lat="45.45615" lon="5.83654">
        <ele>1645.374557872</ele>
        <time>2015-05-06T12:44:56Z</time>
      </trkpt>
      <trkpt lat="45.45615" lon="5.83654">
        <ele>1645.374557872</ele>
        <time>2015-05-06T12:45:01Z</time>
      </trkpt>
      <trkpt lat="45.45621" lon="5.83658">
        <ele>1645.374557872</ele>
        <time>2015-05-06T12:45:06Z</time>
      </trkpt>
      <trkpt lat="45.45627" lon="5.83661">
        <ele>1642.23073654</ele>
        <time>2015-05-06T12:45:11Z</time>
      </trkpt>
      <trkpt lat="45.45635" lon="5.83668">
        <ele>1638.604824987</ele>
        <time>2015-05-06T12:45:16Z</time>
      </trkpt>
      <trkpt lat="45.45641" lon="5.83668">
        <ele>1638.604824987</ele>
        <time>2015-05-06T12:45:21Z</time>
      </trkpt>
      <trkpt lat="45.45645" lon="5.83669">
        <ele>1635.420136499</ele>
        <time>2015-05-06T12:45:26Z</time>
      </trkpt>
      <trkpt lat="45.4565" lon="5.83678">
        <ele>1635.420136499</ele>
        <time>2015-05-06T12:45:31Z</time>
      </trkpt>
      <trkpt lat="45.45654" lon="5.8369">
        <ele>1631.513147276</ele>
        <time>2015-05-06T12:45:36Z</time>
      </trkpt>
      <trkpt lat="45.45654" lon="5.83699">
        <ele>1631.513147276</ele>
        <time>2015-05-06T12:45:41Z</time>
      </trkpt>
      <trkpt lat="45.45661" lon="5.83703">
        <ele>1627.392784668</ele>
        <time>2015-05-06T12:45:46Z</time>
      </trkpt>
      <trkpt lat="45.45664" lon="5.83712">
        <ele>1627.392784668</ele>
        <time>2015-05-06T12:45:51Z</time>
      </trkpt>
      <trkpt lat="45.45665" lon="5.83717">
        <ele>1623.530870334</ele>
        <time>2015-05-06T12:45:56Z</time>
      </trkpt>
      <trkpt lat="45.45668" lon="5.83725">
        <ele>1623.530870334</ele>
        <time>2015-05-06T12:46:01Z</time>
      </trkpt>
      <trkpt lat="45.45672" lon="5.83732">
        <ele>1618.634141347</ele>
        <time>2015-05-06T12:46:06Z</time>
      </trkpt>
      <trkpt lat="45.45672" lon="5.83745">
        <ele>1613.23616274</ele>
        <time>2015-05-06T12:46:11Z</time>
      </trkpt>
      <trkpt lat="45.45675" lon="5.83758">
        <ele>1607.832255622</ele>
        <time>2015-05-06T12:46:16Z</time>
      </trkpt>
      <trkpt lat="45.45678" lon="5.83768">
        <ele>1607.832255622</ele>
        <time>2015-05-06T12:46:21Z</time>
      </trkpt>
      <trkpt lat="45.45676" lon="5.83779">
        <ele>1602.592653539</ele>
        <time>2015-05-06T12:46:25Z</time>
      </trkpt>
      <trkpt lat="45.45672" lon="5.83791">
        <ele>1597.241755587</ele>
        <time>2015-05-06T12:46:31Z</time>
      </trkpt>
      <trkpt lat="45.45667" lon="5.83801">
        <ele>1597.241755587</ele>
        <time>2015-05-06T12:46:37Z</time>
      </trkpt>
      <trkpt lat="45.45665" lon="5.83813">
        <ele>1591.956282573</ele>
        <time>2015-05-06T12:46:41Z</time>
      </trkpt>
      <trkpt lat="45.45673" lon="5.83814">
        <ele>1591.956282573</ele>
        <time>2015-05-06T12:46:47Z</time>
      </trkpt>
      <trkpt lat="45.45682" lon="5.83812">
        <ele>1587.475636378</ele>
        <time>2015-05-06T12:46:51Z</time>
      </trkpt>
      <trkpt lat="45.45691" lon="5.83812">
        <ele>1582.608577448</ele>
        <time>2015-05-06T12:46:57Z</time>
      </trkpt>
      <trkpt lat="45.45697" lon="5.83812">
        <ele>1582.608577448</ele>
        <time>2015-05-06T12:47:01Z</time>
      </trkpt>
      <trkpt lat="45.45702" lon="5.83808">
        <ele>1577.548816308</ele>
        <time>2015-05-06T12:47:07Z</time>
      </trkpt>
      <trkpt lat="45.45712" lon="5.83807">
        <ele>1573.196273482</ele>
        <time>2015-05-06T12:47:11Z</time>
      </trkpt>
      <trkpt lat="45.45717" lon="5.8381">
        <ele>1573.196273482</ele>
        <time>2015-05-06T12:47:17Z</time>
      </trkpt>
      <trkpt lat="45.45719" lon="5.83812">
        <ele>1573.196273482</ele>
        <time>2015-05-06T12:47:21Z</time>
      </trkpt>
      <trkpt lat="45.45725" lon="5.83814">
        <ele>1569.085110827</ele>
        <time>2015-05-06T12:47:27Z</time>
      </trkpt>
      <trkpt lat="45.45735" lon="5.83813">
        <ele>1565.214694237</ele>
        <time>2015-05-06T12:47:31Z</time>
      </trkpt>
      <trkpt lat="45.4575" lon="5.83813">
        <ele>1561.72719865</ele>
        <time>2015-05-06T12:47:37Z</time>
      </trkpt>
      <trkpt lat="45.45756" lon="5.83821">
        <ele>1561.72719865</ele>
        <time>2015-05-06T12:47:41Z</time>
      </trkpt>
      <trkpt lat="45.45762" lon="5.8383">
        <ele>1558.608500577</ele>
        <time>2015-05-06T12:47:47Z</time>
      </trkpt>
      <trkpt lat="45.45771" lon="5.83834">
        <ele>1555.843819248</ele>
        <time>2015-05-06T12:47:51Z</time>
      </trkpt>
      <trkpt lat="45.45779" lon="5.83839">
        <ele>1555.843819248</ele>
        <time>2015-05-06T12:47:57Z</time>
      </trkpt>
      <trkpt lat="45.45789" lon="5.83845">
        <ele>1553.561930788</ele>
        <time>2015-05-06T12:48:01Z</time>
      </trkpt>
      <trkpt lat="45.45793" lon="5.83848">
        <ele>1553.561930788</ele>
        <time>2015-05-06T12:48:07Z</time>
      </trkpt>
      <trkpt lat="45.45793" lon="5.83849">
        <ele>1553.561930788</ele>
        <time>2015-05-06T12:48:11Z</time>
      </trkpt>
      <trkpt lat="45.45793" lon="5.83849">
        <ele>1553.561930788</ele>
        <time>2015-05-06T12:48:17Z</time>
      </trkpt>
      <trkpt lat="45.45794" lon="5.83849">
        <ele>1553.561930788</ele>
        <time>2015-05-06T12:48:21Z</time>
      </trkpt>
      <trkpt lat="45.45794" lon="5.83849">
        <ele>1553.561930788</ele>
        <time>2015-05-06T12:48:26Z</time>
      </trkpt>
      <trkpt lat="45.45795" lon="5.83849">
        <ele>1553.561930788</ele>
        <time>2015-05-06T12:48:32Z</time>
      </trkpt>
      <trkpt lat="45.45796" lon="5.83849">
        <ele>1551.159610986</ele>
        <time>2015-05-06T12:48:36Z</time>
      </trkpt>
      <trkpt lat="45.45806" lon="5.83852">
        <ele>1549.086453709</ele>
        <time>2015-05-06T12:48:42Z</time>
      </trkpt>
      <trkpt lat="45.45815" lon="5.83854">
        <ele>1549.086453709</ele>
        <time>2015-05-06T12:48:46Z</time>
      </trkpt>
      <trkpt lat="45.45825" lon="5.83857">
        <ele>1547.901626658</ele>
        <time>2015-05-06T12:48:52Z</time>
      </trkpt>
      <trkpt lat="45.4583" lon="5.83864">
        <ele>1547.901626658</ele>
        <time>2015-05-06T12:48:56Z</time>
      </trkpt>
      <trkpt lat="45.4584" lon="5.83869">
        <ele>1546.246722027</ele>
        <time>2015-05-06T12:49:02Z</time>
      </trkpt>
      <trkpt lat="45.45847" lon="5.83865">
        <ele>1546.246722027</ele>
        <time>2015-05-06T12:49:06Z</time>
      </trkpt>
      <trkpt lat="45.45856" lon="5.83866">
        <ele>1544.449125303</ele>
        <time>2015-05-06T12:49:12Z</time>
      </trkpt>
      <trkpt lat="45.45867" lon="5.83871">
        <ele>1542.523840878</ele>
        <time>2015-05-06T12:49:16Z</time>
      </trkpt>
      <trkpt lat="45.45877" lon="5.83869">
        <ele>1540.772868145</ele>
        <time>2015-05-06T12:49:22Z</time>
      </trkpt>
      <trkpt lat="45.45883" lon="5.83872">
        <ele>1540.772868145</ele>
        <time>2015-05-06T12:49:26Z</time>
      </trkpt>
      <trkpt lat="45.45891" lon="5.83872">
        <ele>1539.042740727</ele>
        <time>2015-05-06T12:49:31Z</time>
      </trkpt>
      <trkpt lat="45.459" lon="5.83882">
        <ele>1537.623106966</ele>
        <time>2015-05-06T12:49:37Z</time>
      </trkpt>
      <trkpt lat="45.45901" lon="5.83891">
        <ele>1537.623106966</ele>
        <time>2015-05-06T12:49:41Z</time>
      </trkpt>
      <trkpt lat="45.45906" lon="5.83891">
        <ele>1536.781058714</ele>
        <time>2015-05-06T12:49:47Z</time>
      </trkpt>
      <trkpt lat="45.45919" lon="5.83896">
        <ele>1535.897398726</ele>
        <time>2015-05-06T12:49:51Z</time>
      </trkpt>
      <trkpt lat="45.45926" lon="5.83903">
        <ele>1535.897398726</ele>
        <time>2015-05-06T12:49:57Z</time>
      </trkpt>
      <trkpt lat="45.45933" lon="5.8391">
        <ele>1535.551068808</ele>
        <time>2015-05-06T12:50:01Z</time>
      </trkpt>
      <trkpt lat="45.4594" lon="5.83914">
        <ele>1535.551068808</ele>
        <time>2015-05-06T12:50:07Z</time>
      </trkpt>
      <trkpt lat="45.45947" lon="5.83928">
        <ele>1534.835539094</ele>
        <time>2015-05-06T12:50:11Z</time>
      </trkpt>
      <trkpt lat="45.45952" lon="5.83932">
        <ele>1534.835539094</ele>
        <time>2015-05-06T12:50:17Z</time>
      </trkpt>
      <trkpt lat="45.4596" lon="5.83929">
        <ele>1534.064502964</ele>
        <time>2015-05-06T12:50:21Z</time>
      </trkpt>
      <trkpt lat="45.45968" lon="5.83927">
        <ele>1534.064502964</ele>
        <time>2015-05-06T12:50:27Z</time>
      </trkpt>
      <trkpt lat="45.45979" lon="5.83931">
        <ele>1533.528499052</ele>
        <time>2015-05-06T12:50:31Z</time>
      </trkpt>
      <trkpt lat="45.4599" lon="5.83939">
        <ele>1533.207602259</ele>
        <time>2015-05-06T12:50:37Z</time>
      </trkpt>
      <trkpt lat="45.45996" lon="5.83944">
        <ele>1533.207602259</ele>
        <time>2015-05-06T12:50:41Z</time>
      </trkpt>
      <trkpt lat="45.46005" lon="5.83948">
        <ele>1532.217866546</ele>
        <time>2015-05-06T12:50:47Z</time>
      </trkpt>
      <trkpt lat="45.46016" lon="5.83956">
        <ele>1531.183077472</ele>
        <time>2015-05-06T12:50:51Z</time>
      </trkpt>
      <trkpt lat="45.46027" lon="5.83963">
        <ele>1530.248821989</ele>
        <time>2015-05-06T12:50:57Z</time>
      </trkpt>
      <trkpt lat="45.46037" lon="5.83968">
        <ele>1529.405450479</ele>
        <time>2015-05-06T12:51:01Z</time>
      </trkpt>
      <trkpt lat="45.46046" lon="5.83977">
        <ele>1528.355414075</ele>
        <time>2015-05-06T12:51:07Z</time>
      </trkpt>
      <trkpt lat="45.46058" lon="5.83984">
        <ele>1527.688155202</ele>
        <time>2015-05-06T12:51:11Z</time>
      </trkpt>
      <trkpt lat="45.46065" lon="5.83983">
        <ele>1527.688155202</ele>
        <time>2015-05-06T12:51:17Z</time>
      </trkpt>
      <trkpt lat="45.4608" lon="5.83993">
        <ele>1527.228090673</ele>
        <time>2015-05-06T12:51:21Z</time>
      </trkpt>
      <trkpt lat="45.46096" lon="5.84007">
        <ele>1526.523652757</ele>
        <time>2015-05-06T12:51:27Z</time>
      </trkpt>
      <trkpt lat="45.46104" lon="5.84016">
        <ele>1525.877624107</ele>
        <time>2015-05-06T12:51:31Z</time>
      </trkpt>
      <trkpt lat="45.46113" lon="5.8402">
        <ele>1525.570334761</ele>
        <time>2015-05-06T12:51:37Z</time>
      </trkpt>
      <trkpt lat="45.46119" lon="5.84028">
        <ele>1525.570334761</ele>
        <time>2015-05-06T12:51:41Z</time>
      </trkpt>
      <trkpt lat="45.46131" lon="5.8403">
        <ele>1525.860541755</ele>
        <time>2015-05-06T12:51:47Z</time>
      </trkpt>
      <trkpt lat="45.46138" lon="5.84035">
        <ele>1525.860541755</ele>
        <time>2015-05-06T12:51:51Z</time>
      </trkpt>
      <trkpt lat="45.46148" lon="5.84036">
        <ele>1526.26574911</ele>
        <time>2015-05-06T12:51:57Z</time>
      </trkpt>
      <trkpt lat="45.46156" lon="5.84039">
        <ele>1526.26574911</ele>
        <time>2015-05-06T12:52:01Z</time>
      </trkpt>
      <trkpt lat="45.46168" lon="5.84052">
        <ele>1525.762140819</ele>
        <time>2015-05-06T12:52:07Z</time>
      </trkpt>
      <trkpt lat="45.46176" lon="5.84059">
        <ele>1525.853569229</ele>
        <time>2015-05-06T12:52:11Z</time>
      </trkpt>
      <trkpt lat="45.46187" lon="5.84066">
        <ele>1525.33777873</ele>
        <time>2015-05-06T12:52:17Z</time>
      </trkpt>
      <trkpt lat="45.46196" lon="5.8407">
        <ele>1524.976025825</ele>
        <time>2015-05-06T12:52:21Z</time>
      </trkpt>
      <trkpt lat="45.46206" lon="5.84082">
        <ele>1524.608602935</ele>
        <time>2015-05-06T12:52:26Z</time>
      </trkpt>
      <trkpt lat="45.46213" lon="5.84087">
        <ele>1524.608602935</ele>
        <time>2015-05-06T12:52:31Z</time>
      </trkpt>
      <trkpt lat="45.46224" lon="5.84097">
        <ele>1524.231726993</ele>
        <time>2015-05-06T12:52:37Z</time>
      </trkpt>
      <trkpt lat="45.46228" lon="5.84105">
        <ele>1524.231726993</ele>
        <time>2015-05-06T12:52:41Z</time>
      </trkpt>
      <trkpt lat="45.46235" lon="5.84123">
        <ele>1523.121435161</ele>
        <time>2015-05-06T12:52:47Z</time>
      </trkpt>
      <trkpt lat="45.46242" lon="5.84136">
        <ele>1521.473746367</ele>
        <time>2015-05-06T12:52:51Z</time>
      </trkpt>
      <trkpt lat="45.46248" lon="5.84147">
        <ele>1520.624754837</ele>
        <time>2015-05-06T12:52:57Z</time>
      </trkpt>
      <trkpt lat="45.46253" lon="5.84158">
        <ele>1519.504464709</ele>
        <time>2015-05-06T12:53:01Z</time>
      </trkpt>
      <trkpt lat="45.46255" lon="5.84169">
        <ele>1519.504464709</ele>
        <time>2015-05-06T12:53:07Z</time>
      </trkpt>
      <trkpt lat="45.46258" lon="5.8418">
        <ele>1518.275208443</ele>
        <time>2015-05-06T12:53:11Z</time>
      </trkpt>
      <trkpt lat="45.46262" lon="5.84189">
        <ele>1518.275208443</ele>
        <time>2015-05-06T12:53:17Z</time>
      </trkpt>
      <trkpt lat="45.46262" lon="5.84202">
        <ele>1517.087774869</ele>
        <time>2015-05-06T12:53:21Z</time>
      </trkpt>
      <trkpt lat="45.46263" lon="5.84212">
        <ele>1517.087774869</ele>
        <time>2015-05-06T12:53:27Z</time>
      </trkpt>
      <trkpt lat="45.46261" lon="5.84223">
        <ele>1515.073053682</ele>
        <time>2015-05-06T12:53:31Z</time>
      </trkpt>
      <trkpt lat="45.46262" lon="5.84232">
        <ele>1515.073053682</ele>
        <time>2015-05-06T12:53:37Z</time>
      </trkpt>
      <trkpt lat="45.46266" lon="5.84249">
        <ele>1513.301614524</ele>
        <time>2015-05-06T12:53:41Z</time>
      </trkpt>
      <trkpt lat="45.46268" lon="5.84259">
        <ele>1513.301614524</ele>
        <time>2015-05-06T12:53:47Z</time>
      </trkpt>
      <trkpt lat="45.46273" lon="5.84263">
        <ele>1511.755988102</ele>
        <time>2015-05-06T12:53:51Z</time>
      </trkpt>
      <trkpt lat="45.46279" lon="5.84268">
        <ele>1511.755988102</ele>
        <time>2015-05-06T12:53:57Z</time>
      </trkpt>
      <trkpt lat="45.46278" lon="5.84272">
        <ele>1510.707638079</ele>
        <time>2015-05-06T12:54:01Z</time>
      </trkpt>
      <trkpt lat="45.46282" lon="5.84281">
        <ele>1510.707638079</ele>
        <time>2015-05-06T12:54:07Z</time>
      </trkpt>
      <trkpt lat="45.46284" lon="5.84289">
        <ele>1509.397970064</ele>
        <time>2015-05-06T12:54:11Z</time>
      </trkpt>
      <trkpt lat="45.46287" lon="5.84295">
        <ele>1509.397970064</ele>
        <time>2015-05-06T12:54:17Z</time>
      </trkpt>
      <trkpt lat="45.4629" lon="5.84302">
        <ele>1508.421903863</ele>
        <time>2015-05-06T12:54:21Z</time>
      </trkpt>
      <trkpt lat="45.46292" lon="5.84309">
        <ele>1508.421903863</ele>
        <time>2015-05-06T12:54:27Z</time>
      </trkpt>
      <trkpt lat="45.46295" lon="5.84322">
        <ele>1507.465107967</ele>
        <time>2015-05-06T12:54:31Z</time>
      </trkpt>
      <trkpt lat="45.46293" lon="5.84339">
        <ele>1506.668675223</ele>
        <time>2015-05-06T12:54:37Z</time>
      </trkpt>
      <trkpt lat="45.46287" lon="5.84367">
        <ele>1505.730605256</ele>
        <time>2015-05-06T12:54:41Z</time>
      </trkpt>
      <trkpt lat="45.4628" lon="5.8439">
        <ele>1504.371534682</ele>
        <time>2015-05-06T12:54:47Z</time>
      </trkpt>
      <trkpt lat="45.46276" lon="5.84405">
        <ele>1502.91030184</ele>
        <time>2015-05-06T12:54:51Z</time>
      </trkpt>
      <trkpt lat="45.46271" lon="5.84424">
        <ele>1501.354439747</ele>
        <time>2015-05-06T12:54:57Z</time>
      </trkpt>
      <trkpt lat="45.46269" lon="5.84434">
        <ele>1501.354439747</ele>
        <time>2015-05-06T12:55:01Z</time>
      </trkpt>
      <trkpt lat="45.46266" lon="5.84442">
        <ele>1499.278907766</ele>
        <time>2015-05-06T12:55:07Z</time>
      </trkpt>
      <trkpt lat="45.4626" lon="5.84449">
        <ele>1499.278907766</ele>
        <time>2015-05-06T12:55:11Z</time>
      </trkpt>
      <trkpt lat="45.46253" lon="5.84458">
        <ele>1495.859052422</ele>
        <time>2015-05-06T12:55:17Z</time>
      </trkpt>
      <trkpt lat="45.4625" lon="5.84471">
        <ele>1492.496266361</ele>
        <time>2015-05-06T12:55:21Z</time>
      </trkpt>
      <trkpt lat="45.46247" lon="5.84484">
        <ele>1489.480074056</ele>
        <time>2015-05-06T12:55:25Z</time>
      </trkpt>
      <trkpt lat="45.46237" lon="5.84492">
        <ele>1485.780758152</ele>
        <time>2015-05-06T12:55:32Z</time>
      </trkpt>
      <trkpt lat="45.46235" lon="5.84496">
        <ele>1485.780758152</ele>
        <time>2015-05-06T12:55:35Z</time>
      </trkpt>
      <trkpt lat="45.46236" lon="5.84492">
        <ele>1485.780758152</ele>
        <time>2015-05-06T12:55:40Z</time>
      </trkpt>
      <trkpt lat="45.46235" lon="5.8449">
        <ele>1485.780758152</ele>
        <time>2015-05-06T12:55:45Z</time>
      </trkpt>
      <trkpt lat="45.46234" lon="5.84489">
        <ele>1481.887253718</ele>
        <time>2015-05-06T12:55:50Z</time>
      </trkpt>
      <trkpt lat="45.46234" lon="5.84489">
        <ele>1481.887253718</ele>
        <time>2015-05-06T12:55:55Z</time>
      </trkpt>
      <trkpt lat="45.46234" lon="5.84489">
        <ele>1481.887253718</ele>
        <time>2015-05-06T12:56:00Z</time>
      </trkpt>
      <trkpt lat="45.46234" lon="5.84489">
        <ele>1481.887253718</ele>
        <time>2015-05-06T12:56:05Z</time>
      </trkpt>
      <trkpt lat="45.46234" lon="5.84489">
        <ele>1481.887253718</ele>
        <time>2015-05-06T12:56:10Z</time>
      </trkpt>
      <trkpt lat="45.46234" lon="5.84489">
        <ele>1481.887253718</ele>
        <time>2015-05-06T12:56:15Z</time>
      </trkpt>
      <trkpt lat="45.46233" lon="5.84489">
        <ele>1481.887253718</ele>
        <time>2015-05-06T12:56:20Z</time>
      </trkpt>
      <trkpt lat="45.46233" lon="5.84489">
        <ele>1481.887253718</ele>
        <time>2015-05-06T12:56:26Z</time>
      </trkpt>
      <trkpt lat="45.46231" lon="5.84493">
        <ele>1481.887253718</ele>
        <time>2015-05-06T12:56:31Z</time>
      </trkpt>
      <trkpt lat="45.46224" lon="5.84477">
        <ele>1478.541312109</ele>
        <time>2015-05-06T12:56:36Z</time>
      </trkpt>
      <trkpt lat="45.46224" lon="5.84467">
        <ele>1478.541312109</ele>
        <time>2015-05-06T12:56:41Z</time>
      </trkpt>
      <trkpt lat="45.46218" lon="5.84462">
        <ele>1474.98749892</ele>
        <time>2015-05-06T12:56:46Z</time>
      </trkpt>
      <trkpt lat="45.46217" lon="5.84452">
        <ele>1474.98749892</ele>
        <time>2015-05-06T12:56:51Z</time>
      </trkpt>
      <trkpt lat="45.46212" lon="5.84445">
        <ele>1471.102836726</ele>
        <time>2015-05-06T12:56:56Z</time>
      </trkpt>
      <trkpt lat="45.46206" lon="5.84431">
        <ele>1467.062453661</ele>
        <time>2015-05-06T12:57:01Z</time>
      </trkpt>
      <trkpt lat="45.46203" lon="5.84417">
        <ele>1463.317180586</ele>
        <time>2015-05-06T12:57:05Z</time>
      </trkpt>
      <trkpt lat="45.46186" lon="5.84409">
        <ele>1459.851465583</ele>
        <time>2015-05-06T12:57:12Z</time>
      </trkpt>
      <trkpt lat="45.46178" lon="5.844">
        <ele>1456.217666937</ele>
        <time>2015-05-06T12:57:16Z</time>
      </trkpt>
      <trkpt lat="45.46165" lon="5.84388">
        <ele>1452.86604201</ele>
        <time>2015-05-06T12:57:21Z</time>
      </trkpt>
      <trkpt lat="45.46159" lon="5.84395">
        <ele>1452.86604201</ele>
        <time>2015-05-06T12:57:26Z</time>
      </trkpt>
      <trkpt lat="45.4616" lon="5.84402">
        <ele>1449.636407095</ele>
        <time>2015-05-06T12:57:31Z</time>
      </trkpt>
      <trkpt lat="45.46158" lon="5.84414">
        <ele>1449.636407095</ele>
        <time>2015-05-06T12:57:36Z</time>
      </trkpt>
      <trkpt lat="45.46155" lon="5.84422">
        <ele>1446.668092298</ele>
        <time>2015-05-06T12:57:41Z</time>
      </trkpt>
      <trkpt lat="45.46151" lon="5.84431">
        <ele>1446.668092298</ele>
        <time>2015-05-06T12:57:46Z</time>
      </trkpt>
      <trkpt lat="45.46157" lon="5.84441">
        <ele>1443.512878766</ele>
        <time>2015-05-06T12:57:51Z</time>
      </trkpt>
      <trkpt lat="45.46159" lon="5.84449">
        <ele>1443.512878766</ele>
        <time>2015-05-06T12:57:56Z</time>
      </trkpt>
      <trkpt lat="45.46163" lon="5.84463">
        <ele>1440.620527941</ele>
        <time>2015-05-06T12:58:01Z</time>
      </trkpt>
      <trkpt lat="45.46162" lon="5.84467">
        <ele>1440.620527941</ele>
        <time>2015-05-06T12:58:06Z</time>
      </trkpt>
      <trkpt lat="45.46164" lon="5.84479">
        <ele>1436.82166366</ele>
        <time>2015-05-06T12:58:11Z</time>
      </trkpt>
      <trkpt lat="45.46166" lon="5.84499">
        <ele>1433.48510554</ele>
        <time>2015-05-06T12:58:16Z</time>
      </trkpt>
      <trkpt lat="45.46168" lon="5.84515">
        <ele>1430.580683953</ele>
        <time>2015-05-06T12:58:21Z</time>
      </trkpt>
      <trkpt lat="45.46167" lon="5.84527">
        <ele>1430.580683953</ele>
        <time>2015-05-06T12:58:26Z</time>
      </trkpt>
      <trkpt lat="45.46166" lon="5.84546">
        <ele>1428.367317773</ele>
        <time>2015-05-06T12:58:31Z</time>
      </trkpt>
      <trkpt lat="45.4617" lon="5.84559">
        <ele>1426.362277133</ele>
        <time>2015-05-06T12:58:36Z</time>
      </trkpt>
      <trkpt lat="45.46166" lon="5.84576">
        <ele>1424.549915233</ele>
        <time>2015-05-06T12:58:41Z</time>
      </trkpt>
      <trkpt lat="45.46162" lon="5.84595">
        <ele>1422.915077082</ele>
        <time>2015-05-06T12:58:46Z</time>
      </trkpt>
      <trkpt lat="45.46161" lon="5.846">
        <ele>1422.915077082</ele>
        <time>2015-05-06T12:58:51Z</time>
      </trkpt>
      <trkpt lat="45.46155" lon="5.84612">
        <ele>1420.146114984</ele>
        <time>2015-05-06T12:58:55Z</time>
      </trkpt>
      <trkpt lat="45.46153" lon="5.84621">
        <ele>1420.146114984</ele>
        <time>2015-05-06T12:59:00Z</time>
      </trkpt>
      <trkpt lat="45.46151" lon="5.84636">
        <ele>1417.480706912</ele>
        <time>2015-05-06T12:59:06Z</time>
      </trkpt>
      <trkpt lat="45.46145" lon="5.84648">
        <ele>1415.200563252</ele>
        <time>2015-05-06T12:59:11Z</time>
      </trkpt>
      <trkpt lat="45.46142" lon="5.8466">
        <ele>1413.277312635</ele>
        <time>2015-05-06T12:59:16Z</time>
      </trkpt>
      <trkpt lat="45.46141" lon="5.84676">
        <ele>1411.683589167</ele>
        <time>2015-05-06T12:59:21Z</time>
      </trkpt>
      <trkpt lat="45.46137" lon="5.84686">
        <ele>1411.683589167</ele>
        <time>2015-05-06T12:59:26Z</time>
      </trkpt>
      <trkpt lat="45.46134" lon="5.84696">
        <ele>1409.960710295</ele>
        <time>2015-05-06T12:59:31Z</time>
      </trkpt>
      <trkpt lat="45.4613" lon="5.84707">
        <ele>1409.960710295</ele>
        <time>2015-05-06T12:59:36Z</time>
      </trkpt>
      <trkpt lat="45.46125" lon="5.84717">
        <ele>1409.269215693</ele>
        <time>2015-05-06T12:59:41Z</time>
      </trkpt>
      <trkpt lat="45.46118" lon="5.84719">
        <ele>1409.269215693</ele>
        <time>2015-05-06T12:59:46Z</time>
      </trkpt>
      <trkpt lat="45.4611" lon="5.84708">
        <ele>1406.790450169</ele>
        <time>2015-05-06T12:59:51Z</time>
      </trkpt>
      <trkpt lat="45.46109" lon="5.84698">
        <ele>1406.790450169</ele>
        <time>2015-05-06T12:59:56Z</time>
      </trkpt>
      <trkpt lat="45.46106" lon="5.84694">
        <ele>1403.520568711</ele>
        <time>2015-05-06T13:00:01Z</time>
      </trkpt>
      <trkpt lat="45.46103" lon="5.84693">
        <ele>1403.520568711</ele>
        <time>2015-05-06T13:00:06Z</time>
      </trkpt>
      <trkpt lat="45.46098" lon="5.8469">
        <ele>1403.520568711</ele>
        <time>2015-05-06T13:00:11Z</time>
      </trkpt>
      <trkpt lat="45.46096" lon="5.84684">
        <ele>1400.384733914</ele>
        <time>2015-05-06T13:00:16Z</time>
      </trkpt>
      <trkpt lat="45.46093" lon="5.84681">
        <ele>1400.384733914</ele>
        <time>2015-05-06T13:00:21Z</time>
      </trkpt>
      <trkpt lat="45.46092" lon="5.84679">
        <ele>1400.384733914</ele>
        <time>2015-05-06T13:00:26Z</time>
      </trkpt>
      <trkpt lat="45.46089" lon="5.84678">
        <ele>1400.384733914</ele>
        <time>2015-05-06T13:00:31Z</time>
      </trkpt>
      <trkpt lat="45.46089" lon="5.84678">
        <ele>1400.384733914</ele>
        <time>2015-05-06T13:00:36Z</time>
      </trkpt>
      <trkpt lat="45.46086" lon="5.84679">
        <ele>1397.375069841</ele>
        <time>2015-05-06T13:00:41Z</time>
      </trkpt>
      <trkpt lat="45.46081" lon="5.84681">
        <ele>1397.375069841</ele>
        <time>2015-05-06T13:00:46Z</time>
      </trkpt>
      <trkpt lat="45.46077" lon="5.84684">
        <ele>1394.628000815</ele>
        <time>2015-05-06T13:00:51Z</time>
      </trkpt>
      <trkpt lat="45.46069" lon="5.84684">
        <ele>1394.628000815</ele>
        <time>2015-05-06T13:00:56Z</time>
      </trkpt>
      <trkpt lat="45.4606" lon="5.84685">
        <ele>1391.116264792</ele>
        <time>2015-05-06T13:01:01Z</time>
      </trkpt>
      <trkpt lat="45.46056" lon="5.84687">
        <ele>1391.116264792</ele>
        <time>2015-05-06T13:01:06Z</time>
      </trkpt>
      <trkpt lat="45.46054" lon="5.84691">
        <ele>1391.116264792</ele>
        <time>2015-05-06T13:01:11Z</time>
      </trkpt>
      <trkpt lat="45.46048" lon="5.84693">
        <ele>1386.610719393</ele>
        <time>2015-05-06T13:01:16Z</time>
      </trkpt>
      <trkpt lat="45.46047" lon="5.84695">
        <ele>1386.610719393</ele>
        <time>2015-05-06T13:01:21Z</time>
      </trkpt>
      <trkpt lat="45.46048" lon="5.84702">
        <ele>1386.610719393</ele>
        <time>2015-05-06T13:01:25Z</time>
      </trkpt>
      <trkpt lat="45.46043" lon="5.84711">
        <ele>1382.342905216</ele>
        <time>2015-05-06T13:01:31Z</time>
      </trkpt>
      <trkpt lat="45.46044" lon="5.84713">
        <ele>1382.342905216</ele>
        <time>2015-05-06T13:01:36Z</time>
      </trkpt>
      <trkpt lat="45.46045" lon="5.84712">
        <ele>1382.342905216</ele>
        <time>2015-05-06T13:01:41Z</time>
      </trkpt>
      <trkpt lat="45.46045" lon="5.84712">
        <ele>1382.342905216</ele>
        <time>2015-05-06T13:01:46Z</time>
      </trkpt>
      <trkpt lat="45.46043" lon="5.84716">
        <ele>1382.342905216</ele>
        <time>2015-05-06T13:01:51Z</time>
      </trkpt>
      <trkpt lat="45.46041" lon="5.84723">
        <ele>1378.156169833</ele>
        <time>2015-05-06T13:01:56Z</time>
      </trkpt>
      <trkpt lat="45.46045" lon="5.8473">
        <ele>1378.156169833</ele>
        <time>2015-05-06T13:02:01Z</time>
      </trkpt>
      <trkpt lat="45.46044" lon="5.84737">
        <ele>1374.625630845</ele>
        <time>2015-05-06T13:02:06Z</time>
      </trkpt>
      <trkpt lat="45.46046" lon="5.84744">
        <ele>1374.625630845</ele>
        <time>2015-05-06T13:02:11Z</time>
      </trkpt>
      <trkpt lat="45.46043" lon="5.84748">
        <ele>1371.129354456</ele>
        <time>2015-05-06T13:02:16Z</time>
      </trkpt>
      <trkpt lat="45.46042" lon="5.84755">
        <ele>1371.129354456</ele>
        <time>2015-05-06T13:02:21Z</time>
      </trkpt>
      <trkpt lat="45.46039" lon="5.8476">
        <ele>1367.090918439</ele>
        <time>2015-05-06T13:02:26Z</time>
      </trkpt>
      <trkpt lat="45.46039" lon="5.8476">
        <ele>1367.090918439</ele>
        <time>2015-05-06T13:02:31Z</time>
      </trkpt>
      <trkpt lat="45.46036" lon="5.8476">
        <ele>1367.090918439</ele>
        <time>2015-05-06T13:02:36Z</time>
      </trkpt>
      <trkpt lat="45.46034" lon="5.8476">
        <ele>1367.090918439</ele>
        <time>2015-05-06T13:02:41Z</time>
      </trkpt>
      <trkpt lat="45.46033" lon="5.84759">
        <ele>1367.090918439</ele>
        <time>2015-05-06T13:02:46Z</time>
      </trkpt>
      <trkpt lat="45.4603" lon="5.84761">
        <ele>1363.130571068</ele>
        <time>2015-05-06T13:02:51Z</time>
      </trkpt>
      <trkpt lat="45.46031" lon="5.84763">
        <ele>1363.130571068</ele>
        <time>2015-05-06T13:02:56Z</time>
      </trkpt>
      <trkpt lat="45.46031" lon="5.84764">
        <ele>1363.130571068</ele>
        <time>2015-05-06T13:03:01Z</time>
      </trkpt>
      <trkpt lat="45.46024" lon="5.8477">
        <ele>1358.813912643</ele>
        <time>2015-05-06T13:03:06Z</time>
      </trkpt>
      <trkpt lat="45.46015" lon="5.84771">
        <ele>1354.027582568</ele>
        <time>2015-05-06T13:03:11Z</time>
      </trkpt>
      <trkpt lat="45.4601" lon="5.84779">
        <ele>1354.027582568</ele>
        <time>2015-05-06T13:03:16Z</time>
      </trkpt>
      <trkpt lat="45.46007" lon="5.84794">
        <ele>1348.66776361</ele>
        <time>2015-05-06T13:03:21Z</time>
      </trkpt>
      <trkpt lat="45.46004" lon="5.84809">
        <ele>1343.648541363</ele>
        <time>2015-05-06T13:03:26Z</time>
      </trkpt>
      <trkpt lat="45.45998" lon="5.84819">
        <ele>1339.0952222</ele>
        <time>2015-05-06T13:03:31Z</time>
      </trkpt>
      <trkpt lat="45.45992" lon="5.84822">
        <ele>1339.0952222</ele>
        <time>2015-05-06T13:03:36Z</time>
      </trkpt>
      <trkpt lat="45.45987" lon="5.84824">
        <ele>1334.690139004</ele>
        <time>2015-05-06T13:03:41Z</time>
      </trkpt>
      <trkpt lat="45.45986" lon="5.84821">
        <ele>1334.690139004</ele>
        <time>2015-05-06T13:03:46Z</time>
      </trkpt>
      <trkpt lat="45.45986" lon="5.84821">
        <ele>1334.690139004</ele>
        <time>2015-05-06T13:03:51Z</time>
      </trkpt>
      <trkpt lat="45.45986" lon="5.8482">
        <ele>1334.690139004</ele>
        <time>2015-05-06T13:03:56Z</time>
      </trkpt>
      <trkpt lat="45.45986" lon="5.84823">
        <ele>1334.690139004</ele>
        <time>2015-05-06T13:04:01Z</time>
      </trkpt>
      <trkpt lat="45.45987" lon="5.8482">
        <ele>1334.690139004</ele>
        <time>2015-05-06T13:04:06Z</time>
      </trkpt>
      <trkpt lat="45.45986" lon="5.8482">
        <ele>1334.690139004</ele>
        <time>2015-05-06T13:04:11Z</time>
      </trkpt>
      <trkpt lat="45.45986" lon="5.84821">
        <ele>1334.690139004</ele>
        <time>2015-05-06T13:04:15Z</time>
      </trkpt>
      <trkpt lat="45.45987" lon="5.84819">
        <ele>1330.282521275</ele>
        <time>2015-05-06T13:04:20Z</time>
      </trkpt>
      <trkpt lat="45.45983" lon="5.84819">
        <ele>1330.282521275</ele>
        <time>2015-05-06T13:04:25Z</time>
      </trkpt>
      <trkpt lat="45.45982" lon="5.8482">
        <ele>1330.282521275</ele>
        <time>2015-05-06T13:04:30Z</time>
      </trkpt>
      <trkpt lat="45.45986" lon="5.84834">
        <ele>1326.597211359</ele>
        <time>2015-05-06T13:04:35Z</time>
      </trkpt>
      <trkpt lat="45.45984" lon="5.84846">
        <ele>1326.597211359</ele>
        <time>2015-05-06T13:04:40Z</time>
      </trkpt>
      <trkpt lat="45.45979" lon="5.84864">
        <ele>1322.574307512</ele>
        <time>2015-05-06T13:04:47Z</time>
      </trkpt>
      <trkpt lat="45.45976" lon="5.84874">
        <ele>1322.574307512</ele>
        <time>2015-05-06T13:04:51Z</time>
      </trkpt>
      <trkpt lat="45.45971" lon="5.8489">
        <ele>1318.817801935</ele>
        <time>2015-05-06T13:04:57Z</time>
      </trkpt>
      <trkpt lat="45.45967" lon="5.849">
        <ele>1318.817801935</ele>
        <time>2015-05-06T13:05:01Z</time>
      </trkpt>
      <trkpt lat="45.45959" lon="5.84916">
        <ele>1315.165882247</ele>
        <time>2015-05-06T13:05:07Z</time>
      </trkpt>
      <trkpt lat="45.45957" lon="5.84925">
        <ele>1315.165882247</ele>
        <time>2015-05-06T13:05:11Z</time>
      </trkpt>
      <trkpt lat="45.45958" lon="5.84938">
        <ele>1311.468201062</ele>
        <time>2015-05-06T13:05:17Z</time>
      </trkpt>
      <trkpt lat="45.4596" lon="5.84951">
        <ele>1308.450128275</ele>
        <time>2015-05-06T13:05:21Z</time>
      </trkpt>
      <trkpt lat="45.45967" lon="5.84963">
        <ele>1305.772948989</ele>
        <time>2015-05-06T13:05:27Z</time>
      </trkpt>
      <trkpt lat="45.45973" lon="5.84977">
        <ele>1303.554102532</ele>
        <time>2015-05-06T13:05:31Z</time>
      </trkpt>
      <trkpt lat="45.45977" lon="5.84996">
        <ele>1301.612801101</ele>
        <time>2015-05-06T13:05:37Z</time>
      </trkpt>
      <trkpt lat="45.45983" lon="5.85003">
        <ele>1301.612801101</ele>
        <time>2015-05-06T13:05:41Z</time>
      </trkpt>
      <trkpt lat="45.45992" lon="5.85014">
        <ele>1298.916013511</ele>
        <time>2015-05-06T13:05:47Z</time>
      </trkpt>
      <trkpt lat="45.46005" lon="5.85021">
        <ele>1296.237983267</ele>
        <time>2015-05-06T13:05:51Z</time>
      </trkpt>
      <trkpt lat="45.46017" lon="5.85034">
        <ele>1293.575418054</ele>
        <time>2015-05-06T13:05:56Z</time>
      </trkpt>
      <trkpt lat="45.46026" lon="5.85046">
        <ele>1291.21340575</ele>
        <time>2015-05-06T13:06:02Z</time>
      </trkpt>
      <trkpt lat="45.46033" lon="5.85062">
        <ele>1288.982884815</ele>
        <time>2015-05-06T13:06:06Z</time>
      </trkpt>
      <trkpt lat="45.46043" lon="5.85076">
        <ele>1286.870935369</ele>
        <time>2015-05-06T13:06:12Z</time>
      </trkpt>
      <trkpt lat="45.46051" lon="5.85089">
        <ele>1285.009356688</ele>
        <time>2015-05-06T13:06:16Z</time>
      </trkpt>
      <trkpt lat="45.46059" lon="5.851">
        <ele>1283.23134487</ele>
        <time>2015-05-06T13:06:22Z</time>
      </trkpt>
      <trkpt lat="45.46067" lon="5.85111">
        <ele>1282.246798705</ele>
        <time>2015-05-06T13:06:26Z</time>
      </trkpt>
      <trkpt lat="45.46078" lon="5.85121">
        <ele>1281.126050285</ele>
        <time>2015-05-06T13:06:32Z</time>
      </trkpt>
      <trkpt lat="45.46086" lon="5.85137">
        <ele>1280.161041814</ele>
        <time>2015-05-06T13:06:36Z</time>
      </trkpt>
      <trkpt lat="45.46095" lon="5.85151">
        <ele>1279.333671817</ele>
        <time>2015-05-06T13:06:42Z</time>
      </trkpt>
      <trkpt lat="45.46102" lon="5.85166">
        <ele>1278.915082485</ele>
        <time>2015-05-06T13:06:46Z</time>
      </trkpt>
      <trkpt lat="45.46109" lon="5.85179">
        <ele>1278.723111685</ele>
        <time>2015-05-06T13:06:52Z</time>
      </trkpt>
      <trkpt lat="45.46116" lon="5.85195">
        <ele>1278.876676132</ele>
        <time>2015-05-06T13:06:56Z</time>
      </trkpt>
      <trkpt lat="45.46125" lon="5.85207">
        <ele>1278.620447855</ele>
        <time>2015-05-06T13:07:02Z</time>
      </trkpt>
      <trkpt lat="45.46131" lon="5.85218">
        <ele>1278.985212672</ele>
        <time>2015-05-06T13:07:06Z</time>
      </trkpt>
      <trkpt lat="45.46142" lon="5.85232">
        <ele>1279.195119713</ele>
        <time>2015-05-06T13:07:12Z</time>
      </trkpt>
      <trkpt lat="45.46149" lon="5.85246">
        <ele>1279.25247701</ele>
        <time>2015-05-06T13:07:16Z</time>
      </trkpt>
      <trkpt lat="45.46158" lon="5.85256">
        <ele>1279.160039124</ele>
        <time>2015-05-06T13:07:22Z</time>
      </trkpt>
      <trkpt lat="45.46165" lon="5.85266">
        <ele>1279.209200685</ele>
        <time>2015-05-06T13:07:26Z</time>
      </trkpt>
      <trkpt lat="45.46172" lon="5.8527">
        <ele>1279.209200685</ele>
        <time>2015-05-06T13:07:32Z</time>
      </trkpt>
      <trkpt lat="45.4618" lon="5.85275">
        <ele>1278.949206521</ele>
        <time>2015-05-06T13:07:36Z</time>
      </trkpt>
      <trkpt lat="45.46189" lon="5.85282">
        <ele>1278.684052813</ele>
        <time>2015-05-06T13:07:42Z</time>
      </trkpt>
      <trkpt lat="45.462" lon="5.85292">
        <ele>1278.695640701</ele>
        <time>2015-05-06T13:07:46Z</time>
      </trkpt>
      <trkpt lat="45.46209" lon="5.853">
        <ele>1278.524057055</ele>
        <time>2015-05-06T13:07:51Z</time>
      </trkpt>
      <trkpt lat="45.46217" lon="5.85304">
        <ele>1278.524057055</ele>
        <time>2015-05-06T13:07:56Z</time>
      </trkpt>
      <trkpt lat="45.46225" lon="5.85315">
        <ele>1278.464472971</ele>
        <time>2015-05-06T13:08:01Z</time>
      </trkpt>
      <trkpt lat="45.46234" lon="5.85327">
        <ele>1278.06973821</ele>
        <time>2015-05-06T13:08:07Z</time>
      </trkpt>
      <trkpt lat="45.46244" lon="5.85336">
        <ele>1277.503167377</ele>
        <time>2015-05-06T13:08:11Z</time>
      </trkpt>
      <trkpt lat="45.46252" lon="5.85339">
        <ele>1277.503167377</ele>
        <time>2015-05-06T13:08:17Z</time>
      </trkpt>
      <trkpt lat="45.46255" lon="5.85344">
        <ele>1277.493237455</ele>
        <time>2015-05-06T13:08:21Z</time>
      </trkpt>
      <trkpt lat="45.46255" lon="5.85344">
        <ele>1277.493237455</ele>
        <time>2015-05-06T13:08:27Z</time>
      </trkpt>
      <trkpt lat="45.46259" lon="5.85346">
        <ele>1277.493237455</ele>
        <time>2015-05-06T13:08:31Z</time>
      </trkpt>
      <trkpt lat="45.46261" lon="5.85347">
        <ele>1277.493237455</ele>
        <time>2015-05-06T13:08:37Z</time>
      </trkpt>
      <trkpt lat="45.46268" lon="5.85351">
        <ele>1277.560693086</ele>
        <time>2015-05-06T13:08:41Z</time>
      </trkpt>
      <trkpt lat="45.46276" lon="5.85362">
        <ele>1277.549721025</ele>
        <time>2015-05-06T13:08:47Z</time>
      </trkpt>
      <trkpt lat="45.46285" lon="5.8537">
        <ele>1278.325183907</ele>
        <time>2015-05-06T13:08:51Z</time>
      </trkpt>
      <trkpt lat="45.46296" lon="5.85377">
        <ele>1279.389439395</ele>
        <time>2015-05-06T13:08:57Z</time>
      </trkpt>
      <trkpt lat="45.46304" lon="5.8539">
        <ele>1280.136717131</ele>
        <time>2015-05-06T13:09:01Z</time>
      </trkpt>
      <trkpt lat="45.46306" lon="5.85406">
        <ele>1280.439208495</ele>
        <time>2015-05-06T13:09:07Z</time>
      </trkpt>
      <trkpt lat="45.46305" lon="5.8542">
        <ele>1280.468204882</ele>
        <time>2015-05-06T13:09:11Z</time>
      </trkpt>
      <trkpt lat="45.46303" lon="5.85439">
        <ele>1280.239310836</ele>
        <time>2015-05-06T13:09:17Z</time>
      </trkpt>
      <trkpt lat="45.463" lon="5.85455">
        <ele>1280.05616651</ele>
        <time>2015-05-06T13:09:21Z</time>
      </trkpt>
      <trkpt lat="45.46297" lon="5.85471">
        <ele>1279.335540724</ele>
        <time>2015-05-06T13:09:27Z</time>
      </trkpt>
      <trkpt lat="45.46297" lon="5.85488">
        <ele>1278.691664037</ele>
        <time>2015-05-06T13:09:31Z</time>
      </trkpt>
      <trkpt lat="45.46296" lon="5.85508">
        <ele>1278.117197209</ele>
        <time>2015-05-06T13:09:37Z</time>
      </trkpt>
      <trkpt lat="45.46294" lon="5.85522">
        <ele>1277.173012205</ele>
        <time>2015-05-06T13:09:41Z</time>
      </trkpt>
      <trkpt lat="45.46291" lon="5.85538">
        <ele>1275.885797805</ele>
        <time>2015-05-06T13:09:47Z</time>
      </trkpt>
      <trkpt lat="45.46289" lon="5.85557">
        <ele>1274.713753485</ele>
        <time>2015-05-06T13:09:51Z</time>
      </trkpt>
      <trkpt lat="45.46287" lon="5.85572">
        <ele>1273.648925306</ele>
        <time>2015-05-06T13:09:57Z</time>
      </trkpt>
      <trkpt lat="45.46287" lon="5.8559">
        <ele>1272.395568924</ele>
        <time>2015-05-06T13:10:01Z</time>
      </trkpt>
      <trkpt lat="45.46289" lon="5.85605">
        <ele>1270.680328205</ele>
        <time>2015-05-06T13:10:07Z</time>
      </trkpt>
      <trkpt lat="45.46288" lon="5.85621">
        <ele>1268.971899044</ele>
        <time>2015-05-06T13:10:11Z</time>
      </trkpt>
      <trkpt lat="45.46289" lon="5.85634">
        <ele>1268.971899044</ele>
        <time>2015-05-06T13:10:17Z</time>
      </trkpt>
      <trkpt lat="45.4629" lon="5.85633">
        <ele>1266.984076999</ele>
        <time>2015-05-06T13:10:20Z</time>
      </trkpt>
      <trkpt lat="45.4629" lon="5.85634">
        <ele>1266.984076999</ele>
        <time>2015-05-06T13:10:25Z</time>
      </trkpt>
      <trkpt lat="45.4629" lon="5.85635">
        <ele>1266.984076999</ele>
        <time>2015-05-06T13:10:30Z</time>
      </trkpt>
      <trkpt lat="45.46292" lon="5.85633">
        <ele>1266.984076999</ele>
        <time>2015-05-06T13:10:35Z</time>
      </trkpt>
      <trkpt lat="45.46293" lon="5.85632">
        <ele>1266.984076999</ele>
        <time>2015-05-06T13:10:40Z</time>
      </trkpt>
      <trkpt lat="45.46293" lon="5.85632">
        <ele>1266.984076999</ele>
        <time>2015-05-06T13:10:45Z</time>
      </trkpt>
      <trkpt lat="45.46293" lon="5.85632">
        <ele>1266.984076999</ele>
        <time>2015-05-06T13:10:50Z</time>
      </trkpt>
      <trkpt lat="45.46293" lon="5.85635">
        <ele>1266.984076999</ele>
        <time>2015-05-06T13:10:55Z</time>
      </trkpt>
      <trkpt lat="45.46296" lon="5.85648">
        <ele>1264.596665159</ele>
        <time>2015-05-06T13:11:00Z</time>
      </trkpt>
      <trkpt lat="45.46291" lon="5.85668">
        <ele>1262.131821423</ele>
        <time>2015-05-06T13:11:07Z</time>
      </trkpt>
      <trkpt lat="45.46287" lon="5.85673">
        <ele>1262.131821423</ele>
        <time>2015-05-06T13:11:11Z</time>
      </trkpt>
      <trkpt lat="45.46285" lon="5.8568">
        <ele>1259.455974485</ele>
        <time>2015-05-06T13:11:17Z</time>
      </trkpt>
      <trkpt lat="45.46276" lon="5.8569">
        <ele>1256.590101934</ele>
        <time>2015-05-06T13:11:21Z</time>
      </trkpt>
      <trkpt lat="45.46271" lon="5.85699">
        <ele>1256.590101934</ele>
        <time>2015-05-06T13:11:26Z</time>
      </trkpt>
      <trkpt lat="45.46267" lon="5.85711">
        <ele>1253.410076534</ele>
        <time>2015-05-06T13:11:32Z</time>
      </trkpt>
      <trkpt lat="45.46262" lon="5.85723">
        <ele>1250.37821048</ele>
        <time>2015-05-06T13:11:36Z</time>
      </trkpt>
      <trkpt lat="45.46256" lon="5.85732">
        <ele>1250.37821048</ele>
        <time>2015-05-06T13:11:42Z</time>
      </trkpt>
      <trkpt lat="45.46252" lon="5.85745">
        <ele>1246.625413812</ele>
        <time>2015-05-06T13:11:46Z</time>
      </trkpt>
      <trkpt lat="45.46246" lon="5.85759">
        <ele>1243.36597423</ele>
        <time>2015-05-06T13:11:52Z</time>
      </trkpt>
      <trkpt lat="45.4624" lon="5.8577">
        <ele>1240.1383094</ele>
        <time>2015-05-06T13:11:56Z</time>
      </trkpt>
      <trkpt lat="45.46233" lon="5.8578">
        <ele>1237.091021081</ele>
        <time>2015-05-06T13:12:01Z</time>
      </trkpt>
      <trkpt lat="45.46227" lon="5.85794">
        <ele>1234.07297269</ele>
        <time>2015-05-06T13:12:06Z</time>
      </trkpt>
      <trkpt lat="45.46231" lon="5.85809">
        <ele>1231.088053201</ele>
        <time>2015-05-06T13:12:12Z</time>
      </trkpt>
      <trkpt lat="45.46233" lon="5.85825">
        <ele>1228.139656622</ele>
        <time>2015-05-06T13:12:16Z</time>
      </trkpt>
      <trkpt lat="45.46235" lon="5.8584">
        <ele>1225.230700094</ele>
        <time>2015-05-06T13:12:22Z</time>
      </trkpt>
      <trkpt lat="45.46238" lon="5.85856">
        <ele>1222.219531946</ele>
        <time>2015-05-06T13:12:26Z</time>
      </trkpt>
      <trkpt lat="45.46241" lon="5.85874">
        <ele>1219.119164595</ele>
        <time>2015-05-06T13:12:32Z</time>
      </trkpt>
      <trkpt lat="45.46247" lon="5.85888">
        <ele>1216.374093455</ele>
        <time>2015-05-06T13:12:36Z</time>
      </trkpt>
      <trkpt lat="45.46256" lon="5.85899">
        <ele>1213.530348443</ele>
        <time>2015-05-06T13:12:42Z</time>
      </trkpt>
      <trkpt lat="45.46263" lon="5.8591">
        <ele>1210.455653686</ele>
        <time>2015-05-06T13:12:46Z</time>
      </trkpt>
      <trkpt lat="45.46266" lon="5.85929">
        <ele>1208.036721047</ele>
        <time>2015-05-06T13:12:52Z</time>
      </trkpt>
      <trkpt lat="45.46276" lon="5.85941">
        <ele>1205.796129437</ele>
        <time>2015-05-06T13:12:56Z</time>
      </trkpt>
      <trkpt lat="45.46283" lon="5.85957">
        <ele>1203.579096588</ele>
        <time>2015-05-06T13:13:02Z</time>
      </trkpt>
      <trkpt lat="45.4629" lon="5.85974">
        <ele>1201.67432711</ele>
        <time>2015-05-06T13:13:06Z</time>
      </trkpt>
      <trkpt lat="45.46296" lon="5.85985">
        <ele>1200.060074415</ele>
        <time>2015-05-06T13:13:12Z</time>
      </trkpt>
      <trkpt lat="45.46306" lon="5.85999">
        <ele>1198.138791672</ele>
        <time>2015-05-06T13:13:16Z</time>
      </trkpt>
      <trkpt lat="45.46312" lon="5.86016">
        <ele>1196.942782267</ele>
        <time>2015-05-06T13:13:22Z</time>
      </trkpt>
      <trkpt lat="45.46318" lon="5.86033">
        <ele>1196.273474597</ele>
        <time>2015-05-06T13:13:26Z</time>
      </trkpt>
      <trkpt lat="45.46319" lon="5.86057">
        <ele>1195.657077799</ele>
        <time>2015-05-06T13:13:32Z</time>
      </trkpt>
      <trkpt lat="45.46318" lon="5.86076">
        <ele>1195.519032375</ele>
        <time>2015-05-06T13:13:36Z</time>
      </trkpt>
      <trkpt lat="45.46317" lon="5.86095">
        <ele>1195.387442371</ele>
        <time>2015-05-06T13:13:42Z</time>
      </trkpt>
      <trkpt lat="45.46317" lon="5.86111">
        <ele>1195.113223526</ele>
        <time>2015-05-06T13:13:46Z</time>
      </trkpt>
      <trkpt lat="45.46319" lon="5.86126">
        <ele>1194.990936269</ele>
        <time>2015-05-06T13:13:52Z</time>
      </trkpt>
      <trkpt lat="45.4632" lon="5.86141">
        <ele>1195.004830482</ele>
        <time>2015-05-06T13:13:56Z</time>
      </trkpt>
      <trkpt lat="45.46324" lon="5.86149">
        <ele>1195.004830482</ele>
        <time>2015-05-06T13:14:00Z</time>
      </trkpt>
      <trkpt lat="45.46334" lon="5.86161">
        <ele>1194.851700419</ele>
        <time>2015-05-06T13:14:06Z</time>
      </trkpt>
      <trkpt lat="45.46342" lon="5.86175">
        <ele>1194.683421946</ele>
        <time>2015-05-06T13:14:12Z</time>
      </trkpt>
      <trkpt lat="45.4635" lon="5.86189">
        <ele>1194.496665234</ele>
        <time>2015-05-06T13:14:16Z</time>
      </trkpt>
      <trkpt lat="45.46359" lon="5.862">
        <ele>1194.28842872</ele>
        <time>2015-05-06T13:14:22Z</time>
      </trkpt>
      <trkpt lat="45.46366" lon="5.86214">
        <ele>1194.344256981</ele>
        <time>2015-05-06T13:14:26Z</time>
      </trkpt>
      <trkpt lat="45.46377" lon="5.86223">
        <ele>1194.351586692</ele>
        <time>2015-05-06T13:14:32Z</time>
      </trkpt>
      <trkpt lat="45.46388" lon="5.86233">
        <ele>1194.165125481</ele>
        <time>2015-05-06T13:14:36Z</time>
      </trkpt>
      <trkpt lat="45.46402" lon="5.86237">
        <ele>1193.650868916</ele>
        <time>2015-05-06T13:14:42Z</time>
      </trkpt>
      <trkpt lat="45.46412" lon="5.86241">
        <ele>1193.117987457</ele>
        <time>2015-05-06T13:14:46Z</time>
      </trkpt>
      <trkpt lat="45.46414" lon="5.86239">
        <ele>1193.117987457</ele>
        <time>2015-05-06T13:14:52Z</time>
      </trkpt>
      <trkpt lat="45.46413" lon="5.86241">
        <ele>1193.117987457</ele>
        <time>2015-05-06T13:14:56Z</time>
      </trkpt>
      <trkpt lat="45.46412" lon="5.8624">
        <ele>1193.117987457</ele>
        <time>2015-05-06T13:15:02Z</time>
      </trkpt>
      <trkpt lat="45.46412" lon="5.86239">
        <ele>1193.117987457</ele>
        <time>2015-05-06T13:15:06Z</time>
      </trkpt>
      <trkpt lat="45.46419" lon="5.86239">
        <ele>1193.141298416</ele>
        <time>2015-05-06T13:15:11Z</time>
      </trkpt>
      <trkpt lat="45.46423" lon="5.86242">
        <ele>1193.141298416</ele>
        <time>2015-05-06T13:15:15Z</time>
      </trkpt>
      <trkpt lat="45.46426" lon="5.86244">
        <ele>1193.141298416</ele>
        <time>2015-05-06T13:15:20Z</time>
      </trkpt>
      <trkpt lat="45.46431" lon="5.86245">
        <ele>1192.378475193</ele>
        <time>2015-05-06T13:15:25Z</time>
      </trkpt>
      <trkpt lat="45.46438" lon="5.86245">
        <ele>1192.378475193</ele>
        <time>2015-05-06T13:15:30Z</time>
      </trkpt>
      <trkpt lat="45.46445" lon="5.86246">
        <ele>1192.037983506</ele>
        <time>2015-05-06T13:15:35Z</time>
      </trkpt>
      <trkpt lat="45.46451" lon="5.86248">
        <ele>1192.037983506</ele>
        <time>2015-05-06T13:15:40Z</time>
      </trkpt>
      <trkpt lat="45.46457" lon="5.86249">
        <ele>1191.509090265</ele>
        <time>2015-05-06T13:15:45Z</time>
      </trkpt>
      <trkpt lat="45.46465" lon="5.86251">
        <ele>1191.509090265</ele>
        <time>2015-05-06T13:15:51Z</time>
      </trkpt>
      <trkpt lat="45.46478" lon="5.86254">
        <ele>1190.658882926</ele>
        <time>2015-05-06T13:15:56Z</time>
      </trkpt>
      <trkpt lat="45.46493" lon="5.86261">
        <ele>1189.653430357</ele>
        <time>2015-05-06T13:16:01Z</time>
      </trkpt>
      <trkpt lat="45.46505" lon="5.86268">
        <ele>1188.935353128</ele>
        <time>2015-05-06T13:16:06Z</time>
      </trkpt>
      <trkpt lat="45.46514" lon="5.86278">
        <ele>1188.481709254</ele>
        <time>2015-05-06T13:16:11Z</time>
      </trkpt>
      <trkpt lat="45.46526" lon="5.86288">
        <ele>1187.694145363</ele>
        <time>2015-05-06T13:16:16Z</time>
      </trkpt>
      <trkpt lat="45.46535" lon="5.86295">
        <ele>1187.172177461</ele>
        <time>2015-05-06T13:16:21Z</time>
      </trkpt>
      <trkpt lat="45.46549" lon="5.86308">
        <ele>1186.173622906</ele>
        <time>2015-05-06T13:16:26Z</time>
      </trkpt>
      <trkpt lat="45.46558" lon="5.8632">
        <ele>1185.309241938</ele>
        <time>2015-05-06T13:16:31Z</time>
      </trkpt>
      <trkpt lat="45.46569" lon="5.86334">
        <ele>1184.135855987</ele>
        <time>2015-05-06T13:16:36Z</time>
      </trkpt>
      <trkpt lat="45.46577" lon="5.8635">
        <ele>1182.964342645</ele>
        <time>2015-05-06T13:16:41Z</time>
      </trkpt>
      <trkpt lat="45.46569" lon="5.8637">
        <ele>1181.36225368</ele>
        <time>2015-05-06T13:16:46Z</time>
      </trkpt>
      <trkpt lat="45.46567" lon="5.86376">
        <ele>1181.36225368</ele>
        <time>2015-05-06T13:16:51Z</time>
      </trkpt>
      <trkpt lat="45.4656" lon="5.8638">
        <ele>1180.659517371</ele>
        <time>2015-05-06T13:16:56Z</time>
      </trkpt>
      <trkpt lat="45.46547" lon="5.86389">
        <ele>1180.212460967</ele>
        <time>2015-05-06T13:17:01Z</time>
      </trkpt>
      <trkpt lat="45.46533" lon="5.86398">
        <ele>1179.424037597</ele>
        <time>2015-05-06T13:17:06Z</time>
      </trkpt>
      <trkpt lat="45.46518" lon="5.86404">
        <ele>1178.750852283</ele>
        <time>2015-05-06T13:17:11Z</time>
      </trkpt>
      <trkpt lat="45.46508" lon="5.86403">
        <ele>1178.039256687</ele>
        <time>2015-05-06T13:17:16Z</time>
      </trkpt>
      <trkpt lat="45.46495" lon="5.86414">
        <ele>1177.14705224</ele>
        <time>2015-05-06T13:17:21Z</time>
      </trkpt>
      <trkpt lat="45.46481" lon="5.8642">
        <ele>1175.943045381</ele>
        <time>2015-05-06T13:17:26Z</time>
      </trkpt>
      <trkpt lat="45.46469" lon="5.86423">
        <ele>1174.883048839</ele>
        <time>2015-05-06T13:17:31Z</time>
      </trkpt>
      <trkpt lat="45.46456" lon="5.86427">
        <ele>1174.244922929</ele>
        <time>2015-05-06T13:17:36Z</time>
      </trkpt>
      <trkpt lat="45.46445" lon="5.86438">
        <ele>1173.564420648</ele>
        <time>2015-05-06T13:17:41Z</time>
      </trkpt>
      <trkpt lat="45.46434" lon="5.86453">
        <ele>1172.267446129</ele>
        <time>2015-05-06T13:17:46Z</time>
      </trkpt>
      <trkpt lat="45.46426" lon="5.86466">
        <ele>1170.688509182</ele>
        <time>2015-05-06T13:17:51Z</time>
      </trkpt>
      <trkpt lat="45.46415" lon="5.86479">
        <ele>1168.994258325</ele>
        <time>2015-05-06T13:17:56Z</time>
      </trkpt>
      <trkpt lat="45.46406" lon="5.86491">
        <ele>1167.771783251</ele>
        <time>2015-05-06T13:18:01Z</time>
      </trkpt>
      <trkpt lat="45.46396" lon="5.86503">
        <ele>1166.699075916</ele>
        <time>2015-05-06T13:18:06Z</time>
      </trkpt>
      <trkpt lat="45.46384" lon="5.86516">
        <ele>1165.621488693</ele>
        <time>2015-05-06T13:18:11Z</time>
      </trkpt>
      <trkpt lat="45.46374" lon="5.86527">
        <ele>1164.828093126</ele>
        <time>2015-05-06T13:18:16Z</time>
      </trkpt>
      <trkpt lat="45.46366" lon="5.86539">
        <ele>1164.441828012</ele>
        <time>2015-05-06T13:18:21Z</time>
      </trkpt>
      <trkpt lat="45.46354" lon="5.8655">
        <ele>1164.143136741</ele>
        <time>2015-05-06T13:18:26Z</time>
      </trkpt>
      <trkpt lat="45.46342" lon="5.86557">
        <ele>1163.779815731</ele>
        <time>2015-05-06T13:18:31Z</time>
      </trkpt>
      <trkpt lat="45.46336" lon="5.86565">
        <ele>1163.779815731</ele>
        <time>2015-05-06T13:18:36Z</time>
      </trkpt>
      <trkpt lat="45.46321" lon="5.86577">
        <ele>1163.211039206</ele>
        <time>2015-05-06T13:18:41Z</time>
      </trkpt>
      <trkpt lat="45.46309" lon="5.86586">
        <ele>1162.595143387</ele>
        <time>2015-05-06T13:18:46Z</time>
      </trkpt>
      <trkpt lat="45.46297" lon="5.86593">
        <ele>1161.502540081</ele>
        <time>2015-05-06T13:18:51Z</time>
      </trkpt>
      <trkpt lat="45.46285" lon="5.86603">
        <ele>1159.968887443</ele>
        <time>2015-05-06T13:18:56Z</time>
      </trkpt>
      <trkpt lat="45.46272" lon="5.86613">
        <ele>1158.028475989</ele>
        <time>2015-05-06T13:19:01Z</time>
      </trkpt>
      <trkpt lat="45.46259" lon="5.8662">
        <ele>1156.290671931</ele>
        <time>2015-05-06T13:19:06Z</time>
      </trkpt>
      <trkpt lat="45.46247" lon="5.86624">
        <ele>1154.743066701</ele>
        <time>2015-05-06T13:19:11Z</time>
      </trkpt>
      <trkpt lat="45.46232" lon="5.86628">
        <ele>1153.373624772</ele>
        <time>2015-05-06T13:19:16Z</time>
      </trkpt>
      <trkpt lat="45.4622" lon="5.86629">
        <ele>1151.450127371</ele>
        <time>2015-05-06T13:19:21Z</time>
      </trkpt>
      <trkpt lat="45.46208" lon="5.86625">
        <ele>1149.592681272</ele>
        <time>2015-05-06T13:19:26Z</time>
      </trkpt>
      <trkpt lat="45.46196" lon="5.86623">
        <ele>1147.510964488</ele>
        <time>2015-05-06T13:19:31Z</time>
      </trkpt>
      <trkpt lat="45.46184" lon="5.86616">
        <ele>1145.801248242</ele>
        <time>2015-05-06T13:19:36Z</time>
      </trkpt>
      <trkpt lat="45.46171" lon="5.86613">
        <ele>1144.006144255</ele>
        <time>2015-05-06T13:19:41Z</time>
      </trkpt>
      <trkpt lat="45.46159" lon="5.86609">
        <ele>1142.278506683</ele>
        <time>2015-05-06T13:19:46Z</time>
      </trkpt>
      <trkpt lat="45.46146" lon="5.86603">
        <ele>1140.47150378</ele>
        <time>2015-05-06T13:19:51Z</time>
      </trkpt>
      <trkpt lat="45.46139" lon="5.86602">
        <ele>1140.47150378</ele>
        <time>2015-05-06T13:19:55Z</time>
      </trkpt>
      <trkpt lat="45.46131" lon="5.86601">
        <ele>1138.737485723</ele>
        <time>2015-05-06T13:20:00Z</time>
      </trkpt>
      <trkpt lat="45.46123" lon="5.866">
        <ele>1138.737485723</ele>
        <time>2015-05-06T13:20:06Z</time>
      </trkpt>
      <trkpt lat="45.46107" lon="5.86595">
        <ele>1137.505577227</ele>
        <time>2015-05-06T13:20:11Z</time>
      </trkpt>
      <trkpt lat="45.46095" lon="5.8659">
        <ele>1136.019028743</ele>
        <time>2015-05-06T13:20:16Z</time>
      </trkpt>
      <trkpt lat="45.46083" lon="5.86587">
        <ele>1134.153785727</ele>
        <time>2015-05-06T13:20:21Z</time>
      </trkpt>
      <trkpt lat="45.46071" lon="5.86583">
        <ele>1132.37235845</ele>
        <time>2015-05-06T13:20:26Z</time>
      </trkpt>
      <trkpt lat="45.46063" lon="5.86587">
        <ele>1132.37235845</ele>
        <time>2015-05-06T13:20:31Z</time>
      </trkpt>
      <trkpt lat="45.46051" lon="5.86592">
        <ele>1131.247102406</ele>
        <time>2015-05-06T13:20:36Z</time>
      </trkpt>
      <trkpt lat="45.46039" lon="5.866">
        <ele>1129.865320435</ele>
        <time>2015-05-06T13:20:41Z</time>
      </trkpt>
      <trkpt lat="45.46027" lon="5.86612">
        <ele>1128.679027304</ele>
        <time>2015-05-06T13:20:46Z</time>
      </trkpt>
      <trkpt lat="45.46016" lon="5.86623">
        <ele>1127.67409924</ele>
        <time>2015-05-06T13:20:51Z</time>
      </trkpt>
      <trkpt lat="45.46005" lon="5.86632">
        <ele>1126.404558848</ele>
        <time>2015-05-06T13:20:56Z</time>
      </trkpt>
      <trkpt lat="45.45994" lon="5.8664">
        <ele>1125.322553755</ele>
        <time>2015-05-06T13:21:01Z</time>
      </trkpt>
      <trkpt lat="45.45982" lon="5.86647">
        <ele>1124.270004402</ele>
        <time>2015-05-06T13:21:06Z</time>
      </trkpt>
      <trkpt lat="45.45977" lon="5.8665">
        <ele>1124.270004402</ele>
        <time>2015-05-06T13:21:11Z</time>
      </trkpt>
      <trkpt lat="45.45977" lon="5.86651">
        <ele>1124.270004402</ele>
        <time>2015-05-06T13:21:16Z</time>
      </trkpt>
      <trkpt lat="45.45977" lon="5.8665">
        <ele>1124.270004402</ele>
        <time>2015-05-06T13:21:21Z</time>
      </trkpt>
      <trkpt lat="45.45973" lon="5.86653">
        <ele>1123.964991007</ele>
        <time>2015-05-06T13:21:26Z</time>
      </trkpt>
      <trkpt lat="45.45966" lon="5.8666">
        <ele>1123.964991007</ele>
        <time>2015-05-06T13:21:31Z</time>
      </trkpt>
      <trkpt lat="45.45956" lon="5.86663">
        <ele>1124.061938198</ele>
        <time>2015-05-06T13:21:36Z</time>
      </trkpt>
      <trkpt lat="45.45944" lon="5.86668">
        <ele>1124.239506687</ele>
        <time>2015-05-06T13:21:41Z</time>
      </trkpt>
      <trkpt lat="45.45934" lon="5.86677">
        <ele>1124.632058656</ele>
        <time>2015-05-06T13:21:46Z</time>
      </trkpt>
      <trkpt lat="45.45924" lon="5.86686">
        <ele>1124.787038975</ele>
        <time>2015-05-06T13:21:51Z</time>
      </trkpt>
      <trkpt lat="45.45919" lon="5.86696">
        <ele>1124.787038975</ele>
        <time>2015-05-06T13:21:56Z</time>
      </trkpt>
      <trkpt lat="45.4591" lon="5.8671">
        <ele>1124.86226034</ele>
        <time>2015-05-06T13:22:01Z</time>
      </trkpt>
      <trkpt lat="45.45901" lon="5.86721">
        <ele>1125.004189423</ele>
        <time>2015-05-06T13:22:06Z</time>
      </trkpt>
      <trkpt lat="45.45892" lon="5.86727">
        <ele>1124.916045205</ele>
        <time>2015-05-06T13:22:11Z</time>
      </trkpt>
      <trkpt lat="45.45883" lon="5.86738">
        <ele>1124.467644067</ele>
        <time>2015-05-06T13:22:16Z</time>
      </trkpt>
      <trkpt lat="45.45873" lon="5.86743">
        <ele>1124.259977498</ele>
        <time>2015-05-06T13:22:21Z</time>
      </trkpt>
      <trkpt lat="45.45872" lon="5.86743">
        <ele>1124.259977498</ele>
        <time>2015-05-06T13:22:26Z</time>
      </trkpt>
      <trkpt lat="45.45872" lon="5.86743">
        <ele>1124.259977498</ele>
        <time>2015-05-06T13:22:30Z</time>
      </trkpt>
      <trkpt lat="45.45871" lon="5.86743">
        <ele>1124.259977498</ele>
        <time>2015-05-06T13:22:36Z</time>
      </trkpt>
      <trkpt lat="45.45866" lon="5.86752">
        <ele>1123.696373254</ele>
        <time>2015-05-06T13:22:41Z</time>
      </trkpt>
      <trkpt lat="45.45857" lon="5.86759">
        <ele>1123.5220419</ele>
        <time>2015-05-06T13:22:46Z</time>
      </trkpt>
      <trkpt lat="45.45852" lon="5.86768">
        <ele>1123.5220419</ele>
        <time>2015-05-06T13:22:51Z</time>
      </trkpt>
      <trkpt lat="45.45843" lon="5.86775">
        <ele>1122.552967874</ele>
        <time>2015-05-06T13:22:56Z</time>
      </trkpt>
      <trkpt lat="45.45837" lon="5.86779">
        <ele>1122.552967874</ele>
        <time>2015-05-06T13:23:01Z</time>
      </trkpt>
      <trkpt lat="45.45831" lon="5.86781">
        <ele>1121.279618569</ele>
        <time>2015-05-06T13:23:05Z</time>
      </trkpt>
      <trkpt lat="45.45823" lon="5.86782">
        <ele>1121.279618569</ele>
        <time>2015-05-06T13:23:10Z</time>
      </trkpt>
      <trkpt lat="45.45815" lon="5.86785">
        <ele>1119.292668692</ele>
        <time>2015-05-06T13:23:17Z</time>
      </trkpt>
      <trkpt lat="45.45806" lon="5.8679">
        <ele>1119.292668692</ele>
        <time>2015-05-06T13:23:21Z</time>
      </trkpt>
      <trkpt lat="45.458" lon="5.86797">
        <ele>1117.079574471</ele>
        <time>2015-05-06T13:23:27Z</time>
      </trkpt>
      <trkpt lat="45.45797" lon="5.86806">
        <ele>1117.079574471</ele>
        <time>2015-05-06T13:23:31Z</time>
      </trkpt>
      <trkpt lat="45.45793" lon="5.86812">
        <ele>1114.804430303</ele>
        <time>2015-05-06T13:23:37Z</time>
      </trkpt>
      <trkpt lat="45.45789" lon="5.86815">
        <ele>1114.804430303</ele>
        <time>2015-05-06T13:23:41Z</time>
      </trkpt>
      <trkpt lat="45.45785" lon="5.8682">
        <ele>1111.754805095</ele>
        <time>2015-05-06T13:23:47Z</time>
      </trkpt>
      <trkpt lat="45.4578" lon="5.86823">
        <ele>1111.754805095</ele>
        <time>2015-05-06T13:23:51Z</time>
      </trkpt>
      <trkpt lat="45.45776" lon="5.86824">
        <ele>1108.425671414</ele>
        <time>2015-05-06T13:23:57Z</time>
      </trkpt>
      <trkpt lat="45.45768" lon="5.86818">
        <ele>1104.699970998</ele>
        <time>2015-05-06T13:24:01Z</time>
      </trkpt>
      <trkpt lat="45.45763" lon="5.86812">
        <ele>1104.699970998</ele>
        <time>2015-05-06T13:24:07Z</time>
      </trkpt>
      <trkpt lat="45.45763" lon="5.86807">
        <ele>1100.614439558</ele>
        <time>2015-05-06T13:24:11Z</time>
      </trkpt>
      <trkpt lat="45.45767" lon="5.86798">
        <ele>1100.614439558</ele>
        <time>2015-05-06T13:24:17Z</time>
      </trkpt>
      <trkpt lat="45.45769" lon="5.86791">
        <ele>1096.780519822</ele>
        <time>2015-05-06T13:24:21Z</time>
      </trkpt>
      <trkpt lat="45.45772" lon="5.86783">
        <ele>1096.780519822</ele>
        <time>2015-05-06T13:24:27Z</time>
      </trkpt>
      <trkpt lat="45.45774" lon="5.86774">
        <ele>1092.899297172</ele>
        <time>2015-05-06T13:24:31Z</time>
      </trkpt>
      <trkpt lat="45.45771" lon="5.86769">
        <ele>1092.899297172</ele>
        <time>2015-05-06T13:24:37Z</time>
      </trkpt>
      <trkpt lat="45.45768" lon="5.86774">
        <ele>1092.899297172</ele>
        <time>2015-05-06T13:24:41Z</time>
      </trkpt>
      <trkpt lat="45.45757" lon="5.86782">
        <ele>1089.558528571</ele>
        <time>2015-05-06T13:24:47Z</time>
      </trkpt>
      <trkpt lat="45.45753" lon="5.86794">
        <ele>1086.436510074</ele>
        <time>2015-05-06T13:24:51Z</time>
      </trkpt>
      <trkpt lat="45.45743" lon="5.868">
        <ele>1083.090331056</ele>
        <time>2015-05-06T13:24:56Z</time>
      </trkpt>
      <trkpt lat="45.45734" lon="5.86801">
        <ele>1083.090331056</ele>
        <time>2015-05-06T13:25:02Z</time>
      </trkpt>
      <trkpt lat="45.45722" lon="5.86802">
        <ele>1078.966009041</ele>
        <time>2015-05-06T13:25:06Z</time>
      </trkpt>
      <trkpt lat="45.45711" lon="5.868">
        <ele>1074.993415641</ele>
        <time>2015-05-06T13:25:12Z</time>
      </trkpt>
      <trkpt lat="45.457" lon="5.86803">
        <ele>1071.168875919</ele>
        <time>2015-05-06T13:25:16Z</time>
      </trkpt>
      <trkpt lat="45.45691" lon="5.86809">
        <ele>1068.353081774</ele>
        <time>2015-05-06T13:25:22Z</time>
      </trkpt>
      <trkpt lat="45.45681" lon="5.86815">
        <ele>1066.043508269</ele>
        <time>2015-05-06T13:25:26Z</time>
      </trkpt>
      <trkpt lat="45.45675" lon="5.86822">
        <ele>1066.043508269</ele>
        <time>2015-05-06T13:25:32Z</time>
      </trkpt>
      <trkpt lat="45.45668" lon="5.86825">
        <ele>1063.196517761</ele>
        <time>2015-05-06T13:25:36Z</time>
      </trkpt>
      <trkpt lat="45.45662" lon="5.8683">
        <ele>1063.196517761</ele>
        <time>2015-05-06T13:25:42Z</time>
      </trkpt>
      <trkpt lat="45.45653" lon="5.86836">
        <ele>1060.575817159</ele>
        <time>2015-05-06T13:25:46Z</time>
      </trkpt>
      <trkpt lat="45.45645" lon="5.8684">
        <ele>1060.575817159</ele>
        <time>2015-05-06T13:25:52Z</time>
      </trkpt>
      <trkpt lat="45.45641" lon="5.86843">
        <ele>1058.023551215</ele>
        <time>2015-05-06T13:25:56Z</time>
      </trkpt>
      <trkpt lat="45.45638" lon="5.86846">
        <ele>1058.023551215</ele>
        <time>2015-05-06T13:26:02Z</time>
      </trkpt>
      <trkpt lat="45.45635" lon="5.86853">
        <ele>1056.113670298</ele>
        <time>2015-05-06T13:26:06Z</time>
      </trkpt>
      <trkpt lat="45.45638" lon="5.8686">
        <ele>1056.113670298</ele>
        <time>2015-05-06T13:26:11Z</time>
      </trkpt>
      <trkpt lat="45.45641" lon="5.86862">
        <ele>1053.934899859</ele>
        <time>2015-05-06T13:26:15Z</time>
      </trkpt>
      <trkpt lat="45.45643" lon="5.86862">
        <ele>1053.934899859</ele>
        <time>2015-05-06T13:26:21Z</time>
      </trkpt>
      <trkpt lat="45.45641" lon="5.86864">
        <ele>1053.934899859</ele>
        <time>2015-05-06T13:26:27Z</time>
      </trkpt>
      <trkpt lat="45.45636" lon="5.8687">
        <ele>1051.796408169</ele>
        <time>2015-05-06T13:26:31Z</time>
      </trkpt>
      <trkpt lat="45.4563" lon="5.86872">
        <ele>1051.796408169</ele>
        <time>2015-05-06T13:26:37Z</time>
      </trkpt>
      <trkpt lat="45.45626" lon="5.86879">
        <ele>1049.407958984</ele>
        <time>2015-05-06T13:26:41Z</time>
      </trkpt>
      <trkpt lat="45.45626" lon="5.86884">
        <ele>1049.407958984</ele>
        <time>2015-05-06T13:26:47Z</time>
      </trkpt>
      <trkpt lat="45.45629" lon="5.8689">
        <ele>1049.407958984</ele>
        <time>2015-05-06T13:26:51Z</time>
      </trkpt>
      <trkpt lat="45.45631" lon="5.86894">
        <ele>1046.93354259</ele>
        <time>2015-05-06T13:26:57Z</time>
      </trkpt>
      <trkpt lat="45.45633" lon="5.86897">
        <ele>1046.93354259</ele>
        <time>2015-05-06T13:27:01Z</time>
      </trkpt>
      <trkpt lat="45.45633" lon="5.86899">
        <ele>1046.93354259</ele>
        <time>2015-05-06T13:27:07Z</time>
      </trkpt>
      <trkpt lat="45.45632" lon="5.86911">
        <ele>1044.957555167</ele>
        <time>2015-05-06T13:27:11Z</time>
      </trkpt>
      <trkpt lat="45.45627" lon="5.86925">
        <ele>1042.722948686</ele>
        <time>2015-05-06T13:27:16Z</time>
      </trkpt>
      <trkpt lat="45.45626" lon="5.86943">
        <ele>1039.961235571</ele>
        <time>2015-05-06T13:27:22Z</time>
      </trkpt>
      <trkpt lat="45.45626" lon="5.8695">
        <ele>1039.961235571</ele>
        <time>2015-05-06T13:27:26Z</time>
      </trkpt>
      <trkpt lat="45.45622" lon="5.86958">
        <ele>1036.713245298</ele>
        <time>2015-05-06T13:27:32Z</time>
      </trkpt>
      <trkpt lat="45.4562" lon="5.86968">
        <ele>1036.713245298</ele>
        <time>2015-05-06T13:27:36Z</time>
      </trkpt>
      <trkpt lat="45.45618" lon="5.86979">
        <ele>1033.738623974</ele>
        <time>2015-05-06T13:27:42Z</time>
      </trkpt>
      <trkpt lat="45.45621" lon="5.86985">
        <ele>1033.738623974</ele>
        <time>2015-05-06T13:27:46Z</time>
      </trkpt>
      <trkpt lat="45.4562" lon="5.86987">
        <ele>1033.738623974</ele>
        <time>2015-05-06T13:27:51Z</time>
      </trkpt>
      <trkpt lat="45.4562" lon="5.86987">
        <ele>1033.738623974</ele>
        <time>2015-05-06T13:27:56Z</time>
      </trkpt>
      <trkpt lat="45.4562" lon="5.86987">
        <ele>1033.738623974</ele>
        <time>2015-05-06T13:28:01Z</time>
      </trkpt>
      <trkpt lat="45.4562" lon="5.86987">
        <ele>1033.738623974</ele>
        <time>2015-05-06T13:28:06Z</time>
      </trkpt>
      <trkpt lat="45.4562" lon="5.86987">
        <ele>1033.738623974</ele>
        <time>2015-05-06T13:28:11Z</time>
      </trkpt>
      <trkpt lat="45.45622" lon="5.8699">
        <ele>1031.163900585</ele>
        <time>2015-05-06T13:28:16Z</time>
      </trkpt>
      <trkpt lat="45.4563" lon="5.86994">
        <ele>1028.960975822</ele>
        <time>2015-05-06T13:28:21Z</time>
      </trkpt>
      <trkpt lat="45.45636" lon="5.86996">
        <ele>1028.960975822</ele>
        <time>2015-05-06T13:28:26Z</time>
      </trkpt>
      <trkpt lat="45.45643" lon="5.87002">
        <ele>1026.958563397</ele>
        <time>2015-05-06T13:28:31Z</time>
      </trkpt>
      <trkpt lat="45.45648" lon="5.87002">
        <ele>1026.958563397</ele>
        <time>2015-05-06T13:28:36Z</time>
      </trkpt>
      <trkpt lat="45.45654" lon="5.87003">
        <ele>1025.573751698</ele>
        <time>2015-05-06T13:28:41Z</time>
      </trkpt>
      <trkpt lat="45.45661" lon="5.87003">
        <ele>1025.573751698</ele>
        <time>2015-05-06T13:28:46Z</time>
      </trkpt>
      <trkpt lat="45.45667" lon="5.87009">
        <ele>1024.038286972</ele>
        <time>2015-05-06T13:28:51Z</time>
      </trkpt>
      <trkpt lat="45.45674" lon="5.87011">
        <ele>1024.038286972</ele>
        <time>2015-05-06T13:28:56Z</time>
      </trkpt>
      <trkpt lat="45.45679" lon="5.87017">
        <ele>1022.937704054</ele>
        <time>2015-05-06T13:29:01Z</time>
      </trkpt>
      <trkpt lat="45.45681" lon="5.8702">
        <ele>1022.937704054</ele>
        <time>2015-05-06T13:29:06Z</time>
      </trkpt>
      <trkpt lat="45.45686" lon="5.87027">
        <ele>1020.795688949</ele>
        <time>2015-05-06T13:29:11Z</time>
      </trkpt>
      <trkpt lat="45.45691" lon="5.87035">
        <ele>1020.795688949</ele>
        <time>2015-05-06T13:29:16Z</time>
      </trkpt>
      <trkpt lat="45.45695" lon="5.87037">
        <ele>1018.120693021</ele>
        <time>2015-05-06T13:29:20Z</time>
      </trkpt>
      <trkpt lat="45.45702" lon="5.8705">
        <ele>1015.241156532</ele>
        <time>2015-05-06T13:29:25Z</time>
      </trkpt>
      <trkpt lat="45.45697" lon="5.87065">
        <ele>1012.894259117</ele>
        <time>2015-05-06T13:29:32Z</time>
      </trkpt>
      <trkpt lat="45.45693" lon="5.87073">
        <ele>1012.894259117</ele>
        <time>2015-05-06T13:29:36Z</time>
      </trkpt>
      <trkpt lat="45.45681" lon="5.87084">
        <ele>1010.752716045</ele>
        <time>2015-05-06T13:29:42Z</time>
      </trkpt>
      <trkpt lat="45.45675" lon="5.87092">
        <ele>1010.752716045</ele>
        <time>2015-05-06T13:29:46Z</time>
      </trkpt>
      <trkpt lat="45.45673" lon="5.87098">
        <ele>1008.800894023</ele>
        <time>2015-05-06T13:29:52Z</time>
      </trkpt>
      <trkpt lat="45.45666" lon="5.87107">
        <ele>1006.447297274</ele>
        <time>2015-05-06T13:29:56Z</time>
      </trkpt>
      <trkpt lat="45.45657" lon="5.87123">
        <ele>1005.018424626</ele>
        <time>2015-05-06T13:30:02Z</time>
      </trkpt>
      <trkpt lat="45.45647" lon="5.87131">
        <ele>1003.579047023</ele>
        <time>2015-05-06T13:30:06Z</time>
      </trkpt>
      <trkpt lat="45.45636" lon="5.87135">
        <ele>1001.550872214</ele>
        <time>2015-05-06T13:30:12Z</time>
      </trkpt>
      <trkpt lat="45.45633" lon="5.87137">
        <ele>1001.550872214</ele>
        <time>2015-05-06T13:30:16Z</time>
      </trkpt>
      <trkpt lat="45.45628" lon="5.87143">
        <ele>999.84084269</ele>
        <time>2015-05-06T13:30:22Z</time>
      </trkpt>
      <trkpt lat="45.45623" lon="5.87144">
        <ele>999.84084269</ele>
        <time>2015-05-06T13:30:26Z</time>
      </trkpt>
      <trkpt lat="45.45619" lon="5.87151">
        <ele>997.7031584</ele>
        <time>2015-05-06T13:30:32Z</time>
      </trkpt>
      <trkpt lat="45.45613" lon="5.87152">
        <ele>997.7031584</ele>
        <time>2015-05-06T13:30:36Z</time>
      </trkpt>
      <trkpt lat="45.45601" lon="5.87153">
        <ele>995.456783611</ele>
        <time>2015-05-06T13:30:42Z</time>
      </trkpt>
      <trkpt lat="45.45592" lon="5.87156">
        <ele>993.829894243</ele>
        <time>2015-05-06T13:30:46Z</time>
      </trkpt>
      <trkpt lat="45.45582" lon="5.87159">
        <ele>992.919001392</ele>
        <time>2015-05-06T13:30:52Z</time>
      </trkpt>
      <trkpt lat="45.45571" lon="5.87159">
        <ele>992.090977209</ele>
        <time>2015-05-06T13:30:56Z</time>
      </trkpt>
      <trkpt lat="45.45564" lon="5.87163">
        <ele>992.090977209</ele>
        <time>2015-05-06T13:31:02Z</time>
      </trkpt>
      <trkpt lat="45.45557" lon="5.87168">
        <ele>991.91188438</ele>
        <time>2015-05-06T13:31:06Z</time>
      </trkpt>
      <trkpt lat="45.45546" lon="5.87165">
        <ele>991.751529569</ele>
        <time>2015-05-06T13:31:12Z</time>
      </trkpt>
      <trkpt lat="45.45536" lon="5.87174">
        <ele>991.170120717</ele>
        <time>2015-05-06T13:31:16Z</time>
      </trkpt>
      <trkpt lat="45.45528" lon="5.87182">
        <ele>990.626082344</ele>
        <time>2015-05-06T13:31:22Z</time>
      </trkpt>
      <trkpt lat="45.45524" lon="5.87194">
        <ele>989.967686661</ele>
        <time>2015-05-06T13:31:26Z</time>
      </trkpt>
      <trkpt lat="45.45509" lon="5.8719">
        <ele>988.622419899</ele>
        <time>2015-05-06T13:31:32Z</time>
      </trkpt>
      <trkpt lat="45.45498" lon="5.87195">
        <ele>987.070615951</ele>
        <time>2015-05-06T13:31:36Z</time>
      </trkpt>
      <trkpt lat="45.4549" lon="5.87193">
        <ele>987.070615951</ele>
        <time>2015-05-06T13:31:42Z</time>
      </trkpt>
      <trkpt lat="45.45474" lon="5.87195">
        <ele>984.749212346</ele>
        <time>2015-05-06T13:31:46Z</time>
      </trkpt>
      <trkpt lat="45.45471" lon="5.8721">
        <ele>982.147530937</ele>
        <time>2015-05-06T13:31:52Z</time>
      </trkpt>
      <trkpt lat="45.45468" lon="5.87224">
        <ele>979.575702534</ele>
        <time>2015-05-06T13:31:56Z</time>
      </trkpt>
      <trkpt lat="45.45455" lon="5.87227">
        <ele>976.888729684</ele>
        <time>2015-05-06T13:32:02Z</time>
      </trkpt>
      <trkpt lat="45.45448" lon="5.87233">
        <ele>976.888729684</ele>
        <time>2015-05-06T13:32:06Z</time>
      </trkpt>
      <trkpt lat="45.45441" lon="5.8724">
        <ele>974.384984759</ele>
        <time>2015-05-06T13:32:12Z</time>
      </trkpt>
      <trkpt lat="45.45425" lon="5.87235">
        <ele>972.340461615</ele>
        <time>2015-05-06T13:32:16Z</time>
      </trkpt>
      <trkpt lat="45.45412" lon="5.87235">
        <ele>970.00085972</ele>
        <time>2015-05-06T13:32:21Z</time>
      </trkpt>
      <trkpt lat="45.45407" lon="5.87232">
        <ele>970.00085972</ele>
        <time>2015-05-06T13:32:25Z</time>
      </trkpt>
      <trkpt lat="45.45401" lon="5.87236">
        <ele>967.244600906</ele>
        <time>2015-05-06T13:32:30Z</time>
      </trkpt>
      <trkpt lat="45.45394" lon="5.87241">
        <ele>967.244600906</ele>
        <time>2015-05-06T13:32:37Z</time>
      </trkpt>
      <trkpt lat="45.45391" lon="5.87243">
        <ele>964.104350344</ele>
        <time>2015-05-06T13:32:41Z</time>
      </trkpt>
      <trkpt lat="45.4538" lon="5.87242">
        <ele>960.467363003</ele>
        <time>2015-05-06T13:32:47Z</time>
      </trkpt>
      <trkpt lat="45.45373" lon="5.87239">
        <ele>960.467363003</ele>
        <time>2015-05-06T13:32:51Z</time>
      </trkpt>
      <trkpt lat="45.45368" lon="5.87244">
        <ele>956.518803635</ele>
        <time>2015-05-06T13:32:57Z</time>
      </trkpt>
      <trkpt lat="45.45358" lon="5.87248">
        <ele>952.431106995</ele>
        <time>2015-05-06T13:33:01Z</time>
      </trkpt>
      <trkpt lat="45.45351" lon="5.8726">
        <ele>949.084971359</ele>
        <time>2015-05-06T13:33:07Z</time>
      </trkpt>
      <trkpt lat="45.45344" lon="5.87269">
        <ele>946.429624446</ele>
        <time>2015-05-06T13:33:11Z</time>
      </trkpt>
      <trkpt lat="45.45333" lon="5.87282">
        <ele>944.127827139</ele>
        <time>2015-05-06T13:33:17Z</time>
      </trkpt>
      <trkpt lat="45.45325" lon="5.87291">
        <ele>942.730749447</ele>
        <time>2015-05-06T13:33:21Z</time>
      </trkpt>
      <trkpt lat="45.45314" lon="5.87299">
        <ele>941.737719391</ele>
        <time>2015-05-06T13:33:27Z</time>
      </trkpt>
      <trkpt lat="45.45304" lon="5.87309">
        <ele>939.386676795</ele>
        <time>2015-05-06T13:33:31Z</time>
      </trkpt>
      <trkpt lat="45.45295" lon="5.87317">
        <ele>935.922225931</ele>
        <time>2015-05-06T13:33:37Z</time>
      </trkpt>
      <trkpt lat="45.45289" lon="5.87326">
        <ele>935.922225931</ele>
        <time>2015-05-06T13:33:41Z</time>
      </trkpt>
      <trkpt lat="45.45281" lon="5.87335">
        <ele>931.862317733</ele>
        <time>2015-05-06T13:33:47Z</time>
      </trkpt>
      <trkpt lat="45.45275" lon="5.8734">
        <ele>931.862317733</ele>
        <time>2015-05-06T13:33:51Z</time>
      </trkpt>
      <trkpt lat="45.45272" lon="5.87339">
        <ele>928.409045957</ele>
        <time>2015-05-06T13:33:55Z</time>
      </trkpt>
      <trkpt lat="45.45271" lon="5.87338">
        <ele>928.409045957</ele>
        <time>2015-05-06T13:34:00Z</time>
      </trkpt>
      <trkpt lat="45.45272" lon="5.87337">
        <ele>928.409045957</ele>
        <time>2015-05-06T13:34:05Z</time>
      </trkpt>
      <trkpt lat="45.45272" lon="5.87337">
        <ele>928.409045957</ele>
        <time>2015-05-06T13:34:10Z</time>
      </trkpt>
      <trkpt lat="45.45272" lon="5.87337">
        <ele>928.409045957</ele>
        <time>2015-05-06T13:34:15Z</time>
      </trkpt>
      <trkpt lat="45.4527" lon="5.87338">
        <ele>928.409045957</ele>
        <time>2015-05-06T13:34:20Z</time>
      </trkpt>
      <trkpt lat="45.45272" lon="5.87336">
        <ele>928.409045957</ele>
        <time>2015-05-06T13:34:25Z</time>
      </trkpt>
      <trkpt lat="45.4527" lon="5.87336">
        <ele>928.409045957</ele>
        <time>2015-05-06T13:34:30Z</time>
      </trkpt>
      <trkpt lat="45.45269" lon="5.87336">
        <ele>928.409045957</ele>
        <time>2015-05-06T13:34:35Z</time>
      </trkpt>
      <trkpt lat="45.45268" lon="5.87336">
        <ele>925.809788398</ele>
        <time>2015-05-06T13:34:40Z</time>
      </trkpt>
      <trkpt lat="45.45268" lon="5.87336">
        <ele>925.809788398</ele>
        <time>2015-05-06T13:34:46Z</time>
      </trkpt>
      <trkpt lat="45.45268" lon="5.87337">
        <ele>925.809788398</ele>
        <time>2015-05-06T13:34:51Z</time>
      </trkpt>
      <trkpt lat="45.45263" lon="5.87341">
        <ele>925.809788398</ele>
        <time>2015-05-06T13:34:57Z</time>
      </trkpt>
      <trkpt lat="45.45252" lon="5.87354">
        <ele>922.994305282</ele>
        <time>2015-05-06T13:35:01Z</time>
      </trkpt>
      <trkpt lat="45.45242" lon="5.87368">
        <ele>920.700863952</ele>
        <time>2015-05-06T13:35:07Z</time>
      </trkpt>
      <trkpt lat="45.45233" lon="5.87378">
        <ele>918.60320378</ele>
        <time>2015-05-06T13:35:11Z</time>
      </trkpt>
      <trkpt lat="45.45212" lon="5.87378">
        <ele>916.254319799</ele>
        <time>2015-05-06T13:35:16Z</time>
      </trkpt>
      <trkpt lat="45.45224" lon="5.87389">
        <ele>913.961256211</ele>
        <time>2015-05-06T13:35:22Z</time>
      </trkpt>
      <trkpt lat="45.45222" lon="5.87394">
        <ele>913.961256211</ele>
        <time>2015-05-06T13:35:26Z</time>
      </trkpt>
      <trkpt lat="45.45218" lon="5.87399">
        <ele>911.720078254</ele>
        <time>2015-05-06T13:35:32Z</time>
      </trkpt>
      <trkpt lat="45.4521" lon="5.87411">
        <ele>909.382841802</ele>
        <time>2015-05-06T13:35:36Z</time>
      </trkpt>
      <trkpt lat="45.45207" lon="5.87418">
        <ele>909.382841802</ele>
        <time>2015-05-06T13:35:41Z</time>
      </trkpt>
      <trkpt lat="45.45201" lon="5.87425">
        <ele>907.96559203</ele>
        <time>2015-05-06T13:35:45Z</time>
      </trkpt>
      <trkpt lat="45.45188" lon="5.8743">
        <ele>906.533677913</ele>
        <time>2015-05-06T13:35:51Z</time>
      </trkpt>
      <trkpt lat="45.45181" lon="5.87443">
        <ele>905.374012888</ele>
        <time>2015-05-06T13:35:57Z</time>
      </trkpt>
      <trkpt lat="45.45174" lon="5.87453">
        <ele>904.463432094</ele>
        <time>2015-05-06T13:36:01Z</time>
      </trkpt>
      <trkpt lat="45.45166" lon="5.87468">
        <ele>903.203323242</ele>
        <time>2015-05-06T13:36:07Z</time>
      </trkpt>
      <trkpt lat="45.45166" lon="5.87482">
        <ele>901.616476554</ele>
        <time>2015-05-06T13:36:11Z</time>
      </trkpt>
      <trkpt lat="45.4517" lon="5.87494">
        <ele>899.724936057</ele>
        <time>2015-05-06T13:36:17Z</time>
      </trkpt>
      <trkpt lat="45.45172" lon="5.8751">
        <ele>897.982332008</ele>
        <time>2015-05-06T13:36:21Z</time>
      </trkpt>
      <trkpt lat="45.45178" lon="5.87526">
        <ele>896.232129962</ele>
        <time>2015-05-06T13:36:27Z</time>
      </trkpt>
      <trkpt lat="45.45182" lon="5.87545">
        <ele>894.329339406</ele>
        <time>2015-05-06T13:36:31Z</time>
      </trkpt>
      <trkpt lat="45.45186" lon="5.87562">
        <ele>892.428296721</ele>
        <time>2015-05-06T13:36:37Z</time>
      </trkpt>
      <trkpt lat="45.45191" lon="5.8758">
        <ele>890.816134731</ele>
        <time>2015-05-06T13:36:41Z</time>
      </trkpt>
      <trkpt lat="45.45192" lon="5.87598">
        <ele>889.325779505</ele>
        <time>2015-05-06T13:36:46Z</time>
      </trkpt>
      <trkpt lat="45.45193" lon="5.87619">
        <ele>887.513897822</ele>
        <time>2015-05-06T13:36:52Z</time>
      </trkpt>
      <trkpt lat="45.45199" lon="5.87637">
        <ele>885.835326269</ele>
        <time>2015-05-06T13:36:56Z</time>
      </trkpt>
      <trkpt lat="45.45197" lon="5.87655">
        <ele>884.422929514</ele>
        <time>2015-05-06T13:37:02Z</time>
      </trkpt>
      <trkpt lat="45.45197" lon="5.87674">
        <ele>882.822659226</ele>
        <time>2015-05-06T13:37:06Z</time>
      </trkpt>
      <trkpt lat="45.45198" lon="5.87693">
        <ele>881.623167574</ele>
        <time>2015-05-06T13:37:12Z</time>
      </trkpt>
      <trkpt lat="45.45201" lon="5.87711">
        <ele>880.215895049</ele>
        <time>2015-05-06T13:37:16Z</time>
      </trkpt>
      <trkpt lat="45.45203" lon="5.87728">
        <ele>878.758172199</ele>
        <time>2015-05-06T13:37:22Z</time>
      </trkpt>
      <trkpt lat="45.45201" lon="5.87748">
        <ele>877.251851967</ele>
        <time>2015-05-06T13:37:26Z</time>
      </trkpt>
      <trkpt lat="45.45203" lon="5.87767">
        <ele>875.554727586</ele>
        <time>2015-05-06T13:37:32Z</time>
      </trkpt>
      <trkpt lat="45.45208" lon="5.87783">
        <ele>873.823848272</ele>
        <time>2015-05-06T13:37:36Z</time>
      </trkpt>
      <trkpt lat="45.45213" lon="5.87798">
        <ele>872.493096088</ele>
        <time>2015-05-06T13:37:42Z</time>
      </trkpt>
      <trkpt lat="45.45224" lon="5.87809">
        <ele>871.242855182</ele>
        <time>2015-05-06T13:37:46Z</time>
      </trkpt>
      <trkpt lat="45.45232" lon="5.87826">
        <ele>869.920927751</ele>
        <time>2015-05-06T13:37:52Z</time>
      </trkpt>
      <trkpt lat="45.4524" lon="5.87838">
        <ele>869.107109544</ele>
        <time>2015-05-06T13:37:56Z</time>
      </trkpt>
      <trkpt lat="45.4525" lon="5.87852">
        <ele>868.904906482</ele>
        <time>2015-05-06T13:38:02Z</time>
      </trkpt>
      <trkpt lat="45.45259" lon="5.87867">
        <ele>868.976238325</ele>
        <time>2015-05-06T13:38:06Z</time>
      </trkpt>
      <trkpt lat="45.45265" lon="5.87882">
        <ele>868.863055703</ele>
        <time>2015-05-06T13:38:12Z</time>
      </trkpt>
      <trkpt lat="45.45272" lon="5.87897">
        <ele>869.006225591</ele>
        <time>2015-05-06T13:38:16Z</time>
      </trkpt>
      <trkpt lat="45.45277" lon="5.87916">
        <ele>869.669493268</ele>
        <time>2015-05-06T13:38:22Z</time>
      </trkpt>
      <trkpt lat="45.45282" lon="5.87935">
        <ele>870.663542809</ele>
        <time>2015-05-06T13:38:26Z</time>
      </trkpt>
      <trkpt lat="45.45282" lon="5.87953">
        <ele>871.235709909</ele>
        <time>2015-05-06T13:38:32Z</time>
      </trkpt>
      <trkpt lat="45.45283" lon="5.8797">
        <ele>871.554599383</ele>
        <time>2015-05-06T13:38:36Z</time>
      </trkpt>
      <trkpt lat="45.4528" lon="5.87987">
        <ele>871.633167764</ele>
        <time>2015-05-06T13:38:42Z</time>
      </trkpt>
      <trkpt lat="45.45279" lon="5.88005">
        <ele>871.628350233</ele>
        <time>2015-05-06T13:38:46Z</time>
      </trkpt>
      <trkpt lat="45.45278" lon="5.88023">
        <ele>871.541825751</ele>
        <time>2015-05-06T13:38:52Z</time>
      </trkpt>
      <trkpt lat="45.45279" lon="5.88039">
        <ele>871.519642248</ele>
        <time>2015-05-06T13:38:55Z</time>
      </trkpt>
      <trkpt lat="45.45275" lon="5.88061">
        <ele>871.264757882</ele>
        <time>2015-05-06T13:39:02Z</time>
      </trkpt>
      <trkpt lat="45.45275" lon="5.88069">
        <ele>871.264757882</ele>
        <time>2015-05-06T13:39:06Z</time>
      </trkpt>
      <trkpt lat="45.45274" lon="5.88076">
        <ele>870.79097881</ele>
        <time>2015-05-06T13:39:10Z</time>
      </trkpt>
      <trkpt lat="45.45274" lon="5.88084">
        <ele>870.79097881</ele>
        <time>2015-05-06T13:39:15Z</time>
      </trkpt>
      <trkpt lat="45.45275" lon="5.88094">
        <ele>870.255972828</ele>
        <time>2015-05-06T13:39:20Z</time>
      </trkpt>
      <trkpt lat="45.45277" lon="5.88102">
        <ele>870.255972828</ele>
        <time>2015-05-06T13:39:25Z</time>
      </trkpt>
      <trkpt lat="45.45281" lon="5.8811">
        <ele>869.662033643</ele>
        <time>2015-05-06T13:39:30Z</time>
      </trkpt>
      <trkpt lat="45.45282" lon="5.88115">
        <ele>869.662033643</ele>
        <time>2015-05-06T13:39:35Z</time>
      </trkpt>
      <trkpt lat="45.45282" lon="5.88115">
        <ele>869.662033643</ele>
        <time>2015-05-06T13:39:40Z</time>
      </trkpt>
      <trkpt lat="45.45281" lon="5.88115">
        <ele>869.662033643</ele>
        <time>2015-05-06T13:39:45Z</time>
      </trkpt>
      <trkpt lat="45.45274" lon="5.88113">
        <ele>868.867483533</ele>
        <time>2015-05-06T13:39:50Z</time>
      </trkpt>
      <trkpt lat="45.45268" lon="5.88109">
        <ele>868.867483533</ele>
        <time>2015-05-06T13:39:55Z</time>
      </trkpt>
      <trkpt lat="45.45264" lon="5.88105">
        <ele>868.174086188</ele>
        <time>2015-05-06T13:40:00Z</time>
      </trkpt>
      <trkpt lat="45.45262" lon="5.88108">
        <ele>868.174086188</ele>
        <time>2015-05-06T13:40:05Z</time>
      </trkpt>
      <trkpt lat="45.45259" lon="5.88116">
        <ele>868.174086188</ele>
        <time>2015-05-06T13:40:10Z</time>
      </trkpt>
      <trkpt lat="45.45258" lon="5.88123">
        <ele>867.717175167</ele>
        <time>2015-05-06T13:40:15Z</time>
      </trkpt>
      <trkpt lat="45.45249" lon="5.88124">
        <ele>867.045160892</ele>
        <time>2015-05-06T13:40:20Z</time>
      </trkpt>
      <trkpt lat="45.45246" lon="5.88129">
        <ele>867.045160892</ele>
        <time>2015-05-06T13:40:25Z</time>
      </trkpt>
      <trkpt lat="45.45242" lon="5.88127">
        <ele>867.045160892</ele>
        <time>2015-05-06T13:40:30Z</time>
      </trkpt>
      <trkpt lat="45.45244" lon="5.88134">
        <ele>865.884461967</ele>
        <time>2015-05-06T13:40:35Z</time>
      </trkpt>
      <trkpt lat="45.45246" lon="5.88141">
        <ele>865.884461967</ele>
        <time>2015-05-06T13:40:40Z</time>
      </trkpt>
      <trkpt lat="45.45245" lon="5.88146">
        <ele>865.884461967</ele>
        <time>2015-05-06T13:40:45Z</time>
      </trkpt>
      <trkpt lat="45.45247" lon="5.88152">
        <ele>863.694854239</ele>
        <time>2015-05-06T13:40:50Z</time>
      </trkpt>
      <trkpt lat="45.45254" lon="5.88162">
        <ele>861.275785419</ele>
        <time>2015-05-06T13:40:55Z</time>
      </trkpt>
      <trkpt lat="45.45261" lon="5.88173">
        <ele>859.224595595</ele>
        <time>2015-05-06T13:41:00Z</time>
      </trkpt>
      <trkpt lat="45.45267" lon="5.88182">
        <ele>859.224595595</ele>
        <time>2015-05-06T13:41:05Z</time>
      </trkpt>
      <trkpt lat="45.45273" lon="5.88201">
        <ele>856.508559867</ele>
        <time>2015-05-06T13:41:10Z</time>
      </trkpt>
      <trkpt lat="45.45278" lon="5.88218">
        <ele>854.19029128</ele>
        <time>2015-05-06T13:41:15Z</time>
      </trkpt>
      <trkpt lat="45.45277" lon="5.88231">
        <ele>852.100376107</ele>
        <time>2015-05-06T13:41:20Z</time>
      </trkpt>
      <trkpt lat="45.45276" lon="5.88248">
        <ele>849.648893843</ele>
        <time>2015-05-06T13:41:25Z</time>
      </trkpt>
      <trkpt lat="45.45277" lon="5.88265">
        <ele>847.154948607</ele>
        <time>2015-05-06T13:41:30Z</time>
      </trkpt>
      <trkpt lat="45.45274" lon="5.88281">
        <ele>844.626095232</ele>
        <time>2015-05-06T13:41:35Z</time>
      </trkpt>
      <trkpt lat="45.4527" lon="5.88296">
        <ele>843.078193974</ele>
        <time>2015-05-06T13:41:40Z</time>
      </trkpt>
      <trkpt lat="45.45264" lon="5.88312">
        <ele>841.864481512</ele>
        <time>2015-05-06T13:41:45Z</time>
      </trkpt>
      <trkpt lat="45.45259" lon="5.88326">
        <ele>841.105294487</ele>
        <time>2015-05-06T13:41:50Z</time>
      </trkpt>
      <trkpt lat="45.4525" lon="5.88338">
        <ele>840.334379526</ele>
        <time>2015-05-06T13:41:55Z</time>
      </trkpt>
      <trkpt lat="45.45238" lon="5.88346">
        <ele>839.696183253</ele>
        <time>2015-05-06T13:42:00Z</time>
      </trkpt>
      <trkpt lat="45.45236" lon="5.88357">
        <ele>839.696183253</ele>
        <time>2015-05-06T13:42:05Z</time>
      </trkpt>
      <trkpt lat="45.45236" lon="5.88364">
        <ele>839.324144782</ele>
        <time>2015-05-06T13:42:10Z</time>
      </trkpt>
      <trkpt lat="45.45241" lon="5.88365">
        <ele>839.324144782</ele>
        <time>2015-05-06T13:42:15Z</time>
      </trkpt>
      <trkpt lat="45.45241" lon="5.88362">
        <ele>839.324144782</ele>
        <time>2015-05-06T13:42:20Z</time>
      </trkpt>
      <trkpt lat="45.45244" lon="5.88361">
        <ele>839.773469949</ele>
        <time>2015-05-06T13:42:25Z</time>
      </trkpt>
      <trkpt lat="45.45244" lon="5.88361">
        <ele>839.773469949</ele>
        <time>2015-05-06T13:42:30Z</time>
      </trkpt>
      <trkpt lat="45.45245" lon="5.88361">
        <ele>839.773469949</ele>
        <time>2015-05-06T13:42:35Z</time>
      </trkpt>
      <trkpt lat="45.45244" lon="5.88361">
        <ele>839.773469949</ele>
        <time>2015-05-06T13:42:40Z</time>
      </trkpt>
      <trkpt lat="45.45244" lon="5.88361">
        <ele>839.773469949</ele>
        <time>2015-05-06T13:42:45Z</time>
      </trkpt>
      <trkpt lat="45.45244" lon="5.88361">
        <ele>839.773469949</ele>
        <time>2015-05-06T13:42:50Z</time>
      </trkpt>
      <trkpt lat="45.45243" lon="5.88387">
        <ele>849.187737262</ele>
        <time>2015-05-06T13:47:30Z</time>
      </trkpt>
      <trkpt lat="45.45242" lon="5.88396">
        <ele>849.187737262</ele>
        <time>2015-05-06T13:47:36Z</time>
      </trkpt>
      <trkpt lat="45.45237" lon="5.88402">
        <ele>853.440674929</ele>
        <time>2015-05-06T13:47:41Z</time>
      </trkpt>
      <trkpt lat="45.45239" lon="5.88417">
        <ele>857.385547282</ele>
        <time>2015-05-06T13:47:46Z</time>
      </trkpt>
      <trkpt lat="45.45246" lon="5.88428">
        <ele>862.186973376</ele>
        <time>2015-05-06T13:47:51Z</time>
      </trkpt>
      <trkpt lat="45.4524" lon="5.8844">
        <ele>867.223833174</ele>
        <time>2015-05-06T13:47:56Z</time>
      </trkpt>
      <trkpt lat="45.45237" lon="5.88451">
        <ele>867.223833174</ele>
        <time>2015-05-06T13:48:01Z</time>
      </trkpt>
      <trkpt lat="45.45244" lon="5.88464">
        <ele>871.268938288</ele>
        <time>2015-05-06T13:48:06Z</time>
      </trkpt>
      <trkpt lat="45.45252" lon="5.88477">
        <ele>875.321219837</ele>
        <time>2015-05-06T13:48:11Z</time>
      </trkpt>
      <trkpt lat="45.45247" lon="5.88485">
        <ele>875.321219837</ele>
        <time>2015-05-06T13:48:15Z</time>
      </trkpt>
      <trkpt lat="45.4524" lon="5.88495">
        <ele>878.856803449</ele>
        <time>2015-05-06T13:48:20Z</time>
      </trkpt>
      <trkpt lat="45.45233" lon="5.88502">
        <ele>878.856803449</ele>
        <time>2015-05-06T13:48:26Z</time>
      </trkpt>
      <trkpt lat="45.45227" lon="5.88503">
        <ele>881.491175477</ele>
        <time>2015-05-06T13:48:30Z</time>
      </trkpt>
      <trkpt lat="45.45219" lon="5.88508">
        <ele>881.491175477</ele>
        <time>2015-05-06T13:48:37Z</time>
      </trkpt>
      <trkpt lat="45.45215" lon="5.88513">
        <ele>884.580865322</ele>
        <time>2015-05-06T13:48:41Z</time>
      </trkpt>
      <trkpt lat="45.4521" lon="5.88516">
        <ele>884.580865322</ele>
        <time>2015-05-06T13:48:47Z</time>
      </trkpt>
      <trkpt lat="45.45203" lon="5.88521">
        <ele>887.056367329</ele>
        <time>2015-05-06T13:48:51Z</time>
      </trkpt>
      <trkpt lat="45.45197" lon="5.88527">
        <ele>887.056367329</ele>
        <time>2015-05-06T13:48:57Z</time>
      </trkpt>
      <trkpt lat="45.45191" lon="5.88535">
        <ele>889.31162231</ele>
        <time>2015-05-06T13:49:01Z</time>
      </trkpt>
      <trkpt lat="45.4519" lon="5.8854">
        <ele>889.31162231</ele>
        <time>2015-05-06T13:49:07Z</time>
      </trkpt>
      <trkpt lat="45.45185" lon="5.88548">
        <ele>891.561940991</ele>
        <time>2015-05-06T13:49:11Z</time>
      </trkpt>
      <trkpt lat="45.45182" lon="5.88554">
        <ele>891.561940991</ele>
        <time>2015-05-06T13:49:17Z</time>
      </trkpt>
      <trkpt lat="45.45179" lon="5.88564">
        <ele>892.84561347</ele>
        <time>2015-05-06T13:49:21Z</time>
      </trkpt>
      <trkpt lat="45.45178" lon="5.88571">
        <ele>892.84561347</ele>
        <time>2015-05-06T13:49:27Z</time>
      </trkpt>
      <trkpt lat="45.45173" lon="5.88577">
        <ele>894.292543826</ele>
        <time>2015-05-06T13:49:31Z</time>
      </trkpt>
      <trkpt lat="45.45166" lon="5.88581">
        <ele>894.292543826</ele>
        <time>2015-05-06T13:49:37Z</time>
      </trkpt>
      <trkpt lat="45.45161" lon="5.88586">
        <ele>895.598904302</ele>
        <time>2015-05-06T13:49:41Z</time>
      </trkpt>
      <trkpt lat="45.45157" lon="5.88582">
        <ele>895.598904302</ele>
        <time>2015-05-06T13:49:47Z</time>
      </trkpt>
      <trkpt lat="45.45155" lon="5.88592">
        <ele>896.161997657</ele>
        <time>2015-05-06T13:49:51Z</time>
      </trkpt>
      <trkpt lat="45.45153" lon="5.88611">
        <ele>897.22621203</ele>
        <time>2015-05-06T13:49:57Z</time>
      </trkpt>
      <trkpt lat="45.45149" lon="5.88614">
        <ele>897.22621203</ele>
        <time>2015-05-06T13:50:01Z</time>
      </trkpt>
      <trkpt lat="45.45146" lon="5.88615">
        <ele>897.22621203</ele>
        <time>2015-05-06T13:50:07Z</time>
      </trkpt>
      <trkpt lat="45.45143" lon="5.88625">
        <ele>897.805391145</ele>
        <time>2015-05-06T13:50:11Z</time>
      </trkpt>
      <trkpt lat="45.45139" lon="5.88627">
        <ele>897.805391145</ele>
        <time>2015-05-06T13:50:17Z</time>
      </trkpt>
      <trkpt lat="45.45139" lon="5.88635">
        <ele>897.976104674</ele>
        <time>2015-05-06T13:50:21Z</time>
      </trkpt>
      <trkpt lat="45.45136" lon="5.88636">
        <ele>897.976104674</ele>
        <time>2015-05-06T13:50:27Z</time>
      </trkpt>
      <trkpt lat="45.45131" lon="5.88643">
        <ele>899.193754441</ele>
        <time>2015-05-06T13:50:31Z</time>
      </trkpt>
      <trkpt lat="45.45128" lon="5.88643">
        <ele>899.193754441</ele>
        <time>2015-05-06T13:50:37Z</time>
      </trkpt>
      <trkpt lat="45.45129" lon="5.8865">
        <ele>899.193754441</ele>
        <time>2015-05-06T13:50:40Z</time>
      </trkpt>
      <trkpt lat="45.45126" lon="5.88656">
        <ele>901.499640746</ele>
        <time>2015-05-06T13:50:46Z</time>
      </trkpt>
      <trkpt lat="45.45123" lon="5.88668">
        <ele>901.499640746</ele>
        <time>2015-05-06T13:50:52Z</time>
      </trkpt>
      <trkpt lat="45.45125" lon="5.88677">
        <ele>903.874118795</ele>
        <time>2015-05-06T13:50:56Z</time>
      </trkpt>
      <trkpt lat="45.45127" lon="5.88685">
        <ele>903.874118795</ele>
        <time>2015-05-06T13:51:01Z</time>
      </trkpt>
      <trkpt lat="45.45126" lon="5.88691">
        <ele>906.458634751</ele>
        <time>2015-05-06T13:51:06Z</time>
      </trkpt>
      <trkpt lat="45.45124" lon="5.88696">
        <ele>906.458634751</ele>
        <time>2015-05-06T13:51:12Z</time>
      </trkpt>
      <trkpt lat="45.45128" lon="5.88708">
        <ele>908.501728823</ele>
        <time>2015-05-06T13:51:16Z</time>
      </trkpt>
      <trkpt lat="45.45126" lon="5.88715">
        <ele>908.501728823</ele>
        <time>2015-05-06T13:51:21Z</time>
      </trkpt>
      <trkpt lat="45.45121" lon="5.88722">
        <ele>909.916064497</ele>
        <time>2015-05-06T13:51:27Z</time>
      </trkpt>
      <trkpt lat="45.4512" lon="5.88726">
        <ele>909.916064497</ele>
        <time>2015-05-06T13:51:31Z</time>
      </trkpt>
      <trkpt lat="45.45119" lon="5.88732">
        <ele>909.916064497</ele>
        <time>2015-05-06T13:51:36Z</time>
      </trkpt>
      <trkpt lat="45.45116" lon="5.88738">
        <ele>911.761357205</ele>
        <time>2015-05-06T13:51:40Z</time>
      </trkpt>
      <trkpt lat="45.45111" lon="5.88746">
        <ele>911.761357205</ele>
        <time>2015-05-06T13:51:47Z</time>
      </trkpt>
      <trkpt lat="45.45114" lon="5.88757">
        <ele>913.7118285</ele>
        <time>2015-05-06T13:51:51Z</time>
      </trkpt>
      <trkpt lat="45.45115" lon="5.88764">
        <ele>913.7118285</ele>
        <time>2015-05-06T13:51:57Z</time>
      </trkpt>
      <trkpt lat="45.45109" lon="5.88769">
        <ele>916.4564728</ele>
        <time>2015-05-06T13:52:01Z</time>
      </trkpt>
      <trkpt lat="45.4511" lon="5.88776">
        <ele>916.4564728</ele>
        <time>2015-05-06T13:52:07Z</time>
      </trkpt>
      <trkpt lat="45.45104" lon="5.88783">
        <ele>919.645113684</ele>
        <time>2015-05-06T13:52:11Z</time>
      </trkpt>
      <trkpt lat="45.45103" lon="5.88786">
        <ele>919.645113684</ele>
        <time>2015-05-06T13:52:17Z</time>
      </trkpt>
      <trkpt lat="45.45101" lon="5.88785">
        <ele>919.645113684</ele>
        <time>2015-05-06T13:52:21Z</time>
      </trkpt>
      <trkpt lat="45.45102" lon="5.88785">
        <ele>919.645113684</ele>
        <time>2015-05-06T13:52:27Z</time>
      </trkpt>
      <trkpt lat="45.45102" lon="5.88785">
        <ele>919.645113684</ele>
        <time>2015-05-06T13:52:31Z</time>
      </trkpt>
      <trkpt lat="45.45101" lon="5.88803">
        <ele>922.405337726</ele>
        <time>2015-05-06T13:52:37Z</time>
      </trkpt>
      <trkpt lat="45.45101" lon="5.88817">
        <ele>924.906894384</ele>
        <time>2015-05-06T13:52:41Z</time>
      </trkpt>
      <trkpt lat="45.45102" lon="5.88833">
        <ele>926.750208439</ele>
        <time>2015-05-06T13:52:47Z</time>
      </trkpt>
      <trkpt lat="45.45107" lon="5.88852">
        <ele>928.39638807</ele>
        <time>2015-05-06T13:52:51Z</time>
      </trkpt>
      <trkpt lat="45.45094" lon="5.88858">
        <ele>930.276381426</ele>
        <time>2015-05-06T13:52:57Z</time>
      </trkpt>
      <trkpt lat="45.45091" lon="5.88866">
        <ele>930.276381426</ele>
        <time>2015-05-06T13:53:01Z</time>
      </trkpt>
      <trkpt lat="45.45085" lon="5.88875">
        <ele>931.955319624</ele>
        <time>2015-05-06T13:53:07Z</time>
      </trkpt>
      <trkpt lat="45.45082" lon="5.88884">
        <ele>931.955319624</ele>
        <time>2015-05-06T13:53:11Z</time>
      </trkpt>
      <trkpt lat="45.45079" lon="5.88891">
        <ele>933.587354916</ele>
        <time>2015-05-06T13:53:17Z</time>
      </trkpt>
      <trkpt lat="45.45074" lon="5.88898">
        <ele>933.587354916</ele>
        <time>2015-05-06T13:53:21Z</time>
      </trkpt>
      <trkpt lat="45.45069" lon="5.88902">
        <ele>935.602759275</ele>
        <time>2015-05-06T13:53:27Z</time>
      </trkpt>
      <trkpt lat="45.45064" lon="5.88902">
        <ele>935.602759275</ele>
        <time>2015-05-06T13:53:31Z</time>
      </trkpt>
      <trkpt lat="45.45062" lon="5.88906">
        <ele>937.696137808</ele>
        <time>2015-05-06T13:53:37Z</time>
      </trkpt>
      <trkpt lat="45.45053" lon="5.88919">
        <ele>940.152571993</ele>
        <time>2015-05-06T13:53:41Z</time>
      </trkpt>
      <trkpt lat="45.45047" lon="5.88922">
        <ele>940.152571993</ele>
        <time>2015-05-06T13:53:47Z</time>
      </trkpt>
      <trkpt lat="45.45046" lon="5.88933">
        <ele>942.518431626</ele>
        <time>2015-05-06T13:53:51Z</time>
      </trkpt>
      <trkpt lat="45.45044" lon="5.88946">
        <ele>942.518431626</ele>
        <time>2015-05-06T13:53:57Z</time>
      </trkpt>
      <trkpt lat="45.45043" lon="5.88954">
        <ele>944.800318641</ele>
        <time>2015-05-06T13:54:01Z</time>
      </trkpt>
      <trkpt lat="45.45041" lon="5.8896">
        <ele>944.800318641</ele>
        <time>2015-05-06T13:54:07Z</time>
      </trkpt>
      <trkpt lat="45.45032" lon="5.88963">
        <ele>947.444916911</ele>
        <time>2015-05-06T13:54:11Z</time>
      </trkpt>
      <trkpt lat="45.45026" lon="5.88968">
        <ele>947.444916911</ele>
        <time>2015-05-06T13:54:17Z</time>
      </trkpt>
      <trkpt lat="45.45019" lon="5.88975">
        <ele>949.69352719</ele>
        <time>2015-05-06T13:54:21Z</time>
      </trkpt>
      <trkpt lat="45.45012" lon="5.88982">
        <ele>952.017371488</ele>
        <time>2015-05-06T13:54:26Z</time>
      </trkpt>
      <trkpt lat="45.45004" lon="5.88982">
        <ele>952.017371488</ele>
        <time>2015-05-06T13:54:31Z</time>
      </trkpt>
      <trkpt lat="45.45003" lon="5.88993">
        <ele>954.264537217</ele>
        <time>2015-05-06T13:54:36Z</time>
      </trkpt>
      <trkpt lat="45.45002" lon="5.89">
        <ele>954.264537217</ele>
        <time>2015-05-06T13:54:40Z</time>
      </trkpt>
      <trkpt lat="45.45" lon="5.89011">
        <ele>955.993400473</ele>
        <time>2015-05-06T13:54:46Z</time>
      </trkpt>
      <trkpt lat="45.45" lon="5.89018">
        <ele>955.993400473</ele>
        <time>2015-05-06T13:54:52Z</time>
      </trkpt>
      <trkpt lat="45.44998" lon="5.89026">
        <ele>957.693333509</ele>
        <time>2015-05-06T13:54:56Z</time>
      </trkpt>
      <trkpt lat="45.44996" lon="5.89037">
        <ele>957.693333509</ele>
        <time>2015-05-06T13:55:02Z</time>
      </trkpt>
      <trkpt lat="45.44998" lon="5.89056">
        <ele>958.768983219</ele>
        <time>2015-05-06T13:55:06Z</time>
      </trkpt>
      <trkpt lat="45.44989" lon="5.89063">
        <ele>959.874503209</ele>
        <time>2015-05-06T13:55:12Z</time>
      </trkpt>
      <trkpt lat="45.44985" lon="5.89065">
        <ele>959.874503209</ele>
        <time>2015-05-06T13:55:16Z</time>
      </trkpt>
      <trkpt lat="45.44979" lon="5.89069">
        <ele>961.315972597</ele>
        <time>2015-05-06T13:55:22Z</time>
      </trkpt>
      <trkpt lat="45.44977" lon="5.89074">
        <ele>961.315972597</ele>
        <time>2015-05-06T13:55:26Z</time>
      </trkpt>
      <trkpt lat="45.44968" lon="5.89076">
        <ele>963.07303008</ele>
        <time>2015-05-06T13:55:32Z</time>
      </trkpt>
      <trkpt lat="45.44955" lon="5.89083">
        <ele>964.520904395</ele>
        <time>2015-05-06T13:55:36Z</time>
      </trkpt>
      <trkpt lat="45.44952" lon="5.8909">
        <ele>964.520904395</ele>
        <time>2015-05-06T13:55:40Z</time>
      </trkpt>
      <trkpt lat="45.44941" lon="5.891">
        <ele>965.38584177</ele>
        <time>2015-05-06T13:55:47Z</time>
      </trkpt>
      <trkpt lat="45.44939" lon="5.89113">
        <ele>966.774785566</ele>
        <time>2015-05-06T13:55:51Z</time>
      </trkpt>
      <trkpt lat="45.44937" lon="5.89128">
        <ele>968.198250228</ele>
        <time>2015-05-06T13:55:57Z</time>
      </trkpt>
      <trkpt lat="45.44936" lon="5.89139">
        <ele>968.198250228</ele>
        <time>2015-05-06T13:56:01Z</time>
      </trkpt>
      <trkpt lat="45.44937" lon="5.89151">
        <ele>969.356329001</ele>
        <time>2015-05-06T13:56:07Z</time>
      </trkpt>
      <trkpt lat="45.44935" lon="5.89164">
        <ele>970.574537657</ele>
        <time>2015-05-06T13:56:11Z</time>
      </trkpt>
      <trkpt lat="45.44934" lon="5.8917">
        <ele>970.574537657</ele>
        <time>2015-05-06T13:56:17Z</time>
      </trkpt>
      <trkpt lat="45.44934" lon="5.89184">
        <ele>972.001299203</ele>
        <time>2015-05-06T13:56:21Z</time>
      </trkpt>
      <trkpt lat="45.44934" lon="5.89193">
        <ele>972.001299203</ele>
        <time>2015-05-06T13:56:27Z</time>
      </trkpt>
      <trkpt lat="45.44928" lon="5.89201">
        <ele>974.070309431</ele>
        <time>2015-05-06T13:56:31Z</time>
      </trkpt>
      <trkpt lat="45.4492" lon="5.8921">
        <ele>975.538268359</ele>
        <time>2015-05-06T13:56:37Z</time>
      </trkpt>
      <trkpt lat="45.44923" lon="5.89219">
        <ele>975.538268359</ele>
        <time>2015-05-06T13:56:41Z</time>
      </trkpt>
      <trkpt lat="45.4492" lon="5.89227">
        <ele>977.496825298</ele>
        <time>2015-05-06T13:56:47Z</time>
      </trkpt>
      <trkpt lat="45.44914" lon="5.89234">
        <ele>977.496825298</ele>
        <time>2015-05-06T13:56:51Z</time>
      </trkpt>
      <trkpt lat="45.44915" lon="5.89237">
        <ele>979.165840342</ele>
        <time>2015-05-06T13:56:56Z</time>
      </trkpt>
      <trkpt lat="45.44914" lon="5.89237">
        <ele>979.165840342</ele>
        <time>2015-05-06T13:57:00Z</time>
      </trkpt>
      <trkpt lat="45.44914" lon="5.89237">
        <ele>979.165840342</ele>
        <time>2015-05-06T13:57:05Z</time>
      </trkpt>
      <trkpt lat="45.44901" lon="5.89253">
        <ele>980.422833262</ele>
        <time>2015-05-06T13:57:12Z</time>
      </trkpt>
      <trkpt lat="45.449" lon="5.89263">
        <ele>980.422833262</ele>
        <time>2015-05-06T13:57:16Z</time>
      </trkpt>
      <trkpt lat="45.44898" lon="5.8927">
        <ele>981.598994373</ele>
        <time>2015-05-06T13:57:22Z</time>
      </trkpt>
      <trkpt lat="45.44893" lon="5.89279">
        <ele>981.598994373</ele>
        <time>2015-05-06T13:57:26Z</time>
      </trkpt>
      <trkpt lat="45.44888" lon="5.8929">
        <ele>982.997947398</ele>
        <time>2015-05-06T13:57:32Z</time>
      </trkpt>
      <trkpt lat="45.44882" lon="5.89298">
        <ele>982.997947398</ele>
        <time>2015-05-06T13:57:36Z</time>
      </trkpt>
      <trkpt lat="45.44881" lon="5.89304">
        <ele>984.603886934</ele>
        <time>2015-05-06T13:57:40Z</time>
      </trkpt>
      <trkpt lat="45.44876" lon="5.89312">
        <ele>984.603886934</ele>
        <time>2015-05-06T13:57:45Z</time>
      </trkpt>
      <trkpt lat="45.44868" lon="5.89318">
        <ele>986.255299167</ele>
        <time>2015-05-06T13:57:51Z</time>
      </trkpt>
      <trkpt lat="45.4486" lon="5.89326">
        <ele>987.657589128</ele>
        <time>2015-05-06T13:57:57Z</time>
      </trkpt>
      <trkpt lat="45.44853" lon="5.89332">
        <ele>987.657589128</ele>
        <time>2015-05-06T13:58:01Z</time>
      </trkpt>
      <trkpt lat="45.44848" lon="5.89341">
        <ele>988.540648488</ele>
        <time>2015-05-06T13:58:07Z</time>
      </trkpt>
      <trkpt lat="45.44841" lon="5.89351">
        <ele>989.3855179</ele>
        <time>2015-05-06T13:58:11Z</time>
      </trkpt>
      <trkpt lat="45.44834" lon="5.8936">
        <ele>990.198363043</ele>
        <time>2015-05-06T13:58:17Z</time>
      </trkpt>
      <trkpt lat="45.44827" lon="5.89369">
        <ele>990.839643766</ele>
        <time>2015-05-06T13:58:21Z</time>
      </trkpt>
      <trkpt lat="45.44819" lon="5.89378">
        <ele>991.32617779</ele>
        <time>2015-05-06T13:58:27Z</time>
      </trkpt>
      <trkpt lat="45.44812" lon="5.89391">
        <ele>991.383977898</ele>
        <time>2015-05-06T13:58:31Z</time>
      </trkpt>
      <trkpt lat="45.44808" lon="5.894">
        <ele>991.383977898</ele>
        <time>2015-05-06T13:58:37Z</time>
      </trkpt>
      <trkpt lat="45.44799" lon="5.89413">
        <ele>991.629637637</ele>
        <time>2015-05-06T13:58:41Z</time>
      </trkpt>
      <trkpt lat="45.44795" lon="5.89426">
        <ele>992.197815459</ele>
        <time>2015-05-06T13:58:47Z</time>
      </trkpt>
      <trkpt lat="45.4479" lon="5.89438">
        <ele>992.634006299</ele>
        <time>2015-05-06T13:58:51Z</time>
      </trkpt>
      <trkpt lat="45.44787" lon="5.89447">
        <ele>992.634006299</ele>
        <time>2015-05-06T13:58:57Z</time>
      </trkpt>
      <trkpt lat="45.44784" lon="5.89458">
        <ele>993.529542373</ele>
        <time>2015-05-06T13:59:01Z</time>
      </trkpt>
      <trkpt lat="45.4478" lon="5.89465">
        <ele>993.529542373</ele>
        <time>2015-05-06T13:59:07Z</time>
      </trkpt>
      <trkpt lat="45.44775" lon="5.89475">
        <ele>994.708019901</ele>
        <time>2015-05-06T13:59:11Z</time>
      </trkpt>
      <trkpt lat="45.44771" lon="5.89483">
        <ele>994.708019901</ele>
        <time>2015-05-06T13:59:17Z</time>
      </trkpt>
      <trkpt lat="45.44769" lon="5.89492">
        <ele>996.438456532</ele>
        <time>2015-05-06T13:59:21Z</time>
      </trkpt>
      <trkpt lat="45.44766" lon="5.89502">
        <ele>996.438456532</ele>
        <time>2015-05-06T13:59:27Z</time>
      </trkpt>
      <trkpt lat="45.44762" lon="5.89513">
        <ele>998.246963602</ele>
        <time>2015-05-06T13:59:31Z</time>
      </trkpt>
      <trkpt lat="45.44758" lon="5.89521">
        <ele>998.246963602</ele>
        <time>2015-05-06T13:59:37Z</time>
      </trkpt>
      <trkpt lat="45.44752" lon="5.89526">
        <ele>1000.704291232</ele>
        <time>2015-05-06T13:59:41Z</time>
      </trkpt>
      <trkpt lat="45.44744" lon="5.89528">
        <ele>1000.704291232</ele>
        <time>2015-05-06T13:59:47Z</time>
      </trkpt>
      <trkpt lat="45.44739" lon="5.89533">
        <ele>1003.471784712</ele>
        <time>2015-05-06T13:59:51Z</time>
      </trkpt>
      <trkpt lat="45.44734" lon="5.8954">
        <ele>1003.471784712</ele>
        <time>2015-05-06T13:59:57Z</time>
      </trkpt>
      <trkpt lat="45.44728" lon="5.89546">
        <ele>1005.658229491</ele>
        <time>2015-05-06T14:00:01Z</time>
      </trkpt>
      <trkpt lat="45.44724" lon="5.89549">
        <ele>1005.658229491</ele>
        <time>2015-05-06T14:00:07Z</time>
      </trkpt>
      <trkpt lat="45.44718" lon="5.89557">
        <ele>1007.593116263</ele>
        <time>2015-05-06T14:00:11Z</time>
      </trkpt>
      <trkpt lat="45.44713" lon="5.89563">
        <ele>1007.593116263</ele>
        <time>2015-05-06T14:00:17Z</time>
      </trkpt>
      <trkpt lat="45.44707" lon="5.89568">
        <ele>1009.293867476</ele>
        <time>2015-05-06T14:00:21Z</time>
      </trkpt>
      <trkpt lat="45.44702" lon="5.89571">
        <ele>1009.293867476</ele>
        <time>2015-05-06T14:00:27Z</time>
      </trkpt>
      <trkpt lat="45.44701" lon="5.89571">
        <ele>1009.293867476</ele>
        <time>2015-05-06T14:00:31Z</time>
      </trkpt>
      <trkpt lat="45.44695" lon="5.89572">
        <ele>1010.921361363</ele>
        <time>2015-05-06T14:00:37Z</time>
      </trkpt>
      <trkpt lat="45.44689" lon="5.89575">
        <ele>1010.921361363</ele>
        <time>2015-05-06T14:00:41Z</time>
      </trkpt>
      <trkpt lat="45.44685" lon="5.89576">
        <ele>1013.057339351</ele>
        <time>2015-05-06T14:00:45Z</time>
      </trkpt>
      <trkpt lat="45.44683" lon="5.89579">
        <ele>1013.057339351</ele>
        <time>2015-05-06T14:00:50Z</time>
      </trkpt>
      <trkpt lat="45.44681" lon="5.89583">
        <ele>1013.057339351</ele>
        <time>2015-05-06T14:00:55Z</time>
      </trkpt>
      <trkpt lat="45.44676" lon="5.89588">
        <ele>1015.662647763</ele>
        <time>2015-05-06T14:01:00Z</time>
      </trkpt>
      <trkpt lat="45.4467" lon="5.8959">
        <ele>1015.662647763</ele>
        <time>2015-05-06T14:01:05Z</time>
      </trkpt>
      <trkpt lat="45.44662" lon="5.89591">
        <ele>1018.411281614</ele>
        <time>2015-05-06T14:01:11Z</time>
      </trkpt>
      <trkpt lat="45.44654" lon="5.89596">
        <ele>1018.411281614</ele>
        <time>2015-05-06T14:01:16Z</time>
      </trkpt>
      <trkpt lat="45.44648" lon="5.89601">
        <ele>1021.433321991</ele>
        <time>2015-05-06T14:01:21Z</time>
      </trkpt>
      <trkpt lat="45.44642" lon="5.89609">
        <ele>1021.433321991</ele>
        <time>2015-05-06T14:01:26Z</time>
      </trkpt>
      <trkpt lat="45.44637" lon="5.89622">
        <ele>1024.704320778</ele>
        <time>2015-05-06T14:01:31Z</time>
      </trkpt>
      <trkpt lat="45.44634" lon="5.89628">
        <ele>1024.704320778</ele>
        <time>2015-05-06T14:01:36Z</time>
      </trkpt>
      <trkpt lat="45.44623" lon="5.89636">
        <ele>1027.047169651</ele>
        <time>2015-05-06T14:01:41Z</time>
      </trkpt>
      <trkpt lat="45.44615" lon="5.8965">
        <ele>1029.537103474</ele>
        <time>2015-05-06T14:01:46Z</time>
      </trkpt>
      <trkpt lat="45.44612" lon="5.89657">
        <ele>1029.537103474</ele>
        <time>2015-05-06T14:01:51Z</time>
      </trkpt>
      <trkpt lat="45.44604" lon="5.89663">
        <ele>1032.016248061</ele>
        <time>2015-05-06T14:01:56Z</time>
      </trkpt>
      <trkpt lat="45.446" lon="5.89669">
        <ele>1032.016248061</ele>
        <time>2015-05-06T14:02:01Z</time>
      </trkpt>
      <trkpt lat="45.44593" lon="5.89676">
        <ele>1033.617190362</ele>
        <time>2015-05-06T14:02:06Z</time>
      </trkpt>
      <trkpt lat="45.44587" lon="5.89686">
        <ele>1033.617190362</ele>
        <time>2015-05-06T14:02:11Z</time>
      </trkpt>
      <trkpt lat="45.44579" lon="5.89696">
        <ele>1034.692651915</ele>
        <time>2015-05-06T14:02:16Z</time>
      </trkpt>
      <trkpt lat="45.44575" lon="5.89712">
        <ele>1035.859474811</ele>
        <time>2015-05-06T14:02:21Z</time>
      </trkpt>
      <trkpt lat="45.4457" lon="5.89724">
        <ele>1037.400467472</ele>
        <time>2015-05-06T14:02:26Z</time>
      </trkpt>
      <trkpt lat="45.44562" lon="5.89736">
        <ele>1038.711151313</ele>
        <time>2015-05-06T14:02:31Z</time>
      </trkpt>
      <trkpt lat="45.44555" lon="5.89748">
        <ele>1040.241866413</ele>
        <time>2015-05-06T14:02:36Z</time>
      </trkpt>
      <trkpt lat="45.44547" lon="5.89757">
        <ele>1041.8322651</ele>
        <time>2015-05-06T14:02:41Z</time>
      </trkpt>
      <trkpt lat="45.44539" lon="5.89768">
        <ele>1043.333648494</ele>
        <time>2015-05-06T14:02:46Z</time>
      </trkpt>
      <trkpt lat="45.44532" lon="5.89776">
        <ele>1043.333648494</ele>
        <time>2015-05-06T14:02:51Z</time>
      </trkpt>
      <trkpt lat="45.4452" lon="5.89782">
        <ele>1045.041221433</ele>
        <time>2015-05-06T14:02:56Z</time>
      </trkpt>
      <trkpt lat="45.44521" lon="5.89796">
        <ele>1046.795213329</ele>
        <time>2015-05-06T14:03:01Z</time>
      </trkpt>
      <trkpt lat="45.4451" lon="5.89805">
        <ele>1048.15907066</ele>
        <time>2015-05-06T14:03:06Z</time>
      </trkpt>
      <trkpt lat="45.44503" lon="5.89814">
        <ele>1049.450562792</ele>
        <time>2015-05-06T14:03:11Z</time>
      </trkpt>
      <trkpt lat="45.44496" lon="5.89826">
        <ele>1050.675857498</ele>
        <time>2015-05-06T14:03:16Z</time>
      </trkpt>
      <trkpt lat="45.44492" lon="5.89842">
        <ele>1051.696666266</ele>
        <time>2015-05-06T14:03:21Z</time>
      </trkpt>
      <trkpt lat="45.44487" lon="5.89853">
        <ele>1052.962219603</ele>
        <time>2015-05-06T14:03:26Z</time>
      </trkpt>
      <trkpt lat="45.44479" lon="5.89861">
        <ele>1054.022880126</ele>
        <time>2015-05-06T14:03:30Z</time>
      </trkpt>
      <trkpt lat="45.44471" lon="5.89871">
        <ele>1054.895225784</ele>
        <time>2015-05-06T14:03:35Z</time>
      </trkpt>
      <trkpt lat="45.44467" lon="5.89882">
        <ele>1055.595131207</ele>
        <time>2015-05-06T14:03:41Z</time>
      </trkpt>
      <trkpt lat="45.44463" lon="5.89898">
        <ele>1056.281929676</ele>
        <time>2015-05-06T14:03:47Z</time>
      </trkpt>
      <trkpt lat="45.44457" lon="5.89912">
        <ele>1057.391545621</ele>
        <time>2015-05-06T14:03:51Z</time>
      </trkpt>
      <trkpt lat="45.44463" lon="5.89926">
        <ele>1058.173418875</ele>
        <time>2015-05-06T14:03:56Z</time>
      </trkpt>
      <trkpt lat="45.4446" lon="5.89939">
        <ele>1059.086271594</ele>
        <time>2015-05-06T14:04:01Z</time>
      </trkpt>
      <trkpt lat="45.44455" lon="5.89952">
        <ele>1060.122252132</ele>
        <time>2015-05-06T14:04:06Z</time>
      </trkpt>
      <trkpt lat="45.4445" lon="5.89965">
        <ele>1061.561976834</ele>
        <time>2015-05-06T14:04:10Z</time>
      </trkpt>
      <trkpt lat="45.44428" lon="5.89961">
        <ele>1062.655348468</ele>
        <time>2015-05-06T14:04:15Z</time>
      </trkpt>
      <trkpt lat="45.44434" lon="5.89981">
        <ele>1063.573136563</ele>
        <time>2015-05-06T14:04:21Z</time>
      </trkpt>
      <trkpt lat="45.44435" lon="5.90003">
        <ele>1064.329880675</ele>
        <time>2015-05-06T14:04:27Z</time>
      </trkpt>
      <trkpt lat="45.44432" lon="5.90018">
        <ele>1065.227703948</ele>
        <time>2015-05-06T14:04:31Z</time>
      </trkpt>
      <trkpt lat="45.44426" lon="5.90031">
        <ele>1065.681370225</ele>
        <time>2015-05-06T14:04:36Z</time>
      </trkpt>
      <trkpt lat="45.44424" lon="5.90046">
        <ele>1066.591032312</ele>
        <time>2015-05-06T14:04:41Z</time>
      </trkpt>
      <trkpt lat="45.44424" lon="5.90064">
        <ele>1067.348202973</ele>
        <time>2015-05-06T14:04:46Z</time>
      </trkpt>
      <trkpt lat="45.44429" lon="5.9008">
        <ele>1067.82183697</ele>
        <time>2015-05-06T14:04:51Z</time>
      </trkpt>
      <trkpt lat="45.44427" lon="5.90094">
        <ele>1068.035373685</ele>
        <time>2015-05-06T14:04:57Z</time>
      </trkpt>
      <trkpt lat="45.44421" lon="5.9011">
        <ele>1068.155315177</ele>
        <time>2015-05-06T14:05:01Z</time>
      </trkpt>
      <trkpt lat="45.44417" lon="5.90125">
        <ele>1068.047905638</ele>
        <time>2015-05-06T14:05:07Z</time>
      </trkpt>
      <trkpt lat="45.4442" lon="5.90142">
        <ele>1068.022123992</ele>
        <time>2015-05-06T14:05:11Z</time>
      </trkpt>
      <trkpt lat="45.44418" lon="5.90159">
        <ele>1067.643385619</ele>
        <time>2015-05-06T14:05:17Z</time>
      </trkpt>
      <trkpt lat="45.44419" lon="5.90177">
        <ele>1067.086390303</ele>
        <time>2015-05-06T14:05:21Z</time>
      </trkpt>
      <trkpt lat="45.44424" lon="5.90195">
        <ele>1066.369303431</ele>
        <time>2015-05-06T14:05:27Z</time>
      </trkpt>
      <trkpt lat="45.44418" lon="5.90204">
        <ele>1066.369303431</ele>
        <time>2015-05-06T14:05:31Z</time>
      </trkpt>
      <trkpt lat="45.44417" lon="5.90204">
        <ele>1066.373987765</ele>
        <time>2015-05-06T14:05:36Z</time>
      </trkpt>
    </trkseg>
  </trk>
</gpx>